<?xml version='1.0' encoding='UTF-8'?><gpx version="1.1" creator="JPX - https://github.com/jenetics/jpx" xmlns="http://www.topografix.com/GPX/1/1"><trk><trkseg><trkpt lat="45.506925272325304" lon="8.207335906429352"><ele>209.00000000000003</ele><time>2026-04-25T15:11:12.002Z</time></trkpt><trkpt lat="45.5068350783695" lon="8.207368336255682"><ele>209.0</ele><time>2026-04-25T15:11:26.002Z</time></trkpt><trkpt lat="45.506873608626805" lon="8.207448391735866"><ele>209.0</ele><time>2026-04-25T15:11:28.002Z</time></trkpt><trkpt lat="45.50689054484443" lon="8.20756578032772"><ele>209.0</ele><time>2026-04-25T15:11:31.002Z</time></trkpt><trkpt lat="45.506828141551026" lon="8.20765144994422"><ele>209.00000000000003</ele><time>2026-04-25T15:11:42.003Z</time></trkpt><trkpt lat="45.506734855713844" lon="8.207672426461986"><ele>209.0</ele><time>2026-04-25T15:11:44.003Z</time></trkpt><trkpt lat="45.506597110373505" lon="8.207682873403325"><ele>209.00000000000003</ele><time>2026-04-25T15:11:46.003Z</time></trkpt><trkpt lat="45.506506784836446" lon="8.207703772669696"><ele>209.0</ele><time>2026-04-25T15:11:47.003Z</time></trkpt><trkpt lat="45.50643846229427" lon="8.207738145687289"><ele>209.0</ele><time>2026-04-25T15:11:48.003Z</time></trkpt><trkpt lat="45.50635732893404" lon="8.207767343293112"><ele>209.0</ele><time>2026-04-25T15:11:49.003Z</time></trkpt><trkpt lat="45.506279234058645" lon="8.207796234215598"><ele>209.00000000000003</ele><time>2026-04-25T15:11:50.003Z</time></trkpt><trkpt lat="45.50619486298959" lon="8.207824658487889"><ele>209.0</ele><time>2026-04-25T15:11:51.003Z</time></trkpt><trkpt lat="45.506107441044975" lon="8.207841032342177"><ele>209.16666666666669</ele><time>2026-04-25T15:11:52.003Z</time></trkpt><trkpt lat="45.50603859586437" lon="8.207881478099148"><ele>209.33333333333334</ele><time>2026-04-25T15:11:53.003Z</time></trkpt><trkpt lat="45.50595991205026" lon="8.207930524674262"><ele>209.5</ele><time>2026-04-25T15:11:54.003Z</time></trkpt><trkpt lat="45.50588286891973" lon="8.207971634309812"><ele>209.66666666666669</ele><time>2026-04-25T15:11:55.003Z</time></trkpt><trkpt lat="45.50581162963978" lon="8.208007914046439"><ele>209.83333333333334</ele><time>2026-04-25T15:11:56.003Z</time></trkpt><trkpt lat="45.505708325273915" lon="8.208043033506598"><ele>210.0</ele><time>2026-04-25T15:11:58.003Z</time></trkpt><trkpt lat="45.50563360884438" lon="8.207948104486418"><ele>210.0</ele><time>2026-04-25T15:12:00.003Z</time></trkpt><trkpt lat="45.505616446146696" lon="8.20784878122265"><ele>210.0</ele><time>2026-04-25T15:12:01.003Z</time></trkpt><trkpt lat="45.50561067035537" lon="8.207750196800129"><ele>210.0</ele><time>2026-04-25T15:12:02.003Z</time></trkpt><trkpt lat="45.505596300125355" lon="8.207646269550581"><ele>210.0</ele><time>2026-04-25T15:12:03.003Z</time></trkpt><trkpt lat="45.5055836732536" lon="8.207541004913539"><ele>210.0</ele><time>2026-04-25T15:12:04.003Z</time></trkpt><trkpt lat="45.50556910838969" lon="8.207431683762577"><ele>210.0</ele><time>2026-04-25T15:12:05.003Z</time></trkpt><trkpt lat="45.50554017677886" lon="8.207318028378602"><ele>211.66666666666666</ele><time>2026-04-25T15:12:06.003Z</time></trkpt><trkpt lat="45.50552491323635" lon="8.207193558743244"><ele>213.33333333333331</ele><time>2026-04-25T15:12:07.003Z</time></trkpt><trkpt lat="45.50552517245503" lon="8.207065538157403"><ele>215.0</ele><time>2026-04-25T15:12:08.003Z</time></trkpt><trkpt lat="45.50553936915952" lon="8.20695819363133"><ele>216.66666666666666</ele><time>2026-04-25T15:12:09.003Z</time></trkpt><trkpt lat="45.50556671258687" lon="8.206869744698775"><ele>218.33333333333331</ele><time>2026-04-25T15:12:10.003Z</time></trkpt><trkpt lat="45.50558866752404" lon="8.206757903156594"><ele>220.0</ele><time>2026-04-25T15:12:11.003Z</time></trkpt><trkpt lat="45.50559937535014" lon="8.206648599132722"><ele>219.99999999999997</ele><time>2026-04-25T15:12:12.003Z</time></trkpt><trkpt lat="45.50558567173861" lon="8.206532457991463"><ele>220.0</ele><time>2026-04-25T15:12:13.003Z</time></trkpt><trkpt lat="45.505553212924966" lon="8.206421416263652"><ele>220.0</ele><time>2026-04-25T15:12:14.003Z</time></trkpt><trkpt lat="45.505517383371036" lon="8.206304250933389"><ele>220.0</ele><time>2026-04-25T15:12:15.003Z</time></trkpt><trkpt lat="45.50547267677111" lon="8.206187393785306"><ele>219.99999999999997</ele><time>2026-04-25T15:12:16.003Z</time></trkpt><trkpt lat="45.50543245832372" lon="8.206063135530796"><ele>220.0</ele><time>2026-04-25T15:12:17.003Z</time></trkpt><trkpt lat="45.50538745195137" lon="8.205939092954925"><ele>220.2</ele><time>2026-04-25T15:12:18.003Z</time></trkpt><trkpt lat="45.505340151008035" lon="8.205809352719813"><ele>220.4</ele><time>2026-04-25T15:12:19.003Z</time></trkpt><trkpt lat="45.50529654017213" lon="8.205671049419673"><ele>220.60000000000002</ele><time>2026-04-25T15:12:20.003Z</time></trkpt><trkpt lat="45.50525208313296" lon="8.205536534106415"><ele>220.8</ele><time>2026-04-25T15:12:21.003Z</time></trkpt><trkpt lat="45.50520158574061" lon="8.205403445830227"><ele>221.0</ele><time>2026-04-25T15:12:22.003Z</time></trkpt><trkpt lat="45.50515388246236" lon="8.205277666110986"><ele>222.0</ele><time>2026-04-25T15:12:23.003Z</time></trkpt><trkpt lat="45.50511280490301" lon="8.205149619615296"><ele>223.00000000000003</ele><time>2026-04-25T15:12:24.003Z</time></trkpt><trkpt lat="45.505093052397974" lon="8.205002333947704"><ele>224.00000000000003</ele><time>2026-04-25T15:12:25.003Z</time></trkpt><trkpt lat="45.5050976840063" lon="8.204850821962488"><ele>225.0</ele><time>2026-04-25T15:12:26.003Z</time></trkpt><trkpt lat="45.505112632327304" lon="8.204696222125836"><ele>226.0</ele><time>2026-04-25T15:12:27.003Z</time></trkpt><trkpt lat="45.50514754917782" lon="8.204541711842944"><ele>226.25</ele><time>2026-04-25T15:12:28.003Z</time></trkpt><trkpt lat="45.50518695469429" lon="8.204379970533893"><ele>226.5</ele><time>2026-04-25T15:12:29.003Z</time></trkpt><trkpt lat="45.50522939838412" lon="8.20421593569221"><ele>226.75</ele><time>2026-04-25T15:12:30.003Z</time></trkpt><trkpt lat="45.50528122350507" lon="8.204053294449094"><ele>227.0</ele><time>2026-04-25T15:12:31.003Z</time></trkpt><trkpt lat="45.50535123699251" lon="8.203907298682813"><ele>231.75</ele><time>2026-04-25T15:12:32.003Z</time></trkpt><trkpt lat="45.50544445028779" lon="8.203789139638307"><ele>236.5</ele><time>2026-04-25T15:12:33.003Z</time></trkpt><trkpt lat="45.50554463632824" lon="8.203679955793632"><ele>241.25</ele><time>2026-04-25T15:12:34.004Z</time></trkpt><trkpt lat="45.50567603625867" lon="8.203592058184574"><ele>246.0</ele><time>2026-04-25T15:12:35.004Z</time></trkpt><trkpt lat="45.50577257940188" lon="8.203472821390298"><ele>246.0</ele><time>2026-04-25T15:12:36.004Z</time></trkpt><trkpt lat="45.50587069743029" lon="8.203354971607395"><ele>246.0</ele><time>2026-04-25T15:12:37.004Z</time></trkpt><trkpt lat="45.50597058798426" lon="8.203240676945107"><ele>246.0</ele><time>2026-04-25T15:12:38.004Z</time></trkpt><trkpt lat="45.506069537955185" lon="8.203120670994336"><ele>246.0</ele><time>2026-04-25T15:12:39.004Z</time></trkpt><trkpt lat="45.50616860515891" lon="8.203001167433476"><ele>246.25</ele><time>2026-04-25T15:12:40.004Z</time></trkpt><trkpt lat="45.506269091855856" lon="8.202875178739019"><ele>246.5</ele><time>2026-04-25T15:12:41.004Z</time></trkpt><trkpt lat="45.50637479298242" lon="8.202751231855899"><ele>246.75</ele><time>2026-04-25T15:12:42.004Z</time></trkpt><trkpt lat="45.5064861944743" lon="8.202624635707862"><ele>247.0</ele><time>2026-04-25T15:12:43.004Z</time></trkpt><trkpt lat="45.50659997356938" lon="8.202484077362156"><ele>247.0</ele><time>2026-04-25T15:12:44.004Z</time></trkpt><trkpt lat="45.506712283497606" lon="8.20235153595697"><ele>247.0</ele><time>2026-04-25T15:12:45.004Z</time></trkpt><trkpt lat="45.506812820572364" lon="8.202226636375922"><ele>247.0</ele><time>2026-04-25T15:12:46.004Z</time></trkpt><trkpt lat="45.50691412129283" lon="8.20210213738028"><ele>247.0</ele><time>2026-04-25T15:12:47.004Z</time></trkpt><trkpt lat="45.5070257394119" lon="8.20198143225013"><ele>247.66666666666666</ele><time>2026-04-25T15:12:48.004Z</time></trkpt><trkpt lat="45.50714435731569" lon="8.201854318204338"><ele>248.33333333333331</ele><time>2026-04-25T15:12:49.004Z</time></trkpt><trkpt lat="45.507258659063424" lon="8.201717199119054"><ele>249.0</ele><time>2026-04-25T15:12:50.004Z</time></trkpt><trkpt lat="45.5073787440353" lon="8.201570683001087"><ele>250.0</ele><time>2026-04-25T15:12:51.004Z</time></trkpt><trkpt lat="45.507499962598224" lon="8.201434995564618"><ele>251.0</ele><time>2026-04-25T15:12:52.004Z</time></trkpt><trkpt lat="45.50762673574963" lon="8.20128517441213"><ele>252.0</ele><time>2026-04-25T15:12:53.004Z</time></trkpt><trkpt lat="45.50775175173586" lon="8.20113132136022"><ele>252.0</ele><time>2026-04-25T15:12:54.004Z</time></trkpt><trkpt lat="45.507876676156506" lon="8.200972644463064"><ele>252.0</ele><time>2026-04-25T15:12:55.004Z</time></trkpt><trkpt lat="45.50800252237005" lon="8.200821250978688"><ele>252.0</ele><time>2026-04-25T15:12:56.004Z</time></trkpt><trkpt lat="45.508122314312274" lon="8.200682199991395"><ele>253.0</ele><time>2026-04-25T15:12:57.004Z</time></trkpt><trkpt lat="45.50823011718288" lon="8.200555014740118"><ele>254.0</ele><time>2026-04-25T15:12:58.004Z</time></trkpt><trkpt lat="45.508337353549045" lon="8.20043213852533"><ele>255.0</ele><time>2026-04-25T15:12:59.004Z</time></trkpt><trkpt lat="45.50844064622975" lon="8.200310184779967"><ele>256.0</ele><time>2026-04-25T15:13:00.004Z</time></trkpt><trkpt lat="45.508538162242395" lon="8.200191105528223"><ele>256.0</ele><time>2026-04-25T15:13:01.004Z</time></trkpt><trkpt lat="45.50861801895638" lon="8.20006089582748"><ele>256.0</ele><time>2026-04-25T15:13:02.004Z</time></trkpt><trkpt lat="45.5086734807779" lon="8.199905598874816"><ele>256.0</ele><time>2026-04-25T15:13:03.004Z</time></trkpt><trkpt lat="45.508701449086274" lon="8.199714340096572"><ele>256.0</ele><time>2026-04-25T15:13:04.004Z</time></trkpt><trkpt lat="45.50871018585517" lon="8.199500418808611"><ele>256.3333333333333</ele><time>2026-04-25T15:13:05.004Z</time></trkpt><trkpt lat="45.50872310955256" lon="8.199269652397033"><ele>256.6666666666667</ele><time>2026-04-25T15:13:06.004Z</time></trkpt><trkpt lat="45.50871313999783" lon="8.199021308838457"><ele>257.0</ele><time>2026-04-25T15:13:07.004Z</time></trkpt><trkpt lat="45.50870391424889" lon="8.198791493499803"><ele>257.5</ele><time>2026-04-25T15:13:08.004Z</time></trkpt><trkpt lat="45.508698062882864" lon="8.198571462101173"><ele>258.0</ele><time>2026-04-25T15:13:09.004Z</time></trkpt><trkpt lat="45.50869882864687" lon="8.19837944359129"><ele>258.5</ele><time>2026-04-25T15:13:10.004Z</time></trkpt><trkpt lat="45.50872445220364" lon="8.198212362433228"><ele>259.0</ele><time>2026-04-25T15:13:11.004Z</time></trkpt><trkpt lat="45.50877624978846" lon="8.198055265388923"><ele>259.5</ele><time>2026-04-25T15:13:12.004Z</time></trkpt><trkpt lat="45.50886157571557" lon="8.197922172356241"><ele>260.0</ele><time>2026-04-25T15:13:13.004Z</time></trkpt><trkpt lat="45.50895738763877" lon="8.197761366586915"><ele>260.5</ele><time>2026-04-25T15:13:14.004Z</time></trkpt><trkpt lat="45.50905808963842" lon="8.197593897561669"><ele>261.0</ele><time>2026-04-25T15:13:15.004Z</time></trkpt><trkpt lat="45.50916112211566" lon="8.19742200613314"><ele>261.3333333333333</ele><time>2026-04-25T15:13:16.004Z</time></trkpt><trkpt lat="45.50926533261418" lon="8.197248149387168"><ele>261.66666666666663</ele><time>2026-04-25T15:13:17.004Z</time></trkpt><trkpt lat="45.509369538104565" lon="8.197074300995206"><ele>262.0</ele><time>2026-04-25T15:13:18.004Z</time></trkpt><trkpt lat="45.50947374158475" lon="8.196900455954461"><ele>262.0</ele><time>2026-04-25T15:13:19.004Z</time></trkpt><trkpt lat="45.50956045224234" lon="8.19671857469128"><ele>262.0</ele><time>2026-04-25T15:13:20.004Z</time></trkpt><trkpt lat="45.50965628185394" lon="8.19656234759652"><ele>262.0</ele><time>2026-04-25T15:13:21.004Z</time></trkpt><trkpt lat="45.50975089070908" lon="8.196404971727846"><ele>262.0</ele><time>2026-04-25T15:13:22.004Z</time></trkpt><trkpt lat="45.50984454448316" lon="8.196245893854586"><ele>262.0</ele><time>2026-04-25T15:13:23.004Z</time></trkpt><trkpt lat="45.50994598985194" lon="8.196081848795851"><ele>262.0</ele><time>2026-04-25T15:13:24.004Z</time></trkpt><trkpt lat="45.5100469559383" lon="8.195907201614707"><ele>262.0</ele><time>2026-04-25T15:13:25.004Z</time></trkpt><trkpt lat="45.510163996910194" lon="8.195745712159868"><ele>261.66666666666663</ele><time>2026-04-25T15:13:26.004Z</time></trkpt><trkpt lat="45.510268774534225" lon="8.195561650384487"><ele>261.3333333333333</ele><time>2026-04-25T15:13:27.004Z</time></trkpt><trkpt lat="45.51037760969617" lon="8.195375032992356"><ele>261.0</ele><time>2026-04-25T15:13:28.005Z</time></trkpt><trkpt lat="45.51048892397876" lon="8.195191255261378"><ele>261.0</ele><time>2026-04-25T15:13:29.005Z</time></trkpt><trkpt lat="45.51060107313415" lon="8.195005491313738"><ele>261.0</ele><time>2026-04-25T15:13:30.005Z</time></trkpt><trkpt lat="45.51071568398011" lon="8.194819506351621"><ele>261.0</ele><time>2026-04-25T15:13:31.005Z</time></trkpt><trkpt lat="45.51082888144153" lon="8.194622897166232"><ele>261.0</ele><time>2026-04-25T15:13:32.005Z</time></trkpt><trkpt lat="45.510944875582474" lon="8.194430204510262"><ele>261.0</ele><time>2026-04-25T15:13:33.005Z</time></trkpt><trkpt lat="45.51106083835782" lon="8.19423407554949"><ele>261.0</ele><time>2026-04-25T15:13:34.005Z</time></trkpt><trkpt lat="45.51117355562984" lon="8.194023205215032"><ele>261.6666666666667</ele><time>2026-04-25T15:13:35.005Z</time></trkpt><trkpt lat="45.51129276018097" lon="8.19382351485931"><ele>262.33333333333337</ele><time>2026-04-25T15:13:36.005Z</time></trkpt><trkpt lat="45.51141272838411" lon="8.193626240174684"><ele>263.0</ele><time>2026-04-25T15:13:37.005Z</time></trkpt><trkpt lat="45.51153077491983" lon="8.193424963499664"><ele>263.0</ele><time>2026-04-25T15:13:38.005Z</time></trkpt><trkpt lat="45.511648140350204" lon="8.193220363414119"><ele>263.0</ele><time>2026-04-25T15:13:39.005Z</time></trkpt><trkpt lat="45.51176139265156" lon="8.193025333125247"><ele>263.0</ele><time>2026-04-25T15:13:40.005Z</time></trkpt><trkpt lat="45.511869462018296" lon="8.192842844804535"><ele>263.0</ele><time>2026-04-25T15:13:41.005Z</time></trkpt><trkpt lat="45.51197433730228" lon="8.192669066181885"><ele>263.0</ele><time>2026-04-25T15:13:42.005Z</time></trkpt><trkpt lat="45.51208165937585" lon="8.192493389704227"><ele>263.0</ele><time>2026-04-25T15:13:43.005Z</time></trkpt><trkpt lat="45.51219384677912" lon="8.192314246246124"><ele>264.33333333333337</ele><time>2026-04-25T15:13:44.005Z</time></trkpt><trkpt lat="45.51231170601994" lon="8.192138392683807"><ele>265.6666666666667</ele><time>2026-04-25T15:13:45.005Z</time></trkpt><trkpt lat="45.512453225256955" lon="8.19198872062355"><ele>267.0</ele><time>2026-04-25T15:13:46.005Z</time></trkpt><trkpt lat="45.512585539565166" lon="8.191830872472067"><ele>267.0</ele><time>2026-04-25T15:13:47.005Z</time></trkpt><trkpt lat="45.512720753699135" lon="8.191669564883824"><ele>267.0</ele><time>2026-04-25T15:13:48.005Z</time></trkpt><trkpt lat="45.512858202076366" lon="8.191505591897577"><ele>267.0</ele><time>2026-04-25T15:13:49.005Z</time></trkpt><trkpt lat="45.5129960741745" lon="8.191341113418416"><ele>267.3333333333333</ele><time>2026-04-25T15:13:50.005Z</time></trkpt><trkpt lat="45.51312412563644" lon="8.191164709458684"><ele>267.66666666666663</ele><time>2026-04-25T15:13:51.005Z</time></trkpt><trkpt lat="45.51325926562019" lon="8.191008796124391"><ele>268.0</ele><time>2026-04-25T15:13:52.005Z</time></trkpt><trkpt lat="45.51339081153908" lon="8.190855043878578"><ele>268.0</ele><time>2026-04-25T15:13:53.005Z</time></trkpt><trkpt lat="45.51352233010203" lon="8.190709520072813"><ele>268.0</ele><time>2026-04-25T15:13:54.005Z</time></trkpt><trkpt lat="45.5136483461116" lon="8.190553470965986"><ele>268.0</ele><time>2026-04-25T15:13:55.005Z</time></trkpt><trkpt lat="45.5137737966431" lon="8.190387247834908"><ele>267.0</ele><time>2026-04-25T15:13:56.005Z</time></trkpt><trkpt lat="45.51388559772536" lon="8.190209635347978"><ele>266.0</ele><time>2026-04-25T15:13:57.005Z</time></trkpt><trkpt lat="45.51398161621072" lon="8.190014597730633"><ele>265.0</ele><time>2026-04-25T15:13:58.005Z</time></trkpt><trkpt lat="45.5140638696262" lon="8.189808595889723"><ele>265.0</ele><time>2026-04-25T15:13:59.005Z</time></trkpt><trkpt lat="45.51413886937544" lon="8.18959260438499"><ele>265.0</ele><time>2026-04-25T15:14:00.005Z</time></trkpt><trkpt lat="45.514216458092044" lon="8.189364181782034"><ele>265.0</ele><time>2026-04-25T15:14:01.005Z</time></trkpt><trkpt lat="45.51430431391306" lon="8.18914158743901"><ele>265.3333333333333</ele><time>2026-04-25T15:14:02.005Z</time></trkpt><trkpt lat="45.51438244039216" lon="8.188916975527922"><ele>265.6666666666667</ele><time>2026-04-25T15:14:03.005Z</time></trkpt><trkpt lat="45.514460730615276" lon="8.188694496556657"><ele>266.0</ele><time>2026-04-25T15:14:04.005Z</time></trkpt><trkpt lat="45.51454055988434" lon="8.188469421377343"><ele>265.33333333333337</ele><time>2026-04-25T15:14:05.005Z</time></trkpt><trkpt lat="45.51462145924431" lon="8.188244039260084"><ele>264.6666666666667</ele><time>2026-04-25T15:14:06.005Z</time></trkpt><trkpt lat="45.51470326388098" lon="8.188016206729536"><ele>264.0</ele><time>2026-04-25T15:14:07.005Z</time></trkpt><trkpt lat="45.514786934158124" lon="8.187786537453867"><ele>266.0</ele><time>2026-04-25T15:14:08.005Z</time></trkpt><trkpt lat="45.51485652663189" lon="8.187549798476423"><ele>268.0</ele><time>2026-04-25T15:14:09.005Z</time></trkpt><trkpt lat="45.514943060142166" lon="8.187325564446851"><ele>270.0</ele><time>2026-04-25T15:14:10.005Z</time></trkpt><trkpt lat="45.515026367204634" lon="8.18709482323362"><ele>270.6666666666667</ele><time>2026-04-25T15:14:11.005Z</time></trkpt><trkpt lat="45.51510846662754" lon="8.186865285519444"><ele>271.33333333333337</ele><time>2026-04-25T15:14:12.005Z</time></trkpt><trkpt lat="45.51519596711398" lon="8.186634469721714"><ele>272.0</ele><time>2026-04-25T15:14:13.005Z</time></trkpt><trkpt lat="45.51528067466033" lon="8.186402281932684"><ele>272.33333333333337</ele><time>2026-04-25T15:14:14.005Z</time></trkpt><trkpt lat="45.51536510180057" lon="8.186181784999786"><ele>272.6666666666667</ele><time>2026-04-25T15:14:15.005Z</time></trkpt><trkpt lat="45.51546017549309" lon="8.185977542439058"><ele>273.0</ele><time>2026-04-25T15:14:16.005Z</time></trkpt><trkpt lat="45.5155432783077" lon="8.185782069588566"><ele>273.0</ele><time>2026-04-25T15:14:17.005Z</time></trkpt><trkpt lat="45.51563265484026" lon="8.185621250169087"><ele>273.0</ele><time>2026-04-25T15:14:18.005Z</time></trkpt><trkpt lat="45.515736011055104" lon="8.185499378147957"><ele>273.0</ele><time>2026-04-25T15:14:19.005Z</time></trkpt><trkpt lat="45.515856272634906" lon="8.185404426734873"><ele>273.0</ele><time>2026-04-25T15:14:20.005Z</time></trkpt><trkpt lat="45.51598910861685" lon="8.1853692465633"><ele>273.0</ele><time>2026-04-25T15:14:21.006Z</time></trkpt><trkpt lat="45.516139578333245" lon="8.185359604324514"><ele>273.0</ele><time>2026-04-25T15:14:22.006Z</time></trkpt><trkpt lat="45.51630076462351" lon="8.185339328298781"><ele>273.0</ele><time>2026-04-25T15:14:23.006Z</time></trkpt><trkpt lat="45.51646728801683" lon="8.185350631203683"><ele>273.0</ele><time>2026-04-25T15:14:24.006Z</time></trkpt><trkpt lat="45.51663545817865" lon="8.18535852910456"><ele>273.0</ele><time>2026-04-25T15:14:25.006Z</time></trkpt><trkpt lat="45.51679979608219" lon="8.185368048642118"><ele>273.0</ele><time>2026-04-25T15:14:26.006Z</time></trkpt><trkpt lat="45.51695803690776" lon="8.185371539365017"><ele>273.0</ele><time>2026-04-25T15:14:27.006Z</time></trkpt><trkpt lat="45.51711148331687" lon="8.185376080870755"><ele>273.0</ele><time>2026-04-25T15:14:28.006Z</time></trkpt><trkpt lat="45.51726227070426" lon="8.185387727420498"><ele>273.0</ele><time>2026-04-25T15:14:29.006Z</time></trkpt><trkpt lat="45.517414330440026" lon="8.18539612985387"><ele>273.0</ele><time>2026-04-25T15:14:30.006Z</time></trkpt><trkpt lat="45.5175642318179" lon="8.185404214316762"><ele>273.0</ele><time>2026-04-25T15:14:31.006Z</time></trkpt><trkpt lat="45.51770786932597" lon="8.185408489422523"><ele>273.0</ele><time>2026-04-25T15:14:32.006Z</time></trkpt><trkpt lat="45.51784723994019" lon="8.185387229998039"><ele>273.0</ele><time>2026-04-25T15:14:33.006Z</time></trkpt><trkpt lat="45.51798179647432" lon="8.185338222322697"><ele>273.6666666666667</ele><time>2026-04-25T15:14:34.006Z</time></trkpt><trkpt lat="45.518112999246284" lon="8.185245054305296"><ele>274.33333333333337</ele><time>2026-04-25T15:14:35.006Z</time></trkpt><trkpt lat="45.51823508462705" lon="8.185117810224778"><ele>275.0</ele><time>2026-04-25T15:14:36.006Z</time></trkpt><trkpt lat="45.518363396140025" lon="8.184990760596197"><ele>275.0</ele><time>2026-04-25T15:14:37.006Z</time></trkpt><trkpt lat="45.51849087599723" lon="8.184873143636604"><ele>275.0</ele><time>2026-04-25T15:14:38.006Z</time></trkpt><trkpt lat="45.51862672422261" lon="8.184739663573845"><ele>275.0</ele><time>2026-04-25T15:14:39.006Z</time></trkpt><trkpt lat="45.5187622059404" lon="8.184605346613306"><ele>275.6666666666667</ele><time>2026-04-25T15:14:40.006Z</time></trkpt><trkpt lat="45.51890134936704" lon="8.184471212455408"><ele>276.3333333333333</ele><time>2026-04-25T15:14:41.006Z</time></trkpt><trkpt lat="45.519042584455526" lon="8.184332733651097"><ele>277.0</ele><time>2026-04-25T15:14:42.006Z</time></trkpt><trkpt lat="45.51918538031974" lon="8.184199910510149"><ele>277.0</ele><time>2026-04-25T15:14:43.006Z</time></trkpt><trkpt lat="45.519330116556375" lon="8.184062438115268"><ele>277.0</ele><time>2026-04-25T15:14:44.006Z</time></trkpt><trkpt lat="45.51947280583149" lon="8.18392697092361"><ele>277.0</ele><time>2026-04-25T15:14:45.006Z</time></trkpt><trkpt lat="45.51962435887104" lon="8.183781980157395"><ele>277.66666666666663</ele><time>2026-04-25T15:14:46.006Z</time></trkpt><trkpt lat="45.51977233600388" lon="8.183639927411795"><ele>278.3333333333333</ele><time>2026-04-25T15:14:47.006Z</time></trkpt><trkpt lat="45.51992169402062" lon="8.183497984416231"><ele>279.0</ele><time>2026-04-25T15:14:48.006Z</time></trkpt><trkpt lat="45.52007580460446" lon="8.183351062312553"><ele>279.0</ele><time>2026-04-25T15:14:49.006Z</time></trkpt><trkpt lat="45.520229474512035" lon="8.183206876091312"><ele>279.0</ele><time>2026-04-25T15:14:50.006Z</time></trkpt><trkpt lat="45.52037923216161" lon="8.183058762365746"><ele>279.0</ele><time>2026-04-25T15:14:51.006Z</time></trkpt><trkpt lat="45.52052024879906" lon="8.182923143348106"><ele>279.25</ele><time>2026-04-25T15:14:52.006Z</time></trkpt><trkpt lat="45.52065247246248" lon="8.182795377161993"><ele>279.5</ele><time>2026-04-25T15:14:53.006Z</time></trkpt><trkpt lat="45.52077495282207" lon="8.182679366376917"><ele>279.75</ele><time>2026-04-25T15:14:54.006Z</time></trkpt><trkpt lat="45.52089089248097" lon="8.182579927071245"><ele>280.0</ele><time>2026-04-25T15:14:55.006Z</time></trkpt><trkpt lat="45.52100642107464" lon="8.182505932535813"><ele>280.0</ele><time>2026-04-25T15:14:56.006Z</time></trkpt><trkpt lat="45.52112578561101" lon="8.182466357164396"><ele>280.0</ele><time>2026-04-25T15:14:57.006Z</time></trkpt><trkpt lat="45.52124724321465" lon="8.182468187034292"><ele>280.0</ele><time>2026-04-25T15:14:58.006Z</time></trkpt><trkpt lat="45.5213730976384" lon="8.182487043043045"><ele>280.0</ele><time>2026-04-25T15:14:59.006Z</time></trkpt><trkpt lat="45.521505106081754" lon="8.18251441948407"><ele>280.0</ele><time>2026-04-25T15:15:00.006Z</time></trkpt><trkpt lat="45.52164706806668" lon="8.182543215376466"><ele>280.0</ele><time>2026-04-25T15:15:01.006Z</time></trkpt><trkpt lat="45.52179749275395" lon="8.182560444382528"><ele>280.0</ele><time>2026-04-25T15:15:02.006Z</time></trkpt><trkpt lat="45.52194661678344" lon="8.182583452576491"><ele>280.0</ele><time>2026-04-25T15:15:03.006Z</time></trkpt><trkpt lat="45.522093579222314" lon="8.182604955282635"><ele>280.0</ele><time>2026-04-25T15:15:04.006Z</time></trkpt><trkpt lat="45.52223718673146" lon="8.182629019945928"><ele>280.0</ele><time>2026-04-25T15:15:05.006Z</time></trkpt><trkpt lat="45.5223807910115" lon="8.182653465227958"><ele>280.0</ele><time>2026-04-25T15:15:06.006Z</time></trkpt><trkpt lat="45.52252945304703" lon="8.182676798691919"><ele>280.0</ele><time>2026-04-25T15:15:07.006Z</time></trkpt><trkpt lat="45.5226809461258" lon="8.182696824089293"><ele>280.0</ele><time>2026-04-25T15:15:08.006Z</time></trkpt><trkpt lat="45.5228388030932" lon="8.18272326886453"><ele>280.0</ele><time>2026-04-25T15:15:09.006Z</time></trkpt><trkpt lat="45.52299921462868" lon="8.18274822212425"><ele>280.0</ele><time>2026-04-25T15:15:10.006Z</time></trkpt><trkpt lat="45.523153234236645" lon="8.182779460999884"><ele>280.5</ele><time>2026-04-25T15:15:11.006Z</time></trkpt><trkpt lat="45.52329995172576" lon="8.18281012522937"><ele>281.0</ele><time>2026-04-25T15:15:12.006Z</time></trkpt><trkpt lat="45.52344003061129" lon="8.1828331348642"><ele>281.5</ele><time>2026-04-25T15:15:13.006Z</time></trkpt><trkpt lat="45.52356894238522" lon="8.182831607063052"><ele>282.0</ele><time>2026-04-25T15:15:14.006Z</time></trkpt><trkpt lat="45.52368053712959" lon="8.182798098593656"><ele>282.5</ele><time>2026-04-25T15:15:15.007Z</time></trkpt><trkpt lat="45.52378286270194" lon="8.182727049088"><ele>283.0</ele><time>2026-04-25T15:15:16.007Z</time></trkpt><trkpt lat="45.523893747069316" lon="8.182656443280743"><ele>283.5</ele><time>2026-04-25T15:15:17.007Z</time></trkpt><trkpt lat="45.52401474041481" lon="8.182554134251113"><ele>284.0</ele><time>2026-04-25T15:15:18.007Z</time></trkpt><trkpt lat="45.52414247425311" lon="8.182450813502273"><ele>282.0</ele><time>2026-04-25T15:15:19.007Z</time></trkpt><trkpt lat="45.52427752052737" lon="8.182341945335846"><ele>280.0</ele><time>2026-04-25T15:15:20.007Z</time></trkpt><trkpt lat="45.52441184166271" lon="8.182233316977293"><ele>278.0</ele><time>2026-04-25T15:15:21.007Z</time></trkpt><trkpt lat="45.52454752863554" lon="8.182122783206635"><ele>281.0</ele><time>2026-04-25T15:15:22.007Z</time></trkpt><trkpt lat="45.524681251418365" lon="8.181987131608349"><ele>284.0</ele><time>2026-04-25T15:15:23.007Z</time></trkpt><trkpt lat="45.52482946830794" lon="8.181893184080105"><ele>287.0</ele><time>2026-04-25T15:15:24.007Z</time></trkpt><trkpt lat="45.524969376322964" lon="8.18177997521585"><ele>287.0</ele><time>2026-04-25T15:15:25.007Z</time></trkpt><trkpt lat="45.525102348908824" lon="8.181646559460484"><ele>287.0</ele><time>2026-04-25T15:15:26.007Z</time></trkpt><trkpt lat="45.52524944916674" lon="8.181553597929327"><ele>287.0</ele><time>2026-04-25T15:15:27.007Z</time></trkpt><trkpt lat="45.525392129277066" lon="8.181438889337208"><ele>287.33333333333337</ele><time>2026-04-25T15:15:28.007Z</time></trkpt><trkpt lat="45.52553833932163" lon="8.181321342839018"><ele>287.6666666666667</ele><time>2026-04-25T15:15:29.007Z</time></trkpt><trkpt lat="45.52568619679139" lon="8.181202471872675"><ele>288.0</ele><time>2026-04-25T15:15:30.007Z</time></trkpt><trkpt lat="45.52582720601705" lon="8.181088216222863"><ele>288.0</ele><time>2026-04-25T15:15:31.007Z</time></trkpt><trkpt lat="45.525966891259436" lon="8.180974877991307"><ele>288.0</ele><time>2026-04-25T15:15:32.007Z</time></trkpt><trkpt lat="45.52609724196032" lon="8.180870171121606"><ele>288.0</ele><time>2026-04-25T15:15:33.007Z</time></trkpt><trkpt lat="45.526223204043504" lon="8.180747167018525"><ele>286.0</ele><time>2026-04-25T15:15:34.007Z</time></trkpt><trkpt lat="45.526368861106555" lon="8.180659154055025"><ele>284.0</ele><time>2026-04-25T15:15:35.007Z</time></trkpt><trkpt lat="45.526518293621685" lon="8.180585818849753"><ele>282.0</ele><time>2026-04-25T15:15:36.007Z</time></trkpt><trkpt lat="45.52667720466539" lon="8.180523207066907"><ele>282.0</ele><time>2026-04-25T15:15:37.007Z</time></trkpt><trkpt lat="45.526840656803486" lon="8.180476311739397"><ele>282.0</ele><time>2026-04-25T15:15:38.007Z</time></trkpt><trkpt lat="45.527002581155564" lon="8.180427908550241"><ele>282.0</ele><time>2026-04-25T15:15:39.007Z</time></trkpt><trkpt lat="45.527160789933745" lon="8.180376099415732"><ele>283.75</ele><time>2026-04-25T15:15:40.007Z</time></trkpt><trkpt lat="45.52730862251356" lon="8.180328483416366"><ele>285.5</ele><time>2026-04-25T15:15:41.007Z</time></trkpt><trkpt lat="45.52744322582126" lon="8.180290533139155"><ele>287.25</ele><time>2026-04-25T15:15:42.007Z</time></trkpt><trkpt lat="45.52756440379856" lon="8.180247420819908"><ele>289.0</ele><time>2026-04-25T15:15:43.007Z</time></trkpt><trkpt lat="45.52767344998226" lon="8.180184863872093"><ele>289.0</ele><time>2026-04-25T15:15:44.007Z</time></trkpt><trkpt lat="45.52776134295432" lon="8.180095587910705"><ele>289.0</ele><time>2026-04-25T15:15:45.007Z</time></trkpt><trkpt lat="45.52784347073993" lon="8.179978794284473"><ele>289.0</ele><time>2026-04-25T15:15:46.007Z</time></trkpt><trkpt lat="45.52789942367946" lon="8.179811266885109"><ele>289.0</ele><time>2026-04-25T15:15:47.007Z</time></trkpt><trkpt lat="45.52793464203383" lon="8.17963343407344"><ele>288.75</ele><time>2026-04-25T15:15:48.007Z</time></trkpt><trkpt lat="45.527989066044306" lon="8.179453454967597"><ele>288.5</ele><time>2026-04-25T15:15:49.007Z</time></trkpt><trkpt lat="45.528055238917275" lon="8.179271600086256"><ele>288.25</ele><time>2026-04-25T15:15:50.007Z</time></trkpt><trkpt lat="45.528111651999346" lon="8.179085352085703"><ele>288.0</ele><time>2026-04-25T15:15:51.007Z</time></trkpt><trkpt lat="45.52816697840234" lon="8.178893308278012"><ele>288.6666666666667</ele><time>2026-04-25T15:15:52.007Z</time></trkpt><trkpt lat="45.5282230897888" lon="8.178699033867101"><ele>289.33333333333337</ele><time>2026-04-25T15:15:53.007Z</time></trkpt><trkpt lat="45.52828234276371" lon="8.178499131549167"><ele>290.0</ele><time>2026-04-25T15:15:54.007Z</time></trkpt><trkpt lat="45.52834162438707" lon="8.178295372339871"><ele>290.25</ele><time>2026-04-25T15:15:55.007Z</time></trkpt><trkpt lat="45.52840105345639" lon="8.178092823079762"><ele>290.5</ele><time>2026-04-25T15:15:56.007Z</time></trkpt><trkpt lat="45.528461472377565" lon="8.177898718561018"><ele>290.75</ele><time>2026-04-25T15:15:57.007Z</time></trkpt><trkpt lat="45.52851564531462" lon="8.177721427797877"><ele>291.0</ele><time>2026-04-25T15:15:58.007Z</time></trkpt><trkpt lat="45.52856337220508" lon="8.17755751185551"><ele>291.0</ele><time>2026-04-25T15:15:59.007Z</time></trkpt><trkpt lat="45.528606899042735" lon="8.177416783423547"><ele>291.0</ele><time>2026-04-25T15:16:00.007Z</time></trkpt><trkpt lat="45.5286556012268" lon="8.177294750464343"><ele>291.0</ele><time>2026-04-25T15:16:01.007Z</time></trkpt><trkpt lat="45.52872032433642" lon="8.177180175925391"><ele>291.0</ele><time>2026-04-25T15:16:02.007Z</time></trkpt><trkpt lat="45.528808775141" lon="8.177091394204101"><ele>291.0</ele><time>2026-04-25T15:16:03.007Z</time></trkpt><trkpt lat="45.52891761407022" lon="8.177022645097193"><ele>290.75</ele><time>2026-04-25T15:16:04.007Z</time></trkpt><trkpt lat="45.52904899247446" lon="8.177023527333423"><ele>290.5</ele><time>2026-04-25T15:16:05.007Z</time></trkpt><trkpt lat="45.52918988887733" lon="8.17700595792773"><ele>290.25</ele><time>2026-04-25T15:16:06.007Z</time></trkpt><trkpt lat="45.52933690696837" lon="8.176988441249339"><ele>290.0</ele><time>2026-04-25T15:16:07.007Z</time></trkpt><trkpt lat="45.529496596870565" lon="8.176970611331619"><ele>291.0</ele><time>2026-04-25T15:16:08.008Z</time></trkpt><trkpt lat="45.52967457924762" lon="8.176952271085822"><ele>292.0</ele><time>2026-04-25T15:16:09.008Z</time></trkpt><trkpt lat="45.529859505388686" lon="8.1769125387893"><ele>293.0</ele><time>2026-04-25T15:16:10.008Z</time></trkpt><trkpt lat="45.53002814711744" lon="8.176907164998127"><ele>293.0</ele><time>2026-04-25T15:16:11.008Z</time></trkpt><trkpt lat="45.530191827935894" lon="8.176876768313411"><ele>293.0</ele><time>2026-04-25T15:16:12.008Z</time></trkpt><trkpt lat="45.530348095033894" lon="8.176840852825691"><ele>293.0</ele><time>2026-04-25T15:16:13.008Z</time></trkpt><trkpt lat="45.53048548158603" lon="8.176798940096162"><ele>293.4</ele><time>2026-04-25T15:16:14.008Z</time></trkpt><trkpt lat="45.530603627484076" lon="8.176756664906483"><ele>293.8</ele><time>2026-04-25T15:16:15.008Z</time></trkpt><trkpt lat="45.5306991073709" lon="8.176711896060748"><ele>294.2</ele><time>2026-04-25T15:16:16.008Z</time></trkpt><trkpt lat="45.53077402091188" lon="8.176679932461484"><ele>294.6</ele><time>2026-04-25T15:16:17.008Z</time></trkpt><trkpt lat="45.5308413652252" lon="8.176517653722676"><ele>295.0</ele><time>2026-04-25T15:16:18.008Z</time></trkpt><trkpt lat="45.530821370012994" lon="8.176369144324015"><ele>295.0</ele><time>2026-04-25T15:16:19.008Z</time></trkpt><trkpt lat="45.530819863044194" lon="8.176198495506913"><ele>295.0</ele><time>2026-04-25T15:16:20.008Z</time></trkpt><trkpt lat="45.53083831698937" lon="8.17601521867373"><ele>295.0</ele><time>2026-04-25T15:16:21.008Z</time></trkpt><trkpt lat="45.53125929652937" lon="8.174164883187746"><ele>295.25</ele><time>2026-04-25T15:16:33.008Z</time></trkpt><trkpt lat="45.53118167746816" lon="8.17413390037914"><ele>295.5</ele><time>2026-04-25T15:16:34.008Z</time></trkpt><trkpt lat="45.531075498100286" lon="8.174246616279694"><ele>295.75</ele><time>2026-04-25T15:16:35.008Z</time></trkpt><trkpt lat="45.530971488101514" lon="8.174321484002917"><ele>296.0</ele><time>2026-04-25T15:16:36.008Z</time></trkpt><trkpt lat="45.53085033351705" lon="8.174395129975668"><ele>296.0</ele><time>2026-04-25T15:16:37.008Z</time></trkpt><trkpt lat="45.53071012175331" lon="8.174452236446104"><ele>296.0</ele><time>2026-04-25T15:16:38.008Z</time></trkpt><trkpt lat="45.530569022615836" lon="8.174492010476406"><ele>296.0</ele><time>2026-04-25T15:16:39.008Z</time></trkpt><trkpt lat="45.530426500842786" lon="8.174526241134771"><ele>296.0</ele><time>2026-04-25T15:16:40.008Z</time></trkpt><trkpt lat="45.530287827528575" lon="8.174550886108385"><ele>293.75</ele><time>2026-04-25T15:16:41.008Z</time></trkpt><trkpt lat="45.53016057774583" lon="8.17457453850282"><ele>291.5</ele><time>2026-04-25T15:16:42.008Z</time></trkpt><trkpt lat="45.53004177543664" lon="8.17459117020804"><ele>289.25</ele><time>2026-04-25T15:16:43.008Z</time></trkpt><trkpt lat="45.52992587691218" lon="8.174575263604865"><ele>287.0</ele><time>2026-04-25T15:16:44.008Z</time></trkpt><trkpt lat="45.52981881311368" lon="8.174545944174426"><ele>287.0</ele><time>2026-04-25T15:16:45.008Z</time></trkpt><trkpt lat="45.52972940995932" lon="8.17448524769005"><ele>287.0</ele><time>2026-04-25T15:16:46.008Z</time></trkpt><trkpt lat="45.52966058783909" lon="8.174394035038922"><ele>287.0</ele><time>2026-04-25T15:16:47.008Z</time></trkpt><trkpt lat="45.52962364618488" lon="8.174281022549724"><ele>287.0</ele><time>2026-04-25T15:16:48.008Z</time></trkpt><trkpt lat="45.52961834108288" lon="8.17416073897491"><ele>287.0</ele><time>2026-04-25T15:16:49.008Z</time></trkpt><trkpt lat="45.52965686934914" lon="8.174045498390019"><ele>285.0</ele><time>2026-04-25T15:16:50.008Z</time></trkpt><trkpt lat="45.52972525325856" lon="8.173920640160857"><ele>283.0</ele><time>2026-04-25T15:16:51.008Z</time></trkpt><trkpt lat="45.52980641565557" lon="8.173768325777047"><ele>281.0</ele><time>2026-04-25T15:16:52.008Z</time></trkpt><trkpt lat="45.52990991600402" lon="8.173609293861787"><ele>279.0</ele><time>2026-04-25T15:16:53.008Z</time></trkpt><trkpt lat="45.53001569988616" lon="8.173427570368222"><ele>279.0</ele><time>2026-04-25T15:16:54.008Z</time></trkpt><trkpt lat="45.53012162934864" lon="8.173239659538416"><ele>279.0</ele><time>2026-04-25T15:16:55.008Z</time></trkpt><trkpt lat="45.530223708086545" lon="8.173060714146896"><ele>279.0</ele><time>2026-04-25T15:16:56.008Z</time></trkpt><trkpt lat="45.53032117779567" lon="8.17288224749269"><ele>279.0</ele><time>2026-04-25T15:16:57.008Z</time></trkpt><trkpt lat="45.530413110930546" lon="8.172703854113248"><ele>279.0</ele><time>2026-04-25T15:16:58.008Z</time></trkpt><trkpt lat="45.53049543053302" lon="8.172534162080058"><ele>279.0</ele><time>2026-04-25T15:16:59.008Z</time></trkpt><trkpt lat="45.53057218603379" lon="8.172360025085798"><ele>279.0</ele><time>2026-04-25T15:17:00.008Z</time></trkpt><trkpt lat="45.53063222911724" lon="8.17216855818411"><ele>279.0</ele><time>2026-04-25T15:17:01.008Z</time></trkpt><trkpt lat="45.53066871465661" lon="8.171948853626043"><ele>279.0</ele><time>2026-04-25T15:17:02.008Z</time></trkpt><trkpt lat="45.53069492771875" lon="8.17172562144"><ele>279.0</ele><time>2026-04-25T15:17:03.008Z</time></trkpt><trkpt lat="45.53070287571038" lon="8.17148754007958"><ele>277.3333333333333</ele><time>2026-04-25T15:17:04.008Z</time></trkpt><trkpt lat="45.530686634900746" lon="8.171247946973907"><ele>275.66666666666663</ele><time>2026-04-25T15:17:05.008Z</time></trkpt><trkpt lat="45.53064418060177" lon="8.171011244396402"><ele>274.0</ele><time>2026-04-25T15:17:06.008Z</time></trkpt><trkpt lat="45.53059683994314" lon="8.17076820746941"><ele>273.66666666666663</ele><time>2026-04-25T15:17:07.009Z</time></trkpt><trkpt lat="45.53055338826764" lon="8.170516346103764"><ele>273.3333333333333</ele><time>2026-04-25T15:17:08.009Z</time></trkpt><trkpt lat="45.53050878164165" lon="8.17025642956982"><ele>273.0</ele><time>2026-04-25T15:17:09.009Z</time></trkpt><trkpt lat="45.530463837461916" lon="8.169991532616335"><ele>273.3333333333333</ele><time>2026-04-25T15:17:10.009Z</time></trkpt><trkpt lat="45.53042141851622" lon="8.16973289115497"><ele>273.66666666666663</ele><time>2026-04-25T15:17:11.009Z</time></trkpt><trkpt lat="45.530379333287776" lon="8.169474767312"><ele>274.0</ele><time>2026-04-25T15:17:12.009Z</time></trkpt><trkpt lat="45.530339761888584" lon="8.169218409049863"><ele>274.3333333333333</ele><time>2026-04-25T15:17:13.009Z</time></trkpt><trkpt lat="45.53029497901632" lon="8.16896148369464"><ele>274.6666666666667</ele><time>2026-04-25T15:17:14.009Z</time></trkpt><trkpt lat="45.53025039833606" lon="8.168711143272628"><ele>275.0</ele><time>2026-04-25T15:17:15.009Z</time></trkpt><trkpt lat="45.53020434064594" lon="8.168468539324543"><ele>275.0</ele><time>2026-04-25T15:17:16.009Z</time></trkpt><trkpt lat="45.530180001508555" lon="8.168224982851239"><ele>275.0</ele><time>2026-04-25T15:17:17.009Z</time></trkpt><trkpt lat="45.530128223331545" lon="8.167993547493161"><ele>275.0</ele><time>2026-04-25T15:17:18.009Z</time></trkpt><trkpt lat="45.53009177261103" lon="8.16775339068402"><ele>275.6666666666667</ele><time>2026-04-25T15:17:19.009Z</time></trkpt><trkpt lat="45.53005446300699" lon="8.167516802013003"><ele>276.3333333333333</ele><time>2026-04-25T15:17:20.009Z</time></trkpt><trkpt lat="45.53001878717057" lon="8.167278721565566"><ele>277.0</ele><time>2026-04-25T15:17:21.009Z</time></trkpt><trkpt lat="45.52998253895555" lon="8.167040269941724"><ele>279.0</ele><time>2026-04-25T15:17:22.009Z</time></trkpt><trkpt lat="45.52994372896414" lon="8.166802129889504"><ele>281.0</ele><time>2026-04-25T15:17:23.009Z</time></trkpt><trkpt lat="45.529924457209596" lon="8.166557795677663"><ele>283.0</ele><time>2026-04-25T15:17:24.009Z</time></trkpt><trkpt lat="45.529889875427564" lon="8.166322594028555"><ele>285.3333333333333</ele><time>2026-04-25T15:17:25.009Z</time></trkpt><trkpt lat="45.529854750495026" lon="8.166088840195817"><ele>287.6666666666667</ele><time>2026-04-25T15:17:26.009Z</time></trkpt><trkpt lat="45.5298194630471" lon="8.165856616480635"><ele>290.0</ele><time>2026-04-25T15:17:27.009Z</time></trkpt><trkpt lat="45.52978533503455" lon="8.165632023014474"><ele>290.5</ele><time>2026-04-25T15:17:28.009Z</time></trkpt><trkpt lat="45.52975237033553" lon="8.165415085004426"><ele>291.0</ele><time>2026-04-25T15:17:29.009Z</time></trkpt><trkpt lat="45.52972131612525" lon="8.165209553446612"><ele>291.5</ele><time>2026-04-25T15:17:30.009Z</time></trkpt><trkpt lat="45.529695208219074" lon="8.16501968973143"><ele>292.0</ele><time>2026-04-25T15:17:31.009Z</time></trkpt><trkpt lat="45.529666533257576" lon="8.164849482567273"><ele>293.25</ele><time>2026-04-25T15:17:32.009Z</time></trkpt><trkpt lat="45.529687132257365" lon="8.164686733301393"><ele>294.5</ele><time>2026-04-25T15:17:33.009Z</time></trkpt><trkpt lat="45.5297333866893" lon="8.164538709077943"><ele>295.75</ele><time>2026-04-25T15:17:34.009Z</time></trkpt><trkpt lat="45.52979602543691" lon="8.164403140935105"><ele>297.0</ele><time>2026-04-25T15:17:35.009Z</time></trkpt><trkpt lat="45.52984404099914" lon="8.16425435577421"><ele>297.0</ele><time>2026-04-25T15:17:36.009Z</time></trkpt><trkpt lat="45.52987556747485" lon="8.164075418519541"><ele>297.0</ele><time>2026-04-25T15:17:37.009Z</time></trkpt><trkpt lat="45.52990164388736" lon="8.163882733752638"><ele>297.0</ele><time>2026-04-25T15:17:38.009Z</time></trkpt><trkpt lat="45.52992395480102" lon="8.163687986780102"><ele>297.0</ele><time>2026-04-25T15:17:39.009Z</time></trkpt><trkpt lat="45.52993343322089" lon="8.163493277894128"><ele>298.25</ele><time>2026-04-25T15:17:40.009Z</time></trkpt><trkpt lat="45.529938411370736" lon="8.163303234728534"><ele>299.5</ele><time>2026-04-25T15:17:41.009Z</time></trkpt><trkpt lat="45.529932877000334" lon="8.163135167192122"><ele>300.75</ele><time>2026-04-25T15:17:42.009Z</time></trkpt><trkpt lat="45.52990476987559" lon="8.162969108774286"><ele>302.0</ele><time>2026-04-25T15:17:43.009Z</time></trkpt><trkpt lat="45.52985533665102" lon="8.16281850297643"><ele>302.5</ele><time>2026-04-25T15:17:44.009Z</time></trkpt><trkpt lat="45.52980691391345" lon="8.162670628443154"><ele>303.0</ele><time>2026-04-25T15:17:45.009Z</time></trkpt><trkpt lat="45.529752472518815" lon="8.162521549184703"><ele>303.5</ele><time>2026-04-25T15:17:46.009Z</time></trkpt><trkpt lat="45.52973111233196" lon="8.162328985465932"><ele>304.0</ele><time>2026-04-25T15:17:47.009Z</time></trkpt><trkpt lat="45.52968301415651" lon="8.162145498240694"><ele>304.25</ele><time>2026-04-25T15:17:48.009Z</time></trkpt><trkpt lat="45.529623168267484" lon="8.16196818250159"><ele>304.5</ele><time>2026-04-25T15:17:49.009Z</time></trkpt><trkpt lat="45.52958443364432" lon="8.161779588288542"><ele>304.75</ele><time>2026-04-25T15:17:50.009Z</time></trkpt><trkpt lat="45.52954376227346" lon="8.161594588062528"><ele>305.0</ele><time>2026-04-25T15:17:51.009Z</time></trkpt><trkpt lat="45.52950126980793" lon="8.161420467684554"><ele>305.5</ele><time>2026-04-25T15:17:52.009Z</time></trkpt><trkpt lat="45.529462953443634" lon="8.161247084808684"><ele>306.0</ele><time>2026-04-25T15:17:53.009Z</time></trkpt><trkpt lat="45.52942727674224" lon="8.161071946061588"><ele>306.5</ele><time>2026-04-25T15:17:54.009Z</time></trkpt><trkpt lat="45.5293911238552" lon="8.160883333465602"><ele>307.0</ele><time>2026-04-25T15:17:55.009Z</time></trkpt><trkpt lat="45.5293559209728" lon="8.160686048241017"><ele>307.75</ele><time>2026-04-25T15:17:56.009Z</time></trkpt><trkpt lat="45.529319334015824" lon="8.160486659307463"><ele>308.5</ele><time>2026-04-25T15:17:57.009Z</time></trkpt><trkpt lat="45.52928526208947" lon="8.160282881367635"><ele>309.25</ele><time>2026-04-25T15:17:58.009Z</time></trkpt><trkpt lat="45.52925238244001" lon="8.160083905505056"><ele>310.0</ele><time>2026-04-25T15:17:59.009Z</time></trkpt><trkpt lat="45.52921824217474" lon="8.159885994056406"><ele>310.75</ele><time>2026-04-25T15:18:00.009Z</time></trkpt><trkpt lat="45.52918626746319" lon="8.159694074826996"><ele>311.5</ele><time>2026-04-25T15:18:01.01Z</time></trkpt><trkpt lat="45.52916146890065" lon="8.159521569738168"><ele>312.25</ele><time>2026-04-25T15:18:02.01Z</time></trkpt><trkpt lat="45.52914079746706" lon="8.159358443680945"><ele>313.0</ele><time>2026-04-25T15:18:03.01Z</time></trkpt><trkpt lat="45.52912252819305" lon="8.159200945813405"><ele>313.0</ele><time>2026-04-25T15:18:04.01Z</time></trkpt><trkpt lat="45.529116533298" lon="8.159032238392246"><ele>313.0</ele><time>2026-04-25T15:18:05.01Z</time></trkpt><trkpt lat="45.52913401907739" lon="8.15885669810483"><ele>313.0</ele><time>2026-04-25T15:18:06.01Z</time></trkpt><trkpt lat="45.52918206786005" lon="8.158686171636232"><ele>313.0</ele><time>2026-04-25T15:18:07.01Z</time></trkpt><trkpt lat="45.52924981291978" lon="8.158504143120245"><ele>313.0</ele><time>2026-04-25T15:18:08.01Z</time></trkpt><trkpt lat="45.529323491219024" lon="8.158300571059291"><ele>313.0</ele><time>2026-04-25T15:18:09.01Z</time></trkpt><trkpt lat="45.529409367204856" lon="8.15808211849871"><ele>313.0</ele><time>2026-04-25T15:18:10.01Z</time></trkpt><trkpt lat="45.52950258033426" lon="8.157850931441605"><ele>312.66666666666663</ele><time>2026-04-25T15:18:11.01Z</time></trkpt><trkpt lat="45.52960852225903" lon="8.157618241501773"><ele>312.3333333333333</ele><time>2026-04-25T15:18:12.01Z</time></trkpt><trkpt lat="45.529713770543644" lon="8.1573646209219"><ele>312.0</ele><time>2026-04-25T15:18:13.01Z</time></trkpt><trkpt lat="45.52983796251536" lon="8.157106259403541"><ele>312.0</ele><time>2026-04-25T15:18:14.01Z</time></trkpt><trkpt lat="45.5299491139701" lon="8.156849902284362"><ele>312.0</ele><time>2026-04-25T15:18:15.01Z</time></trkpt><trkpt lat="45.53006020902387" lon="8.156603960861679"><ele>312.0</ele><time>2026-04-25T15:18:16.01Z</time></trkpt><trkpt lat="45.53016078750904" lon="8.156372716617623"><ele>312.6666666666667</ele><time>2026-04-25T15:18:17.01Z</time></trkpt><trkpt lat="45.53026077095907" lon="8.156130131710313"><ele>313.33333333333337</ele><time>2026-04-25T15:18:18.01Z</time></trkpt><trkpt lat="45.53035665012906" lon="8.155881882644545"><ele>314.0</ele><time>2026-04-25T15:18:19.01Z</time></trkpt><trkpt lat="45.53045970329206" lon="8.155632755265497"><ele>314.33333333333337</ele><time>2026-04-25T15:18:20.01Z</time></trkpt><trkpt lat="45.530562579920655" lon="8.155383665909792"><ele>314.6666666666667</ele><time>2026-04-25T15:18:21.01Z</time></trkpt><trkpt lat="45.530665686139294" lon="8.155147884001874"><ele>315.0</ele><time>2026-04-25T15:18:22.01Z</time></trkpt><trkpt lat="45.53076220870924" lon="8.154915180616268"><ele>315.6666666666667</ele><time>2026-04-25T15:18:23.01Z</time></trkpt><trkpt lat="45.53085171203436" lon="8.154694099184713"><ele>316.33333333333337</ele><time>2026-04-25T15:18:24.01Z</time></trkpt><trkpt lat="45.53093644542081" lon="8.154486611729531"><ele>317.0</ele><time>2026-04-25T15:18:25.01Z</time></trkpt><trkpt lat="45.53102110689274" lon="8.15428941338172"><ele>317.0</ele><time>2026-04-25T15:18:26.01Z</time></trkpt><trkpt lat="45.531101417424104" lon="8.154099722922929"><ele>317.0</ele><time>2026-04-25T15:18:27.01Z</time></trkpt><trkpt lat="45.53117435727289" lon="8.153919179276679"><ele>317.0</ele><time>2026-04-25T15:18:28.01Z</time></trkpt><trkpt lat="45.5312453495029" lon="8.153741646252794"><ele>317.0</ele><time>2026-04-25T15:18:29.01Z</time></trkpt><trkpt lat="45.531299524196186" lon="8.153564564046375"><ele>317.0</ele><time>2026-04-25T15:18:30.01Z</time></trkpt><trkpt lat="45.53135602924101" lon="8.153388025932875"><ele>317.0</ele><time>2026-04-25T15:18:31.01Z</time></trkpt><trkpt lat="45.53135748670549" lon="8.153179237459764"><ele>317.0</ele><time>2026-04-25T15:18:32.01Z</time></trkpt><trkpt lat="45.531330314407036" lon="8.15294896899135"><ele>317.0</ele><time>2026-04-25T15:18:33.01Z</time></trkpt><trkpt lat="45.5312813039595" lon="8.152715769857057"><ele>317.33333333333337</ele><time>2026-04-25T15:18:34.01Z</time></trkpt><trkpt lat="45.53122719887303" lon="8.152459206992487"><ele>317.6666666666667</ele><time>2026-04-25T15:18:35.01Z</time></trkpt><trkpt lat="45.531171069862914" lon="8.152191610533718"><ele>318.0</ele><time>2026-04-25T15:18:36.01Z</time></trkpt><trkpt lat="45.531113536665934" lon="8.15191731921216"><ele>318.6666666666667</ele><time>2026-04-25T15:18:37.01Z</time></trkpt><trkpt lat="45.531054908893466" lon="8.151639920463706"><ele>319.33333333333337</ele><time>2026-04-25T15:18:38.01Z</time></trkpt><trkpt lat="45.530995365727016" lon="8.15135888824378"><ele>320.0</ele><time>2026-04-25T15:18:39.01Z</time></trkpt><trkpt lat="45.53093622778067" lon="8.151079768480647"><ele>320.6666666666667</ele><time>2026-04-25T15:18:40.01Z</time></trkpt><trkpt lat="45.53087702419374" lon="8.150800338600673"><ele>321.3333333333333</ele><time>2026-04-25T15:18:41.01Z</time></trkpt><trkpt lat="45.53082106097249" lon="8.150531664117851"><ele>322.0</ele><time>2026-04-25T15:18:42.01Z</time></trkpt><trkpt lat="45.53076932742832" lon="8.150282587775656"><ele>322.0</ele><time>2026-04-25T15:18:43.01Z</time></trkpt><trkpt lat="45.53071744714627" lon="8.150037655135884"><ele>322.0</ele><time>2026-04-25T15:18:44.01Z</time></trkpt><trkpt lat="45.530665764389894" lon="8.149793979148303"><ele>322.0</ele><time>2026-04-25T15:18:45.01Z</time></trkpt><trkpt lat="45.53061280748756" lon="8.149546174297734"><ele>322.0</ele><time>2026-04-25T15:18:46.01Z</time></trkpt><trkpt lat="45.530560223177176" lon="8.149300112871982"><ele>322.0</ele><time>2026-04-25T15:18:47.01Z</time></trkpt><trkpt lat="45.53050869938994" lon="8.149058040969074"><ele>322.0</ele><time>2026-04-25T15:18:48.01Z</time></trkpt><trkpt lat="45.53044298674052" lon="8.148824868336897"><ele>322.0</ele><time>2026-04-25T15:18:49.01Z</time></trkpt><trkpt lat="45.53039834241158" lon="8.148588112406172"><ele>322.0</ele><time>2026-04-25T15:18:50.011Z</time></trkpt><trkpt lat="45.53035367331282" lon="8.148359456592837"><ele>322.0</ele><time>2026-04-25T15:18:51.011Z</time></trkpt><trkpt lat="45.530299330051186" lon="8.14813176254819"><ele>321.3333333333333</ele><time>2026-04-25T15:18:52.011Z</time></trkpt><trkpt lat="45.530262512602455" lon="8.147889305593106"><ele>320.6666666666667</ele><time>2026-04-25T15:18:53.011Z</time></trkpt><trkpt lat="45.530197070666524" lon="8.147659609373813"><ele>320.0</ele><time>2026-04-25T15:18:54.011Z</time></trkpt><trkpt lat="45.530143511958826" lon="8.14742079692147"><ele>319.6666666666667</ele><time>2026-04-25T15:18:55.011Z</time></trkpt><trkpt lat="45.53008937654671" lon="8.147173924422702"><ele>319.3333333333333</ele><time>2026-04-25T15:18:56.011Z</time></trkpt><trkpt lat="45.53004987638347" lon="8.146914872849393"><ele>319.0</ele><time>2026-04-25T15:18:57.011Z</time></trkpt><trkpt lat="45.529996671294214" lon="8.146671177894403"><ele>318.66666666666663</ele><time>2026-04-25T15:18:58.011Z</time></trkpt><trkpt lat="45.52994308958251" lon="8.146428856234202"><ele>318.3333333333333</ele><time>2026-04-25T15:18:59.011Z</time></trkpt><trkpt lat="45.52989092134975" lon="8.146194400916624"><ele>318.0</ele><time>2026-04-25T15:19:00.011Z</time></trkpt><trkpt lat="45.529841709963286" lon="8.145973234502272"><ele>318.0</ele><time>2026-04-25T15:19:01.011Z</time></trkpt><trkpt lat="45.529800416650446" lon="8.14578573754852"><ele>318.0</ele><time>2026-04-25T15:19:02.011Z</time></trkpt><trkpt lat="45.529748614791" lon="8.145611695252496"><ele>318.0</ele><time>2026-04-25T15:19:03.011Z</time></trkpt><trkpt lat="45.529725537890094" lon="8.145440279728776"><ele>318.0</ele><time>2026-04-25T15:19:04.011Z</time></trkpt><trkpt lat="45.529729630453375" lon="8.145270009819749"><ele>316.4</ele><time>2026-04-25T15:19:05.011Z</time></trkpt><trkpt lat="45.52975756062831" lon="8.14512532105197"><ele>314.8</ele><time>2026-04-25T15:19:06.011Z</time></trkpt><trkpt lat="45.5298072984058" lon="8.145011062582288"><ele>313.2</ele><time>2026-04-25T15:19:07.011Z</time></trkpt><trkpt lat="45.529882786928" lon="8.144949784893898"><ele>311.6</ele><time>2026-04-25T15:19:08.011Z</time></trkpt><trkpt lat="45.529961864721656" lon="8.144939629196047"><ele>310.0</ele><time>2026-04-25T15:19:09.011Z</time></trkpt><trkpt lat="45.530043480964075" lon="8.145020768013028"><ele>310.0</ele><time>2026-04-25T15:19:10.011Z</time></trkpt><trkpt lat="45.53013831231815" lon="8.145121649919098"><ele>310.0</ele><time>2026-04-25T15:19:11.011Z</time></trkpt><trkpt lat="45.53025903878172" lon="8.14519838240678"><ele>310.0</ele><time>2026-04-25T15:19:12.011Z</time></trkpt><trkpt lat="45.53039183666782" lon="8.14525545526471"><ele>310.0</ele><time>2026-04-25T15:19:13.011Z</time></trkpt><trkpt lat="45.53054147123206" lon="8.14525785481109"><ele>308.0</ele><time>2026-04-25T15:19:14.011Z</time></trkpt><trkpt lat="45.53069761854549" lon="8.145279828138449"><ele>306.0</ele><time>2026-04-25T15:19:15.011Z</time></trkpt><trkpt lat="45.53085617667943" lon="8.145286782214713"><ele>304.0</ele><time>2026-04-25T15:19:16.011Z</time></trkpt><trkpt lat="45.53100945819001" lon="8.145282740934281"><ele>304.0</ele><time>2026-04-25T15:19:17.011Z</time></trkpt><trkpt lat="45.53118007898147" lon="8.145243745840903"><ele>304.0</ele><time>2026-04-25T15:19:18.011Z</time></trkpt><trkpt lat="45.53135280459076" lon="8.145161291568671"><ele>304.0</ele><time>2026-04-25T15:19:19.011Z</time></trkpt><trkpt lat="45.531524314552456" lon="8.145068830642613"><ele>303.3333333333333</ele><time>2026-04-25T15:19:20.011Z</time></trkpt><trkpt lat="45.531688101636746" lon="8.144978494657884"><ele>302.6666666666667</ele><time>2026-04-25T15:19:21.011Z</time></trkpt><trkpt lat="45.53185479619374" lon="8.144886555274928"><ele>302.0</ele><time>2026-04-25T15:19:22.011Z</time></trkpt><trkpt lat="45.53201124571463" lon="8.144800266104019"><ele>297.25</ele><time>2026-04-25T15:19:23.011Z</time></trkpt><trkpt lat="45.5321557781028" lon="8.144723064485323"><ele>292.5</ele><time>2026-04-25T15:19:24.011Z</time></trkpt><trkpt lat="45.53228842778828" lon="8.144658060904314"><ele>287.75</ele><time>2026-04-25T15:19:25.011Z</time></trkpt><trkpt lat="45.53240698955212" lon="8.14460176398545"><ele>283.0</ele><time>2026-04-25T15:19:26.011Z</time></trkpt><trkpt lat="45.532515512148485" lon="8.144553554520304"><ele>283.0</ele><time>2026-04-25T15:19:27.011Z</time></trkpt><trkpt lat="45.532656574324236" lon="8.14447616131301"><ele>283.0</ele><time>2026-04-25T15:19:28.011Z</time></trkpt><trkpt lat="45.53276573866595" lon="8.144324525635268"><ele>283.0</ele><time>2026-04-25T15:19:29.011Z</time></trkpt><trkpt lat="45.532850283123715" lon="8.144128713617297"><ele>281.3333333333333</ele><time>2026-04-25T15:19:30.011Z</time></trkpt><trkpt lat="45.53293431873646" lon="8.143923352083915"><ele>279.6666666666667</ele><time>2026-04-25T15:19:31.011Z</time></trkpt><trkpt lat="45.53302551379128" lon="8.143700151937193"><ele>278.0</ele><time>2026-04-25T15:19:32.011Z</time></trkpt><trkpt lat="45.53312305456777" lon="8.143463348158733"><ele>278.0</ele><time>2026-04-25T15:19:33.011Z</time></trkpt><trkpt lat="45.533220677625046" lon="8.143226992236155"><ele>278.0</ele><time>2026-04-25T15:19:34.011Z</time></trkpt><trkpt lat="45.53332165848609" lon="8.14298250735402"><ele>278.0</ele><time>2026-04-25T15:19:35.011Z</time></trkpt><trkpt lat="45.533420409647455" lon="8.142744411697858"><ele>276.33333333333337</ele><time>2026-04-25T15:19:36.011Z</time></trkpt><trkpt lat="45.533515707025394" lon="8.142515611977682"><ele>274.6666666666667</ele><time>2026-04-25T15:19:37.011Z</time></trkpt><trkpt lat="45.53360773169818" lon="8.142294668843448"><ele>273.0</ele><time>2026-04-25T15:19:38.011Z</time></trkpt><trkpt lat="45.53370135672027" lon="8.142070793790841"><ele>273.3333333333333</ele><time>2026-04-25T15:19:39.011Z</time></trkpt><trkpt lat="45.53379580464038" lon="8.1418460117986"><ele>273.66666666666663</ele><time>2026-04-25T15:19:40.011Z</time></trkpt><trkpt lat="45.53388888997298" lon="8.141623124916212"><ele>274.0</ele><time>2026-04-25T15:19:41.011Z</time></trkpt><trkpt lat="45.53398232029791" lon="8.141397566290511"><ele>274.0</ele><time>2026-04-25T15:19:42.012Z</time></trkpt><trkpt lat="45.53407722078402" lon="8.141168458362092"><ele>274.0</ele><time>2026-04-25T15:19:43.012Z</time></trkpt><trkpt lat="45.53417474132174" lon="8.140933025085108"><ele>274.0</ele><time>2026-04-25T15:19:44.012Z</time></trkpt><trkpt lat="45.53427565501639" lon="8.140689591421404"><ele>274.3333333333333</ele><time>2026-04-25T15:19:45.012Z</time></trkpt><trkpt lat="45.53437617756106" lon="8.140447152857726"><ele>274.6666666666667</ele><time>2026-04-25T15:19:46.012Z</time></trkpt><trkpt lat="45.53447760824548" lon="8.140202524034462"><ele>275.0</ele><time>2026-04-25T15:19:47.012Z</time></trkpt><trkpt lat="45.53457897047601" lon="8.13996021077865"><ele>275.6666666666667</ele><time>2026-04-25T15:19:48.012Z</time></trkpt><trkpt lat="45.53468134925669" lon="8.139717054530461"><ele>276.3333333333333</ele><time>2026-04-25T15:19:49.012Z</time></trkpt><trkpt lat="45.53478260224878" lon="8.139476572877959"><ele>277.0</ele><time>2026-04-25T15:19:50.012Z</time></trkpt><trkpt lat="45.53488335932834" lon="8.139237268447872"><ele>277.0</ele><time>2026-04-25T15:19:51.012Z</time></trkpt><trkpt lat="45.5349841685053" lon="8.138997840349043"><ele>277.0</ele><time>2026-04-25T15:19:52.012Z</time></trkpt><trkpt lat="45.535084647578365" lon="8.138759196203752"><ele>277.0</ele><time>2026-04-25T15:19:53.012Z</time></trkpt><trkpt lat="45.535183942352525" lon="8.138522084866105"><ele>277.0</ele><time>2026-04-25T15:19:54.012Z</time></trkpt><trkpt lat="45.53528206385499" lon="8.13828713913315"><ele>277.0</ele><time>2026-04-25T15:19:55.012Z</time></trkpt><trkpt lat="45.53537920053686" lon="8.13805455103046"><ele>277.0</ele><time>2026-04-25T15:19:56.012Z</time></trkpt><trkpt lat="45.53547495023018" lon="8.137825284512035"><ele>277.0</ele><time>2026-04-25T15:19:57.012Z</time></trkpt><trkpt lat="45.53556973319222" lon="8.13759833242554"><ele>277.0</ele><time>2026-04-25T15:19:58.012Z</time></trkpt><trkpt lat="45.53566327382587" lon="8.137374355182747"><ele>277.0</ele><time>2026-04-25T15:19:59.012Z</time></trkpt><trkpt lat="45.53575659812177" lon="8.137150896059095"><ele>277.3333333333333</ele><time>2026-04-25T15:20:00.012Z</time></trkpt><trkpt lat="45.53585000616143" lon="8.13692723609167"><ele>277.6666666666667</ele><time>2026-04-25T15:20:01.012Z</time></trkpt><trkpt lat="45.53594463001163" lon="8.136700664956736"><ele>278.0</ele><time>2026-04-25T15:20:02.012Z</time></trkpt><trkpt lat="45.536040112127736" lon="8.136472794421703"><ele>278.0</ele><time>2026-04-25T15:20:03.012Z</time></trkpt><trkpt lat="45.53613636993852" lon="8.136243407655284"><ele>278.0</ele><time>2026-04-25T15:20:04.012Z</time></trkpt><trkpt lat="45.53623414808451" lon="8.136010397659135"><ele>278.0</ele><time>2026-04-25T15:20:05.012Z</time></trkpt><trkpt lat="45.53633278780376" lon="8.135775334653173"><ele>279.33333333333337</ele><time>2026-04-25T15:20:06.012Z</time></trkpt><trkpt lat="45.53641863217612" lon="8.135525692996431"><ele>280.6666666666667</ele><time>2026-04-25T15:20:07.012Z</time></trkpt><trkpt lat="45.53653391769896" lon="8.13529603272492"><ele>282.0</ele><time>2026-04-25T15:20:08.012Z</time></trkpt><trkpt lat="45.53663524378155" lon="8.1350545644953"><ele>281.6666666666667</ele><time>2026-04-25T15:20:09.012Z</time></trkpt><trkpt lat="45.53672285602285" lon="8.134803395050138"><ele>281.33333333333337</ele><time>2026-04-25T15:20:10.012Z</time></trkpt><trkpt lat="45.536824571379995" lon="8.134561555961682"><ele>281.0</ele><time>2026-04-25T15:20:11.012Z</time></trkpt><trkpt lat="45.53693928971447" lon="8.134332328305947"><ele>281.0</ele><time>2026-04-25T15:20:12.012Z</time></trkpt><trkpt lat="45.53704063411126" lon="8.13409197245155"><ele>281.0</ele><time>2026-04-25T15:20:13.012Z</time></trkpt><trkpt lat="45.537142438997925" lon="8.133850524399843"><ele>281.0</ele><time>2026-04-25T15:20:14.012Z</time></trkpt><trkpt lat="45.537240409998184" lon="8.133619230515853"><ele>281.33333333333337</ele><time>2026-04-25T15:20:15.012Z</time></trkpt><trkpt lat="45.53733651875011" lon="8.133392432173501"><ele>281.6666666666667</ele><time>2026-04-25T15:20:16.012Z</time></trkpt><trkpt lat="45.53743425005472" lon="8.133160939493806"><ele>282.0</ele><time>2026-04-25T15:20:17.012Z</time></trkpt><trkpt lat="45.537531336645316" lon="8.132929164480336"><ele>282.6666666666667</ele><time>2026-04-25T15:20:18.012Z</time></trkpt><trkpt lat="45.537629284424966" lon="8.132695333491208"><ele>283.33333333333337</ele><time>2026-04-25T15:20:19.012Z</time></trkpt><trkpt lat="45.53772803415296" lon="8.132459588016593"><ele>284.0</ele><time>2026-04-25T15:20:20.012Z</time></trkpt><trkpt lat="45.53782661068111" lon="8.132223188852013"><ele>285.0</ele><time>2026-04-25T15:20:21.012Z</time></trkpt><trkpt lat="45.537925810928094" lon="8.131984690068615"><ele>286.0</ele><time>2026-04-25T15:20:22.012Z</time></trkpt><trkpt lat="45.53802507023564" lon="8.131746049334712"><ele>287.0</ele><time>2026-04-25T15:20:23.012Z</time></trkpt><trkpt lat="45.53812543853446" lon="8.131504742298485"><ele>287.33333333333337</ele><time>2026-04-25T15:20:24.012Z</time></trkpt><trkpt lat="45.538226321618275" lon="8.131262197638348"><ele>287.6666666666667</ele><time>2026-04-25T15:20:25.012Z</time></trkpt><trkpt lat="45.53832830928379" lon="8.131019419867675"><ele>288.0</ele><time>2026-04-25T15:20:26.012Z</time></trkpt><trkpt lat="45.53843081861929" lon="8.130775866183482"><ele>288.0</ele><time>2026-04-25T15:20:27.012Z</time></trkpt><trkpt lat="45.538520061794934" lon="8.13051843752104"><ele>288.0</ele><time>2026-04-25T15:20:28.012Z</time></trkpt><trkpt lat="45.53862430576772" lon="8.130271782700632"><ele>288.0</ele><time>2026-04-25T15:20:29.012Z</time></trkpt><trkpt lat="45.53874158865596" lon="8.130037502405887"><ele>288.3333333333333</ele><time>2026-04-25T15:20:30.012Z</time></trkpt><trkpt lat="45.53884455323645" lon="8.129792475050197"><ele>288.66666666666663</ele><time>2026-04-25T15:20:31.012Z</time></trkpt><trkpt lat="45.53894711737892" lon="8.129547855924182"><ele>289.0</ele><time>2026-04-25T15:20:32.012Z</time></trkpt><trkpt lat="45.53905022346825" lon="8.129301944285018"><ele>290.3333333333333</ele><time>2026-04-25T15:20:33.012Z</time></trkpt><trkpt lat="45.53915338828834" lon="8.129055892372529"><ele>291.6666666666667</ele><time>2026-04-25T15:20:34.012Z</time></trkpt><trkpt lat="45.5392565957691" lon="8.128809738610908"><ele>293.0</ele><time>2026-04-25T15:20:35.012Z</time></trkpt><trkpt lat="45.53935883461169" lon="8.128564615877927"><ele>293.0</ele><time>2026-04-25T15:20:36.013Z</time></trkpt><trkpt lat="45.53946120824993" lon="8.128318404988844"><ele>293.0</ele><time>2026-04-25T15:20:37.013Z</time></trkpt><trkpt lat="45.53954993294545" lon="8.12806199315075"><ele>293.0</ele><time>2026-04-25T15:20:38.013Z</time></trkpt><trkpt lat="45.539653389525235" lon="8.12781618338694"><ele>293.0</ele><time>2026-04-25T15:20:39.013Z</time></trkpt><trkpt lat="45.53975516807785" lon="8.12757216841659"><ele>293.0</ele><time>2026-04-25T15:20:40.013Z</time></trkpt><trkpt lat="45.5398723180268" lon="8.127347052175752"><ele>293.0</ele><time>2026-04-25T15:20:41.013Z</time></trkpt><trkpt lat="45.53997412582383" lon="8.127103483610535"><ele>292.6666666666667</ele><time>2026-04-25T15:20:42.013Z</time></trkpt><trkpt lat="45.540074673572725" lon="8.126860059064576"><ele>292.3333333333333</ele><time>2026-04-25T15:20:43.013Z</time></trkpt><trkpt lat="45.540175056169126" lon="8.126617682696029"><ele>292.0</ele><time>2026-04-25T15:20:44.013Z</time></trkpt><trkpt lat="45.54027540349379" lon="8.126377749778516"><ele>292.0</ele><time>2026-04-25T15:20:45.013Z</time></trkpt><trkpt lat="45.5403764013662" lon="8.126138040660601"><ele>292.0</ele><time>2026-04-25T15:20:46.013Z</time></trkpt><trkpt lat="45.54047591474752" lon="8.125897526419786"><ele>292.0</ele><time>2026-04-25T15:20:47.013Z</time></trkpt><trkpt lat="45.540575769008484" lon="8.12565744248161"><ele>292.3333333333333</ele><time>2026-04-25T15:20:48.013Z</time></trkpt><trkpt lat="45.54067599594473" lon="8.125419433030384"><ele>292.6666666666667</ele><time>2026-04-25T15:20:49.013Z</time></trkpt><trkpt lat="45.54077689793976" lon="8.125183919322215"><ele>293.0</ele><time>2026-04-25T15:20:50.013Z</time></trkpt><trkpt lat="45.54087830663018" lon="8.124945459450107"><ele>293.33333333333337</ele><time>2026-04-25T15:20:51.013Z</time></trkpt><trkpt lat="45.540982230526325" lon="8.124709569178265"><ele>293.6666666666667</ele><time>2026-04-25T15:20:52.013Z</time></trkpt><trkpt lat="45.541071627642246" lon="8.124460119142265"><ele>294.0</ele><time>2026-04-25T15:20:53.013Z</time></trkpt><trkpt lat="45.54116716557914" lon="8.124224121502627"><ele>294.6666666666667</ele><time>2026-04-25T15:20:54.013Z</time></trkpt><trkpt lat="45.54126421810355" lon="8.123989617401898"><ele>295.33333333333337</ele><time>2026-04-25T15:20:55.013Z</time></trkpt><trkpt lat="45.54136107201994" lon="8.1237530515126"><ele>296.0</ele><time>2026-04-25T15:20:56.013Z</time></trkpt><trkpt lat="45.541461098799715" lon="8.123514545650337"><ele>296.0</ele><time>2026-04-25T15:20:57.013Z</time></trkpt><trkpt lat="45.54156091040531" lon="8.12327561693684"><ele>296.0</ele><time>2026-04-25T15:20:58.013Z</time></trkpt><trkpt lat="45.5416624007605" lon="8.123032757535562"><ele>296.0</ele><time>2026-04-25T15:20:59.013Z</time></trkpt><trkpt lat="45.541778632037314" lon="8.122798619012876"><ele>296.0</ele><time>2026-04-25T15:21:00.013Z</time></trkpt><trkpt lat="45.541883176525644" lon="8.122550687418595"><ele>296.0</ele><time>2026-04-25T15:21:01.013Z</time></trkpt><trkpt lat="45.54198826122781" lon="8.122301474713925"><ele>296.0</ele><time>2026-04-25T15:21:02.013Z</time></trkpt><trkpt lat="45.54209279781328" lon="8.122052186183627"><ele>296.33333333333337</ele><time>2026-04-25T15:21:03.013Z</time></trkpt><trkpt lat="45.54219456413265" lon="8.121808784572142"><ele>296.6666666666667</ele><time>2026-04-25T15:21:04.013Z</time></trkpt><trkpt lat="45.542292560595364" lon="8.121574399718407"><ele>297.0</ele><time>2026-04-25T15:21:05.013Z</time></trkpt><trkpt lat="45.542374057387114" lon="8.121334550620135"><ele>298.0</ele><time>2026-04-25T15:21:06.013Z</time></trkpt><trkpt lat="45.54247024033525" lon="8.121124383329262"><ele>299.0</ele><time>2026-04-25T15:21:07.013Z</time></trkpt><trkpt lat="45.54255894221884" lon="8.120921981153508"><ele>300.0</ele><time>2026-04-25T15:21:08.013Z</time></trkpt><trkpt lat="45.54264181882232" lon="8.120727201614288"><ele>300.25</ele><time>2026-04-25T15:21:09.013Z</time></trkpt><trkpt lat="45.54271881362286" lon="8.120541965570414"><ele>300.5</ele><time>2026-04-25T15:21:10.013Z</time></trkpt><trkpt lat="45.54279217624303" lon="8.120369454776007"><ele>300.75</ele><time>2026-04-25T15:21:11.013Z</time></trkpt><trkpt lat="45.542860155002" lon="8.120210024028797"><ele>301.0</ele><time>2026-04-25T15:21:12.013Z</time></trkpt><trkpt lat="45.5429282838745" lon="8.120055012842949"><ele>301.5</ele><time>2026-04-25T15:21:13.013Z</time></trkpt><trkpt lat="45.54298798962221" lon="8.119909264826296"><ele>302.0</ele><time>2026-04-25T15:21:14.013Z</time></trkpt><trkpt lat="45.54305044308086" lon="8.119759666870277"><ele>302.5</ele><time>2026-04-25T15:21:15.013Z</time></trkpt><trkpt lat="45.54311402998449" lon="8.119605472980888"><ele>303.0</ele><time>2026-04-25T15:21:16.013Z</time></trkpt><trkpt lat="45.543175271893084" lon="8.119451709138655"><ele>303.4</ele><time>2026-04-25T15:21:17.013Z</time></trkpt><trkpt lat="45.54323392972948" lon="8.119308008892887"><ele>303.8</ele><time>2026-04-25T15:21:18.013Z</time></trkpt><trkpt lat="45.543284979919164" lon="8.119179828817694"><ele>304.2</ele><time>2026-04-25T15:21:19.013Z</time></trkpt><trkpt lat="45.54333128886101" lon="8.119078095976375"><ele>304.6</ele><time>2026-04-25T15:21:20.013Z</time></trkpt><trkpt lat="45.54336812073219" lon="8.118989424945164"><ele>305.0</ele><time>2026-04-25T15:21:21.013Z</time></trkpt><trkpt lat="45.543422198037945" lon="8.11887239498288"><ele>305.75</ele><time>2026-04-25T15:21:23.013Z</time></trkpt><trkpt lat="45.543317325441684" lon="8.118710324414764"><ele>306.5</ele><time>2026-04-25T15:21:24.013Z</time></trkpt><trkpt lat="45.5432653350587" lon="8.118608283119299"><ele>307.25</ele><time>2026-04-25T15:21:25.013Z</time></trkpt><trkpt lat="45.54323643066469" lon="8.118471865824354"><ele>308.0</ele><time>2026-04-25T15:21:26.013Z</time></trkpt><trkpt lat="45.54318827546875" lon="8.118320743751827"><ele>310.0</ele><time>2026-04-25T15:21:27.013Z</time></trkpt><trkpt lat="45.543146344972335" lon="8.118167587343216"><ele>312.0</ele><time>2026-04-25T15:21:28.013Z</time></trkpt><trkpt lat="45.54310214322919" lon="8.11800378728094"><ele>314.0</ele><time>2026-04-25T15:21:29.014Z</time></trkpt><trkpt lat="45.54305657708966" lon="8.117833314936053"><ele>316.0</ele><time>2026-04-25T15:21:30.014Z</time></trkpt><trkpt lat="45.54301180493072" lon="8.117664579691636"><ele>316.0</ele><time>2026-04-25T15:21:31.014Z</time></trkpt><trkpt lat="45.54296022139233" lon="8.117488293701435"><ele>316.0</ele><time>2026-04-25T15:21:32.014Z</time></trkpt><trkpt lat="45.54291237981245" lon="8.117309300839143"><ele>316.0</ele><time>2026-04-25T15:21:33.014Z</time></trkpt><trkpt lat="45.54286314395505" lon="8.117123154135133"><ele>316.0</ele><time>2026-04-25T15:21:34.014Z</time></trkpt><trkpt lat="45.54281470312916" lon="8.116939193649802"><ele>317.0</ele><time>2026-04-25T15:21:35.014Z</time></trkpt><trkpt lat="45.54277012049243" lon="8.116745659074656"><ele>318.0</ele><time>2026-04-25T15:21:36.014Z</time></trkpt><trkpt lat="45.542727469207826" lon="8.116549018626461"><ele>319.0</ele><time>2026-04-25T15:21:37.014Z</time></trkpt><trkpt lat="45.54269441646254" lon="8.116344034399605"><ele>320.0</ele><time>2026-04-25T15:21:38.014Z</time></trkpt><trkpt lat="45.54265715365662" lon="8.116136692500387"><ele>320.75</ele><time>2026-04-25T15:21:39.014Z</time></trkpt><trkpt lat="45.54261687264787" lon="8.115925580550561"><ele>321.5</ele><time>2026-04-25T15:21:40.014Z</time></trkpt><trkpt lat="45.54258459246407" lon="8.115728250171083"><ele>322.25</ele><time>2026-04-25T15:21:41.014Z</time></trkpt><trkpt lat="45.542568088333425" lon="8.115532045575556"><ele>323.0</ele><time>2026-04-25T15:21:42.014Z</time></trkpt><trkpt lat="45.54253430093118" lon="8.115334247808402"><ele>323.0</ele><time>2026-04-25T15:21:43.014Z</time></trkpt><trkpt lat="45.542501516521696" lon="8.115142321664774"><ele>323.0</ele><time>2026-04-25T15:21:44.014Z</time></trkpt><trkpt lat="45.54246992002157" lon="8.11495493498572"><ele>323.0</ele><time>2026-04-25T15:21:45.014Z</time></trkpt><trkpt lat="45.54243626818636" lon="8.114764385519184"><ele>323.0</ele><time>2026-04-25T15:21:46.014Z</time></trkpt><trkpt lat="45.54240398884495" lon="8.114577920913407"><ele>323.0</ele><time>2026-04-25T15:21:47.014Z</time></trkpt><trkpt lat="45.54237650799886" lon="8.114397994537484"><ele>323.0</ele><time>2026-04-25T15:21:48.014Z</time></trkpt><trkpt lat="45.542353392908105" lon="8.114223636921047"><ele>323.0</ele><time>2026-04-25T15:21:49.014Z</time></trkpt><trkpt lat="45.54232464083986" lon="8.11404022565252"><ele>323.0</ele><time>2026-04-25T15:21:50.014Z</time></trkpt><trkpt lat="45.54231893635296" lon="8.113852104966965"><ele>323.0</ele><time>2026-04-25T15:21:51.014Z</time></trkpt><trkpt lat="45.54232463017068" lon="8.113667356679233"><ele>323.0</ele><time>2026-04-25T15:21:52.014Z</time></trkpt><trkpt lat="45.542336223935855" lon="8.113490523276685"><ele>323.0</ele><time>2026-04-25T15:21:53.014Z</time></trkpt><trkpt lat="45.54235377612118" lon="8.113321364010071"><ele>323.0</ele><time>2026-04-25T15:21:54.014Z</time></trkpt><trkpt lat="45.54237126718128" lon="8.113173220062789"><ele>323.6666666666667</ele><time>2026-04-25T15:21:55.014Z</time></trkpt><trkpt lat="45.542383345582785" lon="8.113048166443493"><ele>324.33333333333337</ele><time>2026-04-25T15:21:56.014Z</time></trkpt><trkpt lat="45.542391882516235" lon="8.112948077044763"><ele>325.0</ele><time>2026-04-25T15:21:57.014Z</time></trkpt><trkpt lat="45.54241043124662" lon="8.112817053067557"><ele>325.6666666666667</ele><time>2026-04-25T15:21:59.014Z</time></trkpt><trkpt lat="45.54242820182279" lon="8.11271100761856"><ele>326.3333333333333</ele><time>2026-04-25T15:22:01.014Z</time></trkpt><trkpt lat="45.54245537175221" lon="8.112588613868224"><ele>327.0</ele><time>2026-04-25T15:22:05.014Z</time></trkpt><trkpt lat="45.542348395389794" lon="8.112486065035906"><ele>327.0</ele><time>2026-04-25T15:22:07.014Z</time></trkpt><trkpt lat="45.54227872762708" lon="8.1124505513632"><ele>327.0</ele><time>2026-04-25T15:22:08.014Z</time></trkpt><trkpt lat="45.54220626297814" lon="8.112405035386109"><ele>327.0</ele><time>2026-04-25T15:22:09.014Z</time></trkpt><trkpt lat="45.54209567927911" lon="8.112342730172395"><ele>327.0</ele><time>2026-04-25T15:22:11.014Z</time></trkpt><trkpt lat="45.54202615034137" lon="8.112214033572549"><ele>327.0</ele><time>2026-04-25T15:22:13.014Z</time></trkpt><trkpt lat="45.54201698518946" lon="8.112057981165943"><ele>327.40000000000003</ele><time>2026-04-25T15:22:15.014Z</time></trkpt><trkpt lat="45.542023619231216" lon="8.111924158707252"><ele>327.8</ele><time>2026-04-25T15:22:17.014Z</time></trkpt><trkpt lat="45.54193896882544" lon="8.111791520465342"><ele>328.2</ele><time>2026-04-25T15:22:19.014Z</time></trkpt><trkpt lat="45.54186961208151" lon="8.111738471119255"><ele>328.6</ele><time>2026-04-25T15:22:20.014Z</time></trkpt><trkpt lat="45.541790761460284" lon="8.11168309852898"><ele>329.0</ele><time>2026-04-25T15:22:21.014Z</time></trkpt><trkpt lat="45.54170520269199" lon="8.111618617133438"><ele>329.25</ele><time>2026-04-25T15:22:22.014Z</time></trkpt><trkpt lat="45.54161485691138" lon="8.111544174046951"><ele>329.5</ele><time>2026-04-25T15:22:23.015Z</time></trkpt><trkpt lat="45.54151208998574" lon="8.111473822305038"><ele>329.75</ele><time>2026-04-25T15:22:24.015Z</time></trkpt><trkpt lat="45.54140466848539" lon="8.111399371148714"><ele>330.0</ele><time>2026-04-25T15:22:25.015Z</time></trkpt><trkpt lat="45.54129765090895" lon="8.111322011209653"><ele>330.0</ele><time>2026-04-25T15:22:26.015Z</time></trkpt><trkpt lat="45.54119565689235" lon="8.111244836997832"><ele>330.0</ele><time>2026-04-25T15:22:27.015Z</time></trkpt><trkpt lat="45.541089175471015" lon="8.111166978930088"><ele>330.0</ele><time>2026-04-25T15:22:28.015Z</time></trkpt><trkpt lat="45.54097218742029" lon="8.111082739535682"><ele>330.0</ele><time>2026-04-25T15:22:29.015Z</time></trkpt><trkpt lat="45.54085528051482" lon="8.111000386090359"><ele>330.0</ele><time>2026-04-25T15:22:30.015Z</time></trkpt><trkpt lat="45.54074519866964" lon="8.110922813626699"><ele>330.0</ele><time>2026-04-25T15:22:31.015Z</time></trkpt><trkpt lat="45.540639679827045" lon="8.110849236326096"><ele>330.0</ele><time>2026-04-25T15:22:32.015Z</time></trkpt><trkpt lat="45.54054001804451" lon="8.110781845740151"><ele>330.0</ele><time>2026-04-25T15:22:33.015Z</time></trkpt><trkpt lat="45.54043878743751" lon="8.110714796728512"><ele>329.5</ele><time>2026-04-25T15:22:34.015Z</time></trkpt><trkpt lat="45.540331666173095" lon="8.110642055357415"><ele>329.0</ele><time>2026-04-25T15:22:35.015Z</time></trkpt><trkpt lat="45.54021761382834" lon="8.110570851920688"><ele>328.5</ele><time>2026-04-25T15:22:36.015Z</time></trkpt><trkpt lat="45.54009966383154" lon="8.110503492701369"><ele>328.0</ele><time>2026-04-25T15:22:37.015Z</time></trkpt><trkpt lat="45.53999514092202" lon="8.110405280470872"><ele>328.0</ele><time>2026-04-25T15:22:38.015Z</time></trkpt><trkpt lat="45.539887332870194" lon="8.110330516955017"><ele>328.0</ele><time>2026-04-25T15:22:39.015Z</time></trkpt><trkpt lat="45.539777172495555" lon="8.11027635745255"><ele>328.0</ele><time>2026-04-25T15:22:40.015Z</time></trkpt><trkpt lat="45.53968723804688" lon="8.110187593795832"><ele>328.0</ele><time>2026-04-25T15:22:41.015Z</time></trkpt><trkpt lat="45.53959895411417" lon="8.110118872304461"><ele>328.0</ele><time>2026-04-25T15:22:42.015Z</time></trkpt><trkpt lat="45.53951897634064" lon="8.110061785389513"><ele>327.8333333333333</ele><time>2026-04-25T15:22:43.015Z</time></trkpt><trkpt lat="45.539447590218565" lon="8.110012587082153"><ele>327.66666666666663</ele><time>2026-04-25T15:22:44.015Z</time></trkpt><trkpt lat="45.53935626463721" lon="8.109945498647605"><ele>327.5</ele><time>2026-04-25T15:22:46.015Z</time></trkpt><trkpt lat="45.539299820484864" lon="8.109891747931098"><ele>327.3333333333333</ele><time>2026-04-25T15:22:48.015Z</time></trkpt><trkpt lat="45.53924350380358" lon="8.109833166378055"><ele>327.1666666666667</ele><time>2026-04-25T15:22:50.015Z</time></trkpt><trkpt lat="45.53916399971321" lon="8.109782580709933"><ele>327.0</ele><time>2026-04-25T15:22:52.015Z</time></trkpt><trkpt lat="45.53910479906593" lon="8.109850575598326"><ele>326.8333333333333</ele><time>2026-04-25T15:22:53.015Z</time></trkpt><trkpt lat="45.53904415631608" lon="8.109910045316953"><ele>326.6666666666667</ele><time>2026-04-25T15:22:54.015Z</time></trkpt><trkpt lat="45.53897618423814" lon="8.10997654890775"><ele>326.5</ele><time>2026-04-25T15:22:55.015Z</time></trkpt><trkpt lat="45.538911825251674" lon="8.110050123052416"><ele>326.33333333333337</ele><time>2026-04-25T15:22:56.015Z</time></trkpt><trkpt lat="45.53884423416853" lon="8.110134292016445"><ele>326.1666666666667</ele><time>2026-04-25T15:22:57.015Z</time></trkpt><trkpt lat="45.53875945489422" lon="8.11023818425309"><ele>326.0</ele><time>2026-04-25T15:22:58.015Z</time></trkpt><trkpt lat="45.538670244827195" lon="8.11034598201139"><ele>326.0</ele><time>2026-04-25T15:22:59.015Z</time></trkpt><trkpt lat="45.53858054063219" lon="8.110453434415305"><ele>326.0</ele><time>2026-04-25T15:23:00.015Z</time></trkpt><trkpt lat="45.53849803088791" lon="8.11055678257942"><ele>326.0</ele><time>2026-04-25T15:23:01.015Z</time></trkpt><trkpt lat="45.53841706337388" lon="8.110655639746856"><ele>326.0</ele><time>2026-04-25T15:23:02.015Z</time></trkpt><trkpt lat="45.538336098213" lon="8.110754914419248"><ele>326.0</ele><time>2026-04-25T15:23:03.015Z</time></trkpt><trkpt lat="45.53825143930134" lon="8.110859299116301"><ele>325.8</ele><time>2026-04-25T15:23:04.015Z</time></trkpt><trkpt lat="45.53816796189923" lon="8.110960746243174"><ele>325.6</ele><time>2026-04-25T15:23:05.015Z</time></trkpt><trkpt lat="45.538091555416415" lon="8.111055824352606"><ele>325.4</ele><time>2026-04-25T15:23:06.015Z</time></trkpt><trkpt lat="45.538023709704966" lon="8.111125866035263"><ele>325.2</ele><time>2026-04-25T15:23:07.015Z</time></trkpt><trkpt lat="45.53796521343304" lon="8.111212504108137"><ele>325.0</ele><time>2026-04-25T15:23:08.015Z</time></trkpt><trkpt lat="45.53791118656193" lon="8.111299050421424"><ele>325.0</ele><time>2026-04-25T15:23:09.015Z</time></trkpt><trkpt lat="45.53787391141198" lon="8.111386573360793"><ele>325.0</ele><time>2026-04-25T15:23:10.015Z</time></trkpt><trkpt lat="45.53780323298583" lon="8.11149583819427"><ele>325.0</ele><time>2026-04-25T15:23:12.015Z</time></trkpt><trkpt lat="45.53772586678332" lon="8.111572064471318"><ele>325.0</ele><time>2026-04-25T15:23:14.015Z</time></trkpt><trkpt lat="45.53767499407146" lon="8.111465909576818"><ele>325.0</ele><time>2026-04-25T15:23:15.015Z</time></trkpt><trkpt lat="45.53765564336515" lon="8.111370060459805"><ele>325.0</ele><time>2026-04-25T15:23:16.016Z</time></trkpt><trkpt lat="45.537620171605745" lon="8.111288788749995"><ele>325.0</ele><time>2026-04-25T15:23:17.016Z</time></trkpt><trkpt lat="45.537581771407204" lon="8.11119292850862"><ele>325.0</ele><time>2026-04-25T15:23:18.016Z</time></trkpt><trkpt lat="45.537519349710394" lon="8.111081979872475"><ele>325.0</ele><time>2026-04-25T15:23:19.016Z</time></trkpt><trkpt lat="45.53744076842543" lon="8.11094859107433"><ele>325.0</ele><time>2026-04-25T15:23:20.016Z</time></trkpt><trkpt lat="45.5373584955112" lon="8.110807475536621"><ele>325.0</ele><time>2026-04-25T15:23:21.016Z</time></trkpt><trkpt lat="45.53727769715339" lon="8.110672630044924"><ele>325.0</ele><time>2026-04-25T15:23:22.016Z</time></trkpt><trkpt lat="45.537210195847514" lon="8.110538314098228"><ele>325.0</ele><time>2026-04-25T15:23:23.016Z</time></trkpt><trkpt lat="45.537135994755836" lon="8.11039601244023"><ele>325.0</ele><time>2026-04-25T15:23:24.016Z</time></trkpt><trkpt lat="45.53705832084891" lon="8.110253485582867"><ele>325.0</ele><time>2026-04-25T15:23:25.016Z</time></trkpt><trkpt lat="45.536983320385524" lon="8.110108941542261"><ele>324.5</ele><time>2026-04-25T15:23:26.016Z</time></trkpt><trkpt lat="45.53690863639941" lon="8.109965767085225"><ele>324.0</ele><time>2026-04-25T15:23:27.016Z</time></trkpt><trkpt lat="45.536835026411204" lon="8.109834962792847"><ele>323.5</ele><time>2026-04-25T15:23:28.016Z</time></trkpt><trkpt lat="45.53678656843754" lon="8.109684669992026"><ele>323.0</ele><time>2026-04-25T15:23:29.016Z</time></trkpt><trkpt lat="45.53671687522671" lon="8.109551248268408"><ele>323.0</ele><time>2026-04-25T15:23:30.016Z</time></trkpt><trkpt lat="45.53665118805039" lon="8.109425004374936"><ele>323.0</ele><time>2026-04-25T15:23:31.016Z</time></trkpt><trkpt lat="45.53658293473505" lon="8.109286533107051"><ele>323.0</ele><time>2026-04-25T15:23:32.016Z</time></trkpt><trkpt lat="45.536511163088164" lon="8.109141418611927"><ele>323.0</ele><time>2026-04-25T15:23:33.016Z</time></trkpt><trkpt lat="45.53643386434035" lon="8.108992125427505"><ele>323.25</ele><time>2026-04-25T15:23:34.016Z</time></trkpt><trkpt lat="45.536355731311076" lon="8.108840598655568"><ele>323.5</ele><time>2026-04-25T15:23:35.016Z</time></trkpt><trkpt lat="45.53627989494691" lon="8.108689488319792"><ele>323.75</ele><time>2026-04-25T15:23:36.016Z</time></trkpt><trkpt lat="45.53620374181839" lon="8.108542744405632"><ele>324.0</ele><time>2026-04-25T15:23:37.016Z</time></trkpt><trkpt lat="45.53612919832256" lon="8.108400580322769"><ele>323.75</ele><time>2026-04-25T15:23:38.016Z</time></trkpt><trkpt lat="45.5360544495776" lon="8.108256793049458"><ele>323.5</ele><time>2026-04-25T15:23:39.016Z</time></trkpt><trkpt lat="45.53598271412351" lon="8.108113554223149"><ele>323.25</ele><time>2026-04-25T15:23:40.016Z</time></trkpt><trkpt lat="45.53591108973035" lon="8.107973466655285"><ele>323.0</ele><time>2026-04-25T15:23:41.016Z</time></trkpt><trkpt lat="45.535845512281085" lon="8.107829993906883"><ele>323.0</ele><time>2026-04-25T15:23:42.016Z</time></trkpt><trkpt lat="45.535778119274525" lon="8.107693961363996"><ele>323.0</ele><time>2026-04-25T15:23:43.016Z</time></trkpt><trkpt lat="45.53570932917194" lon="8.107553418435673"><ele>323.0</ele><time>2026-04-25T15:23:44.016Z</time></trkpt><trkpt lat="45.535642792723685" lon="8.107420032657009"><ele>323.0</ele><time>2026-04-25T15:23:45.016Z</time></trkpt><trkpt lat="45.535575901569786" lon="8.107286829555676"><ele>323.0</ele><time>2026-04-25T15:23:46.016Z</time></trkpt><trkpt lat="45.53550503962873" lon="8.107160578604605"><ele>323.0</ele><time>2026-04-25T15:23:47.016Z</time></trkpt><trkpt lat="45.5354377877879" lon="8.107037733155426"><ele>323.0</ele><time>2026-04-25T15:23:48.016Z</time></trkpt><trkpt lat="45.53537513735028" lon="8.106915234730344"><ele>323.0</ele><time>2026-04-25T15:23:49.016Z</time></trkpt><trkpt lat="45.53531775299365" lon="8.106796334776027"><ele>323.0</ele><time>2026-04-25T15:23:50.016Z</time></trkpt><trkpt lat="45.53526287479999" lon="8.10668422534183"><ele>323.0</ele><time>2026-04-25T15:23:51.016Z</time></trkpt><trkpt lat="45.5352107406422" lon="8.106583447870829"><ele>323.0</ele><time>2026-04-25T15:23:52.016Z</time></trkpt><trkpt lat="45.53516369480856" lon="8.106493487255934"><ele>323.0</ele><time>2026-04-25T15:23:53.016Z</time></trkpt><trkpt lat="45.53513486817679" lon="8.106394780230525"><ele>323.0</ele><time>2026-04-25T15:23:54.016Z</time></trkpt><trkpt lat="45.535092916384194" lon="8.106314277927405"><ele>323.0</ele><time>2026-04-25T15:23:55.016Z</time></trkpt><trkpt lat="45.53504902592148" lon="8.106225782238628"><ele>323.0</ele><time>2026-04-25T15:23:56.016Z</time></trkpt><trkpt lat="45.53499580647186" lon="8.106122740021329"><ele>323.0</ele><time>2026-04-25T15:23:57.016Z</time></trkpt><trkpt lat="45.534943183739045" lon="8.106016298748703"><ele>323.0</ele><time>2026-04-25T15:23:58.016Z</time></trkpt><trkpt lat="45.53488952447196" lon="8.105908711485501"><ele>323.0</ele><time>2026-04-25T15:23:59.016Z</time></trkpt><trkpt lat="45.53483096707084" lon="8.105795796214075"><ele>323.0</ele><time>2026-04-25T15:24:00.016Z</time></trkpt><trkpt lat="45.53477147251445" lon="8.105681147581308"><ele>323.0</ele><time>2026-04-25T15:24:01.016Z</time></trkpt><trkpt lat="45.53471534093478" lon="8.10557109296828"><ele>323.1666666666667</ele><time>2026-04-25T15:24:02.016Z</time></trkpt><trkpt lat="45.53465895918856" lon="8.105464594184399"><ele>323.33333333333337</ele><time>2026-04-25T15:24:03.016Z</time></trkpt><trkpt lat="45.534613966273845" lon="8.105376659566353"><ele>323.5</ele><time>2026-04-25T15:24:04.016Z</time></trkpt><trkpt lat="45.534554016087085" lon="8.105262334442559"><ele>323.6666666666667</ele><time>2026-04-25T15:24:06.016Z</time></trkpt><trkpt lat="45.53460640695931" lon="8.105349609708702"><ele>323.8333333333333</ele><time>2026-04-25T15:24:12.017Z</time></trkpt><trkpt lat="45.53453789266594" lon="8.105356669711755"><ele>324.0</ele><time>2026-04-25T15:24:13.017Z</time></trkpt><trkpt lat="45.534713252459795" lon="8.105675013436532"><ele>323.79999999999995</ele><time>2026-04-25T15:24:15.017Z</time></trkpt><trkpt lat="45.53477290300948" lon="8.10578744338468"><ele>323.59999999999997</ele><time>2026-04-25T15:24:16.017Z</time></trkpt><trkpt lat="45.534835017557825" lon="8.105904771326482"><ele>323.4</ele><time>2026-04-25T15:24:17.017Z</time></trkpt><trkpt lat="45.534894436769" lon="8.106026174875774"><ele>323.2</ele><time>2026-04-25T15:24:18.017Z</time></trkpt><trkpt lat="45.53495393210261" lon="8.10614544287516"><ele>323.0</ele><time>2026-04-25T15:24:19.017Z</time></trkpt><trkpt lat="45.535011332102485" lon="8.106253565985137"><ele>323.0</ele><time>2026-04-25T15:24:20.017Z</time></trkpt><trkpt lat="45.53505713482189" lon="8.106361814962357"><ele>323.0</ele><time>2026-04-25T15:24:21.017Z</time></trkpt><trkpt lat="45.53510645253206" lon="8.106452281337868"><ele>323.0</ele><time>2026-04-25T15:24:22.017Z</time></trkpt><trkpt lat="45.535148922994146" lon="8.106546311615519"><ele>323.0</ele><time>2026-04-25T15:24:23.017Z</time></trkpt><trkpt lat="45.535194487067926" lon="8.106632501195568"><ele>323.0</ele><time>2026-04-25T15:24:24.017Z</time></trkpt><trkpt lat="45.53523726924676" lon="8.106716005730181"><ele>323.0</ele><time>2026-04-25T15:24:25.017Z</time></trkpt><trkpt lat="45.53527877386281" lon="8.106794797499234"><ele>323.0</ele><time>2026-04-25T15:24:26.017Z</time></trkpt><trkpt lat="45.535334295463294" lon="8.106915066903298"><ele>323.0</ele><time>2026-04-25T15:24:28.017Z</time></trkpt><trkpt lat="45.53537764273158" lon="8.107007087784664"><ele>323.0</ele><time>2026-04-25T15:24:30.017Z</time></trkpt><trkpt lat="45.535408573121956" lon="8.10708870590831"><ele>323.0</ele><time>2026-04-25T15:24:33.017Z</time></trkpt><trkpt lat="45.535365656904126" lon="8.106989308897196"><ele>323.0</ele><time>2026-04-25T15:24:50.017Z</time></trkpt><trkpt lat="45.535322471460866" lon="8.106898348415362"><ele>323.0</ele><time>2026-04-25T15:24:54.017Z</time></trkpt><trkpt lat="45.53526620863235" lon="8.106835896747041"><ele>323.0</ele><time>2026-04-25T15:25:21.018Z</time></trkpt><trkpt lat="45.535235677039246" lon="8.10675727886371"><ele>323.0</ele><time>2026-04-25T15:25:26.018Z</time></trkpt><trkpt lat="45.535214178522104" lon="8.106618658417473"><ele>323.0</ele><time>2026-04-25T15:25:30.018Z</time></trkpt><trkpt lat="45.53514403754876" lon="8.106453151615442"><ele>323.0</ele><time>2026-04-25T15:25:32.018Z</time></trkpt><trkpt lat="45.535054883987094" lon="8.106283015766664"><ele>323.0</ele><time>2026-04-25T15:25:33.018Z</time></trkpt><trkpt lat="45.53500808268792" lon="8.106151201888562"><ele>323.0</ele><time>2026-04-25T15:25:34.018Z</time></trkpt><trkpt lat="45.5349467291196" lon="8.106028613467817"><ele>323.0</ele><time>2026-04-25T15:25:35.018Z</time></trkpt><trkpt lat="45.53487743734594" lon="8.105890163646736"><ele>323.0</ele><time>2026-04-25T15:25:36.018Z</time></trkpt><trkpt lat="45.534799376274506" lon="8.105734192917378"><ele>323.0</ele><time>2026-04-25T15:25:37.018Z</time></trkpt><trkpt lat="45.53470280861193" lon="8.105578274712217"><ele>323.33333333333337</ele><time>2026-04-25T15:25:38.018Z</time></trkpt><trkpt lat="45.53461035963096" lon="8.105391953778268"><ele>323.6666666666667</ele><time>2026-04-25T15:25:39.018Z</time></trkpt><trkpt lat="45.534513679629725" lon="8.105204515161233"><ele>324.0</ele><time>2026-04-25T15:25:40.018Z</time></trkpt><trkpt lat="45.534440135347694" lon="8.10501817887778"><ele>323.6666666666667</ele><time>2026-04-25T15:25:41.018Z</time></trkpt><trkpt lat="45.53433968842349" lon="8.104858039330384"><ele>323.33333333333337</ele><time>2026-04-25T15:25:42.018Z</time></trkpt><trkpt lat="45.53424854137772" lon="8.104676281377023"><ele>323.0</ele><time>2026-04-25T15:25:43.018Z</time></trkpt><trkpt lat="45.53416772738273" lon="8.104474937430526"><ele>323.0</ele><time>2026-04-25T15:25:44.018Z</time></trkpt><trkpt lat="45.534077408465784" lon="8.104294408852118"><ele>323.0</ele><time>2026-04-25T15:25:45.018Z</time></trkpt><trkpt lat="45.53397526002501" lon="8.104131826751786"><ele>323.0</ele><time>2026-04-25T15:25:46.018Z</time></trkpt><trkpt lat="45.53389961333345" lon="8.103937991782887"><ele>323.0</ele><time>2026-04-25T15:25:47.018Z</time></trkpt><trkpt lat="45.5338054938297" lon="8.103750436888935"><ele>323.0</ele><time>2026-04-25T15:25:48.018Z</time></trkpt><trkpt lat="45.533708670818335" lon="8.103556518496163"><ele>323.0</ele><time>2026-04-25T15:25:49.018Z</time></trkpt><trkpt lat="45.53360791138778" lon="8.103354706165153"><ele>323.33333333333337</ele><time>2026-04-25T15:25:50.018Z</time></trkpt><trkpt lat="45.533493050063726" lon="8.103165507138163"><ele>323.6666666666667</ele><time>2026-04-25T15:25:51.018Z</time></trkpt><trkpt lat="45.533397033444" lon="8.102967404227297"><ele>324.0</ele><time>2026-04-25T15:25:52.018Z</time></trkpt><trkpt lat="45.53330626924016" lon="8.102781431408449"><ele>324.0</ele><time>2026-04-25T15:25:53.018Z</time></trkpt><trkpt lat="45.53321868805761" lon="8.102600070770462"><ele>324.0</ele><time>2026-04-25T15:25:54.018Z</time></trkpt><trkpt lat="45.533128063555985" lon="8.102421495858797"><ele>324.0</ele><time>2026-04-25T15:25:55.018Z</time></trkpt><trkpt lat="45.53303413168852" lon="8.102236950726223"><ele>324.3333333333333</ele><time>2026-04-25T15:25:56.019Z</time></trkpt><trkpt lat="45.532954433091135" lon="8.102042958019208"><ele>324.66666666666663</ele><time>2026-04-25T15:25:57.019Z</time></trkpt><trkpt lat="45.53285426128223" lon="8.10185258602279"><ele>325.0</ele><time>2026-04-25T15:25:58.019Z</time></trkpt><trkpt lat="45.53275494732265" lon="8.101658497272377"><ele>324.66666666666663</ele><time>2026-04-25T15:25:59.019Z</time></trkpt><trkpt lat="45.532654746234435" lon="8.101460705204978"><ele>324.3333333333333</ele><time>2026-04-25T15:26:00.019Z</time></trkpt><trkpt lat="45.532561905082545" lon="8.101270635710526"><ele>324.0</ele><time>2026-04-25T15:26:01.019Z</time></trkpt><trkpt lat="45.53247546902371" lon="8.1010896287585"><ele>324.0</ele><time>2026-04-25T15:26:02.019Z</time></trkpt><trkpt lat="45.53239207274365" lon="8.100925063283004"><ele>324.0</ele><time>2026-04-25T15:26:03.019Z</time></trkpt><trkpt lat="45.53231678171038" lon="8.100768601654957"><ele>324.0</ele><time>2026-04-25T15:26:04.019Z</time></trkpt><trkpt lat="45.532239754637146" lon="8.100626118236672"><ele>324.0</ele><time>2026-04-25T15:26:05.019Z</time></trkpt><trkpt lat="45.532170861299925" lon="8.100480456628826"><ele>324.0</ele><time>2026-04-25T15:26:06.019Z</time></trkpt><trkpt lat="45.532099118202986" lon="8.100326956471285"><ele>324.0</ele><time>2026-04-25T15:26:07.019Z</time></trkpt><trkpt lat="45.53201947593329" lon="8.100154986755847"><ele>324.0</ele><time>2026-04-25T15:26:08.019Z</time></trkpt><trkpt lat="45.53191936532829" lon="8.099980466005672"><ele>324.0</ele><time>2026-04-25T15:26:09.019Z</time></trkpt><trkpt lat="45.53182065323161" lon="8.099791581688022"><ele>324.0</ele><time>2026-04-25T15:26:10.019Z</time></trkpt><trkpt lat="45.5317159072502" lon="8.099590578420969"><ele>324.0</ele><time>2026-04-25T15:26:11.019Z</time></trkpt><trkpt lat="45.53160973502494" lon="8.099379879675952"><ele>324.0</ele><time>2026-04-25T15:26:12.019Z</time></trkpt><trkpt lat="45.531501981685075" lon="8.099165998294467"><ele>324.3333333333333</ele><time>2026-04-25T15:26:13.019Z</time></trkpt><trkpt lat="45.53139459365354" lon="8.098950256085862"><ele>324.66666666666663</ele><time>2026-04-25T15:26:14.019Z</time></trkpt><trkpt lat="45.53128665788847" lon="8.098732943186867"><ele>325.0</ele><time>2026-04-25T15:26:15.019Z</time></trkpt><trkpt lat="45.53117484497233" lon="8.098517435674456"><ele>324.66666666666663</ele><time>2026-04-25T15:26:16.019Z</time></trkpt><trkpt lat="45.531064217390416" lon="8.098301087650224"><ele>324.3333333333333</ele><time>2026-04-25T15:26:17.019Z</time></trkpt><trkpt lat="45.530958262522084" lon="8.09808886340813"><ele>324.0</ele><time>2026-04-25T15:26:18.019Z</time></trkpt><trkpt lat="45.53085492801018" lon="8.097884907594144"><ele>324.0</ele><time>2026-04-25T15:26:19.019Z</time></trkpt><trkpt lat="45.53075496919342" lon="8.097683445955814"><ele>324.0</ele><time>2026-04-25T15:26:20.019Z</time></trkpt><trkpt lat="45.53066785750784" lon="8.097471032166434"><ele>324.0</ele><time>2026-04-25T15:26:21.019Z</time></trkpt><trkpt lat="45.53056225573736" lon="8.097260966408406"><ele>324.0</ele><time>2026-04-25T15:26:22.019Z</time></trkpt><trkpt lat="45.53045071606467" lon="8.09703723554131"><ele>324.0</ele><time>2026-04-25T15:26:23.019Z</time></trkpt><trkpt lat="45.530335761628336" lon="8.096806474146721"><ele>324.0</ele><time>2026-04-25T15:26:24.019Z</time></trkpt><trkpt lat="45.53021767769286" lon="8.09656940067191"><ele>324.3333333333333</ele><time>2026-04-25T15:26:25.019Z</time></trkpt><trkpt lat="45.53010051272162" lon="8.096334172149271"><ele>324.66666666666663</ele><time>2026-04-25T15:26:26.019Z</time></trkpt><trkpt lat="45.52998370427218" lon="8.096099410653235"><ele>325.0</ele><time>2026-04-25T15:26:27.019Z</time></trkpt><trkpt lat="45.5298654854291" lon="8.09586168738528"><ele>324.66666666666663</ele><time>2026-04-25T15:26:28.019Z</time></trkpt><trkpt lat="45.52974986902038" lon="8.095629197492725"><ele>324.3333333333333</ele><time>2026-04-25T15:26:29.019Z</time></trkpt><trkpt lat="45.52963268297577" lon="8.095393551281113"><ele>324.0</ele><time>2026-04-25T15:26:30.019Z</time></trkpt><trkpt lat="45.52951565606932" lon="8.09515822494895"><ele>324.0</ele><time>2026-04-25T15:26:31.019Z</time></trkpt><trkpt lat="45.5294010881854" lon="8.09492715013276"><ele>324.0</ele><time>2026-04-25T15:26:32.019Z</time></trkpt><trkpt lat="45.52928553931631" lon="8.09469432075236"><ele>324.0</ele><time>2026-04-25T15:26:33.019Z</time></trkpt><trkpt lat="45.529172034750175" lon="8.09446584454688"><ele>324.0</ele><time>2026-04-25T15:26:34.019Z</time></trkpt><trkpt lat="45.529059140480555" lon="8.094242237336909"><ele>324.0</ele><time>2026-04-25T15:26:35.019Z</time></trkpt><trkpt lat="45.52894837712204" lon="8.094023862001157"><ele>324.0</ele><time>2026-04-25T15:26:36.019Z</time></trkpt><trkpt lat="45.5288406040656" lon="8.093811382127749"><ele>324.3333333333333</ele><time>2026-04-25T15:26:37.019Z</time></trkpt><trkpt lat="45.528737591496096" lon="8.093616434979447"><ele>324.66666666666663</ele><time>2026-04-25T15:26:38.019Z</time></trkpt><trkpt lat="45.52864615489453" lon="8.093424490731682"><ele>325.0</ele><time>2026-04-25T15:26:39.019Z</time></trkpt><trkpt lat="45.52855919016987" lon="8.093243761645862"><ele>325.0</ele><time>2026-04-25T15:26:40.019Z</time></trkpt><trkpt lat="45.52847724416159" lon="8.093074308694915"><ele>325.0</ele><time>2026-04-25T15:26:41.019Z</time></trkpt><trkpt lat="45.52839642351862" lon="8.09291446841811"><ele>325.0</ele><time>2026-04-25T15:26:42.019Z</time></trkpt><trkpt lat="45.52831002318887" lon="8.092754568721409"><ele>325.0</ele><time>2026-04-25T15:26:43.019Z</time></trkpt><trkpt lat="45.52822519881952" lon="8.092581048911686"><ele>325.3333333333333</ele><time>2026-04-25T15:26:44.019Z</time></trkpt><trkpt lat="45.52813669564217" lon="8.092402736345846"><ele>325.6666666666667</ele><time>2026-04-25T15:26:45.019Z</time></trkpt><trkpt lat="45.52804400075713" lon="8.092213346880666"><ele>326.0</ele><time>2026-04-25T15:26:46.019Z</time></trkpt><trkpt lat="45.5279515965549" lon="8.092022603445177"><ele>324.6666666666667</ele><time>2026-04-25T15:26:47.019Z</time></trkpt><trkpt lat="45.527856314399" lon="8.091841140487935"><ele>323.3333333333333</ele><time>2026-04-25T15:26:48.019Z</time></trkpt><trkpt lat="45.52776275011551" lon="8.091662424708845"><ele>322.0</ele><time>2026-04-25T15:26:49.019Z</time></trkpt><trkpt lat="45.52767774208735" lon="8.09149721399358"><ele>321.5</ele><time>2026-04-25T15:26:50.02Z</time></trkpt><trkpt lat="45.52760516155229" lon="8.091342171208371"><ele>321.0</ele><time>2026-04-25T15:26:51.02Z</time></trkpt><trkpt lat="45.5275435646895" lon="8.091189183790188"><ele>320.5</ele><time>2026-04-25T15:26:52.02Z</time></trkpt><trkpt lat="45.527499807251694" lon="8.091045111550175"><ele>320.0</ele><time>2026-04-25T15:26:53.02Z</time></trkpt><trkpt lat="45.527466784462014" lon="8.090914371530928"><ele>320.0</ele><time>2026-04-25T15:26:54.02Z</time></trkpt><trkpt lat="45.5274447413011" lon="8.090795891205325"><ele>320.0</ele><time>2026-04-25T15:26:55.02Z</time></trkpt><trkpt lat="45.527439769837926" lon="8.090678789293944"><ele>320.0</ele><time>2026-04-25T15:26:56.02Z</time></trkpt><trkpt lat="45.52741240254008" lon="8.09057563745414"><ele>320.0</ele><time>2026-04-25T15:26:57.02Z</time></trkpt><trkpt lat="45.52741934835056" lon="8.0904594876401"><ele>320.0</ele><time>2026-04-25T15:26:58.02Z</time></trkpt><trkpt lat="45.52737534598589" lon="8.09036605908041"><ele>320.0</ele><time>2026-04-25T15:26:59.02Z</time></trkpt><trkpt lat="45.52730932428156" lon="8.090290307909967"><ele>320.0</ele><time>2026-04-25T15:27:00.02Z</time></trkpt><trkpt lat="45.52722631754415" lon="8.090227757406575"><ele>320.0</ele><time>2026-04-25T15:27:01.02Z</time></trkpt><trkpt lat="45.52712746565468" lon="8.090160437134708"><ele>320.0</ele><time>2026-04-25T15:27:02.02Z</time></trkpt><trkpt lat="45.52702320767015" lon="8.090066054742284"><ele>320.0</ele><time>2026-04-25T15:27:03.02Z</time></trkpt><trkpt lat="45.52692199096024" lon="8.089940294903354"><ele>320.25</ele><time>2026-04-25T15:27:04.02Z</time></trkpt><trkpt lat="45.526844373665426" lon="8.089775144929176"><ele>320.5</ele><time>2026-04-25T15:27:05.02Z</time></trkpt><trkpt lat="45.52676232583338" lon="8.089614476126272"><ele>320.75</ele><time>2026-04-25T15:27:06.02Z</time></trkpt><trkpt lat="45.52667410260932" lon="8.089452659511391"><ele>321.0</ele><time>2026-04-25T15:27:07.02Z</time></trkpt><trkpt lat="45.52658764669549" lon="8.089282240854189"><ele>321.0</ele><time>2026-04-25T15:27:08.02Z</time></trkpt><trkpt lat="45.52649891245197" lon="8.089109093195251"><ele>321.0</ele><time>2026-04-25T15:27:09.02Z</time></trkpt><trkpt lat="45.526413663080156" lon="8.0889403457238"><ele>321.0</ele><time>2026-04-25T15:27:10.02Z</time></trkpt><trkpt lat="45.52632930140463" lon="8.088774953556301"><ele>321.0</ele><time>2026-04-25T15:27:11.02Z</time></trkpt><trkpt lat="45.52623980956272" lon="8.088603832161944"><ele>320.6666666666667</ele><time>2026-04-25T15:27:12.02Z</time></trkpt><trkpt lat="45.52614585628586" lon="8.088423232228577"><ele>320.33333333333337</ele><time>2026-04-25T15:27:13.02Z</time></trkpt><trkpt lat="45.52605321621342" lon="8.088240803267606"><ele>320.0</ele><time>2026-04-25T15:27:14.02Z</time></trkpt><trkpt lat="45.52595750242467" lon="8.088054979505513"><ele>320.0</ele><time>2026-04-25T15:27:15.02Z</time></trkpt><trkpt lat="45.52586435402125" lon="8.087871710920142"><ele>320.0</ele><time>2026-04-25T15:27:16.02Z</time></trkpt><trkpt lat="45.52577151844076" lon="8.087689819321188"><ele>320.0</ele><time>2026-04-25T15:27:17.02Z</time></trkpt><trkpt lat="45.52568282397831" lon="8.087510733309342"><ele>320.0</ele><time>2026-04-25T15:27:18.02Z</time></trkpt><trkpt lat="45.525597534574885" lon="8.087336867213796"><ele>320.0</ele><time>2026-04-25T15:27:19.02Z</time></trkpt><trkpt lat="45.52551282248481" lon="8.087165924192142"><ele>320.0</ele><time>2026-04-25T15:27:20.02Z</time></trkpt><trkpt lat="45.52544396029462" lon="8.086994910083318"><ele>320.0</ele><time>2026-04-25T15:27:21.02Z</time></trkpt><trkpt lat="45.5253585161025" lon="8.086833674422392"><ele>320.0</ele><time>2026-04-25T15:27:22.02Z</time></trkpt><trkpt lat="45.525260094910124" lon="8.086686885084752"><ele>320.0</ele><time>2026-04-25T15:27:23.02Z</time></trkpt><trkpt lat="45.52514516393946" lon="8.086553616041025"><ele>320.0</ele><time>2026-04-25T15:27:24.02Z</time></trkpt><trkpt lat="45.52501859835577" lon="8.08643519712824"><ele>320.0</ele><time>2026-04-25T15:27:25.02Z</time></trkpt><trkpt lat="45.52488199142686" lon="8.086324985377038"><ele>320.6666666666667</ele><time>2026-04-25T15:27:26.02Z</time></trkpt><trkpt lat="45.52473864020931" lon="8.086216444840714"><ele>321.3333333333333</ele><time>2026-04-25T15:27:27.02Z</time></trkpt><trkpt lat="45.52459473326989" lon="8.086107817733396"><ele>322.0</ele><time>2026-04-25T15:27:28.02Z</time></trkpt><trkpt lat="45.524453875817" lon="8.08600008263098"><ele>322.0</ele><time>2026-04-25T15:27:29.02Z</time></trkpt><trkpt lat="45.52431416901816" lon="8.085891122118964"><ele>322.0</ele><time>2026-04-25T15:27:30.02Z</time></trkpt><trkpt lat="45.524176376506404" lon="8.085782564766072"><ele>322.0</ele><time>2026-04-25T15:27:31.02Z</time></trkpt><trkpt lat="45.52403734080046" lon="8.085681732941442"><ele>322.3333333333333</ele><time>2026-04-25T15:27:32.02Z</time></trkpt><trkpt lat="45.52390159237602" lon="8.08557528762639"><ele>322.6666666666667</ele><time>2026-04-25T15:27:33.02Z</time></trkpt><trkpt lat="45.52376739397878" lon="8.085470852359887"><ele>323.0</ele><time>2026-04-25T15:27:34.02Z</time></trkpt><trkpt lat="45.52363470722504" lon="8.085365156114577"><ele>321.0</ele><time>2026-04-25T15:27:35.02Z</time></trkpt><trkpt lat="45.523502513355595" lon="8.08524656388892"><ele>319.0</ele><time>2026-04-25T15:27:36.02Z</time></trkpt><trkpt lat="45.52337530479849" lon="8.085103776898293"><ele>317.0</ele><time>2026-04-25T15:27:37.02Z</time></trkpt><trkpt lat="45.523252812627675" lon="8.084949700298234"><ele>317.33333333333337</ele><time>2026-04-25T15:27:38.02Z</time></trkpt><trkpt lat="45.523138571733405" lon="8.084780370015416"><ele>317.6666666666667</ele><time>2026-04-25T15:27:39.02Z</time></trkpt><trkpt lat="45.523035816891685" lon="8.084602178564575"><ele>318.0</ele><time>2026-04-25T15:27:40.02Z</time></trkpt><trkpt lat="45.52294573810877" lon="8.084415181168877"><ele>317.75</ele><time>2026-04-25T15:27:41.02Z</time></trkpt><trkpt lat="45.52286667914416" lon="8.084226167118404"><ele>317.5</ele><time>2026-04-25T15:27:42.02Z</time></trkpt><trkpt lat="45.522798083618156" lon="8.084036704477354"><ele>317.25</ele><time>2026-04-25T15:27:43.021Z</time></trkpt><trkpt lat="45.52274107489781" lon="8.083847470623683"><ele>317.0</ele><time>2026-04-25T15:27:44.021Z</time></trkpt><trkpt lat="45.52269517644205" lon="8.083659720031205"><ele>317.0</ele><time>2026-04-25T15:27:45.021Z</time></trkpt><trkpt lat="45.52265927415075" lon="8.083479813688674"><ele>317.0</ele><time>2026-04-25T15:27:46.021Z</time></trkpt><trkpt lat="45.52262759195638" lon="8.083304370645594"><ele>317.0</ele><time>2026-04-25T15:27:47.021Z</time></trkpt><trkpt lat="45.522597882576314" lon="8.083139268167422"><ele>317.0</ele><time>2026-04-25T15:27:48.021Z</time></trkpt><trkpt lat="45.52256821673628" lon="8.082989776918776"><ele>317.5</ele><time>2026-04-25T15:27:49.021Z</time></trkpt><trkpt lat="45.522545023908364" lon="8.082857584332801"><ele>318.0</ele><time>2026-04-25T15:27:50.021Z</time></trkpt><trkpt lat="45.52252473707413" lon="8.082740077199869"><ele>318.5</ele><time>2026-04-25T15:27:51.021Z</time></trkpt><trkpt lat="45.52250393552332" lon="8.082627449323596"><ele>319.0</ele><time>2026-04-25T15:27:52.021Z</time></trkpt><trkpt lat="45.52248660412908" lon="8.082523054149743"><ele>319.5</ele><time>2026-04-25T15:27:53.021Z</time></trkpt><trkpt lat="45.52246969584227" lon="8.082419579498993"><ele>320.0</ele><time>2026-04-25T15:27:54.021Z</time></trkpt><trkpt lat="45.52245026858203" lon="8.082311289331747"><ele>320.2</ele><time>2026-04-25T15:27:55.021Z</time></trkpt><trkpt lat="45.52242851689765" lon="8.082187944986169"><ele>320.4</ele><time>2026-04-25T15:27:56.021Z</time></trkpt><trkpt lat="45.52240117299368" lon="8.082051301848963"><ele>320.6</ele><time>2026-04-25T15:27:57.021Z</time></trkpt><trkpt lat="45.52237410655355" lon="8.081901777188195"><ele>320.8</ele><time>2026-04-25T15:27:58.021Z</time></trkpt><trkpt lat="45.522348266382274" lon="8.081750399789659"><ele>321.0</ele><time>2026-04-25T15:27:59.021Z</time></trkpt><trkpt lat="45.52232906698177" lon="8.08161334781322"><ele>320.8333333333333</ele><time>2026-04-25T15:28:00.021Z</time></trkpt><trkpt lat="45.522317209655355" lon="8.081507434664335"><ele>320.6666666666667</ele><time>2026-04-25T15:28:01.021Z</time></trkpt><trkpt lat="45.52229541433378" lon="8.08133711196295"><ele>320.5</ele><time>2026-04-25T15:28:03.021Z</time></trkpt><trkpt lat="45.52228075208028" lon="8.081237056312666"><ele>320.33333333333337</ele><time>2026-04-25T15:28:04.021Z</time></trkpt><trkpt lat="45.52228533294378" lon="8.08111918690323"><ele>320.1666666666667</ele><time>2026-04-25T15:28:05.021Z</time></trkpt><trkpt lat="45.52225964489268" lon="8.080997052928318"><ele>320.0</ele><time>2026-04-25T15:28:06.021Z</time></trkpt><trkpt lat="45.522249428365754" lon="8.080857746606007"><ele>320.0</ele><time>2026-04-25T15:28:07.021Z</time></trkpt><trkpt lat="45.522235801538365" lon="8.080725320919404"><ele>320.0</ele><time>2026-04-25T15:28:08.021Z</time></trkpt><trkpt lat="45.52223570771147" lon="8.080593266998584"><ele>320.0</ele><time>2026-04-25T15:28:09.021Z</time></trkpt><trkpt lat="45.52222528384904" lon="8.080474898334211"><ele>320.0</ele><time>2026-04-25T15:28:10.021Z</time></trkpt><trkpt lat="45.522217703680816" lon="8.08036182708548"><ele>320.0</ele><time>2026-04-25T15:28:11.021Z</time></trkpt><trkpt lat="45.5222157386427" lon="8.080250429192322"><ele>320.0</ele><time>2026-04-25T15:28:12.021Z</time></trkpt><trkpt lat="45.52221671591558" lon="8.08013335867293"><ele>320.0</ele><time>2026-04-25T15:28:13.021Z</time></trkpt><trkpt lat="45.52221761175409" lon="8.080026043396277"><ele>320.0</ele><time>2026-04-25T15:28:14.021Z</time></trkpt><trkpt lat="45.5222185612013" lon="8.079912307088794"><ele>320.0</ele><time>2026-04-25T15:28:15.021Z</time></trkpt><trkpt lat="45.52221648675667" lon="8.07978986482178"><ele>320.0</ele><time>2026-04-25T15:28:16.021Z</time></trkpt><trkpt lat="45.52221504409155" lon="8.079658507835342"><ele>320.0</ele><time>2026-04-25T15:28:17.021Z</time></trkpt><trkpt lat="45.52221010791188" lon="8.079522181333953"><ele>320.0</ele><time>2026-04-25T15:28:18.021Z</time></trkpt><trkpt lat="45.52220380698797" lon="8.079376654175032"><ele>320.2</ele><time>2026-04-25T15:28:19.021Z</time></trkpt><trkpt lat="45.52215782595016" lon="8.079238462747417"><ele>320.4</ele><time>2026-04-25T15:28:20.021Z</time></trkpt><trkpt lat="45.52215286380879" lon="8.07910033020677"><ele>320.6</ele><time>2026-04-25T15:28:21.021Z</time></trkpt><trkpt lat="45.52215023564477" lon="8.078978959451646"><ele>320.8</ele><time>2026-04-25T15:28:22.021Z</time></trkpt><trkpt lat="45.52214338901265" lon="8.078875320995696"><ele>321.0</ele><time>2026-04-25T15:28:23.021Z</time></trkpt><trkpt lat="45.52214926710658" lon="8.078705102524058"><ele>321.4</ele><time>2026-04-25T15:28:25.021Z</time></trkpt><trkpt lat="45.52218122949933" lon="8.078524047606876"><ele>321.8</ele><time>2026-04-25T15:28:27.021Z</time></trkpt><trkpt lat="45.52223534892902" lon="8.078438388632451"><ele>322.2</ele><time>2026-04-25T15:28:28.021Z</time></trkpt><trkpt lat="45.52227237637773" lon="8.078357303712748"><ele>322.59999999999997</ele><time>2026-04-25T15:28:29.021Z</time></trkpt><trkpt lat="45.52232881075964" lon="8.078223388982801"><ele>323.0</ele><time>2026-04-25T15:28:31.021Z</time></trkpt><trkpt lat="45.52234897702412" lon="8.078137510214429"><ele>323.1666666666667</ele><time>2026-04-25T15:28:34.021Z</time></trkpt><trkpt lat="45.52240527250672" lon="8.078029207888518"><ele>323.33333333333337</ele><time>2026-04-25T15:28:46.022Z</time></trkpt><trkpt lat="45.522423284216885" lon="8.077932526398504"><ele>323.5</ele><time>2026-04-25T15:28:47.022Z</time></trkpt><trkpt lat="45.52242684452465" lon="8.077810826682132"><ele>323.6666666666667</ele><time>2026-04-25T15:28:48.022Z</time></trkpt><trkpt lat="45.52241049651952" lon="8.077688699291626"><ele>323.8333333333333</ele><time>2026-04-25T15:28:49.022Z</time></trkpt><trkpt lat="45.52239188719033" lon="8.077571846661044"><ele>324.0</ele><time>2026-04-25T15:28:50.022Z</time></trkpt><trkpt lat="45.522369903175395" lon="8.077453170436089"><ele>324.0</ele><time>2026-04-25T15:28:51.022Z</time></trkpt><trkpt lat="45.522340773503956" lon="8.077334875873357"><ele>324.0</ele><time>2026-04-25T15:28:52.022Z</time></trkpt><trkpt lat="45.52230481049056" lon="8.077226859377099"><ele>324.0</ele><time>2026-04-25T15:28:53.022Z</time></trkpt><trkpt lat="45.52225401311242" lon="8.07713801223889"><ele>324.0</ele><time>2026-04-25T15:28:54.022Z</time></trkpt><trkpt lat="45.522187187140595" lon="8.077090605404582"><ele>324.0</ele><time>2026-04-25T15:28:55.022Z</time></trkpt><trkpt lat="45.52212014769306" lon="8.077038253420055"><ele>324.0</ele><time>2026-04-25T15:28:56.022Z</time></trkpt><trkpt lat="45.52203873016043" lon="8.076990683839119"><ele>324.1666666666667</ele><time>2026-04-25T15:28:57.022Z</time></trkpt><trkpt lat="45.52195226903867" lon="8.076948975083877"><ele>324.3333333333333</ele><time>2026-04-25T15:28:58.022Z</time></trkpt><trkpt lat="45.521864110059084" lon="8.076919921965548"><ele>324.5</ele><time>2026-04-25T15:28:59.022Z</time></trkpt><trkpt lat="45.52178328802148" lon="8.076892753921175"><ele>324.66666666666663</ele><time>2026-04-25T15:29:00.022Z</time></trkpt><trkpt lat="45.521712357868545" lon="8.076867144940092"><ele>324.8333333333333</ele><time>2026-04-25T15:29:01.022Z</time></trkpt><trkpt lat="45.52161881655513" lon="8.076852753011286"><ele>325.0</ele><time>2026-04-25T15:29:03.022Z</time></trkpt><trkpt lat="45.52153434198257" lon="8.076801720796817"><ele>325.0</ele><time>2026-04-25T15:29:06.022Z</time></trkpt><trkpt lat="45.52147898145016" lon="8.076709629141215"><ele>325.0</ele><time>2026-04-25T15:29:08.022Z</time></trkpt><trkpt lat="45.521488326911616" lon="8.07661674453571"><ele>325.0</ele><time>2026-04-25T15:29:09.022Z</time></trkpt><trkpt lat="45.52144127912897" lon="8.076522463190148"><ele>325.0</ele><time>2026-04-25T15:29:10.022Z</time></trkpt><trkpt lat="45.521423993243424" lon="8.076421556719254"><ele>325.0</ele><time>2026-04-25T15:29:11.022Z</time></trkpt><trkpt lat="45.52140983514184" lon="8.076333731581075"><ele>325.0</ele><time>2026-04-25T15:29:12.022Z</time></trkpt><trkpt lat="45.521373988457285" lon="8.076195630425563"><ele>324.8</ele><time>2026-04-25T15:29:14.022Z</time></trkpt><trkpt lat="45.52136040383462" lon="8.07608994248472"><ele>324.6</ele><time>2026-04-25T15:29:16.022Z</time></trkpt><trkpt lat="45.52133411253717" lon="8.07598631236722"><ele>324.4</ele><time>2026-04-25T15:29:18.022Z</time></trkpt><trkpt lat="45.521297144763096" lon="8.075838513192897"><ele>324.2</ele><time>2026-04-25T15:29:20.022Z</time></trkpt><trkpt lat="45.521256694991706" lon="8.075682212532602"><ele>324.0</ele><time>2026-04-25T15:29:22.034Z</time></trkpt><trkpt lat="45.521212652824836" lon="8.075513408669822"><ele>323.5</ele><time>2026-04-25T15:29:24.034Z</time></trkpt><trkpt lat="45.52116552762626" lon="8.075341769079309"><ele>323.0</ele><time>2026-04-25T15:29:26.034Z</time></trkpt><trkpt lat="45.5211393705039" lon="8.075241351801088"><ele>322.5</ele><time>2026-04-25T15:29:27.034Z</time></trkpt><trkpt lat="45.52110980378652" lon="8.075140451588817"><ele>322.0</ele><time>2026-04-25T15:29:28.034Z</time></trkpt><trkpt lat="45.52108031850451" lon="8.075036408771782"><ele>321.5</ele><time>2026-04-25T15:29:29.034Z</time></trkpt><trkpt lat="45.521050314316405" lon="8.07493290426111"><ele>321.0</ele><time>2026-04-25T15:29:30.034Z</time></trkpt><trkpt lat="45.5210134123079" lon="8.0748258934039"><ele>321.0</ele><time>2026-04-25T15:29:31.034Z</time></trkpt><trkpt lat="45.52098827875762" lon="8.074702965195936"><ele>321.0</ele><time>2026-04-25T15:29:32.034Z</time></trkpt><trkpt lat="45.5209524184032" lon="8.074583510162919"><ele>321.0</ele><time>2026-04-25T15:29:33.035Z</time></trkpt><trkpt lat="45.52092295247815" lon="8.074474259672485"><ele>321.0</ele><time>2026-04-25T15:29:34.035Z</time></trkpt><trkpt lat="45.520884834094964" lon="8.074357278840738"><ele>321.0</ele><time>2026-04-25T15:29:35.035Z</time></trkpt><trkpt lat="45.52084807157842" lon="8.074235882863206"><ele>321.0</ele><time>2026-04-25T15:29:36.035Z</time></trkpt><trkpt lat="45.52081219802673" lon="8.074113069607128"><ele>320.6666666666667</ele><time>2026-04-25T15:29:37.035Z</time></trkpt><trkpt lat="45.52077844497436" lon="8.073995734483217"><ele>320.3333333333333</ele><time>2026-04-25T15:29:38.035Z</time></trkpt><trkpt lat="45.52074785441341" lon="8.073884802276114"><ele>320.0</ele><time>2026-04-25T15:29:39.035Z</time></trkpt><trkpt lat="45.5207200557178" lon="8.073767510203513"><ele>319.66666666666663</ele><time>2026-04-25T15:29:40.035Z</time></trkpt><trkpt lat="45.520687016145764" lon="8.073651538258265"><ele>319.3333333333333</ele><time>2026-04-25T15:29:41.035Z</time></trkpt><trkpt lat="45.520642266733915" lon="8.073523321045382"><ele>319.0</ele><time>2026-04-25T15:29:42.035Z</time></trkpt><trkpt lat="45.52059044748883" lon="8.073386295048852"><ele>319.16666666666663</ele><time>2026-04-25T15:29:43.035Z</time></trkpt><trkpt lat="45.520548565250316" lon="8.073249629947503"><ele>319.3333333333333</ele><time>2026-04-25T15:29:44.035Z</time></trkpt><trkpt lat="45.52050967903919" lon="8.073120080464939"><ele>319.5</ele><time>2026-04-25T15:29:45.035Z</time></trkpt><trkpt lat="45.52047641961822" lon="8.07301058423242"><ele>319.6666666666667</ele><time>2026-04-25T15:29:46.035Z</time></trkpt><trkpt lat="45.52044721015029" lon="8.072925126692823"><ele>319.83333333333337</ele><time>2026-04-25T15:29:47.035Z</time></trkpt><trkpt lat="45.520414424040275" lon="8.072833622053968"><ele>320.0</ele><time>2026-04-25T15:29:48.035Z</time></trkpt><trkpt lat="45.52038417679708" lon="8.072746023633643"><ele>320.0</ele><time>2026-04-25T15:29:49.035Z</time></trkpt><trkpt lat="45.5203465136969" lon="8.072634775481216"><ele>320.0</ele><time>2026-04-25T15:29:50.035Z</time></trkpt><trkpt lat="45.52030472671927" lon="8.072512106641566"><ele>320.0</ele><time>2026-04-25T15:29:51.035Z</time></trkpt><trkpt lat="45.520254970882526" lon="8.072367249498098"><ele>320.0</ele><time>2026-04-25T15:29:52.035Z</time></trkpt><trkpt lat="45.520202551810996" lon="8.072223191446218"><ele>320.0</ele><time>2026-04-25T15:29:53.035Z</time></trkpt><trkpt lat="45.5201484105837" lon="8.072095111684375"><ele>320.1666666666667</ele><time>2026-04-25T15:29:54.035Z</time></trkpt><trkpt lat="45.52008919365111" lon="8.071984202222964"><ele>320.33333333333337</ele><time>2026-04-25T15:29:55.035Z</time></trkpt><trkpt lat="45.52003159302422" lon="8.07190619829452"><ele>320.5</ele><time>2026-04-25T15:29:56.035Z</time></trkpt><trkpt lat="45.51997916174616" lon="8.071827892028113"><ele>320.6666666666667</ele><time>2026-04-25T15:29:58.035Z</time></trkpt><trkpt lat="45.51993266330368" lon="8.071728692009993"><ele>320.8333333333333</ele><time>2026-04-25T15:30:00.035Z</time></trkpt><trkpt lat="45.519884443256025" lon="8.0716618779272"><ele>321.0</ele><time>2026-04-25T15:30:01.035Z</time></trkpt><trkpt lat="45.519823021663456" lon="8.071592126384262"><ele>321.0</ele><time>2026-04-25T15:30:02.035Z</time></trkpt><trkpt lat="45.51975179705712" lon="8.07152486268585"><ele>321.0</ele><time>2026-04-25T15:30:03.035Z</time></trkpt><trkpt lat="45.51966967592083" lon="8.07146964147802"><ele>321.0</ele><time>2026-04-25T15:30:04.035Z</time></trkpt><trkpt lat="45.51957105846498" lon="8.071410243234563"><ele>321.0</ele><time>2026-04-25T15:30:05.035Z</time></trkpt><trkpt lat="45.51947771971199" lon="8.071341198639184"><ele>321.0</ele><time>2026-04-25T15:30:06.035Z</time></trkpt><trkpt lat="45.51938540466882" lon="8.071268905090006"><ele>320.0</ele><time>2026-04-25T15:30:07.035Z</time></trkpt><trkpt lat="45.51930354926043" lon="8.071171771375615"><ele>319.0</ele><time>2026-04-25T15:30:08.035Z</time></trkpt><trkpt lat="45.519225317657636" lon="8.07106722995403"><ele>318.0</ele><time>2026-04-25T15:30:09.036Z</time></trkpt><trkpt lat="45.51916683246914" lon="8.070947707482352"><ele>317.0</ele><time>2026-04-25T15:30:10.036Z</time></trkpt><trkpt lat="45.519094409102614" lon="8.070846031615535"><ele>316.0</ele><time>2026-04-25T15:30:11.036Z</time></trkpt><trkpt lat="45.519020529564514" lon="8.070729709261354"><ele>316.0</ele><time>2026-04-25T15:30:12.037Z</time></trkpt><trkpt lat="45.5189473700521" lon="8.070600399391635"><ele>316.0</ele><time>2026-04-25T15:30:13.036Z</time></trkpt><trkpt lat="45.51886761140581" lon="8.070456974590446"><ele>316.0</ele><time>2026-04-25T15:30:14.036Z</time></trkpt><trkpt lat="45.51878060199976" lon="8.070300064963554"><ele>316.0</ele><time>2026-04-25T15:30:15.036Z</time></trkpt><trkpt lat="45.51868768981033" lon="8.07012884873876"><ele>316.3333333333333</ele><time>2026-04-25T15:30:16.036Z</time></trkpt><trkpt lat="45.51859145723746" lon="8.069949145658345"><ele>316.6666666666667</ele><time>2026-04-25T15:30:17.036Z</time></trkpt><trkpt lat="45.51849188763423" lon="8.069764463830435"><ele>317.0</ele><time>2026-04-25T15:30:18.037Z</time></trkpt><trkpt lat="45.51839532918322" lon="8.06958874742872"><ele>317.0</ele><time>2026-04-25T15:30:19.036Z</time></trkpt><trkpt lat="45.51830383467789" lon="8.069418072210524"><ele>317.0</ele><time>2026-04-25T15:30:20.036Z</time></trkpt><trkpt lat="45.5182126641382" lon="8.069249868084732"><ele>317.0</ele><time>2026-04-25T15:30:21.036Z</time></trkpt><trkpt lat="45.5181233106086" lon="8.069081362140428"><ele>317.0</ele><time>2026-04-25T15:30:22.036Z</time></trkpt><trkpt lat="45.51803350452576" lon="8.068906831776875"><ele>317.33333333333337</ele><time>2026-04-25T15:30:23.036Z</time></trkpt><trkpt lat="45.51794231040155" lon="8.06873444928218"><ele>317.6666666666667</ele><time>2026-04-25T15:30:24.036Z</time></trkpt><trkpt lat="45.51785162987958" lon="8.06856232601845"><ele>318.0</ele><time>2026-04-25T15:30:25.036Z</time></trkpt><trkpt lat="45.51775948805439" lon="8.068387731125714"><ele>317.6666666666667</ele><time>2026-04-25T15:30:26.036Z</time></trkpt><trkpt lat="45.51766725058418" lon="8.068216404334118"><ele>317.33333333333337</ele><time>2026-04-25T15:30:27.036Z</time></trkpt><trkpt lat="45.51757547243185" lon="8.068045019804694"><ele>317.0</ele><time>2026-04-25T15:30:28.036Z</time></trkpt><trkpt lat="45.51748700050966" lon="8.06787711963954"><ele>317.0</ele><time>2026-04-25T15:30:29.036Z</time></trkpt><trkpt lat="45.517402859085244" lon="8.067710763566467"><ele>317.0</ele><time>2026-04-25T15:30:30.037Z</time></trkpt><trkpt lat="45.517326413218896" lon="8.067539689833977"><ele>317.0</ele><time>2026-04-25T15:30:31.037Z</time></trkpt><trkpt lat="45.51726011858932" lon="8.067354049312797"><ele>317.0</ele><time>2026-04-25T15:30:32.037Z</time></trkpt><trkpt lat="45.517205895062986" lon="8.067152046505097"><ele>317.0</ele><time>2026-04-25T15:30:33.037Z</time></trkpt><trkpt lat="45.51715875805929" lon="8.066934879235006"><ele>317.0</ele><time>2026-04-25T15:30:34.037Z</time></trkpt><trkpt lat="45.51712180505273" lon="8.066704403654787"><ele>317.0</ele><time>2026-04-25T15:30:35.037Z</time></trkpt><trkpt lat="45.517087563149936" lon="8.066481708364618"><ele>316.75</ele><time>2026-04-25T15:30:36.037Z</time></trkpt><trkpt lat="45.51705143750429" lon="8.066265254942808"><ele>316.5</ele><time>2026-04-25T15:30:37.037Z</time></trkpt><trkpt lat="45.51703220439601" lon="8.066058294336425"><ele>316.25</ele><time>2026-04-25T15:30:38.037Z</time></trkpt><trkpt lat="45.51699738137316" lon="8.065866734806145"><ele>316.0</ele><time>2026-04-25T15:30:39.037Z</time></trkpt><trkpt lat="45.51694801420215" lon="8.065684820410151"><ele>315.66666666666663</ele><time>2026-04-25T15:30:40.037Z</time></trkpt><trkpt lat="45.51689235978873" lon="8.065506048709752"><ele>315.3333333333333</ele><time>2026-04-25T15:30:41.037Z</time></trkpt><trkpt lat="45.51679438110815" lon="8.065337389889892"><ele>315.0</ele><time>2026-04-25T15:30:42.037Z</time></trkpt><trkpt lat="45.516672403491654" lon="8.065189137991498"><ele>315.0</ele><time>2026-04-25T15:30:43.037Z</time></trkpt><trkpt lat="45.51652939664301" lon="8.065065018644187"><ele>315.0</ele><time>2026-04-25T15:30:44.037Z</time></trkpt><trkpt lat="45.5163932101051" lon="8.064924076191632"><ele>315.0</ele><time>2026-04-25T15:30:45.037Z</time></trkpt><trkpt lat="45.51625415712727" lon="8.064790408575476"><ele>315.0</ele><time>2026-04-25T15:30:46.037Z</time></trkpt><trkpt lat="45.516120548073914" lon="8.064656167428534"><ele>315.0</ele><time>2026-04-25T15:30:47.037Z</time></trkpt><trkpt lat="45.515993627842185" lon="8.064527326880015"><ele>315.0</ele><time>2026-04-25T15:30:48.037Z</time></trkpt><trkpt lat="45.51588032605678" lon="8.064389310532484"><ele>315.0</ele><time>2026-04-25T15:30:49.037Z</time></trkpt><trkpt lat="45.51577951543014" lon="8.064280783569641"><ele>315.0</ele><time>2026-04-25T15:30:50.037Z</time></trkpt><trkpt lat="45.51568901534534" lon="8.06419395969185"><ele>315.0</ele><time>2026-04-25T15:30:51.037Z</time></trkpt><trkpt lat="45.5156119111144" lon="8.064114335213054"><ele>315.0</ele><time>2026-04-25T15:30:52.037Z</time></trkpt><trkpt lat="45.51553788567619" lon="8.064048824868365"><ele>315.0</ele><time>2026-04-25T15:30:53.037Z</time></trkpt><trkpt lat="45.51546255188705" lon="8.064007796813248"><ele>314.8</ele><time>2026-04-25T15:30:54.037Z</time></trkpt><trkpt lat="45.515409137200834" lon="8.0638920180589"><ele>314.6</ele><time>2026-04-25T15:30:55.037Z</time></trkpt><trkpt lat="45.515349348951744" lon="8.063782078145287"><ele>314.4</ele><time>2026-04-25T15:30:56.037Z</time></trkpt><trkpt lat="45.51529295018687" lon="8.063647278496498"><ele>314.2</ele><time>2026-04-25T15:30:57.037Z</time></trkpt><trkpt lat="45.51524244146125" lon="8.063481273067337"><ele>314.0</ele><time>2026-04-25T15:30:58.037Z</time></trkpt><trkpt lat="45.51519639289665" lon="8.063295564646745"><ele>314.0</ele><time>2026-04-25T15:30:59.037Z</time></trkpt><trkpt lat="45.51515341475759" lon="8.063088939870292"><ele>314.0</ele><time>2026-04-25T15:31:00.037Z</time></trkpt><trkpt lat="45.5151093012763" lon="8.062865137569695"><ele>314.0</ele><time>2026-04-25T15:31:01.037Z</time></trkpt><trkpt lat="45.5150694332301" lon="8.062628658689482"><ele>313.6666666666667</ele><time>2026-04-25T15:31:02.037Z</time></trkpt><trkpt lat="45.515029026660024" lon="8.06239802680605"><ele>313.3333333333333</ele><time>2026-04-25T15:31:03.037Z</time></trkpt><trkpt lat="45.51499437425748" lon="8.062183865049878"><ele>313.0</ele><time>2026-04-25T15:31:04.037Z</time></trkpt><trkpt lat="45.514960707499895" lon="8.06197366931319"><ele>313.0</ele><time>2026-04-25T15:31:05.037Z</time></trkpt><trkpt lat="45.51492588496773" lon="8.061764001075504"><ele>313.0</ele><time>2026-04-25T15:31:06.037Z</time></trkpt><trkpt lat="45.51490189881298" lon="8.061544526415158"><ele>313.0</ele><time>2026-04-25T15:31:07.037Z</time></trkpt><trkpt lat="45.51484235907765" lon="8.061331455813558"><ele>312.3333333333333</ele><time>2026-04-25T15:31:08.037Z</time></trkpt><trkpt lat="45.51475607662699" lon="8.061130006608192"><ele>311.6666666666667</ele><time>2026-04-25T15:31:09.037Z</time></trkpt><trkpt lat="45.514634339341704" lon="8.060958716517199"><ele>311.0</ele><time>2026-04-25T15:31:10.037Z</time></trkpt><trkpt lat="45.51452540563667" lon="8.060760763569393"><ele>312.6666666666667</ele><time>2026-04-25T15:31:11.037Z</time></trkpt><trkpt lat="45.51440153203886" lon="8.060566865487722"><ele>314.3333333333333</ele><time>2026-04-25T15:31:12.037Z</time></trkpt><trkpt lat="45.51427352804206" lon="8.060366725296518"><ele>316.0</ele><time>2026-04-25T15:31:13.037Z</time></trkpt><trkpt lat="45.51414583128405" lon="8.060165768942994"><ele>316.0</ele><time>2026-04-25T15:31:14.037Z</time></trkpt><trkpt lat="45.51402624655956" lon="8.059976911823487"><ele>316.0</ele><time>2026-04-25T15:31:15.037Z</time></trkpt><trkpt lat="45.51391301113075" lon="8.059800216680511"><ele>316.0</ele><time>2026-04-25T15:31:16.037Z</time></trkpt><trkpt lat="45.513782622357965" lon="8.059638371694497"><ele>316.0</ele><time>2026-04-25T15:31:17.037Z</time></trkpt><trkpt lat="45.51366258884343" lon="8.059459175782221"><ele>316.0</ele><time>2026-04-25T15:31:18.037Z</time></trkpt><trkpt lat="45.513531339220535" lon="8.059290245664627"><ele>316.0</ele><time>2026-04-25T15:31:19.037Z</time></trkpt><trkpt lat="45.51339015504885" lon="8.059129919301865"><ele>315.66666666666663</ele><time>2026-04-25T15:31:20.037Z</time></trkpt><trkpt lat="45.513241536530174" lon="8.058969648186386"><ele>315.3333333333333</ele><time>2026-04-25T15:31:21.037Z</time></trkpt><trkpt lat="45.51308822733295" lon="8.058813113864204"><ele>315.0</ele><time>2026-04-25T15:31:22.037Z</time></trkpt><trkpt lat="45.51293547018982" lon="8.058655752448063"><ele>315.0</ele><time>2026-04-25T15:31:23.037Z</time></trkpt><trkpt lat="45.51278535839968" lon="8.058500546874894"><ele>315.0</ele><time>2026-04-25T15:31:24.038Z</time></trkpt><trkpt lat="45.51264061005929" lon="8.058354995741428"><ele>315.0</ele><time>2026-04-25T15:31:25.038Z</time></trkpt><trkpt lat="45.51249709376766" lon="8.058211462396015"><ele>314.6666666666667</ele><time>2026-04-25T15:31:26.038Z</time></trkpt><trkpt lat="45.512356471412794" lon="8.05806937634367"><ele>314.33333333333337</ele><time>2026-04-25T15:31:27.038Z</time></trkpt><trkpt lat="45.512218640416414" lon="8.057929887004525"><ele>314.0</ele><time>2026-04-25T15:31:28.038Z</time></trkpt><trkpt lat="45.51209610000857" lon="8.05777886610449"><ele>314.25</ele><time>2026-04-25T15:31:29.038Z</time></trkpt><trkpt lat="45.51196370763422" lon="8.057669286507824"><ele>314.5</ele><time>2026-04-25T15:31:30.038Z</time></trkpt><trkpt lat="45.511858175189" lon="8.057547657637155"><ele>314.75</ele><time>2026-04-25T15:31:31.038Z</time></trkpt><trkpt lat="45.51177335288333" lon="8.057420161457683"><ele>315.0</ele><time>2026-04-25T15:31:32.038Z</time></trkpt><trkpt lat="45.511697188610235" lon="8.057291036712742"><ele>314.6666666666667</ele><time>2026-04-25T15:31:33.038Z</time></trkpt><trkpt lat="45.511636676870154" lon="8.057163402150781"><ele>314.3333333333333</ele><time>2026-04-25T15:31:34.038Z</time></trkpt><trkpt lat="45.51159414756434" lon="8.057029068440816"><ele>314.0</ele><time>2026-04-25T15:31:35.038Z</time></trkpt><trkpt lat="45.51157714862406" lon="8.056904309686903"><ele>313.66666666666663</ele><time>2026-04-25T15:31:36.038Z</time></trkpt><trkpt lat="45.5115849578223" lon="8.056801408965368"><ele>313.3333333333333</ele><time>2026-04-25T15:31:37.038Z</time></trkpt><trkpt lat="45.511614028537515" lon="8.056710243019234"><ele>313.0</ele><time>2026-04-25T15:31:38.038Z</time></trkpt><trkpt lat="45.511649830573326" lon="8.056622879213332"><ele>313.0</ele><time>2026-04-25T15:31:39.038Z</time></trkpt><trkpt lat="45.51168043558494" lon="8.056520668474272"><ele>313.0</ele><time>2026-04-25T15:31:40.038Z</time></trkpt><trkpt lat="45.51168635283881" lon="8.056406585687927"><ele>313.0</ele><time>2026-04-25T15:31:41.038Z</time></trkpt><trkpt lat="45.51165924604692" lon="8.05629232631852"><ele>313.0</ele><time>2026-04-25T15:31:42.038Z</time></trkpt><trkpt lat="45.51162749393153" lon="8.056181843677555"><ele>313.0</ele><time>2026-04-25T15:31:43.038Z</time></trkpt><trkpt lat="45.51155181694176" lon="8.056106879949347"><ele>313.0</ele><time>2026-04-25T15:31:44.038Z</time></trkpt><trkpt lat="45.51145811993214" lon="8.056087863631651"><ele>313.0</ele><time>2026-04-25T15:31:45.038Z</time></trkpt><trkpt lat="45.511361757097106" lon="8.056075876484048"><ele>313.0</ele><time>2026-04-25T15:31:46.038Z</time></trkpt><trkpt lat="45.511254151191515" lon="8.056090501472175"><ele>313.0</ele><time>2026-04-25T15:31:47.038Z</time></trkpt><trkpt lat="45.51114358012286" lon="8.056126288475093"><ele>313.0</ele><time>2026-04-25T15:31:48.038Z</time></trkpt><trkpt lat="45.511029657764205" lon="8.05616877980337"><ele>313.0</ele><time>2026-04-25T15:31:49.038Z</time></trkpt><trkpt lat="45.510948524998575" lon="8.056289359167252"><ele>312.8</ele><time>2026-04-25T15:31:50.038Z</time></trkpt><trkpt lat="45.510881265553685" lon="8.056407529165092"><ele>312.6</ele><time>2026-04-25T15:31:51.038Z</time></trkpt><trkpt lat="45.51083583136516" lon="8.05653790920069"><ele>312.4</ele><time>2026-04-25T15:31:52.038Z</time></trkpt><trkpt lat="45.510796944846035" lon="8.056658216781159"><ele>312.2</ele><time>2026-04-25T15:31:53.038Z</time></trkpt><trkpt lat="45.51076180822943" lon="8.056774130154547"><ele>312.0</ele><time>2026-04-25T15:31:54.038Z</time></trkpt><trkpt lat="45.51071666940465" lon="8.05686988347235"><ele>312.0</ele><time>2026-04-25T15:31:55.038Z</time></trkpt><trkpt lat="45.51056207488348" lon="8.056841278897865"><ele>312.0</ele><time>2026-04-25T15:31:56.038Z</time></trkpt><trkpt lat="45.510450100989964" lon="8.05686139120105"><ele>312.0</ele><time>2026-04-25T15:31:57.038Z</time></trkpt><trkpt lat="45.51032419396676" lon="8.056889928171215"><ele>312.0</ele><time>2026-04-25T15:31:58.038Z</time></trkpt><trkpt lat="45.51018844140689" lon="8.056929045932401"><ele>312.0</ele><time>2026-04-25T15:31:59.038Z</time></trkpt><trkpt lat="45.51004208938942" lon="8.056967211241146"><ele>312.0</ele><time>2026-04-25T15:32:00.038Z</time></trkpt><trkpt lat="45.50987845825927" lon="8.057009174318072"><ele>312.0</ele><time>2026-04-25T15:32:01.038Z</time></trkpt><trkpt lat="45.509706909606884" lon="8.057054153501817"><ele>311.3333333333333</ele><time>2026-04-25T15:32:02.038Z</time></trkpt><trkpt lat="45.50953719180991" lon="8.05709716702798"><ele>310.66666666666663</ele><time>2026-04-25T15:32:03.038Z</time></trkpt><trkpt lat="45.50937301195036" lon="8.057141223767994"><ele>310.0</ele><time>2026-04-25T15:32:04.038Z</time></trkpt><trkpt lat="45.50920004114924" lon="8.057188519076906"><ele>310.0</ele><time>2026-04-25T15:32:05.038Z</time></trkpt><trkpt lat="45.50902283752855" lon="8.05723563791024"><ele>310.0</ele><time>2026-04-25T15:32:06.038Z</time></trkpt><trkpt lat="45.5088391180842" lon="8.057284605878522"><ele>310.0</ele><time>2026-04-25T15:32:07.038Z</time></trkpt><trkpt lat="45.50864992061467" lon="8.057336033058455"><ele>309.66666666666663</ele><time>2026-04-25T15:32:08.038Z</time></trkpt><trkpt lat="45.508455630932886" lon="8.057388588539448"><ele>309.3333333333333</ele><time>2026-04-25T15:32:09.038Z</time></trkpt><trkpt lat="45.50825520442444" lon="8.057442195958314"><ele>309.0</ele><time>2026-04-25T15:32:10.038Z</time></trkpt><trkpt lat="45.508048175946406" lon="8.057495721459832"><ele>308.6666666666667</ele><time>2026-04-25T15:32:11.038Z</time></trkpt><trkpt lat="45.50784790861934" lon="8.057547609705791"><ele>308.33333333333337</ele><time>2026-04-25T15:32:12.038Z</time></trkpt><trkpt lat="45.5076573881819" lon="8.057598773388186"><ele>308.0</ele><time>2026-04-25T15:32:13.038Z</time></trkpt><trkpt lat="45.50747291236066" lon="8.057651059016019"><ele>308.0</ele><time>2026-04-25T15:32:14.038Z</time></trkpt><trkpt lat="45.50728613153682" lon="8.057703768308363"><ele>308.0</ele><time>2026-04-25T15:32:15.039Z</time></trkpt><trkpt lat="45.507090123690325" lon="8.057759456323303"><ele>308.0</ele><time>2026-04-25T15:32:16.04Z</time></trkpt><trkpt lat="45.50688910477192" lon="8.057814551614284"><ele>307.33333333333337</ele><time>2026-04-25T15:32:17.04Z</time></trkpt><trkpt lat="45.50669126811965" lon="8.057863563691058"><ele>306.6666666666667</ele><time>2026-04-25T15:32:18.04Z</time></trkpt><trkpt lat="45.50649920112683" lon="8.057910923218948"><ele>306.0</ele><time>2026-04-25T15:32:19.04Z</time></trkpt><trkpt lat="45.506304494455485" lon="8.057956922108879"><ele>305.6666666666667</ele><time>2026-04-25T15:32:20.04Z</time></trkpt><trkpt lat="45.50610670229126" lon="8.058000840748772"><ele>305.33333333333337</ele><time>2026-04-25T15:32:21.04Z</time></trkpt><trkpt lat="45.50590659285387" lon="8.058031503067916"><ele>305.0</ele><time>2026-04-25T15:32:22.04Z</time></trkpt><trkpt lat="45.50570468050082" lon="8.058027793758127"><ele>305.0</ele><time>2026-04-25T15:32:23.04Z</time></trkpt><trkpt lat="45.50550243761565" lon="8.057993016356885"><ele>305.0</ele><time>2026-04-25T15:32:24.04Z</time></trkpt><trkpt lat="45.505298836091676" lon="8.057938157415121"><ele>305.0</ele><time>2026-04-25T15:32:25.041Z</time></trkpt><trkpt lat="45.50509329763065" lon="8.057872478512616"><ele>304.6666666666667</ele><time>2026-04-25T15:32:26.041Z</time></trkpt><trkpt lat="45.504887592849656" lon="8.05780699354593"><ele>304.3333333333333</ele><time>2026-04-25T15:32:27.04Z</time></trkpt><trkpt lat="45.50468906485775" lon="8.05774428445149"><ele>304.0</ele><time>2026-04-25T15:32:28.04Z</time></trkpt><trkpt lat="45.50449570502398" lon="8.057694817401437"><ele>303.66666666666663</ele><time>2026-04-25T15:32:29.04Z</time></trkpt><trkpt lat="45.504308889311" lon="8.057655849809468"><ele>303.3333333333333</ele><time>2026-04-25T15:32:30.04Z</time></trkpt><trkpt lat="45.50411451069462" lon="8.05766898915812"><ele>303.0</ele><time>2026-04-25T15:32:31.04Z</time></trkpt><trkpt lat="45.50391885673626" lon="8.057717198517526"><ele>301.6666666666667</ele><time>2026-04-25T15:32:32.04Z</time></trkpt><trkpt lat="45.50372535101082" lon="8.057792275888586"><ele>300.33333333333337</ele><time>2026-04-25T15:32:33.04Z</time></trkpt><trkpt lat="45.503527418694354" lon="8.057872404424643"><ele>299.0</ele><time>2026-04-25T15:32:34.04Z</time></trkpt><trkpt lat="45.5033339512736" lon="8.057973510130672"><ele>299.0</ele><time>2026-04-25T15:32:35.04Z</time></trkpt><trkpt lat="45.503143513840214" lon="8.058098688311324"><ele>299.0</ele><time>2026-04-25T15:32:36.04Z</time></trkpt><trkpt lat="45.50295120178369" lon="8.058201560928207"><ele>299.0</ele><time>2026-04-25T15:32:37.04Z</time></trkpt><trkpt lat="45.50275579512724" lon="8.058301098493672"><ele>299.33333333333337</ele><time>2026-04-25T15:32:38.04Z</time></trkpt><trkpt lat="45.50255963421107" lon="8.058402456139683"><ele>299.6666666666667</ele><time>2026-04-25T15:32:39.04Z</time></trkpt><trkpt lat="45.502362572815315" lon="8.058505970467737"><ele>300.0</ele><time>2026-04-25T15:32:40.04Z</time></trkpt><trkpt lat="45.502165331784916" lon="8.0586092866933"><ele>299.6666666666667</ele><time>2026-04-25T15:32:41.04Z</time></trkpt><trkpt lat="45.50196630810421" lon="8.058712954916917"><ele>299.33333333333337</ele><time>2026-04-25T15:32:42.04Z</time></trkpt><trkpt lat="45.501766276258834" lon="8.058812480681786"><ele>299.0</ele><time>2026-04-25T15:32:43.04Z</time></trkpt><trkpt lat="45.50157429822168" lon="8.058912008285528"><ele>299.0</ele><time>2026-04-25T15:32:44.04Z</time></trkpt><trkpt lat="45.501381888765096" lon="8.059013883995203"><ele>299.0</ele><time>2026-04-25T15:32:45.04Z</time></trkpt><trkpt lat="45.50118370166327" lon="8.059117014212013"><ele>299.0</ele><time>2026-04-25T15:32:46.04Z</time></trkpt><trkpt lat="45.50098612547936" lon="8.059219531827905"><ele>298.33333333333337</ele><time>2026-04-25T15:32:47.04Z</time></trkpt><trkpt lat="45.500785482026956" lon="8.059318836454368"><ele>297.6666666666667</ele><time>2026-04-25T15:32:48.04Z</time></trkpt><trkpt lat="45.50058323752354" lon="8.059414412190236"><ele>297.0</ele><time>2026-04-25T15:32:49.04Z</time></trkpt><trkpt lat="45.50038193881736" lon="8.059508969354308"><ele>294.6666666666667</ele><time>2026-04-25T15:32:50.04Z</time></trkpt><trkpt lat="45.500184810225875" lon="8.059600526309335"><ele>292.33333333333337</ele><time>2026-04-25T15:32:51.04Z</time></trkpt><trkpt lat="45.49999280573641" lon="8.05969485842112"><ele>290.0</ele><time>2026-04-25T15:32:52.04Z</time></trkpt><trkpt lat="45.49980680088195" lon="8.059791203139925"><ele>290.0</ele><time>2026-04-25T15:32:53.04Z</time></trkpt><trkpt lat="45.49962390277888" lon="8.059892208686705"><ele>290.0</ele><time>2026-04-25T15:32:54.04Z</time></trkpt><trkpt lat="45.49944262715306" lon="8.059988600678146"><ele>290.0</ele><time>2026-04-25T15:32:55.04Z</time></trkpt><trkpt lat="45.49926016562259" lon="8.060074981010795"><ele>290.0</ele><time>2026-04-25T15:32:56.04Z</time></trkpt><trkpt lat="45.49907748938836" lon="8.060168622418669"><ele>290.0</ele><time>2026-04-25T15:32:57.041Z</time></trkpt><trkpt lat="45.49889558777476" lon="8.060276858543237"><ele>290.0</ele><time>2026-04-25T15:32:58.041Z</time></trkpt><trkpt lat="45.49872049348126" lon="8.060397773547558"><ele>289.33333333333337</ele><time>2026-04-25T15:32:59.041Z</time></trkpt><trkpt lat="45.49854571470524" lon="8.060524585798001"><ele>288.6666666666667</ele><time>2026-04-25T15:33:00.041Z</time></trkpt><trkpt lat="45.49836894717673" lon="8.060652303161957"><ele>288.0</ele><time>2026-04-25T15:33:01.041Z</time></trkpt><trkpt lat="45.49818905018843" lon="8.06078338243577"><ele>288.0</ele><time>2026-04-25T15:33:02.041Z</time></trkpt><trkpt lat="45.49800593498602" lon="8.060918253309874"><ele>288.0</ele><time>2026-04-25T15:33:03.041Z</time></trkpt><trkpt lat="45.497820894424216" lon="8.06105247633464"><ele>288.0</ele><time>2026-04-25T15:33:04.041Z</time></trkpt><trkpt lat="45.4976316705944" lon="8.061188111313214"><ele>287.3333333333333</ele><time>2026-04-25T15:33:05.041Z</time></trkpt><trkpt lat="45.49744323709244" lon="8.061323333499226"><ele>286.66666666666663</ele><time>2026-04-25T15:33:06.041Z</time></trkpt><trkpt lat="45.497255907749576" lon="8.061456082650809"><ele>286.0</ele><time>2026-04-25T15:33:07.041Z</time></trkpt><trkpt lat="45.49707047158592" lon="8.061584466359266"><ele>285.0</ele><time>2026-04-25T15:33:08.041Z</time></trkpt><trkpt lat="45.49689376011247" lon="8.061712211170892"><ele>284.0</ele><time>2026-04-25T15:33:09.041Z</time></trkpt><trkpt lat="45.49672495544262" lon="8.061843039465149"><ele>283.0</ele><time>2026-04-25T15:33:10.041Z</time></trkpt><trkpt lat="45.49656025987379" lon="8.061968738138885"><ele>283.0</ele><time>2026-04-25T15:33:11.041Z</time></trkpt><trkpt lat="45.49639682198304" lon="8.062090367952395"><ele>283.0</ele><time>2026-04-25T15:33:12.041Z</time></trkpt><trkpt lat="45.496233893876195" lon="8.062210675273228"><ele>283.0</ele><time>2026-04-25T15:33:13.041Z</time></trkpt><trkpt lat="45.496070693327525" lon="8.06232855788873"><ele>283.3333333333333</ele><time>2026-04-25T15:33:14.041Z</time></trkpt><trkpt lat="45.495904950592276" lon="8.062447214999066"><ele>283.6666666666667</ele><time>2026-04-25T15:33:15.041Z</time></trkpt><trkpt lat="45.49573536215644" lon="8.062572343541053"><ele>284.0</ele><time>2026-04-25T15:33:16.041Z</time></trkpt><trkpt lat="45.49556409850724" lon="8.062706253779576"><ele>283.33333333333337</ele><time>2026-04-25T15:33:17.041Z</time></trkpt><trkpt lat="45.49538724275335" lon="8.062842122839479"><ele>282.6666666666667</ele><time>2026-04-25T15:33:18.041Z</time></trkpt><trkpt lat="45.49520284531477" lon="8.06298489030141"><ele>282.0</ele><time>2026-04-25T15:33:19.041Z</time></trkpt><trkpt lat="45.49501535889452" lon="8.063121089272375"><ele>282.0</ele><time>2026-04-25T15:33:20.041Z</time></trkpt><trkpt lat="45.494826373211204" lon="8.063238962588267"><ele>282.0</ele><time>2026-04-25T15:33:21.041Z</time></trkpt><trkpt lat="45.49463844410703" lon="8.06336589382793"><ele>282.0</ele><time>2026-04-25T15:33:22.041Z</time></trkpt><trkpt lat="45.49445974409849" lon="8.06349966368929"><ele>282.0</ele><time>2026-04-25T15:33:23.041Z</time></trkpt><trkpt lat="45.49428301418224" lon="8.063630242675996"><ele>282.0</ele><time>2026-04-25T15:33:24.041Z</time></trkpt><trkpt lat="45.49410764413797" lon="8.063762283762287"><ele>282.0</ele><time>2026-04-25T15:33:25.041Z</time></trkpt><trkpt lat="45.49392396256439" lon="8.063901347752905"><ele>282.0</ele><time>2026-04-25T15:33:26.041Z</time></trkpt><trkpt lat="45.493730209996" lon="8.064046040349318"><ele>282.0</ele><time>2026-04-25T15:33:27.041Z</time></trkpt><trkpt lat="45.49352922368856" lon="8.06420138681786"><ele>282.0</ele><time>2026-04-25T15:33:28.041Z</time></trkpt><trkpt lat="45.49331682875882" lon="8.064342880606668"><ele>281.0</ele><time>2026-04-25T15:33:29.041Z</time></trkpt><trkpt lat="45.49310651802196" lon="8.064484012403021"><ele>280.0</ele><time>2026-04-25T15:33:30.041Z</time></trkpt><trkpt lat="45.492907470860416" lon="8.064629383662712"><ele>279.3333333333333</ele><time>2026-04-25T15:33:31.041Z</time></trkpt><trkpt lat="45.49271367639797" lon="8.064771334575948"><ele>278.6666666666667</ele><time>2026-04-25T15:33:32.041Z</time></trkpt><trkpt lat="45.492522103989046" lon="8.064913406226404"><ele>278.0</ele><time>2026-04-25T15:33:33.041Z</time></trkpt><trkpt lat="45.49233566120696" lon="8.065051472618139"><ele>278.0</ele><time>2026-04-25T15:33:34.041Z</time></trkpt><trkpt lat="45.492149064619205" lon="8.065191457158766"><ele>278.0</ele><time>2026-04-25T15:33:35.041Z</time></trkpt><trkpt lat="45.4919610602346" lon="8.065330523918908"><ele>278.0</ele><time>2026-04-25T15:33:36.041Z</time></trkpt><trkpt lat="45.49177232830531" lon="8.065467313219438"><ele>277.6666666666667</ele><time>2026-04-25T15:33:37.041Z</time></trkpt><trkpt lat="45.491583217571076" lon="8.06560527113372"><ele>277.3333333333333</ele><time>2026-04-25T15:33:38.041Z</time></trkpt><trkpt lat="45.49139208584146" lon="8.065745546713554"><ele>277.0</ele><time>2026-04-25T15:33:39.041Z</time></trkpt><trkpt lat="45.491199531056814" lon="8.065884484359945"><ele>275.66666666666663</ele><time>2026-04-25T15:33:40.041Z</time></trkpt><trkpt lat="45.4910052873437" lon="8.06602881245677"><ele>274.3333333333333</ele><time>2026-04-25T15:33:41.041Z</time></trkpt><trkpt lat="45.49080910445878" lon="8.066172948527948"><ele>273.0</ele><time>2026-04-25T15:33:42.041Z</time></trkpt><trkpt lat="45.49061066716318" lon="8.066318232758901"><ele>272.6666666666667</ele><time>2026-04-25T15:33:43.041Z</time></trkpt><trkpt lat="45.49041314894384" lon="8.06646212084956"><ele>272.33333333333337</ele><time>2026-04-25T15:33:44.041Z</time></trkpt><trkpt lat="45.490213062647" lon="8.066606439582543"><ele>272.0</ele><time>2026-04-25T15:33:45.041Z</time></trkpt><trkpt lat="45.49001213177017" lon="8.06675239824744"><ele>272.6666666666667</ele><time>2026-04-25T15:33:46.041Z</time></trkpt><trkpt lat="45.489814563031125" lon="8.066897595828086"><ele>273.3333333333333</ele><time>2026-04-25T15:33:47.041Z</time></trkpt><trkpt lat="45.48961853371357" lon="8.067041602447532"><ele>274.0</ele><time>2026-04-25T15:33:48.041Z</time></trkpt><trkpt lat="45.48942648701759" lon="8.067183143523035"><ele>274.0</ele><time>2026-04-25T15:33:49.041Z</time></trkpt><trkpt lat="45.489237588628434" lon="8.067322503222016"><ele>274.0</ele><time>2026-04-25T15:33:50.041Z</time></trkpt><trkpt lat="45.48904996293286" lon="8.067458398728919"><ele>274.0</ele><time>2026-04-25T15:33:51.042Z</time></trkpt><trkpt lat="45.488865187653104" lon="8.067594117458484"><ele>273.0</ele><time>2026-04-25T15:33:52.042Z</time></trkpt><trkpt lat="45.488682046713244" lon="8.067726165009487"><ele>272.0</ele><time>2026-04-25T15:33:53.042Z</time></trkpt><trkpt lat="45.48849642460301" lon="8.067857702717273"><ele>271.0</ele><time>2026-04-25T15:33:54.042Z</time></trkpt><trkpt lat="45.488314228777796" lon="8.067991413899176"><ele>271.0</ele><time>2026-04-25T15:33:55.042Z</time></trkpt><trkpt lat="45.488132210561886" lon="8.068124322226803"><ele>271.0</ele><time>2026-04-25T15:33:56.042Z</time></trkpt><trkpt lat="45.48794990396857" lon="8.068258551668261"><ele>271.0</ele><time>2026-04-25T15:33:57.042Z</time></trkpt><trkpt lat="45.48776523126797" lon="8.06839651332659"><ele>270.66666666666663</ele><time>2026-04-25T15:33:58.042Z</time></trkpt><trkpt lat="45.48757844749259" lon="8.06853523770981"><ele>270.3333333333333</ele><time>2026-04-25T15:33:59.042Z</time></trkpt><trkpt lat="45.48739001840149" lon="8.068672841223222"><ele>270.0</ele><time>2026-04-25T15:34:00.042Z</time></trkpt><trkpt lat="45.48719789746052" lon="8.068813167001654"><ele>270.0</ele><time>2026-04-25T15:34:01.042Z</time></trkpt><trkpt lat="45.4870040602044" lon="8.06895354144587"><ele>270.0</ele><time>2026-04-25T15:34:02.042Z</time></trkpt><trkpt lat="45.486807474116254" lon="8.069094542732508"><ele>270.0</ele><time>2026-04-25T15:34:03.042Z</time></trkpt><trkpt lat="45.48660903496656" lon="8.0692360690882"><ele>270.0</ele><time>2026-04-25T15:34:04.042Z</time></trkpt><trkpt lat="45.48641192306476" lon="8.069383052269204"><ele>270.0</ele><time>2026-04-25T15:34:05.042Z</time></trkpt><trkpt lat="45.48621060813655" lon="8.069529529969078"><ele>270.0</ele><time>2026-04-25T15:34:06.042Z</time></trkpt><trkpt lat="45.486009021701356" lon="8.069676814461827"><ele>268.5</ele><time>2026-04-25T15:34:07.042Z</time></trkpt><trkpt lat="45.485808675308256" lon="8.069823175856847"><ele>267.0</ele><time>2026-04-25T15:34:08.042Z</time></trkpt><trkpt lat="45.485607731760815" lon="8.069970889713977"><ele>266.0</ele><time>2026-04-25T15:34:09.042Z</time></trkpt><trkpt lat="45.485405554983586" lon="8.070117605293047"><ele>265.0</ele><time>2026-04-25T15:34:10.042Z</time></trkpt><trkpt lat="45.485205821518186" lon="8.070262894156091"><ele>265.0</ele><time>2026-04-25T15:34:11.042Z</time></trkpt><trkpt lat="45.485007135785615" lon="8.070409185623634"><ele>265.0</ele><time>2026-04-25T15:34:12.042Z</time></trkpt><trkpt lat="45.484808531519406" lon="8.070554007398282"><ele>265.0</ele><time>2026-04-25T15:34:13.042Z</time></trkpt><trkpt lat="45.48461145330454" lon="8.070694694576654"><ele>264.3333333333333</ele><time>2026-04-25T15:34:14.042Z</time></trkpt><trkpt lat="45.48441648558887" lon="8.070836637034724"><ele>263.6666666666667</ele><time>2026-04-25T15:34:15.042Z</time></trkpt><trkpt lat="45.48422472008583" lon="8.070974476328228"><ele>263.0</ele><time>2026-04-25T15:34:16.042Z</time></trkpt><trkpt lat="45.48403526789319" lon="8.071111385869896"><ele>263.0</ele><time>2026-04-25T15:34:17.042Z</time></trkpt><trkpt lat="45.48384775188881" lon="8.071246858228536"><ele>263.0</ele><time>2026-04-25T15:34:18.042Z</time></trkpt><trkpt lat="45.483662554831405" lon="8.071381375520955"><ele>263.0</ele><time>2026-04-25T15:34:19.042Z</time></trkpt><trkpt lat="45.48348140098021" lon="8.071516724834368"><ele>263.0</ele><time>2026-04-25T15:34:20.042Z</time></trkpt><trkpt lat="45.483305237631804" lon="8.071651306801925"><ele>263.0</ele><time>2026-04-25T15:34:21.044Z</time></trkpt><trkpt lat="45.48313117808265" lon="8.07177921993871"><ele>263.0</ele><time>2026-04-25T15:34:22.044Z</time></trkpt><trkpt lat="45.48295588967879" lon="8.07190614201194"><ele>263.0</ele><time>2026-04-25T15:34:23.044Z</time></trkpt><trkpt lat="45.48278056027465" lon="8.072037500252934"><ele>263.0</ele><time>2026-04-25T15:34:24.044Z</time></trkpt><trkpt lat="45.48260516663787" lon="8.072162715434708"><ele>263.0</ele><time>2026-04-25T15:34:25.044Z</time></trkpt><trkpt lat="45.482431141161605" lon="8.072288899778703"><ele>263.0</ele><time>2026-04-25T15:34:26.044Z</time></trkpt><trkpt lat="45.482263121231654" lon="8.07241177363012"><ele>263.0</ele><time>2026-04-25T15:34:27.044Z</time></trkpt><trkpt lat="45.48210241537078" lon="8.072527224375177"><ele>263.0</ele><time>2026-04-25T15:34:28.044Z</time></trkpt><trkpt lat="45.481953161270056" lon="8.072634969736292"><ele>263.0</ele><time>2026-04-25T15:34:29.044Z</time></trkpt><trkpt lat="45.48180753093128" lon="8.07273956087148"><ele>263.0</ele><time>2026-04-25T15:34:30.044Z</time></trkpt><trkpt lat="45.48166408430406" lon="8.072839806539685"><ele>263.0</ele><time>2026-04-25T15:34:31.044Z</time></trkpt><trkpt lat="45.481522796386955" lon="8.072942707581406"><ele>263.0</ele><time>2026-04-25T15:34:32.044Z</time></trkpt><trkpt lat="45.481384453971266" lon="8.073042734169752"><ele>263.0</ele><time>2026-04-25T15:34:33.044Z</time></trkpt><trkpt lat="45.481252227110915" lon="8.073136964733646"><ele>263.0</ele><time>2026-04-25T15:34:34.044Z</time></trkpt><trkpt lat="45.48113145715626" lon="8.073220249498336"><ele>263.0</ele><time>2026-04-25T15:34:35.044Z</time></trkpt><trkpt lat="45.48102926212878" lon="8.073291931086658"><ele>262.83333333333337</ele><time>2026-04-25T15:34:36.044Z</time></trkpt><trkpt lat="45.48093814005543" lon="8.073354441360426"><ele>262.6666666666667</ele><time>2026-04-25T15:34:37.044Z</time></trkpt><trkpt lat="45.480857034815635" lon="8.073396128249424"><ele>262.5</ele><time>2026-04-25T15:34:38.044Z</time></trkpt><trkpt lat="45.48078328759127" lon="8.073412377778288"><ele>262.3333333333333</ele><time>2026-04-25T15:34:39.044Z</time></trkpt><trkpt lat="45.480711269089696" lon="8.073419227680455"><ele>262.16666666666663</ele><time>2026-04-25T15:34:40.044Z</time></trkpt><trkpt lat="45.48063735665385" lon="8.073407354026765"><ele>262.0</ele><time>2026-04-25T15:34:41.044Z</time></trkpt><trkpt lat="45.48055784496697" lon="8.07337197193117"><ele>262.0</ele><time>2026-04-25T15:34:42.044Z</time></trkpt><trkpt lat="45.48047011112577" lon="8.073326036454851"><ele>262.0</ele><time>2026-04-25T15:34:43.044Z</time></trkpt><trkpt lat="45.48037181122842" lon="8.073261598920748"><ele>262.0</ele><time>2026-04-25T15:34:44.044Z</time></trkpt><trkpt lat="45.48026343394495" lon="8.07318455424525"><ele>262.0</ele><time>2026-04-25T15:34:45.044Z</time></trkpt><trkpt lat="45.480146315680514" lon="8.073098804652806"><ele>261.25</ele><time>2026-04-25T15:34:46.044Z</time></trkpt><trkpt lat="45.48001947291497" lon="8.073011405152887"><ele>260.5</ele><time>2026-04-25T15:34:47.044Z</time></trkpt><trkpt lat="45.47989093578058" lon="8.072925370006875"><ele>259.75</ele><time>2026-04-25T15:34:48.044Z</time></trkpt><trkpt lat="45.47976593983554" lon="8.072846058835113"><ele>259.0</ele><time>2026-04-25T15:34:49.044Z</time></trkpt><trkpt lat="45.4796396638262" lon="8.072749003926"><ele>258.0</ele><time>2026-04-25T15:34:50.044Z</time></trkpt><trkpt lat="45.47950728319138" lon="8.072652097320454"><ele>257.0</ele><time>2026-04-25T15:34:51.044Z</time></trkpt><trkpt lat="45.47937009843484" lon="8.07255277669154"><ele>256.0</ele><time>2026-04-25T15:34:52.044Z</time></trkpt><trkpt lat="45.479231245169046" lon="8.072451718732127"><ele>254.66666666666666</ele><time>2026-04-25T15:34:53.044Z</time></trkpt><trkpt lat="45.47909361896965" lon="8.072351955057286"><ele>253.33333333333331</ele><time>2026-04-25T15:34:54.044Z</time></trkpt><trkpt lat="45.478955802757326" lon="8.072256075107578"><ele>252.0</ele><time>2026-04-25T15:34:55.044Z</time></trkpt><trkpt lat="45.478818242886376" lon="8.072157561840827"><ele>251.66666666666669</ele><time>2026-04-25T15:34:56.044Z</time></trkpt><trkpt lat="45.47868363176958" lon="8.072060020570857"><ele>251.33333333333334</ele><time>2026-04-25T15:34:57.044Z</time></trkpt><trkpt lat="45.47855860930232" lon="8.071941806531026"><ele>251.0</ele><time>2026-04-25T15:34:58.044Z</time></trkpt><trkpt lat="45.47842481488769" lon="8.07184339633133"><ele>251.0</ele><time>2026-04-25T15:34:59.044Z</time></trkpt><trkpt lat="45.47829215528214" lon="8.07174582081382"><ele>251.0</ele><time>2026-04-25T15:35:00.044Z</time></trkpt><trkpt lat="45.47815175444095" lon="8.071668827922318"><ele>251.0</ele><time>2026-04-25T15:35:01.045Z</time></trkpt><trkpt lat="45.47802692361264" lon="8.071552767315836"><ele>251.0</ele><time>2026-04-25T15:35:02.045Z</time></trkpt><trkpt lat="45.47789036585759" lon="8.071476227086338"><ele>252.25</ele><time>2026-04-25T15:35:03.045Z</time></trkpt><trkpt lat="45.477765234338" lon="8.071378403673087"><ele>253.5</ele><time>2026-04-25T15:35:04.045Z</time></trkpt><trkpt lat="45.47764214782824" lon="8.071289502175372"><ele>254.75</ele><time>2026-04-25T15:35:05.045Z</time></trkpt><trkpt lat="45.477522235167505" lon="8.071203241968362"><ele>256.0</ele><time>2026-04-25T15:35:06.045Z</time></trkpt><trkpt lat="45.477405087568535" lon="8.071119208357723"><ele>256.0</ele><time>2026-04-25T15:35:07.045Z</time></trkpt><trkpt lat="45.47729108158698" lon="8.071022398544647"><ele>256.0</ele><time>2026-04-25T15:35:08.045Z</time></trkpt><trkpt lat="45.47716873601488" lon="8.07094319013482"><ele>256.0</ele><time>2026-04-25T15:35:09.045Z</time></trkpt><trkpt lat="45.47704161401811" lon="8.070873021505976"><ele>256.0</ele><time>2026-04-25T15:35:10.045Z</time></trkpt><trkpt lat="45.476904771742525" lon="8.070812372388376"><ele>255.0</ele><time>2026-04-25T15:35:11.045Z</time></trkpt><trkpt lat="45.47676128190404" lon="8.070761401725713"><ele>254.0</ele><time>2026-04-25T15:35:12.045Z</time></trkpt><trkpt lat="45.476610500048594" lon="8.070721371877816"><ele>253.0</ele><time>2026-04-25T15:35:13.045Z</time></trkpt><trkpt lat="45.47645428448726" lon="8.07069339124565"><ele>253.0</ele><time>2026-04-25T15:35:14.045Z</time></trkpt><trkpt lat="45.47629061527094" lon="8.07067820227819"><ele>253.0</ele><time>2026-04-25T15:35:15.045Z</time></trkpt><trkpt lat="45.47612090564502" lon="8.070678123662995"><ele>253.0</ele><time>2026-04-25T15:35:16.045Z</time></trkpt><trkpt lat="45.475950402940754" lon="8.070678853714952"><ele>252.66666666666666</ele><time>2026-04-25T15:35:17.045Z</time></trkpt><trkpt lat="45.475783718740466" lon="8.070675891239272"><ele>252.33333333333331</ele><time>2026-04-25T15:35:18.045Z</time></trkpt><trkpt lat="45.47562098273263" lon="8.070674051526103"><ele>252.0</ele><time>2026-04-25T15:35:19.045Z</time></trkpt><trkpt lat="45.475467273454186" lon="8.070670110556227"><ele>252.0</ele><time>2026-04-25T15:35:20.045Z</time></trkpt><trkpt lat="45.47531829874542" lon="8.070669092392277"><ele>252.0</ele><time>2026-04-25T15:35:21.045Z</time></trkpt><trkpt lat="45.475172026221124" lon="8.070672413635515"><ele>252.0</ele><time>2026-04-25T15:35:22.045Z</time></trkpt><trkpt lat="45.475026487955596" lon="8.070669102202048"><ele>252.0</ele><time>2026-04-25T15:35:23.045Z</time></trkpt><trkpt lat="45.47487621959788" lon="8.070664520985359"><ele>252.0</ele><time>2026-04-25T15:35:24.045Z</time></trkpt><trkpt lat="45.47472697843965" lon="8.070659041842855"><ele>252.0</ele><time>2026-04-25T15:35:25.045Z</time></trkpt><trkpt lat="45.47457624491418" lon="8.07064474610859"><ele>252.0</ele><time>2026-04-25T15:35:26.045Z</time></trkpt><trkpt lat="45.474424121800496" lon="8.070619659639982"><ele>251.75</ele><time>2026-04-25T15:35:27.045Z</time></trkpt><trkpt lat="45.47427327823093" lon="8.070592573133096"><ele>251.5</ele><time>2026-04-25T15:35:28.045Z</time></trkpt><trkpt lat="45.47412529133035" lon="8.070559419614472"><ele>251.25</ele><time>2026-04-25T15:35:29.045Z</time></trkpt><trkpt lat="45.4739818094618" lon="8.070514005575523"><ele>251.0</ele><time>2026-04-25T15:35:30.045Z</time></trkpt><trkpt lat="45.473837407387755" lon="8.07045822536145"><ele>251.0</ele><time>2026-04-25T15:35:31.045Z</time></trkpt><trkpt lat="45.4736921592305" lon="8.070393889135222"><ele>251.0</ele><time>2026-04-25T15:35:32.045Z</time></trkpt><trkpt lat="45.47354687806891" lon="8.070314797023695"><ele>251.0</ele><time>2026-04-25T15:35:33.045Z</time></trkpt><trkpt lat="45.47340197518407" lon="8.07022136729647"><ele>251.0</ele><time>2026-04-25T15:35:34.045Z</time></trkpt><trkpt lat="45.47325866237338" lon="8.07011917293616"><ele>251.0</ele><time>2026-04-25T15:35:35.045Z</time></trkpt><trkpt lat="45.473120018435786" lon="8.07001416330687"><ele>251.0</ele><time>2026-04-25T15:35:36.045Z</time></trkpt><trkpt lat="45.4729866579528" lon="8.069908442650723"><ele>251.75</ele><time>2026-04-25T15:35:37.045Z</time></trkpt><trkpt lat="45.47286718966439" lon="8.069809772223923"><ele>252.5</ele><time>2026-04-25T15:35:38.045Z</time></trkpt><trkpt lat="45.47276370942588" lon="8.06972521905446"><ele>253.25</ele><time>2026-04-25T15:35:39.045Z</time></trkpt><trkpt lat="45.472676623140174" lon="8.069644562069778"><ele>254.0</ele><time>2026-04-25T15:35:40.045Z</time></trkpt><trkpt lat="45.47260411707299" lon="8.069558460821584"><ele>254.0</ele><time>2026-04-25T15:35:41.045Z</time></trkpt><trkpt lat="45.47254440124097" lon="8.069459988118613"><ele>253.99999999999997</ele><time>2026-04-25T15:35:42.045Z</time></trkpt><trkpt lat="45.472494254346536" lon="8.069352243855937"><ele>253.99999999999997</ele><time>2026-04-25T15:35:43.045Z</time></trkpt><trkpt lat="45.47244267412182" lon="8.069231497460274"><ele>254.0</ele><time>2026-04-25T15:35:44.045Z</time></trkpt><trkpt lat="45.47237072075664" lon="8.06911514992407"><ele>254.0</ele><time>2026-04-25T15:35:45.045Z</time></trkpt><trkpt lat="45.47231150847389" lon="8.068966052924946"><ele>254.0</ele><time>2026-04-25T15:35:46.045Z</time></trkpt><trkpt lat="45.47222756815692" lon="8.068837579623414"><ele>254.0</ele><time>2026-04-25T15:35:47.045Z</time></trkpt><trkpt lat="45.47214303801551" lon="8.068714232187725"><ele>254.0</ele><time>2026-04-25T15:35:48.045Z</time></trkpt><trkpt lat="45.472075458089726" lon="8.068578467854103"><ele>254.0</ele><time>2026-04-25T15:35:49.045Z</time></trkpt><trkpt lat="45.47199740846405" lon="8.0684626269852"><ele>253.79999999999998</ele><time>2026-04-25T15:35:50.045Z</time></trkpt><trkpt lat="45.47190880517081" lon="8.068371289987489"><ele>253.59999999999997</ele><time>2026-04-25T15:35:51.045Z</time></trkpt><trkpt lat="45.471847151662494" lon="8.068253388912572"><ele>253.4</ele><time>2026-04-25T15:35:52.045Z</time></trkpt><trkpt lat="45.47178137888893" lon="8.068165479848867"><ele>253.2</ele><time>2026-04-25T15:35:53.045Z</time></trkpt><trkpt lat="45.47172120202125" lon="8.068085745475898"><ele>253.0</ele><time>2026-04-25T15:35:54.046Z</time></trkpt><trkpt lat="45.47165796492206" lon="8.06802315490324"><ele>252.99999999999997</ele><time>2026-04-25T15:35:55.046Z</time></trkpt><trkpt lat="45.47160285173468" lon="8.067952784750279"><ele>253.0</ele><time>2026-04-25T15:35:56.046Z</time></trkpt><trkpt lat="45.47154165555494" lon="8.067875828534593"><ele>253.0</ele><time>2026-04-25T15:35:57.046Z</time></trkpt><trkpt lat="45.47148096743223" lon="8.067785451613712"><ele>253.0</ele><time>2026-04-25T15:35:58.046Z</time></trkpt><trkpt lat="45.47140854720547" lon="8.067703845611303"><ele>252.99999999999997</ele><time>2026-04-25T15:35:59.046Z</time></trkpt><trkpt lat="45.47133400791843" lon="8.067626775667781"><ele>253.0</ele><time>2026-04-25T15:36:00.046Z</time></trkpt><trkpt lat="45.471260387453135" lon="8.067563945273697"><ele>253.83333333333331</ele><time>2026-04-25T15:36:01.046Z</time></trkpt><trkpt lat="45.47119547908452" lon="8.06751427251291"><ele>254.66666666666666</ele><time>2026-04-25T15:36:02.046Z</time></trkpt><trkpt lat="45.471135034813486" lon="8.067477674154187"><ele>255.5</ele><time>2026-04-25T15:36:03.046Z</time></trkpt><trkpt lat="45.471042401199206" lon="8.067404483326651"><ele>256.3333333333333</ele><time>2026-04-25T15:36:05.046Z</time></trkpt><trkpt lat="45.47096952058266" lon="8.067389679197682"><ele>257.1666666666667</ele><time>2026-04-25T15:36:08.046Z</time></trkpt><trkpt lat="45.4709573162248" lon="8.067264423622122"><ele>258.0</ele><time>2026-04-25T15:36:09.046Z</time></trkpt><trkpt lat="45.470979352228106" lon="8.067087299987875"><ele>258.2857142857143</ele><time>2026-04-25T15:36:11.046Z</time></trkpt><trkpt lat="45.470986448484105" lon="8.066975063237214"><ele>258.57142857142856</ele><time>2026-04-25T15:36:12.046Z</time></trkpt><trkpt lat="45.47099899598345" lon="8.066854202396815"><ele>258.8571428571429</ele><time>2026-04-25T15:36:13.046Z</time></trkpt><trkpt lat="45.47100817734093" lon="8.066745505754017"><ele>259.1428571428571</ele><time>2026-04-25T15:36:14.046Z</time></trkpt><trkpt lat="45.471016169947156" lon="8.066644859590879"><ele>259.42857142857144</ele><time>2026-04-25T15:36:15.046Z</time></trkpt><trkpt lat="45.47101377426089" lon="8.066546577011394"><ele>259.7142857142857</ele><time>2026-04-25T15:36:16.046Z</time></trkpt><trkpt lat="45.47101057885081" lon="8.066450521997364"><ele>260.0</ele><time>2026-04-25T15:36:17.046Z</time></trkpt><trkpt lat="45.47101790154575" lon="8.066343667978913"><ele>261.0</ele><time>2026-04-25T15:36:19.046Z</time></trkpt><trkpt lat="45.47097102190938" lon="8.066264107541352"><ele>262.0</ele><time>2026-04-25T15:36:22.046Z</time></trkpt><trkpt lat="45.470848832954104" lon="8.066282468738285"><ele>263.0</ele><time>2026-04-25T15:36:25.046Z</time></trkpt><trkpt lat="45.470773569571854" lon="8.066298116053796"><ele>264.0</ele><time>2026-04-25T15:36:27.048Z</time></trkpt><trkpt lat="45.47075040924368" lon="8.066394447958213"><ele>265.0</ele><time>2026-04-25T15:36:28.048Z</time></trkpt><trkpt lat="45.470661321929505" lon="8.066497085139678"><ele>264.99999999999994</ele><time>2026-04-25T15:36:30.047Z</time></trkpt><trkpt lat="45.47062708526844" lon="8.066575231182663"><ele>265.0</ele><time>2026-04-25T15:36:31.048Z</time></trkpt><trkpt lat="45.470576146882365" lon="8.066644493844437"><ele>265.0</ele><time>2026-04-25T15:36:32.048Z</time></trkpt><trkpt lat="45.47051429948771" lon="8.066713322207582"><ele>265.0</ele><time>2026-04-25T15:36:33.048Z</time></trkpt><trkpt lat="45.47045176242445" lon="8.06679185950559"><ele>265.0</ele><time>2026-04-25T15:36:34.048Z</time></trkpt><trkpt lat="45.47039589759347" lon="8.066853606088264"><ele>264.99999999999994</ele><time>2026-04-25T15:36:35.048Z</time></trkpt><trkpt lat="45.470352680384785" lon="8.066927038341722"><ele>265.0</ele><time>2026-04-25T15:36:36.048Z</time></trkpt><trkpt lat="45.470303130896156" lon="8.067011302730565"><ele>265.16666666666663</ele><time>2026-04-25T15:36:37.048Z</time></trkpt><trkpt lat="45.470251900642864" lon="8.067103699726662"><ele>265.3333333333333</ele><time>2026-04-25T15:36:38.048Z</time></trkpt><trkpt lat="45.47019525020595" lon="8.067183996880594"><ele>265.5</ele><time>2026-04-25T15:36:39.048Z</time></trkpt><trkpt lat="45.470137657723555" lon="8.06724890952462"><ele>265.6666666666667</ele><time>2026-04-25T15:36:40.047Z</time></trkpt><trkpt lat="45.47008115480276" lon="8.067316963071448"><ele>265.83333333333337</ele><time>2026-04-25T15:36:41.048Z</time></trkpt><trkpt lat="45.47003218311302" lon="8.06739253040145"><ele>266.0</ele><time>2026-04-25T15:36:42.048Z</time></trkpt><trkpt lat="45.46997788521849" lon="8.067472114357582"><ele>264.2</ele><time>2026-04-25T15:36:43.048Z</time></trkpt><trkpt lat="45.469925968365565" lon="8.067563654037192"><ele>262.40000000000003</ele><time>2026-04-25T15:36:44.048Z</time></trkpt><trkpt lat="45.469875478191156" lon="8.067670355910275"><ele>260.6</ele><time>2026-04-25T15:36:45.048Z</time></trkpt><trkpt lat="45.46982376397714" lon="8.06777650610917"><ele>258.8</ele><time>2026-04-25T15:36:46.048Z</time></trkpt><trkpt lat="45.46977891226095" lon="8.06789220203226"><ele>257.0</ele><time>2026-04-25T15:36:47.048Z</time></trkpt><trkpt lat="45.46973375797902" lon="8.068010000743042"><ele>257.0</ele><time>2026-04-25T15:36:48.048Z</time></trkpt><trkpt lat="45.46968687963971" lon="8.068143529996595"><ele>257.0</ele><time>2026-04-25T15:36:49.048Z</time></trkpt><trkpt lat="45.4696427689785" lon="8.068273243682915"><ele>257.0</ele><time>2026-04-25T15:36:50.048Z</time></trkpt><trkpt lat="45.46959587199903" lon="8.068383025015798"><ele>257.0</ele><time>2026-04-25T15:36:51.048Z</time></trkpt><trkpt lat="45.46955331436475" lon="8.068481255266477"><ele>257.0</ele><time>2026-04-25T15:36:52.048Z</time></trkpt><trkpt lat="45.46951547616958" lon="8.068566026307638"><ele>257.0</ele><time>2026-04-25T15:36:53.048Z</time></trkpt><trkpt lat="45.469439027574786" lon="8.068690651816478"><ele>257.6</ele><time>2026-04-25T15:36:55.048Z</time></trkpt><trkpt lat="45.469359234625635" lon="8.068750927098503"><ele>258.2</ele><time>2026-04-25T15:36:57.048Z</time></trkpt><trkpt lat="45.46928557498971" lon="8.068809087100625"><ele>258.8</ele><time>2026-04-25T15:36:59.048Z</time></trkpt><trkpt lat="45.46918986482946" lon="8.06880440195867"><ele>259.4</ele><time>2026-04-25T15:37:01.048Z</time></trkpt><trkpt lat="45.46906364498778" lon="8.068859865047079"><ele>260.0</ele><time>2026-04-25T15:37:03.048Z</time></trkpt><trkpt lat="45.46898651742565" lon="8.068895804195426"><ele>260.00000000000006</ele><time>2026-04-25T15:37:04.048Z</time></trkpt><trkpt lat="45.46891313375462" lon="8.068925925155712"><ele>260.0</ele><time>2026-04-25T15:37:05.048Z</time></trkpt><trkpt lat="45.46884289030126" lon="8.068962452331613"><ele>260.0</ele><time>2026-04-25T15:37:06.048Z</time></trkpt><trkpt lat="45.468769564666395" lon="8.069001014176035"><ele>260.0</ele><time>2026-04-25T15:37:07.048Z</time></trkpt><trkpt lat="45.46870283009166" lon="8.069042248042644"><ele>260.0</ele><time>2026-04-25T15:37:08.048Z</time></trkpt><trkpt lat="45.46863763846024" lon="8.069077612597278"><ele>260.00000000000006</ele><time>2026-04-25T15:37:09.048Z</time></trkpt><trkpt lat="45.46856813383607" lon="8.069082140632995"><ele>260.0</ele><time>2026-04-25T15:37:10.048Z</time></trkpt><trkpt lat="45.46850715235394" lon="8.069130981997658"><ele>260.5</ele><time>2026-04-25T15:37:11.048Z</time></trkpt><trkpt lat="45.46843899343717" lon="8.069162844770684"><ele>261.0</ele><time>2026-04-25T15:37:12.048Z</time></trkpt><trkpt lat="45.468368020288274" lon="8.06916986381737"><ele>261.5</ele><time>2026-04-25T15:37:13.048Z</time></trkpt><trkpt lat="45.46826683174214" lon="8.069215955734823"><ele>262.0</ele><time>2026-04-25T15:37:15.048Z</time></trkpt><trkpt lat="45.46819335546631" lon="8.069250465837206"><ele>262.5</ele><time>2026-04-25T15:37:17.048Z</time></trkpt><trkpt lat="45.468142736539" lon="8.069187310738709"><ele>263.0</ele><time>2026-04-25T15:37:20.048Z</time></trkpt><trkpt lat="45.468122129528076" lon="8.069100116181867"><ele>263.83333333333337</ele><time>2026-04-25T15:37:21.048Z</time></trkpt><trkpt lat="45.46808303317442" lon="8.068915965651595"><ele>264.6666666666667</ele><time>2026-04-25T15:37:23.048Z</time></trkpt><trkpt lat="45.468058961840995" lon="8.068805432724439"><ele>265.5</ele><time>2026-04-25T15:37:24.048Z</time></trkpt><trkpt lat="45.46803471758067" lon="8.068694105663177"><ele>266.3333333333333</ele><time>2026-04-25T15:37:25.048Z</time></trkpt><trkpt lat="45.46801058305269" lon="8.068592658413001"><ele>267.16666666666663</ele><time>2026-04-25T15:37:26.048Z</time></trkpt><trkpt lat="45.467993503669554" lon="8.068490123433168"><ele>268.0</ele><time>2026-04-25T15:37:27.048Z</time></trkpt><trkpt lat="45.46798732834392" lon="8.068341276142851"><ele>269.3333333333333</ele><time>2026-04-25T15:37:29.048Z</time></trkpt><trkpt lat="45.46798982898166" lon="8.068180239488221"><ele>270.66666666666663</ele><time>2026-04-25T15:37:31.048Z</time></trkpt><trkpt lat="45.467996850239" lon="8.068074793982156"><ele>272.0</ele><time>2026-04-25T15:37:32.048Z</time></trkpt><trkpt lat="45.4680015262036" lon="8.067955190392796"><ele>273.3333333333333</ele><time>2026-04-25T15:37:33.048Z</time></trkpt><trkpt lat="45.468024391806956" lon="8.067844703551376"><ele>274.6666666666667</ele><time>2026-04-25T15:37:34.049Z</time></trkpt><trkpt lat="45.46803998521648" lon="8.067739919502136"><ele>276.0</ele><time>2026-04-25T15:37:35.049Z</time></trkpt><trkpt lat="45.46805837346161" lon="8.067564754634258"><ele>276.0</ele><time>2026-04-25T15:37:37.049Z</time></trkpt><trkpt lat="45.46805266252487" lon="8.067461799438561"><ele>276.0</ele><time>2026-04-25T15:37:38.049Z</time></trkpt><trkpt lat="45.468048767251474" lon="8.067369312478727"><ele>276.0</ele><time>2026-04-25T15:37:39.049Z</time></trkpt><trkpt lat="45.46803477055922" lon="8.067259964361249"><ele>276.0</ele><time>2026-04-25T15:37:40.049Z</time></trkpt><trkpt lat="45.468025502871974" lon="8.067125752743433"><ele>276.0</ele><time>2026-04-25T15:37:41.049Z</time></trkpt><trkpt lat="45.46801974781349" lon="8.066988425161044"><ele>276.0</ele><time>2026-04-25T15:37:42.049Z</time></trkpt><trkpt lat="45.46801948314629" lon="8.066848562259967"><ele>276.40000000000003</ele><time>2026-04-25T15:37:43.049Z</time></trkpt><trkpt lat="45.46804627288536" lon="8.066715888123255"><ele>276.8</ele><time>2026-04-25T15:37:44.049Z</time></trkpt><trkpt lat="45.46806848999534" lon="8.066588979127491"><ele>277.20000000000005</ele><time>2026-04-25T15:37:45.049Z</time></trkpt><trkpt lat="45.46808022880195" lon="8.066451673538388"><ele>277.6</ele><time>2026-04-25T15:37:46.049Z</time></trkpt><trkpt lat="45.46810612990398" lon="8.066331699688716"><ele>278.0</ele><time>2026-04-25T15:37:47.049Z</time></trkpt><trkpt lat="45.46811997348102" lon="8.06619813493248"><ele>278.0</ele><time>2026-04-25T15:37:48.049Z</time></trkpt><trkpt lat="45.46815101182653" lon="8.066056363141993"><ele>278.0</ele><time>2026-04-25T15:37:49.049Z</time></trkpt><trkpt lat="45.46815407958065" lon="8.065910762777083"><ele>278.0</ele><time>2026-04-25T15:37:50.049Z</time></trkpt><trkpt lat="45.46817456302106" lon="8.065781320531986"><ele>278.0</ele><time>2026-04-25T15:37:51.049Z</time></trkpt><trkpt lat="45.46818097526492" lon="8.065655045756817"><ele>278.0</ele><time>2026-04-25T15:37:52.049Z</time></trkpt><trkpt lat="45.46819022085215" lon="8.06553113875771"><ele>278.57142857142856</ele><time>2026-04-25T15:37:53.049Z</time></trkpt><trkpt lat="45.468198129917354" lon="8.065409572434016"><ele>279.14285714285717</ele><time>2026-04-25T15:37:54.049Z</time></trkpt><trkpt lat="45.46820975548631" lon="8.065315900007269"><ele>279.7142857142857</ele><time>2026-04-25T15:37:55.049Z</time></trkpt><trkpt lat="45.468213390282266" lon="8.065225773879131"><ele>280.2857142857143</ele><time>2026-04-25T15:37:56.049Z</time></trkpt><trkpt lat="45.46821310845743" lon="8.065134310812837"><ele>280.85714285714283</ele><time>2026-04-25T15:37:57.049Z</time></trkpt><trkpt lat="45.4682247144107" lon="8.06503635806447"><ele>281.42857142857144</ele><time>2026-04-25T15:37:58.049Z</time></trkpt><trkpt lat="45.46823430353149" lon="8.064918554518345"><ele>282.0</ele><time>2026-04-25T15:37:59.049Z</time></trkpt><trkpt lat="45.468262372209416" lon="8.064798971416481"><ele>282.0</ele><time>2026-04-25T15:38:00.049Z</time></trkpt><trkpt lat="45.46828480541979" lon="8.064682990316646"><ele>282.0</ele><time>2026-04-25T15:38:01.049Z</time></trkpt><trkpt lat="45.468302045983116" lon="8.064565239258942"><ele>282.0</ele><time>2026-04-25T15:38:02.049Z</time></trkpt><trkpt lat="45.46831777707134" lon="8.064451349168872"><ele>282.0</ele><time>2026-04-25T15:38:03.049Z</time></trkpt><trkpt lat="45.46832799167877" lon="8.06434495939883"><ele>282.0</ele><time>2026-04-25T15:38:04.049Z</time></trkpt><trkpt lat="45.46835219456114" lon="8.064242396675382"><ele>282.0</ele><time>2026-04-25T15:38:05.049Z</time></trkpt><trkpt lat="45.46834528410836" lon="8.064121290105756"><ele>281.6</ele><time>2026-04-25T15:38:06.049Z</time></trkpt><trkpt lat="45.46836269898355" lon="8.063991025856415"><ele>281.2</ele><time>2026-04-25T15:38:07.049Z</time></trkpt><trkpt lat="45.4683757934272" lon="8.063847048147457"><ele>280.8</ele><time>2026-04-25T15:38:08.049Z</time></trkpt><trkpt lat="45.468389148285" lon="8.06369702774993"><ele>280.4</ele><time>2026-04-25T15:38:09.049Z</time></trkpt><trkpt lat="45.46841534459019" lon="8.063559798056742"><ele>280.0</ele><time>2026-04-25T15:38:10.049Z</time></trkpt><trkpt lat="45.46845678100021" lon="8.063435625212175"><ele>280.0</ele><time>2026-04-25T15:38:11.049Z</time></trkpt><trkpt lat="45.46851655887154" lon="8.063305307746417"><ele>280.0</ele><time>2026-04-25T15:38:12.049Z</time></trkpt><trkpt lat="45.468592933104425" lon="8.063191253586266"><ele>280.0</ele><time>2026-04-25T15:38:13.049Z</time></trkpt><trkpt lat="45.46866801188805" lon="8.063095741913674"><ele>280.0</ele><time>2026-04-25T15:38:14.049Z</time></trkpt><trkpt lat="45.46874555294003" lon="8.062984743503526"><ele>280.0</ele><time>2026-04-25T15:38:15.049Z</time></trkpt><trkpt lat="45.468832177253134" lon="8.06286720099135"><ele>284.25</ele><time>2026-04-25T15:38:16.049Z</time></trkpt><trkpt lat="45.46891726527361" lon="8.06273056790956"><ele>288.5</ele><time>2026-04-25T15:38:17.049Z</time></trkpt><trkpt lat="45.46900768566833" lon="8.062585034008427"><ele>292.75</ele><time>2026-04-25T15:38:18.049Z</time></trkpt><trkpt lat="45.46909326156868" lon="8.062425601606439"><ele>297.0</ele><time>2026-04-25T15:38:19.049Z</time></trkpt><trkpt lat="45.469171795712924" lon="8.062246748050377"><ele>299.5</ele><time>2026-04-25T15:38:20.049Z</time></trkpt><trkpt lat="45.46924774287706" lon="8.06206308579415"><ele>302.0</ele><time>2026-04-25T15:38:21.049Z</time></trkpt><trkpt lat="45.46931737413597" lon="8.061878257039567"><ele>304.5</ele><time>2026-04-25T15:38:22.049Z</time></trkpt><trkpt lat="45.46938942932313" lon="8.061698119847984"><ele>307.0</ele><time>2026-04-25T15:38:23.049Z</time></trkpt><trkpt lat="45.46945212014048" lon="8.061515509007478"><ele>307.25</ele><time>2026-04-25T15:38:24.049Z</time></trkpt><trkpt lat="45.46951127034512" lon="8.061322651986051"><ele>307.5</ele><time>2026-04-25T15:38:25.049Z</time></trkpt><trkpt lat="45.46957191444614" lon="8.061132027576564"><ele>307.75</ele><time>2026-04-25T15:38:26.049Z</time></trkpt><trkpt lat="45.46960601762502" lon="8.060938007533139"><ele>308.0</ele><time>2026-04-25T15:38:27.049Z</time></trkpt><trkpt lat="45.46960101382955" lon="8.060766470641067"><ele>307.4</ele><time>2026-04-25T15:38:28.05Z</time></trkpt><trkpt lat="45.469603690175575" lon="8.060607811288376"><ele>306.8</ele><time>2026-04-25T15:38:28.72Z</time></trkpt><trkpt lat="45.46962166886491" lon="8.060457224595698"><ele>306.2</ele><time>2026-04-25T15:38:29.72Z</time></trkpt><trkpt lat="45.46965878453765" lon="8.060315603692697"><ele>305.6</ele><time>2026-04-25T15:38:30.72Z</time></trkpt><trkpt lat="45.46971428510197" lon="8.060169231180598"><ele>305.0</ele><time>2026-04-25T15:38:31.72Z</time></trkpt><trkpt lat="45.46977866398975" lon="8.06001244201349"><ele>306.75</ele><time>2026-04-25T15:38:32.721Z</time></trkpt><trkpt lat="45.469829986065676" lon="8.059852058644125"><ele>308.5</ele><time>2026-04-25T15:38:33.721Z</time></trkpt><trkpt lat="45.46989581790139" lon="8.059720979155841"><ele>310.25</ele><time>2026-04-25T15:38:34.721Z</time></trkpt><trkpt lat="45.4699809067242" lon="8.059610473131473"><ele>312.0</ele><time>2026-04-25T15:38:35.721Z</time></trkpt><trkpt lat="45.470073233554196" lon="8.05952038556234"><ele>312.0</ele><time>2026-04-25T15:38:36.722Z</time></trkpt><trkpt lat="45.470176087923065" lon="8.059461645140008"><ele>312.0</ele><time>2026-04-25T15:38:37.722Z</time></trkpt><trkpt lat="45.47028381790146" lon="8.059450151452124"><ele>312.0</ele><time>2026-04-25T15:38:38.722Z</time></trkpt><trkpt lat="45.47039187072059" lon="8.059456744180002"><ele>312.0</ele><time>2026-04-25T15:38:39.721Z</time></trkpt><trkpt lat="45.4704927239311" lon="8.05942012615457"><ele>312.0</ele><time>2026-04-25T15:38:40.721Z</time></trkpt><trkpt lat="45.470583009063176" lon="8.059327415296679"><ele>311.75</ele><time>2026-04-25T15:38:41.721Z</time></trkpt><trkpt lat="45.4706646296784" lon="8.05920260270188"><ele>311.5</ele><time>2026-04-25T15:38:42.721Z</time></trkpt><trkpt lat="45.470719595704864" lon="8.059056296385236"><ele>311.25</ele><time>2026-04-25T15:38:43.721Z</time></trkpt><trkpt lat="45.470757687252814" lon="8.058894874464533"><ele>311.0</ele><time>2026-04-25T15:38:44.721Z</time></trkpt><trkpt lat="45.47078226121534" lon="8.058701794950302"><ele>311.0</ele><time>2026-04-25T15:38:45.721Z</time></trkpt><trkpt lat="45.47080083448457" lon="8.058475964776067"><ele>311.0</ele><time>2026-04-25T15:38:46.721Z</time></trkpt><trkpt lat="45.47081825258456" lon="8.058221529582212"><ele>311.0</ele><time>2026-04-25T15:38:47.721Z</time></trkpt><trkpt lat="45.47083335810744" lon="8.05797575534377"><ele>309.6666666666667</ele><time>2026-04-25T15:38:48.721Z</time></trkpt><trkpt lat="45.470847964922406" lon="8.057736986399007"><ele>308.3333333333333</ele><time>2026-04-25T15:38:49.721Z</time></trkpt><trkpt lat="45.47086234649106" lon="8.057501215848566"><ele>307.0</ele><time>2026-04-25T15:38:50.721Z</time></trkpt><trkpt lat="45.47087706394338" lon="8.057259938853878"><ele>306.66666666666663</ele><time>2026-04-25T15:38:51.721Z</time></trkpt><trkpt lat="45.47089254866462" lon="8.057014478846256"><ele>306.3333333333333</ele><time>2026-04-25T15:38:52.721Z</time></trkpt><trkpt lat="45.470907790328155" lon="8.056773768830645"><ele>306.0</ele><time>2026-04-25T15:38:53.721Z</time></trkpt><trkpt lat="45.470925070205226" lon="8.056541286484848"><ele>306.0</ele><time>2026-04-25T15:38:54.721Z</time></trkpt><trkpt lat="45.47094158594316" lon="8.056321116059896"><ele>306.0</ele><time>2026-04-25T15:38:55.721Z</time></trkpt><trkpt lat="45.470947423689815" lon="8.056108738402095"><ele>306.0</ele><time>2026-04-25T15:38:56.721Z</time></trkpt><trkpt lat="45.47093238890142" lon="8.055900441329637"><ele>306.0</ele><time>2026-04-25T15:38:57.721Z</time></trkpt><trkpt lat="45.47088428433984" lon="8.055699014228148"><ele>306.0</ele><time>2026-04-25T15:38:58.721Z</time></trkpt><trkpt lat="45.4708442844973" lon="8.055499268413572"><ele>306.0</ele><time>2026-04-25T15:38:59.721Z</time></trkpt><trkpt lat="45.47079699289247" lon="8.055292484120326"><ele>306.0</ele><time>2026-04-25T15:39:00.721Z</time></trkpt><trkpt lat="45.47073888737674" lon="8.055074096612408"><ele>304.6666666666667</ele><time>2026-04-25T15:39:01.72Z</time></trkpt><trkpt lat="45.470692805885626" lon="8.05485996161814"><ele>303.33333333333337</ele><time>2026-04-25T15:39:02.72Z</time></trkpt><trkpt lat="45.47064647422571" lon="8.054649192458744"><ele>302.0</ele><time>2026-04-25T15:39:03.72Z</time></trkpt><trkpt lat="45.47059130533152" lon="8.054429385067884"><ele>302.0</ele><time>2026-04-25T15:39:04.72Z</time></trkpt><trkpt lat="45.470555934117314" lon="8.054197455210302"><ele>302.0</ele><time>2026-04-25T15:39:05.72Z</time></trkpt><trkpt lat="45.47050117829972" lon="8.053960091767223"><ele>302.0</ele><time>2026-04-25T15:39:06.72Z</time></trkpt><trkpt lat="45.47044388510393" lon="8.053711728894587"><ele>298.0</ele><time>2026-04-25T15:39:07.72Z</time></trkpt><trkpt lat="45.470385807772665" lon="8.053462015001825"><ele>294.0</ele><time>2026-04-25T15:39:08.72Z</time></trkpt><trkpt lat="45.47032941913571" lon="8.053219585389712"><ele>290.0</ele><time>2026-04-25T15:39:09.72Z</time></trkpt><trkpt lat="45.47027411817052" lon="8.052983901536088"><ele>290.0</ele><time>2026-04-25T15:39:10.72Z</time></trkpt><trkpt lat="45.47022309182247" lon="8.052766963628276"><ele>290.0</ele><time>2026-04-25T15:39:11.72Z</time></trkpt><trkpt lat="45.47017495901044" lon="8.05255387395987"><ele>290.0</ele><time>2026-04-25T15:39:12.72Z</time></trkpt><trkpt lat="45.47013019373967" lon="8.052346281497707"><ele>290.25</ele><time>2026-04-25T15:39:13.72Z</time></trkpt><trkpt lat="45.470089170891505" lon="8.05213232947794"><ele>290.5</ele><time>2026-04-25T15:39:14.72Z</time></trkpt><trkpt lat="45.4700641017643" lon="8.051922873107214"><ele>290.75</ele><time>2026-04-25T15:39:15.72Z</time></trkpt><trkpt lat="45.47006312721093" lon="8.051723439364412"><ele>291.0</ele><time>2026-04-25T15:39:16.72Z</time></trkpt><trkpt lat="45.4700822929504" lon="8.051537070388628"><ele>291.3333333333333</ele><time>2026-04-25T15:39:17.72Z</time></trkpt><trkpt lat="45.47010922222487" lon="8.051335719894416"><ele>291.66666666666663</ele><time>2026-04-25T15:39:18.72Z</time></trkpt><trkpt lat="45.47014140970109" lon="8.051123555272694"><ele>292.0</ele><time>2026-04-25T15:39:19.72Z</time></trkpt><trkpt lat="45.470175837723176" lon="8.050897605389013"><ele>291.0</ele><time>2026-04-25T15:39:20.719Z</time></trkpt><trkpt lat="45.47021109427824" lon="8.050661248826843"><ele>290.0</ele><time>2026-04-25T15:39:21.719Z</time></trkpt><trkpt lat="45.47024585413066" lon="8.05041491378197"><ele>289.0</ele><time>2026-04-25T15:39:22.719Z</time></trkpt><trkpt lat="45.470276439121676" lon="8.050183902334522"><ele>289.0</ele><time>2026-04-25T15:39:23.719Z</time></trkpt><trkpt lat="45.47030388189763" lon="8.049973029263976"><ele>289.0</ele><time>2026-04-25T15:39:24.719Z</time></trkpt><trkpt lat="45.47033866741008" lon="8.04977706430214"><ele>289.0</ele><time>2026-04-25T15:39:25.719Z</time></trkpt><trkpt lat="45.47039353587729" lon="8.049598878267478"><ele>289.0</ele><time>2026-04-25T15:39:26.719Z</time></trkpt><trkpt lat="45.47047572912916" lon="8.049428035133088"><ele>290.3333333333333</ele><time>2026-04-25T15:39:27.719Z</time></trkpt><trkpt lat="45.47056668436757" lon="8.049245150047998"><ele>291.6666666666667</ele><time>2026-04-25T15:39:28.719Z</time></trkpt><trkpt lat="45.470651627203964" lon="8.049045798469852"><ele>293.0</ele><time>2026-04-25T15:39:29.719Z</time></trkpt><trkpt lat="45.470719962076735" lon="8.048832085605847"><ele>293.0</ele><time>2026-04-25T15:39:30.719Z</time></trkpt><trkpt lat="45.47077305305783" lon="8.04862688772182"><ele>293.0</ele><time>2026-04-25T15:39:31.719Z</time></trkpt><trkpt lat="45.470845196204664" lon="8.048422132091934"><ele>293.0</ele><time>2026-04-25T15:39:32.719Z</time></trkpt><trkpt lat="45.47093628279496" lon="8.04822137339035"><ele>292.0</ele><time>2026-04-25T15:39:33.719Z</time></trkpt><trkpt lat="45.471050627837016" lon="8.048026797754751"><ele>291.0</ele><time>2026-04-25T15:39:34.719Z</time></trkpt><trkpt lat="45.4711555831292" lon="8.04781466639266"><ele>290.0</ele><time>2026-04-25T15:39:35.719Z</time></trkpt><trkpt lat="45.471251366501484" lon="8.047595968561371"><ele>292.33333333333337</ele><time>2026-04-25T15:39:36.719Z</time></trkpt><trkpt lat="45.47133542517381" lon="8.047381185687906"><ele>294.6666666666667</ele><time>2026-04-25T15:39:37.718Z</time></trkpt><trkpt lat="45.471412777109194" lon="8.04717993128511"><ele>297.0</ele><time>2026-04-25T15:39:38.718Z</time></trkpt><trkpt lat="45.47148490714509" lon="8.046989096555874"><ele>297.0</ele><time>2026-04-25T15:39:39.718Z</time></trkpt><trkpt lat="45.47154052435908" lon="8.046804405762257"><ele>297.0</ele><time>2026-04-25T15:39:40.718Z</time></trkpt><trkpt lat="45.47157300664769" lon="8.046600766744348"><ele>297.0</ele><time>2026-04-25T15:39:41.718Z</time></trkpt><trkpt lat="45.47158135532415" lon="8.046396033086241"><ele>297.0</ele><time>2026-04-25T15:39:42.718Z</time></trkpt><trkpt lat="45.47158578550691" lon="8.046183051670633"><ele>297.0</ele><time>2026-04-25T15:39:43.718Z</time></trkpt><trkpt lat="45.47158857015648" lon="8.045953684369785"><ele>297.0</ele><time>2026-04-25T15:39:44.718Z</time></trkpt><trkpt lat="45.471592007690774" lon="8.0457215240071"><ele>297.0</ele><time>2026-04-25T15:39:45.718Z</time></trkpt><trkpt lat="45.47159719301405" lon="8.045487743082278"><ele>298.0</ele><time>2026-04-25T15:39:46.718Z</time></trkpt><trkpt lat="45.47160315110029" lon="8.04525646714993"><ele>299.0</ele><time>2026-04-25T15:39:47.718Z</time></trkpt><trkpt lat="45.47161038547782" lon="8.04502383258971"><ele>300.0</ele><time>2026-04-25T15:39:48.718Z</time></trkpt><trkpt lat="45.47161947708287" lon="8.044787881234672"><ele>300.3333333333333</ele><time>2026-04-25T15:39:49.718Z</time></trkpt><trkpt lat="45.471627777438954" lon="8.044547369711013"><ele>300.66666666666663</ele><time>2026-04-25T15:39:50.718Z</time></trkpt><trkpt lat="45.47163333487475" lon="8.044306800040607"><ele>301.0</ele><time>2026-04-25T15:39:51.718Z</time></trkpt><trkpt lat="45.47163881474818" lon="8.044069587969883"><ele>300.5</ele><time>2026-04-25T15:39:52.718Z</time></trkpt><trkpt lat="45.47164938894723" lon="8.043836854926427"><ele>300.0</ele><time>2026-04-25T15:39:53.718Z</time></trkpt><trkpt lat="45.47166361131668" lon="8.043629799992992"><ele>299.5</ele><time>2026-04-25T15:39:54.717Z</time></trkpt><trkpt lat="45.47168740231683" lon="8.043441607006793"><ele>299.0</ele><time>2026-04-25T15:39:55.717Z</time></trkpt><trkpt lat="45.47172091872156" lon="8.04326989729979"><ele>299.0</ele><time>2026-04-25T15:39:56.717Z</time></trkpt><trkpt lat="45.47175109993972" lon="8.043121949152273"><ele>299.0</ele><time>2026-04-25T15:39:57.717Z</time></trkpt><trkpt lat="45.4717757366049" lon="8.043000852594242"><ele>299.0</ele><time>2026-04-25T15:39:58.717Z</time></trkpt><trkpt lat="45.47179958308534" lon="8.042861589224277"><ele>299.0</ele><time>2026-04-25T15:40:00.717Z</time></trkpt><trkpt lat="45.47167021426913" lon="8.04278734147292"><ele>299.0</ele><time>2026-04-25T15:40:01.717Z</time></trkpt><trkpt lat="45.47159427355075" lon="8.042751698446613"><ele>299.0</ele><time>2026-04-25T15:40:02.717Z</time></trkpt><trkpt lat="45.47152779161155" lon="8.042664300900412"><ele>299.0</ele><time>2026-04-25T15:40:03.717Z</time></trkpt><trkpt lat="45.47144229820175" lon="8.042581366826479"><ele>299.0</ele><time>2026-04-25T15:40:04.717Z</time></trkpt><trkpt lat="45.47134188734022" lon="8.042480096721222"><ele>299.0</ele><time>2026-04-25T15:40:05.717Z</time></trkpt><trkpt lat="45.471234350799904" lon="8.042369399791756"><ele>299.0</ele><time>2026-04-25T15:40:06.717Z</time></trkpt><trkpt lat="45.47111745334238" lon="8.04224690020952"><ele>296.0</ele><time>2026-04-25T15:40:07.717Z</time></trkpt><trkpt lat="45.47098944169837" lon="8.042112753815214"><ele>293.0</ele><time>2026-04-25T15:40:08.717Z</time></trkpt><trkpt lat="45.47085350900067" lon="8.0419707198033"><ele>290.0</ele><time>2026-04-25T15:40:09.717Z</time></trkpt><trkpt lat="45.4707158686516" lon="8.04182844397192"><ele>290.0</ele><time>2026-04-25T15:40:10.717Z</time></trkpt><trkpt lat="45.470578712211285" lon="8.041682038210402"><ele>290.0</ele><time>2026-04-25T15:40:11.716Z</time></trkpt><trkpt lat="45.47043919489762" lon="8.041538316365541"><ele>290.0</ele><time>2026-04-25T15:40:12.716Z</time></trkpt><trkpt lat="45.470304073182696" lon="8.041398580695871"><ele>291.33333333333337</ele><time>2026-04-25T15:40:13.716Z</time></trkpt><trkpt lat="45.470167721053464" lon="8.041255547739203"><ele>292.6666666666667</ele><time>2026-04-25T15:40:14.716Z</time></trkpt><trkpt lat="45.470027713362974" lon="8.04111006292523"><ele>294.0</ele><time>2026-04-25T15:40:15.716Z</time></trkpt><trkpt lat="45.46987166648914" lon="8.040979431081585"><ele>294.0</ele><time>2026-04-25T15:40:16.716Z</time></trkpt><trkpt lat="45.469724543812795" lon="8.040824301194277"><ele>294.0</ele><time>2026-04-25T15:40:17.716Z</time></trkpt><trkpt lat="45.46957540276278" lon="8.040668340377719"><ele>294.0</ele><time>2026-04-25T15:40:18.716Z</time></trkpt><trkpt lat="45.46943412281308" lon="8.040521078669714"><ele>294.6666666666667</ele><time>2026-04-25T15:40:19.716Z</time></trkpt><trkpt lat="45.46930004304015" lon="8.040383800580983"><ele>295.33333333333337</ele><time>2026-04-25T15:40:20.716Z</time></trkpt><trkpt lat="45.4691813736521" lon="8.040229409237284"><ele>296.0</ele><time>2026-04-25T15:40:21.716Z</time></trkpt><trkpt lat="45.46905004600502" lon="8.040093356711836"><ele>296.6666666666667</ele><time>2026-04-25T15:40:22.716Z</time></trkpt><trkpt lat="45.46892171958469" lon="8.039959313646335"><ele>297.3333333333333</ele><time>2026-04-25T15:40:23.716Z</time></trkpt><trkpt lat="45.468783750075666" lon="8.039815197927936"><ele>298.0</ele><time>2026-04-25T15:40:24.716Z</time></trkpt><trkpt lat="45.46864198670743" lon="8.039667429360554"><ele>300.3333333333333</ele><time>2026-04-25T15:40:25.716Z</time></trkpt><trkpt lat="45.468498284235075" lon="8.03951820837252"><ele>302.6666666666667</ele><time>2026-04-25T15:40:26.716Z</time></trkpt><trkpt lat="45.468358824112094" lon="8.039373265076696"><ele>305.0</ele><time>2026-04-25T15:40:27.715Z</time></trkpt><trkpt lat="45.468217768277576" lon="8.039253920173888"><ele>305.5</ele><time>2026-04-25T15:40:28.715Z</time></trkpt><trkpt lat="45.46809573865881" lon="8.039124766111616"><ele>306.0</ele><time>2026-04-25T15:40:29.715Z</time></trkpt><trkpt lat="45.46798976145929" lon="8.039001887619602"><ele>306.5</ele><time>2026-04-25T15:40:30.715Z</time></trkpt><trkpt lat="45.46789590070391" lon="8.03887491708404"><ele>307.0</ele><time>2026-04-25T15:40:31.715Z</time></trkpt><trkpt lat="45.46781549716837" lon="8.038724351285149"><ele>308.3333333333333</ele><time>2026-04-25T15:40:32.715Z</time></trkpt><trkpt lat="45.467743929889544" lon="8.038551522412693"><ele>309.6666666666667</ele><time>2026-04-25T15:40:33.715Z</time></trkpt><trkpt lat="45.467689546815905" lon="8.038352491533914"><ele>311.0</ele><time>2026-04-25T15:40:34.715Z</time></trkpt><trkpt lat="45.467620384011994" lon="8.038143424502572"><ele>315.0</ele><time>2026-04-25T15:40:35.715Z</time></trkpt><trkpt lat="45.467548461417735" lon="8.037926592277723"><ele>319.0</ele><time>2026-04-25T15:40:36.715Z</time></trkpt><trkpt lat="45.46747848575535" lon="8.037717998176538"><ele>323.0</ele><time>2026-04-25T15:40:37.715Z</time></trkpt><trkpt lat="45.467394819108755" lon="8.037515001392258"><ele>322.25</ele><time>2026-04-25T15:40:38.716Z</time></trkpt><trkpt lat="45.46734913962388" lon="8.03731360471413"><ele>321.5</ele><time>2026-04-25T15:40:39.716Z</time></trkpt><trkpt lat="45.46728244442853" lon="8.037123875485046"><ele>320.75</ele><time>2026-04-25T15:40:40.716Z</time></trkpt><trkpt lat="45.4671990823219" lon="8.03694355065427"><ele>320.0</ele><time>2026-04-25T15:40:41.716Z</time></trkpt><trkpt lat="45.467089434731164" lon="8.036779193905797"><ele>323.33333333333337</ele><time>2026-04-25T15:40:42.716Z</time></trkpt><trkpt lat="45.466992381092325" lon="8.03657355001282"><ele>326.6666666666667</ele><time>2026-04-25T15:40:43.716Z</time></trkpt><trkpt lat="45.4668768461979" lon="8.036378794802566"><ele>330.0</ele><time>2026-04-25T15:40:44.716Z</time></trkpt><trkpt lat="45.4667606684016" lon="8.036181442856154"><ele>330.0</ele><time>2026-04-25T15:40:45.716Z</time></trkpt><trkpt lat="45.466644798829925" lon="8.035991967871707"><ele>330.0</ele><time>2026-04-25T15:40:46.716Z</time></trkpt><trkpt lat="45.466540860242226" lon="8.035821199300095"><ele>330.0</ele><time>2026-04-25T15:40:47.716Z</time></trkpt><trkpt lat="45.46645767536143" lon="8.035663741256995"><ele>331.6</ele><time>2026-04-25T15:40:48.716Z</time></trkpt><trkpt lat="45.46639404961838" lon="8.035520317220236"><ele>333.2</ele><time>2026-04-25T15:40:49.716Z</time></trkpt><trkpt lat="45.46634658827834" lon="8.035391759653852"><ele>334.79999999999995</ele><time>2026-04-25T15:40:50.716Z</time></trkpt><trkpt lat="45.46634213206412" lon="8.035273469823824"><ele>336.4</ele><time>2026-04-25T15:40:51.716Z</time></trkpt><trkpt lat="45.46635674066924" lon="8.03515939252877"><ele>338.0</ele><time>2026-04-25T15:40:52.716Z</time></trkpt><trkpt lat="45.466399459289526" lon="8.03506931151072"><ele>338.0</ele><time>2026-04-25T15:40:53.716Z</time></trkpt><trkpt lat="45.46646145830669" lon="8.03500356567514"><ele>338.0</ele><time>2026-04-25T15:40:54.716Z</time></trkpt><trkpt lat="45.466549125293795" lon="8.034989335335592"><ele>338.0</ele><time>2026-04-25T15:40:55.716Z</time></trkpt><trkpt lat="45.46663942198395" lon="8.034940955094495"><ele>338.0</ele><time>2026-04-25T15:40:56.716Z</time></trkpt><trkpt lat="45.46674987834789" lon="8.034920954996652"><ele>338.0</ele><time>2026-04-25T15:40:57.716Z</time></trkpt><trkpt lat="45.466864803598995" lon="8.034888480785883"><ele>340.0</ele><time>2026-04-25T15:40:58.715Z</time></trkpt><trkpt lat="45.46697294525141" lon="8.034854744079784"><ele>342.0</ele><time>2026-04-25T15:40:59.715Z</time></trkpt><trkpt lat="45.467084888350286" lon="8.034809633414874"><ele>344.0</ele><time>2026-04-25T15:41:00.715Z</time></trkpt><trkpt lat="45.46720199871637" lon="8.034763701568778"><ele>346.0</ele><time>2026-04-25T15:41:01.715Z</time></trkpt><trkpt lat="45.467291159622185" lon="8.034693863845506"><ele>346.0</ele><time>2026-04-25T15:41:02.715Z</time></trkpt><trkpt lat="45.46736619458053" lon="8.034621476040272"><ele>346.0</ele><time>2026-04-25T15:41:03.715Z</time></trkpt><trkpt lat="45.467430686025516" lon="8.034517675248207"><ele>346.0</ele><time>2026-04-25T15:41:04.715Z</time></trkpt><trkpt lat="45.46745495456527" lon="8.034369667999682"><ele>346.0</ele><time>2026-04-25T15:41:05.715Z</time></trkpt><trkpt lat="45.46750009121198" lon="8.034225463950007"><ele>346.0</ele><time>2026-04-25T15:41:06.715Z</time></trkpt><trkpt lat="45.467551620367566" lon="8.034069445029834"><ele>348.5</ele><time>2026-04-25T15:41:07.715Z</time></trkpt><trkpt lat="45.46759616095151" lon="8.033896728997917"><ele>351.0</ele><time>2026-04-25T15:41:08.715Z</time></trkpt><trkpt lat="45.467669538500054" lon="8.033736307504252"><ele>353.5</ele><time>2026-04-25T15:41:09.715Z</time></trkpt><trkpt lat="45.46770979768672" lon="8.03356137834849"><ele>356.0</ele><time>2026-04-25T15:41:10.715Z</time></trkpt><trkpt lat="45.467754290095975" lon="8.033372602852689"><ele>357.75</ele><time>2026-04-25T15:41:11.715Z</time></trkpt><trkpt lat="45.46780085078691" lon="8.033173784135963"><ele>359.5</ele><time>2026-04-25T15:41:12.715Z</time></trkpt><trkpt lat="45.46784388771718" lon="8.032983747577012"><ele>361.25</ele><time>2026-04-25T15:41:13.715Z</time></trkpt><trkpt lat="45.46788431555866" lon="8.032805232602236"><ele>363.0</ele><time>2026-04-25T15:41:14.715Z</time></trkpt><trkpt lat="45.467923716328215" lon="8.032631252820032"><ele>363.0</ele><time>2026-04-25T15:41:15.714Z</time></trkpt><trkpt lat="45.46785299478499" lon="8.03242308389709"><ele>363.0</ele><time>2026-04-25T15:41:16.714Z</time></trkpt><trkpt lat="45.4678275154809" lon="8.032253190603097"><ele>363.0</ele><time>2026-04-25T15:41:17.714Z</time></trkpt><trkpt lat="45.4677920907047" lon="8.032093618100822"><ele>363.0</ele><time>2026-04-25T15:41:18.714Z</time></trkpt><trkpt lat="45.46775089374544" lon="8.031943878593024"><ele>363.0</ele><time>2026-04-25T15:41:19.714Z</time></trkpt><trkpt lat="45.46771400140385" lon="8.03179907773843"><ele>363.0</ele><time>2026-04-25T15:41:20.714Z</time></trkpt><trkpt lat="45.46768391276481" lon="8.031658581398615"><ele>363.0</ele><time>2026-04-25T15:41:21.714Z</time></trkpt><trkpt lat="45.46767598764248" lon="8.031521622734772"><ele>363.0</ele><time>2026-04-25T15:41:22.714Z</time></trkpt><trkpt lat="45.46767859274601" lon="8.03137979975612"><ele>363.0</ele><time>2026-04-25T15:41:23.714Z</time></trkpt><trkpt lat="45.46768466933817" lon="8.031232393892331"><ele>363.5</ele><time>2026-04-25T15:41:24.714Z</time></trkpt><trkpt lat="45.46770679527261" lon="8.031080810216405"><ele>364.0</ele><time>2026-04-25T15:41:25.714Z</time></trkpt><trkpt lat="45.46773720766806" lon="8.030926024930535"><ele>364.5</ele><time>2026-04-25T15:41:26.714Z</time></trkpt><trkpt lat="45.4677754188442" lon="8.03076675551425"><ele>365.0</ele><time>2026-04-25T15:41:27.714Z</time></trkpt><trkpt lat="45.46783405224129" lon="8.030623976590013"><ele>366.0</ele><time>2026-04-25T15:41:28.714Z</time></trkpt><trkpt lat="45.467884124358946" lon="8.030490483895386"><ele>367.0</ele><time>2026-04-25T15:41:29.714Z</time></trkpt><trkpt lat="45.46790861856511" lon="8.030348583124157"><ele>368.0</ele><time>2026-04-25T15:41:30.714Z</time></trkpt><trkpt lat="45.46792189788015" lon="8.030197108134432"><ele>369.0</ele><time>2026-04-25T15:41:31.714Z</time></trkpt><trkpt lat="45.46794321871128" lon="8.030049509809755"><ele>370.0</ele><time>2026-04-25T15:41:32.713Z</time></trkpt><trkpt lat="45.467939240772104" lon="8.02987758449739"><ele>370.75</ele><time>2026-04-25T15:41:33.713Z</time></trkpt><trkpt lat="45.46794891679341" lon="8.029698833774345"><ele>371.5</ele><time>2026-04-25T15:41:34.713Z</time></trkpt><trkpt lat="45.46795722807756" lon="8.02951567804458"><ele>372.25</ele><time>2026-04-25T15:41:35.713Z</time></trkpt><trkpt lat="45.46794942916749" lon="8.029329868283545"><ele>373.0</ele><time>2026-04-25T15:41:36.713Z</time></trkpt><trkpt lat="45.4679282089578" lon="8.029144648916601"><ele>373.75</ele><time>2026-04-25T15:41:37.713Z</time></trkpt><trkpt lat="45.467904343992565" lon="8.028957424220819"><ele>374.5</ele><time>2026-04-25T15:41:38.713Z</time></trkpt><trkpt lat="45.46788459928112" lon="8.028766437034223"><ele>375.25</ele><time>2026-04-25T15:41:39.713Z</time></trkpt><trkpt lat="45.46786764466699" lon="8.028567379081576"><ele>376.0</ele><time>2026-04-25T15:41:40.713Z</time></trkpt><trkpt lat="45.46784724017521" lon="8.02836341942484"><ele>378.5</ele><time>2026-04-25T15:41:41.713Z</time></trkpt><trkpt lat="45.46781573559184" lon="8.028159257201319"><ele>381.0</ele><time>2026-04-25T15:41:42.713Z</time></trkpt><trkpt lat="45.46777954883821" lon="8.027960430602107"><ele>383.5</ele><time>2026-04-25T15:41:43.713Z</time></trkpt><trkpt lat="45.467745951521664" lon="8.027769814129652"><ele>386.0</ele><time>2026-04-25T15:41:44.713Z</time></trkpt><trkpt lat="45.467730082958646" lon="8.027586385927595"><ele>387.75</ele><time>2026-04-25T15:41:45.713Z</time></trkpt><trkpt lat="45.46771280353689" lon="8.027414201012949"><ele>389.5</ele><time>2026-04-25T15:41:46.713Z</time></trkpt><trkpt lat="45.46768021118668" lon="8.027242938659182"><ele>391.25</ele><time>2026-04-25T15:41:47.713Z</time></trkpt><trkpt lat="45.46764619360335" lon="8.027063468864245"><ele>393.0</ele><time>2026-04-25T15:41:48.712Z</time></trkpt><trkpt lat="45.467605724404166" lon="8.026883861305393"><ele>393.0</ele><time>2026-04-25T15:41:49.712Z</time></trkpt><trkpt lat="45.46757110796243" lon="8.026699418882181"><ele>393.0</ele><time>2026-04-25T15:41:50.712Z</time></trkpt><trkpt lat="45.467540158007715" lon="8.026535502691083"><ele>393.0</ele><time>2026-04-25T15:41:51.712Z</time></trkpt><trkpt lat="45.46750807673149" lon="8.02638708344229"><ele>393.0</ele><time>2026-04-25T15:41:52.712Z</time></trkpt><trkpt lat="45.46747488531836" lon="8.026268750592738"><ele>393.4</ele><time>2026-04-25T15:41:53.712Z</time></trkpt><trkpt lat="45.46743817151452" lon="8.026194677283256"><ele>393.79999999999995</ele><time>2026-04-25T15:41:54.712Z</time></trkpt><trkpt lat="45.46738168615339" lon="8.026142345196408"><ele>394.2</ele><time>2026-04-25T15:41:55.712Z</time></trkpt><trkpt lat="45.46729701340967" lon="8.026131118777451"><ele>394.6</ele><time>2026-04-25T15:41:56.712Z</time></trkpt><trkpt lat="45.46717415766096" lon="8.026124114293797"><ele>395.0</ele><time>2026-04-25T15:41:57.712Z</time></trkpt><trkpt lat="45.46705498641601" lon="8.026137046174215"><ele>398.25</ele><time>2026-04-25T15:41:58.712Z</time></trkpt><trkpt lat="45.46692553835089" lon="8.026156104148443"><ele>401.5</ele><time>2026-04-25T15:41:59.712Z</time></trkpt><trkpt lat="45.46678552715395" lon="8.026166618175795"><ele>404.75</ele><time>2026-04-25T15:42:00.712Z</time></trkpt><trkpt lat="45.466654303874954" lon="8.026184691967291"><ele>408.0</ele><time>2026-04-25T15:42:01.712Z</time></trkpt><trkpt lat="45.4665370779157" lon="8.026214301706164"><ele>408.0</ele><time>2026-04-25T15:42:02.712Z</time></trkpt><trkpt lat="45.46643249403056" lon="8.026237599503789"><ele>408.0</ele><time>2026-04-25T15:42:03.712Z</time></trkpt><trkpt lat="45.4663356585618" lon="8.026249844499999"><ele>408.0</ele><time>2026-04-25T15:42:04.711Z</time></trkpt><trkpt lat="45.466243564395526" lon="8.026224704301896"><ele>408.0</ele><time>2026-04-25T15:42:05.711Z</time></trkpt><trkpt lat="45.46614643529736" lon="8.026188482826782"><ele>408.0</ele><time>2026-04-25T15:42:06.711Z</time></trkpt><trkpt lat="45.466049856183965" lon="8.026134022108888"><ele>408.2</ele><time>2026-04-25T15:42:07.711Z</time></trkpt><trkpt lat="45.465958831214074" lon="8.026059291634176"><ele>408.4</ele><time>2026-04-25T15:42:08.711Z</time></trkpt><trkpt lat="45.4658779921785" lon="8.025950688932893"><ele>408.59999999999997</ele><time>2026-04-25T15:42:09.711Z</time></trkpt><trkpt lat="45.465817092260785" lon="8.025820257492766"><ele>408.79999999999995</ele><time>2026-04-25T15:42:10.711Z</time></trkpt><trkpt lat="45.46577111579775" lon="8.02566876494587"><ele>409.0</ele><time>2026-04-25T15:42:11.711Z</time></trkpt><trkpt lat="45.465734324454836" lon="8.025518489182698"><ele>409.5</ele><time>2026-04-25T15:42:12.711Z</time></trkpt><trkpt lat="45.46570512422279" lon="8.02535793203486"><ele>410.0</ele><time>2026-04-25T15:42:13.711Z</time></trkpt><trkpt lat="45.46568605747502" lon="8.025185311256793"><ele>410.5</ele><time>2026-04-25T15:42:14.711Z</time></trkpt><trkpt lat="45.46566080509693" lon="8.025019562507168"><ele>411.0</ele><time>2026-04-25T15:42:15.711Z</time></trkpt><trkpt lat="45.46561402179583" lon="8.024854575689384"><ele>411.0</ele><time>2026-04-25T15:42:16.711Z</time></trkpt><trkpt lat="45.465553483901495" lon="8.024683438801302"><ele>411.0</ele><time>2026-04-25T15:42:17.711Z</time></trkpt><trkpt lat="45.46548997509129" lon="8.024502404518726"><ele>411.0</ele><time>2026-04-25T15:42:18.711Z</time></trkpt><trkpt lat="45.46544263958207" lon="8.0243066584001"><ele>411.0</ele><time>2026-04-25T15:42:19.711Z</time></trkpt><trkpt lat="45.46537237930337" lon="8.024130301885664"><ele>413.75</ele><time>2026-04-25T15:42:20.711Z</time></trkpt><trkpt lat="45.46534251986237" lon="8.02394939800483"><ele>416.5</ele><time>2026-04-25T15:42:21.71Z</time></trkpt><trkpt lat="45.46529600108924" lon="8.023785008994155"><ele>419.25</ele><time>2026-04-25T15:42:22.71Z</time></trkpt><trkpt lat="45.46523498161402" lon="8.023635321566616"><ele>422.0</ele><time>2026-04-25T15:42:23.71Z</time></trkpt><trkpt lat="45.46513075290211" lon="8.023527318113011"><ele>422.0</ele><time>2026-04-25T15:42:24.71Z</time></trkpt><trkpt lat="45.465024210180296" lon="8.023406838603636"><ele>422.0</ele><time>2026-04-25T15:42:25.71Z</time></trkpt><trkpt lat="45.464905648506985" lon="8.023290098296178"><ele>422.0</ele><time>2026-04-25T15:42:26.71Z</time></trkpt><trkpt lat="45.46478285890602" lon="8.0231673117625"><ele>422.0</ele><time>2026-04-25T15:42:27.71Z</time></trkpt><trkpt lat="45.46467106746016" lon="8.023047273479595"><ele>425.25</ele><time>2026-04-25T15:42:28.71Z</time></trkpt><trkpt lat="45.464570086794886" lon="8.022924482223546"><ele>428.5</ele><time>2026-04-25T15:42:29.71Z</time></trkpt><trkpt lat="45.46446938867576" lon="8.02281270278496"><ele>431.75</ele><time>2026-04-25T15:42:30.71Z</time></trkpt><trkpt lat="45.46437448443139" lon="8.022706440890556"><ele>435.0</ele><time>2026-04-25T15:42:31.71Z</time></trkpt><trkpt lat="45.464270533426394" lon="8.022627787904442"><ele>435.0</ele><time>2026-04-25T15:42:32.71Z</time></trkpt><trkpt lat="45.46416523148513" lon="8.022565053908608"><ele>435.0</ele><time>2026-04-25T15:42:33.71Z</time></trkpt><trkpt lat="45.46405025230521" lon="8.022526583171805"><ele>435.0</ele><time>2026-04-25T15:42:34.71Z</time></trkpt><trkpt lat="45.46392746068256" lon="8.022519485992316"><ele>435.0</ele><time>2026-04-25T15:42:35.71Z</time></trkpt><trkpt lat="45.46377506340442" lon="8.022525265651502"><ele>435.66666666666663</ele><time>2026-04-25T15:42:36.71Z</time></trkpt><trkpt lat="45.46360892948989" lon="8.02252017570822"><ele>436.3333333333333</ele><time>2026-04-25T15:42:37.71Z</time></trkpt><trkpt lat="45.4634389414503" lon="8.022494734854844"><ele>437.0</ele><time>2026-04-25T15:42:38.709Z</time></trkpt><trkpt lat="45.4632800738468" lon="8.022457062026522"><ele>437.0</ele><time>2026-04-25T15:42:39.709Z</time></trkpt><trkpt lat="45.46312892414948" lon="8.022417248666608"><ele>437.0</ele><time>2026-04-25T15:42:40.709Z</time></trkpt><trkpt lat="45.46298461713088" lon="8.022371517012662"><ele>437.0</ele><time>2026-04-25T15:42:41.709Z</time></trkpt><trkpt lat="45.46283392604483" lon="8.022317847330585"><ele>439.0</ele><time>2026-04-25T15:42:42.709Z</time></trkpt><trkpt lat="45.46268529024134" lon="8.02224617096402"><ele>441.0</ele><time>2026-04-25T15:42:43.709Z</time></trkpt><trkpt lat="45.46253065313495" lon="8.022151846843242"><ele>443.0</ele><time>2026-04-25T15:42:44.71Z</time></trkpt><trkpt lat="45.46238212114026" lon="8.022045948206209"><ele>443.0</ele><time>2026-04-25T15:42:45.71Z</time></trkpt><trkpt lat="45.46224708803984" lon="8.021923461215758"><ele>443.0</ele><time>2026-04-25T15:42:46.71Z</time></trkpt><trkpt lat="45.46213335356976" lon="8.021797253160614"><ele>443.0</ele><time>2026-04-25T15:42:47.71Z</time></trkpt><trkpt lat="45.46203724206837" lon="8.021677499933517"><ele>443.0</ele><time>2026-04-25T15:42:48.71Z</time></trkpt><trkpt lat="45.4619538460196" lon="8.021557160934993"><ele>446.2</ele><time>2026-04-25T15:42:49.71Z</time></trkpt><trkpt lat="45.461894236825735" lon="8.021453821186713"><ele>449.4</ele><time>2026-04-25T15:42:50.71Z</time></trkpt><trkpt lat="45.46187168841263" lon="8.021307876243316"><ele>452.59999999999997</ele><time>2026-04-25T15:42:51.71Z</time></trkpt><trkpt lat="45.46185762554566" lon="8.021137545168038"><ele>455.79999999999995</ele><time>2026-04-25T15:42:52.71Z</time></trkpt><trkpt lat="45.46182282234738" lon="8.020979573450441"><ele>459.0</ele><time>2026-04-25T15:42:53.709Z</time></trkpt><trkpt lat="45.461764557173886" lon="8.02083442059915"><ele>460.0</ele><time>2026-04-25T15:42:54.709Z</time></trkpt><trkpt lat="45.46170516479707" lon="8.020682644509666"><ele>461.0</ele><time>2026-04-25T15:42:55.709Z</time></trkpt><trkpt lat="45.46163331450536" lon="8.020533372306595"><ele>462.0</ele><time>2026-04-25T15:42:56.71Z</time></trkpt><trkpt lat="45.461556652522724" lon="8.020389947772461"><ele>463.0</ele><time>2026-04-25T15:42:57.71Z</time></trkpt><trkpt lat="45.4614796177544" lon="8.020263343003249"><ele>463.0</ele><time>2026-04-25T15:42:58.71Z</time></trkpt><trkpt lat="45.461378519446264" lon="8.020167478454363"><ele>463.0</ele><time>2026-04-25T15:42:59.71Z</time></trkpt><trkpt lat="45.46127502871907" lon="8.020062322702175"><ele>463.0</ele><time>2026-04-25T15:43:00.71Z</time></trkpt><trkpt lat="45.46115434101516" lon="8.019993398823845"><ele>463.0</ele><time>2026-04-25T15:43:01.71Z</time></trkpt><trkpt lat="45.461029680092295" lon="8.01993579688555"><ele>464.00000000000006</ele><time>2026-04-25T15:43:02.71Z</time></trkpt><trkpt lat="45.46092463351019" lon="8.019885104199192"><ele>465.0</ele><time>2026-04-25T15:43:03.71Z</time></trkpt><trkpt lat="45.46083658633833" lon="8.019829633631108"><ele>466.0</ele><time>2026-04-25T15:43:04.71Z</time></trkpt><trkpt lat="45.46077583578318" lon="8.019800407334598"><ele>467.0</ele><time>2026-04-25T15:43:05.709Z</time></trkpt><trkpt lat="45.46072955387172" lon="8.019721312892447"><ele>468.00000000000006</ele><time>2026-04-25T15:43:08.709Z</time></trkpt><trkpt lat="45.46067329683656" lon="8.0196577794807"><ele>469.0</ele><time>2026-04-25T15:43:40.707Z</time></trkpt><trkpt lat="45.46060889988419" lon="8.019535674843349"><ele>469.0</ele><time>2026-04-25T15:43:43.707Z</time></trkpt><trkpt lat="45.46056529564203" lon="8.019453566272556"><ele>469.0</ele><time>2026-04-25T15:43:44.707Z</time></trkpt><trkpt lat="45.46048435068471" lon="8.019298851992005"><ele>469.0</ele><time>2026-04-25T15:43:46.707Z</time></trkpt><trkpt lat="45.46042643754188" lon="8.019187606672611"><ele>469.0</ele><time>2026-04-25T15:43:47.707Z</time></trkpt><trkpt lat="45.460366785645505" lon="8.019078767530168"><ele>469.0</ele><time>2026-04-25T15:43:48.707Z</time></trkpt><trkpt lat="45.46030748208871" lon="8.01897056395469"><ele>470.6</ele><time>2026-04-25T15:43:49.707Z</time></trkpt><trkpt lat="45.460244922876264" lon="8.018856420205214"><ele>472.2</ele><time>2026-04-25T15:43:50.707Z</time></trkpt><trkpt lat="45.46018420297037" lon="8.018747299757825"><ele>473.80000000000007</ele><time>2026-04-25T15:43:51.707Z</time></trkpt><trkpt lat="45.46011415307584" lon="8.018625038934742"><ele>475.40000000000003</ele><time>2026-04-25T15:43:52.707Z</time></trkpt><trkpt lat="45.4600354407462" lon="8.018496116077763"><ele>477.0</ele><time>2026-04-25T15:43:53.707Z</time></trkpt><trkpt lat="45.45994659321953" lon="8.018353931116968"><ele>478.0</ele><time>2026-04-25T15:43:54.707Z</time></trkpt><trkpt lat="45.45986297835917" lon="8.018218104401596"><ele>479.00000000000006</ele><time>2026-04-25T15:43:55.706Z</time></trkpt><trkpt lat="45.459793084128144" lon="8.018099708196567"><ele>480.00000000000006</ele><time>2026-04-25T15:43:56.706Z</time></trkpt><trkpt lat="45.45972982895591" lon="8.0179855184681"><ele>481.0</ele><time>2026-04-25T15:43:57.706Z</time></trkpt><trkpt lat="45.45966452553378" lon="8.017873910925504"><ele>482.0</ele><time>2026-04-25T15:43:58.706Z</time></trkpt><trkpt lat="45.45962245950138" lon="8.01771968199435"><ele>482.0</ele><time>2026-04-25T15:43:59.706Z</time></trkpt><trkpt lat="45.4595961824513" lon="8.017554052636543"><ele>482.0</ele><time>2026-04-25T15:44:00.706Z</time></trkpt><trkpt lat="45.459571793892" lon="8.017360956484039"><ele>482.0</ele><time>2026-04-25T15:44:01.706Z</time></trkpt><trkpt lat="45.45953716400949" lon="8.017173032006434"><ele>482.0</ele><time>2026-04-25T15:44:02.706Z</time></trkpt><trkpt lat="45.4594780809395" lon="8.017005794345842"><ele>482.0</ele><time>2026-04-25T15:44:03.706Z</time></trkpt><trkpt lat="45.459419415439044" lon="8.016837500176514"><ele>482.0</ele><time>2026-04-25T15:44:04.706Z</time></trkpt><trkpt lat="45.459344865265976" lon="8.016707957506702"><ele>482.0</ele><time>2026-04-25T15:44:05.706Z</time></trkpt><trkpt lat="45.45926779711792" lon="8.01658892395372"><ele>482.0</ele><time>2026-04-25T15:44:06.706Z</time></trkpt><trkpt lat="45.45922457317663" lon="8.016450651183586"><ele>484.5</ele><time>2026-04-25T15:44:07.706Z</time></trkpt><trkpt lat="45.45920968722725" lon="8.016288754791912"><ele>487.0</ele><time>2026-04-25T15:44:08.706Z</time></trkpt><trkpt lat="45.45923071459017" lon="8.016103822693271"><ele>489.5</ele><time>2026-04-25T15:44:09.706Z</time></trkpt><trkpt lat="45.459268344713735" lon="8.015901101915716"><ele>492.0</ele><time>2026-04-25T15:44:10.706Z</time></trkpt><trkpt lat="45.45931078554553" lon="8.015688504902544"><ele>493.66666666666663</ele><time>2026-04-25T15:44:11.706Z</time></trkpt><trkpt lat="45.45935874046645" lon="8.015464306103913"><ele>495.3333333333333</ele><time>2026-04-25T15:44:12.705Z</time></trkpt><trkpt lat="45.459412222143136" lon="8.015250828468211"><ele>497.0</ele><time>2026-04-25T15:44:13.705Z</time></trkpt><trkpt lat="45.4594610549857" lon="8.015055930818956"><ele>498.25</ele><time>2026-04-25T15:44:14.705Z</time></trkpt><trkpt lat="45.45950907963709" lon="8.014869401912334"><ele>499.5</ele><time>2026-04-25T15:44:15.705Z</time></trkpt><trkpt lat="45.45955696068697" lon="8.014679549298783"><ele>500.75</ele><time>2026-04-25T15:44:16.705Z</time></trkpt><trkpt lat="45.459598475835" lon="8.014488791814092"><ele>502.0</ele><time>2026-04-25T15:44:17.705Z</time></trkpt><trkpt lat="45.45963178307192" lon="8.014296448192535"><ele>499.0</ele><time>2026-04-25T15:44:18.705Z</time></trkpt><trkpt lat="45.459658931437176" lon="8.01410807417694"><ele>496.0</ele><time>2026-04-25T15:44:19.705Z</time></trkpt><trkpt lat="45.4596826247519" lon="8.013919388884181"><ele>493.0</ele><time>2026-04-25T15:44:20.705Z</time></trkpt><trkpt lat="45.45970702858773" lon="8.013733843821258"><ele>490.0</ele><time>2026-04-25T15:44:21.705Z</time></trkpt><trkpt lat="45.45972684747343" lon="8.0135476683006"><ele>490.0</ele><time>2026-04-25T15:44:22.705Z</time></trkpt><trkpt lat="45.459747195448145" lon="8.01335631190551"><ele>490.0</ele><time>2026-04-25T15:44:23.705Z</time></trkpt><trkpt lat="45.45977006928667" lon="8.013158213388179"><ele>490.0</ele><time>2026-04-25T15:44:24.705Z</time></trkpt><trkpt lat="45.45979712984418" lon="8.012959723088278"><ele>490.0</ele><time>2026-04-25T15:44:25.705Z</time></trkpt><trkpt lat="45.45982539373564" lon="8.012761744456366"><ele>492.0</ele><time>2026-04-25T15:44:26.705Z</time></trkpt><trkpt lat="45.45985291124223" lon="8.012565613446673"><ele>494.0</ele><time>2026-04-25T15:44:27.705Z</time></trkpt><trkpt lat="45.459882570138845" lon="8.012380536439654"><ele>496.0</ele><time>2026-04-25T15:44:28.704Z</time></trkpt><trkpt lat="45.45990748501459" lon="8.01220049249705"><ele>498.0</ele><time>2026-04-25T15:44:29.704Z</time></trkpt><trkpt lat="45.45995139644484" lon="8.012033595115433"><ele>500.25</ele><time>2026-04-25T15:44:30.704Z</time></trkpt><trkpt lat="45.45996405901415" lon="8.011855106338109"><ele>502.5</ele><time>2026-04-25T15:44:31.704Z</time></trkpt><trkpt lat="45.45999837087005" lon="8.011682297752046"><ele>504.75</ele><time>2026-04-25T15:44:32.704Z</time></trkpt><trkpt lat="45.46002599891724" lon="8.011519636692261"><ele>507.0</ele><time>2026-04-25T15:44:33.704Z</time></trkpt><trkpt lat="45.460049423005366" lon="8.011368663704875"><ele>508.40000000000003</ele><time>2026-04-25T15:44:34.704Z</time></trkpt><trkpt lat="45.460058479980994" lon="8.011234645499917"><ele>509.80000000000007</ele><time>2026-04-25T15:44:35.704Z</time></trkpt><trkpt lat="45.460045947647636" lon="8.011109396757245"><ele>511.2</ele><time>2026-04-25T15:44:36.704Z</time></trkpt><trkpt lat="45.46000572899228" lon="8.010976723500736"><ele>512.6</ele><time>2026-04-25T15:44:37.704Z</time></trkpt><trkpt lat="45.459990109851304" lon="8.010818954953832"><ele>514.0</ele><time>2026-04-25T15:44:38.704Z</time></trkpt><trkpt lat="45.459935295070935" lon="8.010692514733565"><ele>514.8</ele><time>2026-04-25T15:44:39.704Z</time></trkpt><trkpt lat="45.45987994002733" lon="8.010566918541953"><ele>515.5999999999999</ele><time>2026-04-25T15:44:40.704Z</time></trkpt><trkpt lat="45.45983236264437" lon="8.01045086288593"><ele>516.4</ele><time>2026-04-25T15:44:41.704Z</time></trkpt><trkpt lat="45.45980893593743" lon="8.010314587018833"><ele>517.1999999999999</ele><time>2026-04-25T15:44:42.704Z</time></trkpt><trkpt lat="45.45983978337558" lon="8.010141081726337"><ele>518.0</ele><time>2026-04-25T15:44:43.704Z</time></trkpt><trkpt lat="45.459880358847585" lon="8.009964961954008"><ele>522.3333333333333</ele><time>2026-04-25T15:44:44.704Z</time></trkpt><trkpt lat="45.45993006723022" lon="8.009769732624278"><ele>526.6666666666666</ele><time>2026-04-25T15:44:45.703Z</time></trkpt><trkpt lat="45.45998318382475" lon="8.009556294856502"><ele>531.0</ele><time>2026-04-25T15:44:46.703Z</time></trkpt><trkpt lat="45.46003308089152" lon="8.009324436950836"><ele>534.0</ele><time>2026-04-25T15:44:47.703Z</time></trkpt><trkpt lat="45.46008082768651" lon="8.009077050604219"><ele>537.0</ele><time>2026-04-25T15:44:48.703Z</time></trkpt><trkpt lat="45.46012678826612" lon="8.008835655777549"><ele>540.0</ele><time>2026-04-25T15:44:49.703Z</time></trkpt><trkpt lat="45.46017231728442" lon="8.008616257584823"><ele>540.0</ele><time>2026-04-25T15:44:50.705Z</time></trkpt><trkpt lat="45.46022015081149" lon="8.008398604361629"><ele>540.0</ele><time>2026-04-25T15:44:51.705Z</time></trkpt><trkpt lat="45.460260376632114" lon="8.008194356687518"><ele>540.0</ele><time>2026-04-25T15:44:52.705Z</time></trkpt><trkpt lat="45.46030773031433" lon="8.007993354794982"><ele>539.75</ele><time>2026-04-25T15:44:53.705Z</time></trkpt><trkpt lat="45.46036299973862" lon="8.007808474149575"><ele>539.5</ele><time>2026-04-25T15:44:54.705Z</time></trkpt><trkpt lat="45.46042503134075" lon="8.007642694006483"><ele>539.25</ele><time>2026-04-25T15:44:55.705Z</time></trkpt><trkpt lat="45.46049958940416" lon="8.007470395360656"><ele>539.0</ele><time>2026-04-25T15:44:56.704Z</time></trkpt><trkpt lat="45.460576516011194" lon="8.007305611107242"><ele>539.0</ele><time>2026-04-25T15:44:57.705Z</time></trkpt><trkpt lat="45.46065150048737" lon="8.00713196055884"><ele>539.0</ele><time>2026-04-25T15:44:58.705Z</time></trkpt><trkpt lat="45.460717786554966" lon="8.006963541261133"><ele>539.0</ele><time>2026-04-25T15:44:59.704Z</time></trkpt><trkpt lat="45.46078353125158" lon="8.006802110448941"><ele>539.0</ele><time>2026-04-25T15:45:00.704Z</time></trkpt><trkpt lat="45.46083708732167" lon="8.006640281391263"><ele>541.0</ele><time>2026-04-25T15:45:01.704Z</time></trkpt><trkpt lat="45.460918043822026" lon="8.006485123903055"><ele>543.0</ele><time>2026-04-25T15:45:02.704Z</time></trkpt><trkpt lat="45.46098642160899" lon="8.006320778964826"><ele>545.0</ele><time>2026-04-25T15:45:03.704Z</time></trkpt><trkpt lat="45.461057855189225" lon="8.00615955596064"><ele>547.0</ele><time>2026-04-25T15:45:04.704Z</time></trkpt><trkpt lat="45.461128258600006" lon="8.006004328609562"><ele>547.0</ele><time>2026-04-25T15:45:05.704Z</time></trkpt><trkpt lat="45.46119638809371" lon="8.005853225752658"><ele>547.0</ele><time>2026-04-25T15:45:06.704Z</time></trkpt><trkpt lat="45.461260442903395" lon="8.005709750761461"><ele>547.0</ele><time>2026-04-25T15:45:07.704Z</time></trkpt><trkpt lat="45.46131772355767" lon="8.005575240331249"><ele>547.0</ele><time>2026-04-25T15:45:08.704Z</time></trkpt><trkpt lat="45.46136270798633" lon="8.005458728065175"><ele>547.0</ele><time>2026-04-25T15:45:09.704Z</time></trkpt><trkpt lat="45.461398245030225" lon="8.005352320079005"><ele>546.6</ele><time>2026-04-25T15:45:10.704Z</time></trkpt><trkpt lat="45.4614296005392" lon="8.005252505910029"><ele>546.2</ele><time>2026-04-25T15:45:11.704Z</time></trkpt><trkpt lat="45.46146435399517" lon="8.005146718407543"><ele>545.8</ele><time>2026-04-25T15:45:12.704Z</time></trkpt><trkpt lat="45.461489339853394" lon="8.005020961546268"><ele>545.4</ele><time>2026-04-25T15:45:13.704Z</time></trkpt><trkpt lat="45.46154530310128" lon="8.004898609154006"><ele>545.0</ele><time>2026-04-25T15:45:14.703Z</time></trkpt><trkpt lat="45.461605152734045" lon="8.004767894738004"><ele>545.0</ele><time>2026-04-25T15:45:15.703Z</time></trkpt><trkpt lat="45.46168153882081" lon="8.00466006068606"><ele>545.0</ele><time>2026-04-25T15:45:16.703Z</time></trkpt><trkpt lat="45.46174401051519" lon="8.004551120177378"><ele>545.0</ele><time>2026-04-25T15:45:17.703Z</time></trkpt><trkpt lat="45.46180243462045" lon="8.004449238035875"><ele>545.0</ele><time>2026-04-25T15:45:18.703Z</time></trkpt><trkpt lat="45.46186077689368" lon="8.004345889680437"><ele>545.0</ele><time>2026-04-25T15:45:19.703Z</time></trkpt><trkpt lat="45.461916064047145" lon="8.00423946271649"><ele>544.2</ele><time>2026-04-25T15:45:20.703Z</time></trkpt><trkpt lat="45.461970753822115" lon="8.004127521681793"><ele>543.4</ele><time>2026-04-25T15:45:21.703Z</time></trkpt><trkpt lat="45.46202879497255" lon="8.004007266488875"><ele>542.6</ele><time>2026-04-25T15:45:22.703Z</time></trkpt><trkpt lat="45.46208765464007" lon="8.00388375534087"><ele>541.8</ele><time>2026-04-25T15:45:23.703Z</time></trkpt><trkpt lat="45.46215021443442" lon="8.003764678331976"><ele>541.0</ele><time>2026-04-25T15:45:24.703Z</time></trkpt><trkpt lat="45.4622109578726" lon="8.003650518486586"><ele>541.0</ele><time>2026-04-25T15:45:25.703Z</time></trkpt><trkpt lat="45.462270223829385" lon="8.003541629212588"><ele>541.0</ele><time>2026-04-25T15:45:26.703Z</time></trkpt><trkpt lat="45.462328599237374" lon="8.003434718819957"><ele>541.0</ele><time>2026-04-25T15:45:27.703Z</time></trkpt><trkpt lat="45.46239050379209" lon="8.003321345051603"><ele>541.0</ele><time>2026-04-25T15:45:28.703Z</time></trkpt><trkpt lat="45.46244036733863" lon="8.003193717570275"><ele>541.0</ele><time>2026-04-25T15:45:29.703Z</time></trkpt><trkpt lat="45.46251592967564" lon="8.003097220138313"><ele>542.4</ele><time>2026-04-25T15:45:30.703Z</time></trkpt><trkpt lat="45.46257753951041" lon="8.002995948133107"><ele>543.8</ele><time>2026-04-25T15:45:31.702Z</time></trkpt><trkpt lat="45.46263899638663" lon="8.002896752562956"><ele>545.1999999999999</ele><time>2026-04-25T15:45:32.702Z</time></trkpt><trkpt lat="45.46269842088657" lon="8.002784999086577"><ele>546.6</ele><time>2026-04-25T15:45:33.702Z</time></trkpt><trkpt lat="45.46275261549151" lon="8.002671823238767"><ele>548.0</ele><time>2026-04-25T15:45:34.702Z</time></trkpt><trkpt lat="45.462806864422035" lon="8.002561091781038"><ele>547.3333333333333</ele><time>2026-04-25T15:45:35.702Z</time></trkpt><trkpt lat="45.46286106126496" lon="8.002450534032224"><ele>546.6666666666666</ele><time>2026-04-25T15:45:36.702Z</time></trkpt><trkpt lat="45.46291324887199" lon="8.002344074990827"><ele>546.0</ele><time>2026-04-25T15:45:37.702Z</time></trkpt><trkpt lat="45.46295740007059" lon="8.002251014898114"><ele>545.3333333333334</ele><time>2026-04-25T15:45:38.702Z</time></trkpt><trkpt lat="45.462992728476365" lon="8.002175745894249"><ele>544.6666666666667</ele><time>2026-04-25T15:45:39.702Z</time></trkpt><trkpt lat="45.4630303361233" lon="8.002093506143979"><ele>544.0</ele><time>2026-04-25T15:45:41.702Z</time></trkpt><trkpt lat="45.46306574522913" lon="8.002015689741583"><ele>544.0</ele><time>2026-04-25T15:45:45.702Z</time></trkpt><trkpt lat="45.46295526069743" lon="8.001902185318613"><ele>544.0</ele><time>2026-04-25T15:45:46.702Z</time></trkpt><trkpt lat="45.46304129753272" lon="8.001783971917812"><ele>544.0</ele><time>2026-04-25T15:45:47.701Z</time></trkpt><trkpt lat="45.46307000217329" lon="8.001673479845628"><ele>544.0</ele><time>2026-04-25T15:45:48.701Z</time></trkpt><trkpt lat="45.463095651976566" lon="8.001554739700206"><ele>544.0</ele><time>2026-04-25T15:45:49.701Z</time></trkpt><trkpt lat="45.46312931965726" lon="8.00144718853907"><ele>544.8</ele><time>2026-04-25T15:45:50.701Z</time></trkpt><trkpt lat="45.463173526158016" lon="8.001348278171372"><ele>545.5999999999999</ele><time>2026-04-25T15:45:51.701Z</time></trkpt><trkpt lat="45.46322478845172" lon="8.001248394984716"><ele>546.4</ele><time>2026-04-25T15:45:52.701Z</time></trkpt><trkpt lat="45.4632524401691" lon="8.001117663104761"><ele>547.1999999999999</ele><time>2026-04-25T15:45:53.701Z</time></trkpt><trkpt lat="45.463295852587336" lon="8.000985174831335"><ele>548.0</ele><time>2026-04-25T15:45:54.701Z</time></trkpt><trkpt lat="45.46334246164145" lon="8.000842930900278"><ele>549.4</ele><time>2026-04-25T15:45:55.701Z</time></trkpt><trkpt lat="45.46339877126482" lon="8.00071089915107"><ele>550.8</ele><time>2026-04-25T15:45:56.701Z</time></trkpt><trkpt lat="45.463439338153805" lon="8.000579951406094"><ele>552.2</ele><time>2026-04-25T15:45:57.701Z</time></trkpt><trkpt lat="45.4634779894528" lon="8.00044352292283"><ele>553.6</ele><time>2026-04-25T15:45:58.701Z</time></trkpt><trkpt lat="45.46353180549595" lon="8.000300633498732"><ele>555.0</ele><time>2026-04-25T15:45:59.701Z</time></trkpt><trkpt lat="45.46358234251668" lon="8.00014036111988"><ele>555.0</ele><time>2026-04-25T15:46:00.701Z</time></trkpt><trkpt lat="45.46364664576735" lon="7.9999793775753485"><ele>555.0</ele><time>2026-04-25T15:46:01.701Z</time></trkpt><trkpt lat="45.46371048767693" lon="7.999815939011671"><ele>555.0</ele><time>2026-04-25T15:46:02.701Z</time></trkpt><trkpt lat="45.4637691839028" lon="7.999647248068386"><ele>555.0</ele><time>2026-04-25T15:46:03.701Z</time></trkpt><trkpt lat="45.46382968329054" lon="7.999481542321944"><ele>552.75</ele><time>2026-04-25T15:46:04.7Z</time></trkpt><trkpt lat="45.46389395162105" lon="7.999316289306583"><ele>550.5</ele><time>2026-04-25T15:46:05.7Z</time></trkpt><trkpt lat="45.46395419481217" lon="7.999159445431007"><ele>548.25</ele><time>2026-04-25T15:46:06.7Z</time></trkpt><trkpt lat="45.464013721067076" lon="7.999001016169404"><ele>546.0</ele><time>2026-04-25T15:46:07.7Z</time></trkpt><trkpt lat="45.464077491586615" lon="7.998845397464891"><ele>546.0</ele><time>2026-04-25T15:46:08.7Z</time></trkpt><trkpt lat="45.4641421581607" lon="7.998680097093334"><ele>546.0</ele><time>2026-04-25T15:46:09.7Z</time></trkpt><trkpt lat="45.46421286339822" lon="7.998505755906894"><ele>546.0</ele><time>2026-04-25T15:46:10.7Z</time></trkpt><trkpt lat="45.464282656160684" lon="7.9983182122619345"><ele>546.0</ele><time>2026-04-25T15:46:11.7Z</time></trkpt><trkpt lat="45.464356411143065" lon="7.998132023992698"><ele>545.0</ele><time>2026-04-25T15:46:12.7Z</time></trkpt><trkpt lat="45.464437000685585" lon="7.997947454799073"><ele>544.0</ele><time>2026-04-25T15:46:13.7Z</time></trkpt><trkpt lat="45.46452768886869" lon="7.997760684238594"><ele>543.0</ele><time>2026-04-25T15:46:14.7Z</time></trkpt><trkpt lat="45.46461858338195" lon="7.997568214855304"><ele>545.6666666666666</ele><time>2026-04-25T15:46:15.7Z</time></trkpt><trkpt lat="45.4647094720772" lon="7.997380397961873"><ele>548.3333333333333</ele><time>2026-04-25T15:46:16.7Z</time></trkpt><trkpt lat="45.46479729085789" lon="7.997184486901482"><ele>551.0</ele><time>2026-04-25T15:46:17.7Z</time></trkpt><trkpt lat="45.46488823768179" lon="7.996994920515169"><ele>551.0</ele><time>2026-04-25T15:46:18.7Z</time></trkpt><trkpt lat="45.46497152206607" lon="7.996799493077059"><ele>551.0</ele><time>2026-04-25T15:46:19.7Z</time></trkpt><trkpt lat="45.46505509636234" lon="7.996603841756001"><ele>551.0</ele><time>2026-04-25T15:46:20.7Z</time></trkpt><trkpt lat="45.465141732032656" lon="7.996406847151178"><ele>554.3333333333333</ele><time>2026-04-25T15:46:21.699Z</time></trkpt><trkpt lat="45.465231532523816" lon="7.996212816922606"><ele>557.6666666666666</ele><time>2026-04-25T15:46:22.699Z</time></trkpt><trkpt lat="45.465324411755006" lon="7.996016894529488"><ele>561.0</ele><time>2026-04-25T15:46:23.699Z</time></trkpt><trkpt lat="45.46541960743115" lon="7.99581611760497"><ele>558.6666666666666</ele><time>2026-04-25T15:46:24.699Z</time></trkpt><trkpt lat="45.46551157784122" lon="7.99561655383997"><ele>556.3333333333333</ele><time>2026-04-25T15:46:25.699Z</time></trkpt><trkpt lat="45.4656098558308" lon="7.9954171227314115"><ele>554.0</ele><time>2026-04-25T15:46:26.699Z</time></trkpt><trkpt lat="45.465710445001946" lon="7.995210167488492"><ele>557.0</ele><time>2026-04-25T15:46:27.699Z</time></trkpt><trkpt lat="45.46580848252047" lon="7.994990552630579"><ele>560.0</ele><time>2026-04-25T15:46:28.699Z</time></trkpt><trkpt lat="45.46592947599145" lon="7.9947758613528395"><ele>563.0</ele><time>2026-04-25T15:46:29.699Z</time></trkpt><trkpt lat="45.466043652244075" lon="7.994535761690975"><ele>563.0</ele><time>2026-04-25T15:46:30.699Z</time></trkpt><trkpt lat="45.46616253323182" lon="7.9942877235935805"><ele>563.0</ele><time>2026-04-25T15:46:31.699Z</time></trkpt><trkpt lat="45.46628443110456" lon="7.994033217405308"><ele>563.0</ele><time>2026-04-25T15:46:32.699Z</time></trkpt><trkpt lat="45.466413550510794" lon="7.993763633655766"><ele>563.6666666666666</ele><time>2026-04-25T15:46:33.699Z</time></trkpt><trkpt lat="45.466540859365736" lon="7.9934978300407735"><ele>564.3333333333334</ele><time>2026-04-25T15:46:34.699Z</time></trkpt><trkpt lat="45.46666147879336" lon="7.9932458539746385"><ele>565.0</ele><time>2026-04-25T15:46:35.699Z</time></trkpt><trkpt lat="45.46676466325986" lon="7.99298848778542"><ele>565.0</ele><time>2026-04-25T15:46:36.699Z</time></trkpt><trkpt lat="45.46688882271356" lon="7.992748349164151"><ele>565.0</ele><time>2026-04-25T15:46:37.698Z</time></trkpt><trkpt lat="45.467005355906615" lon="7.992504510368645"><ele>565.0</ele><time>2026-04-25T15:46:38.698Z</time></trkpt><trkpt lat="45.46711418413824" lon="7.992254978263845"><ele>564.6666666666667</ele><time>2026-04-25T15:46:39.698Z</time></trkpt><trkpt lat="45.4672417957555" lon="7.99202868986888"><ele>564.3333333333334</ele><time>2026-04-25T15:46:40.698Z</time></trkpt><trkpt lat="45.467342568078585" lon="7.991782976132152"><ele>564.0</ele><time>2026-04-25T15:46:41.698Z</time></trkpt><trkpt lat="45.46745427907344" lon="7.99155336957326"><ele>564.0</ele><time>2026-04-25T15:46:42.698Z</time></trkpt><trkpt lat="45.46758121433038" lon="7.991337919354498"><ele>564.0</ele><time>2026-04-25T15:46:43.698Z</time></trkpt><trkpt lat="45.467699498418376" lon="7.991122147546226"><ele>564.0</ele><time>2026-04-25T15:46:44.698Z</time></trkpt><trkpt lat="45.46782837500145" lon="7.990904254044969"><ele>563.3333333333334</ele><time>2026-04-25T15:46:45.698Z</time></trkpt><trkpt lat="45.46796978186558" lon="7.990681936585981"><ele>562.6666666666667</ele><time>2026-04-25T15:46:46.698Z</time></trkpt><trkpt lat="45.46811398094564" lon="7.990462796110861"><ele>562.0</ele><time>2026-04-25T15:46:47.698Z</time></trkpt><trkpt lat="45.46826228129045" lon="7.990238089184064"><ele>564.3333333333334</ele><time>2026-04-25T15:46:48.698Z</time></trkpt><trkpt lat="45.46841779016663" lon="7.99000323219731"><ele>566.6666666666666</ele><time>2026-04-25T15:46:49.698Z</time></trkpt><trkpt lat="45.46856925061501" lon="7.989776292354543"><ele>569.0</ele><time>2026-04-25T15:46:50.698Z</time></trkpt><trkpt lat="45.46872180959402" lon="7.989546901020486"><ele>566.0</ele><time>2026-04-25T15:46:51.698Z</time></trkpt><trkpt lat="45.468872644644584" lon="7.989310927154204"><ele>563.0</ele><time>2026-04-25T15:46:52.698Z</time></trkpt><trkpt lat="45.46901719236968" lon="7.989063931287453"><ele>563.0</ele><time>2026-04-25T15:46:53.698Z</time></trkpt><trkpt lat="45.46915399990706" lon="7.988824258377524"><ele>563.0</ele><time>2026-04-25T15:46:54.697Z</time></trkpt><trkpt lat="45.46928063402594" lon="7.988598791679677"><ele>563.0</ele><time>2026-04-25T15:46:55.697Z</time></trkpt><trkpt lat="45.46938738466909" lon="7.988406075387837"><ele>561.6666666666666</ele><time>2026-04-25T15:46:56.699Z</time></trkpt><trkpt lat="45.469489475882185" lon="7.988221832942098"><ele>560.3333333333334</ele><time>2026-04-25T15:46:57.699Z</time></trkpt><trkpt lat="45.469588536259316" lon="7.9880431157862475"><ele>559.0</ele><time>2026-04-25T15:46:58.699Z</time></trkpt><trkpt lat="45.46969203484579" lon="7.987856390707776"><ele>559.0</ele><time>2026-04-25T15:46:59.699Z</time></trkpt><trkpt lat="45.46975915881004" lon="7.987611890248285"><ele>559.0</ele><time>2026-04-25T15:47:00.699Z</time></trkpt><trkpt lat="45.469870754033" lon="7.987408666903514"><ele>559.0</ele><time>2026-04-25T15:47:01.699Z</time></trkpt><trkpt lat="45.469987646803716" lon="7.987193746810325"><ele>562.0</ele><time>2026-04-25T15:47:02.699Z</time></trkpt><trkpt lat="45.47012086040355" lon="7.98697819204914"><ele>565.0</ele><time>2026-04-25T15:47:03.699Z</time></trkpt><trkpt lat="45.470286135074545" lon="7.986783369904926"><ele>568.0</ele><time>2026-04-25T15:47:04.699Z</time></trkpt><trkpt lat="45.4704184113649" lon="7.9865419461387415"><ele>567.0</ele><time>2026-04-25T15:47:05.699Z</time></trkpt><trkpt lat="45.47055059806955" lon="7.986300686017103"><ele>566.0</ele><time>2026-04-25T15:47:06.698Z</time></trkpt><trkpt lat="45.470687941669134" lon="7.986050013771597"><ele>565.0</ele><time>2026-04-25T15:47:07.698Z</time></trkpt><trkpt lat="45.47082776355437" lon="7.985794818275074"><ele>567.3333333333334</ele><time>2026-04-25T15:47:08.699Z</time></trkpt><trkpt lat="45.47096835094458" lon="7.985538225623169"><ele>569.6666666666666</ele><time>2026-04-25T15:47:09.698Z</time></trkpt><trkpt lat="45.47109962651079" lon="7.985298628490396"><ele>572.0</ele><time>2026-04-25T15:47:10.698Z</time></trkpt><trkpt lat="45.4712276342305" lon="7.985064995641583"><ele>571.3333333333333</ele><time>2026-04-25T15:47:11.698Z</time></trkpt><trkpt lat="45.4713532698394" lon="7.9848356921636405"><ele>570.6666666666666</ele><time>2026-04-25T15:47:12.698Z</time></trkpt><trkpt lat="45.47147798451315" lon="7.9846080696399415"><ele>570.0</ele><time>2026-04-25T15:47:13.698Z</time></trkpt><trkpt lat="45.4716052337109" lon="7.9843758211375135"><ele>572.0</ele><time>2026-04-25T15:47:14.698Z</time></trkpt><trkpt lat="45.47173005198896" lon="7.984146194354942"><ele>574.0</ele><time>2026-04-25T15:47:15.698Z</time></trkpt><trkpt lat="45.471850821095586" lon="7.983923691091037"><ele>576.0</ele><time>2026-04-25T15:47:16.698Z</time></trkpt><trkpt lat="45.47197061610856" lon="7.983702982550906"><ele>576.0</ele><time>2026-04-25T15:47:17.698Z</time></trkpt><trkpt lat="45.472088913084384" lon="7.983485033974226"><ele>576.0</ele><time>2026-04-25T15:47:18.698Z</time></trkpt><trkpt lat="45.47220200056661" lon="7.983276683268837"><ele>576.0</ele><time>2026-04-25T15:47:19.698Z</time></trkpt><trkpt lat="45.47231728120298" lon="7.983064291988776"><ele>575.6666666666666</ele><time>2026-04-25T15:47:20.698Z</time></trkpt><trkpt lat="45.472426558136355" lon="7.98286483348895"><ele>575.3333333333333</ele><time>2026-04-25T15:47:21.698Z</time></trkpt><trkpt lat="45.47252080335396" lon="7.982669979960854"><ele>575.0</ele><time>2026-04-25T15:47:22.698Z</time></trkpt><trkpt lat="45.4726163739985" lon="7.982493630228999"><ele>574.75</ele><time>2026-04-25T15:47:23.698Z</time></trkpt><trkpt lat="45.47270421737973" lon="7.982321469897376"><ele>574.5</ele><time>2026-04-25T15:47:24.698Z</time></trkpt><trkpt lat="45.4728059702266" lon="7.982177894622728"><ele>574.25</ele><time>2026-04-25T15:47:25.698Z</time></trkpt><trkpt lat="45.47289220198566" lon="7.982027439065821"><ele>574.0</ele><time>2026-04-25T15:47:26.697Z</time></trkpt><trkpt lat="45.47297095153736" lon="7.981890263909573"><ele>574.0</ele><time>2026-04-25T15:47:27.697Z</time></trkpt><trkpt lat="45.4730409936265" lon="7.981766943789983"><ele>574.0</ele><time>2026-04-25T15:47:28.697Z</time></trkpt><trkpt lat="45.47310127159965" lon="7.981660226781387"><ele>574.0</ele><time>2026-04-25T15:47:29.697Z</time></trkpt><trkpt lat="45.47315375164797" lon="7.981567315183684"><ele>574.0</ele><time>2026-04-25T15:47:30.697Z</time></trkpt><trkpt lat="45.47320357214308" lon="7.98147986503258"><ele>574.0</ele><time>2026-04-25T15:47:31.697Z</time></trkpt><trkpt lat="45.47325108459909" lon="7.981399524884257"><ele>574.0</ele><time>2026-04-25T15:47:32.697Z</time></trkpt><trkpt lat="45.473296687262284" lon="7.981328103869318"><ele>574.6666666666667</ele><time>2026-04-25T15:47:33.697Z</time></trkpt><trkpt lat="45.47336635057308" lon="7.981235646489408"><ele>575.3333333333334</ele><time>2026-04-25T15:47:35.697Z</time></trkpt><trkpt lat="45.4731139354503" lon="7.9811070747563875"><ele>576.0</ele><time>2026-04-25T15:47:43.696Z</time></trkpt><trkpt lat="45.47304414712251" lon="7.981202146726693"><ele>576.0</ele><time>2026-04-25T15:47:44.696Z</time></trkpt><trkpt lat="45.47297623679714" lon="7.981278980536187"><ele>576.0</ele><time>2026-04-25T15:47:45.696Z</time></trkpt><trkpt lat="45.47290178771334" lon="7.9813690931626935"><ele>576.0</ele><time>2026-04-25T15:47:46.696Z</time></trkpt><trkpt lat="45.47282291966534" lon="7.981483482274644"><ele>576.0</ele><time>2026-04-25T15:47:47.696Z</time></trkpt><trkpt lat="45.47274525400709" lon="7.981627064650673"><ele>576.0</ele><time>2026-04-25T15:47:48.696Z</time></trkpt><trkpt lat="45.47266645594402" lon="7.981792946851479"><ele>577.75</ele><time>2026-04-25T15:47:49.696Z</time></trkpt><trkpt lat="45.47259884026223" lon="7.981956826228456"><ele>579.5</ele><time>2026-04-25T15:47:50.696Z</time></trkpt><trkpt lat="45.472533911767755" lon="7.982112166047721"><ele>581.25</ele><time>2026-04-25T15:47:51.696Z</time></trkpt><trkpt lat="45.47244901356635" lon="7.982261835087483"><ele>583.0</ele><time>2026-04-25T15:47:52.696Z</time></trkpt><trkpt lat="45.472342323179475" lon="7.982402551736854"><ele>584.0</ele><time>2026-04-25T15:47:53.696Z</time></trkpt><trkpt lat="45.47223037936002" lon="7.982542110946817"><ele>585.0</ele><time>2026-04-25T15:47:54.696Z</time></trkpt><trkpt lat="45.472119706038356" lon="7.982682889054695"><ele>586.0</ele><time>2026-04-25T15:47:55.696Z</time></trkpt><trkpt lat="45.47201446087503" lon="7.982809638213841"><ele>587.0</ele><time>2026-04-25T15:47:56.696Z</time></trkpt><trkpt lat="45.47190093134103" lon="7.982929888965638"><ele>587.0</ele><time>2026-04-25T15:47:57.696Z</time></trkpt><trkpt lat="45.47176959917041" lon="7.983033639863698"><ele>587.0</ele><time>2026-04-25T15:47:58.696Z</time></trkpt><trkpt lat="45.47163765580378" lon="7.983132359497236"><ele>587.0</ele><time>2026-04-25T15:47:59.695Z</time></trkpt><trkpt lat="45.4715133430455" lon="7.983231497975788"><ele>587.0</ele><time>2026-04-25T15:48:00.695Z</time></trkpt><trkpt lat="45.471396847930805" lon="7.983334585841031"><ele>588.5</ele><time>2026-04-25T15:48:01.695Z</time></trkpt><trkpt lat="45.47128858271707" lon="7.983457539789898"><ele>590.0</ele><time>2026-04-25T15:48:02.695Z</time></trkpt><trkpt lat="45.471186437732094" lon="7.983582158667333"><ele>591.5</ele><time>2026-04-25T15:48:03.695Z</time></trkpt><trkpt lat="45.471080699088546" lon="7.983677420953311"><ele>593.0</ele><time>2026-04-25T15:48:04.695Z</time></trkpt><trkpt lat="45.4709848930018" lon="7.983791868841026"><ele>593.0</ele><time>2026-04-25T15:48:05.695Z</time></trkpt><trkpt lat="45.47089007682808" lon="7.983861761983331"><ele>593.0</ele><time>2026-04-25T15:48:06.695Z</time></trkpt><trkpt lat="45.47074813306607" lon="7.983814768286001"><ele>593.0</ele><time>2026-04-25T15:48:07.695Z</time></trkpt><trkpt lat="45.470617189896764" lon="7.983766840832836"><ele>593.0</ele><time>2026-04-25T15:48:08.695Z</time></trkpt><trkpt lat="45.47048250841595" lon="7.9837246985658235"><ele>593.5</ele><time>2026-04-25T15:48:09.695Z</time></trkpt><trkpt lat="45.4703621874253" lon="7.983648782308192"><ele>594.0</ele><time>2026-04-25T15:48:10.695Z</time></trkpt><trkpt lat="45.47026069764568" lon="7.98353306147101"><ele>594.5</ele><time>2026-04-25T15:48:11.695Z</time></trkpt><trkpt lat="45.47018830679623" lon="7.983377385387285"><ele>595.0</ele><time>2026-04-25T15:48:12.695Z</time></trkpt><trkpt lat="45.47011920389721" lon="7.983211318498456"><ele>592.75</ele><time>2026-04-25T15:48:13.695Z</time></trkpt><trkpt lat="45.47005193542796" lon="7.983054881867574"><ele>590.5</ele><time>2026-04-25T15:48:14.695Z</time></trkpt><trkpt lat="45.46998549494142" lon="7.982899064504389"><ele>588.25</ele><time>2026-04-25T15:48:15.695Z</time></trkpt><trkpt lat="45.469926674155985" lon="7.98273986075673"><ele>586.0</ele><time>2026-04-25T15:48:16.694Z</time></trkpt><trkpt lat="45.46988176030331" lon="7.982599402600994"><ele>585.25</ele><time>2026-04-25T15:48:17.694Z</time></trkpt><trkpt lat="45.46991265955529" lon="7.982421037600793"><ele>584.5</ele><time>2026-04-25T15:48:18.694Z</time></trkpt><trkpt lat="45.46995482969821" lon="7.982257404791759"><ele>583.75</ele><time>2026-04-25T15:48:19.694Z</time></trkpt><trkpt lat="45.47001812873644" lon="7.982081366697539"><ele>583.0</ele><time>2026-04-25T15:48:20.694Z</time></trkpt><trkpt lat="45.470091605607095" lon="7.981890270895152"><ele>583.0</ele><time>2026-04-25T15:48:21.694Z</time></trkpt><trkpt lat="45.47016853081547" lon="7.981682978505133"><ele>583.0</ele><time>2026-04-25T15:48:22.694Z</time></trkpt><trkpt lat="45.47024771296334" lon="7.981474250394865"><ele>583.0</ele><time>2026-04-25T15:48:23.694Z</time></trkpt><trkpt lat="45.470324642530926" lon="7.981267449519709"><ele>582.3333333333334</ele><time>2026-04-25T15:48:24.694Z</time></trkpt><trkpt lat="45.470405002945974" lon="7.981051788084587"><ele>581.6666666666666</ele><time>2026-04-25T15:48:25.694Z</time></trkpt><trkpt lat="45.47048940628168" lon="7.980829159154471"><ele>581.0</ele><time>2026-04-25T15:48:26.694Z</time></trkpt><trkpt lat="45.47057505539522" lon="7.980603690820984"><ele>581.0</ele><time>2026-04-25T15:48:27.694Z</time></trkpt><trkpt lat="45.470662251215764" lon="7.980377347782116"><ele>581.0</ele><time>2026-04-25T15:48:28.694Z</time></trkpt><trkpt lat="45.47074795647859" lon="7.980159508783959"><ele>581.0</ele><time>2026-04-25T15:48:29.694Z</time></trkpt><trkpt lat="45.470835611108576" lon="7.979952665614686"><ele>577.0</ele><time>2026-04-25T15:48:30.694Z</time></trkpt><trkpt lat="45.470904058935446" lon="7.979737918613666"><ele>573.0</ele><time>2026-04-25T15:48:31.694Z</time></trkpt><trkpt lat="45.47096345007457" lon="7.979511338968665"><ele>569.0</ele><time>2026-04-25T15:48:32.694Z</time></trkpt><trkpt lat="45.47105350953831" lon="7.979296400434981"><ele>573.3333333333333</ele><time>2026-04-25T15:48:33.693Z</time></trkpt><trkpt lat="45.47115514555273" lon="7.979080322998391"><ele>577.6666666666666</ele><time>2026-04-25T15:48:34.693Z</time></trkpt><trkpt lat="45.47126497849979" lon="7.9788785638216595"><ele>582.0</ele><time>2026-04-25T15:48:35.693Z</time></trkpt><trkpt lat="45.471363007874416" lon="7.978670895210024"><ele>582.0</ele><time>2026-04-25T15:48:36.693Z</time></trkpt><trkpt lat="45.47144356207355" lon="7.978438566331939"><ele>582.0</ele><time>2026-04-25T15:48:37.693Z</time></trkpt><trkpt lat="45.47153685280187" lon="7.978202723142846"><ele>582.0</ele><time>2026-04-25T15:48:38.693Z</time></trkpt><trkpt lat="45.47161082626969" lon="7.9779400641892435"><ele>576.3333333333334</ele><time>2026-04-25T15:48:39.693Z</time></trkpt><trkpt lat="45.471697031964474" lon="7.977685687985864"><ele>570.6666666666667</ele><time>2026-04-25T15:48:40.693Z</time></trkpt><trkpt lat="45.47178993737245" lon="7.977431385164377"><ele>565.0</ele><time>2026-04-25T15:48:41.693Z</time></trkpt><trkpt lat="45.47189272862787" lon="7.977188111978211"><ele>567.3333333333334</ele><time>2026-04-25T15:48:42.693Z</time></trkpt><trkpt lat="45.472001976209555" lon="7.97694335554915"><ele>569.6666666666666</ele><time>2026-04-25T15:48:43.693Z</time></trkpt><trkpt lat="45.47209275354338" lon="7.9766871803530375"><ele>572.0</ele><time>2026-04-25T15:48:44.693Z</time></trkpt><trkpt lat="45.47217970550048" lon="7.976434423195681"><ele>572.0</ele><time>2026-04-25T15:48:45.693Z</time></trkpt><trkpt lat="45.4722667268768" lon="7.976181463967311"><ele>572.0</ele><time>2026-04-25T15:48:46.693Z</time></trkpt><trkpt lat="45.472354124013115" lon="7.975929557111274"><ele>572.0</ele><time>2026-04-25T15:48:47.693Z</time></trkpt><trkpt lat="45.47243991133427" lon="7.975683586071212"><ele>568.3333333333333</ele><time>2026-04-25T15:48:48.693Z</time></trkpt><trkpt lat="45.472522075886346" lon="7.975448002606998"><ele>564.6666666666666</ele><time>2026-04-25T15:48:49.692Z</time></trkpt><trkpt lat="45.472604062555" lon="7.975212928489811"><ele>561.0</ele><time>2026-04-25T15:48:50.692Z</time></trkpt><trkpt lat="45.472681346222316" lon="7.97498945399126"><ele>556.6666666666666</ele><time>2026-04-25T15:48:51.692Z</time></trkpt><trkpt lat="45.47275394345772" lon="7.974773814499331"><ele>552.3333333333333</ele><time>2026-04-25T15:48:52.692Z</time></trkpt><trkpt lat="45.47282472844347" lon="7.974563558154195"><ele>548.0</ele><time>2026-04-25T15:48:53.692Z</time></trkpt><trkpt lat="45.47289247297947" lon="7.974362331963057"><ele>551.3333333333333</ele><time>2026-04-25T15:48:54.692Z</time></trkpt><trkpt lat="45.472960987466784" lon="7.974159573759656"><ele>554.6666666666666</ele><time>2026-04-25T15:48:55.692Z</time></trkpt><trkpt lat="45.47303715864298" lon="7.973955487469845"><ele>558.0</ele><time>2026-04-25T15:48:56.692Z</time></trkpt><trkpt lat="45.47313242711323" lon="7.973768267640321"><ele>558.0</ele><time>2026-04-25T15:48:57.692Z</time></trkpt><trkpt lat="45.47324985301571" lon="7.973579099063668"><ele>558.0</ele><time>2026-04-25T15:48:58.692Z</time></trkpt><trkpt lat="45.47336958567372" lon="7.9733603684793914"><ele>558.0</ele><time>2026-04-25T15:48:59.692Z</time></trkpt><trkpt lat="45.47347256826133" lon="7.973126830429748"><ele>555.3333333333334</ele><time>2026-04-25T15:49:00.692Z</time></trkpt><trkpt lat="45.473571701364214" lon="7.9728889680082435"><ele>552.6666666666667</ele><time>2026-04-25T15:49:01.692Z</time></trkpt><trkpt lat="45.47367446584178" lon="7.972644808813132"><ele>550.0</ele><time>2026-04-25T15:49:02.694Z</time></trkpt><trkpt lat="45.47377526642342" lon="7.972406065813584"><ele>550.0</ele><time>2026-04-25T15:49:03.693Z</time></trkpt><trkpt lat="45.473872446424465" lon="7.972175297239763"><ele>550.0</ele><time>2026-04-25T15:49:04.693Z</time></trkpt><trkpt lat="45.473967504830696" lon="7.971955459073943"><ele>550.0</ele><time>2026-04-25T15:49:05.694Z</time></trkpt><trkpt lat="45.47406282181406" lon="7.971757250066622"><ele>546.3333333333334</ele><time>2026-04-25T15:49:06.694Z</time></trkpt><trkpt lat="45.474161253255595" lon="7.971574575934448"><ele>542.6666666666666</ele><time>2026-04-25T15:49:07.694Z</time></trkpt><trkpt lat="45.47425533118973" lon="7.971397748661168"><ele>539.0</ele><time>2026-04-25T15:49:08.693Z</time></trkpt><trkpt lat="45.47434388811117" lon="7.971215169970458"><ele>539.0</ele><time>2026-04-25T15:49:09.694Z</time></trkpt><trkpt lat="45.47439696459796" lon="7.970998284922378"><ele>539.0</ele><time>2026-04-25T15:49:10.694Z</time></trkpt><trkpt lat="45.47445708229222" lon="7.970781859576683"><ele>539.0</ele><time>2026-04-25T15:49:11.694Z</time></trkpt><trkpt lat="45.47452167988618" lon="7.9705520599777415"><ele>542.3333333333333</ele><time>2026-04-25T15:49:12.693Z</time></trkpt><trkpt lat="45.47457855181493" lon="7.970298848375873"><ele>545.6666666666666</ele><time>2026-04-25T15:49:13.693Z</time></trkpt><trkpt lat="45.47462731791286" lon="7.970077419976185"><ele>549.0</ele><time>2026-04-25T15:49:14.693Z</time></trkpt><trkpt lat="45.47467097134468" lon="7.969867917965307"><ele>543.5</ele><time>2026-04-25T15:49:15.694Z</time></trkpt><trkpt lat="45.4747118998727" lon="7.9696775863277205"><ele>538.0</ele><time>2026-04-25T15:49:16.694Z</time></trkpt><trkpt lat="45.47475443563969" lon="7.969510956596199"><ele>532.5</ele><time>2026-04-25T15:49:17.694Z</time></trkpt><trkpt lat="45.47479714488359" lon="7.96936482453374"><ele>527.0</ele><time>2026-04-25T15:49:18.694Z</time></trkpt><trkpt lat="45.4748538984452" lon="7.9692315511585505"><ele>526.2</ele><time>2026-04-25T15:49:19.694Z</time></trkpt><trkpt lat="45.47492320644131" lon="7.969119696747937"><ele>525.4000000000001</ele><time>2026-04-25T15:49:20.693Z</time></trkpt><trkpt lat="45.47498926383331" lon="7.969015332123957"><ele>524.5999999999999</ele><time>2026-04-25T15:49:21.693Z</time></trkpt><trkpt lat="45.475036470176285" lon="7.96891311849272"><ele>523.8</ele><time>2026-04-25T15:49:22.693Z</time></trkpt><trkpt lat="45.47502086843055" lon="7.968785603461003"><ele>523.0</ele><time>2026-04-25T15:49:23.693Z</time></trkpt><trkpt lat="45.47500788703047" lon="7.968675341231382"><ele>523.0</ele><time>2026-04-25T15:49:24.693Z</time></trkpt><trkpt lat="45.47494757070392" lon="7.96859267081584"><ele>523.0</ele><time>2026-04-25T15:49:25.693Z</time></trkpt><trkpt lat="45.4748407316837" lon="7.968577081475999"><ele>523.0</ele><time>2026-04-25T15:49:26.693Z</time></trkpt><trkpt lat="45.47472627741728" lon="7.968579731282221"><ele>523.0</ele><time>2026-04-25T15:49:27.693Z</time></trkpt><trkpt lat="45.47459667839924" lon="7.968587772015346"><ele>523.0</ele><time>2026-04-25T15:49:28.693Z</time></trkpt><trkpt lat="45.47445197426878" lon="7.968591710571394"><ele>523.75</ele><time>2026-04-25T15:49:29.693Z</time></trkpt><trkpt lat="45.47431010293101" lon="7.968597163195518"><ele>524.5</ele><time>2026-04-25T15:49:30.693Z</time></trkpt><trkpt lat="45.4741606468863" lon="7.96860237918094"><ele>525.25</ele><time>2026-04-25T15:49:31.693Z</time></trkpt><trkpt lat="45.47400530786745" lon="7.968601660796967"><ele>526.0</ele><time>2026-04-25T15:49:32.693Z</time></trkpt><trkpt lat="45.47385358551986" lon="7.968614434018335"><ele>525.6666666666667</ele><time>2026-04-25T15:49:33.693Z</time></trkpt><trkpt lat="45.47370701268282" lon="7.968663984812862"><ele>525.3333333333334</ele><time>2026-04-25T15:49:34.693Z</time></trkpt><trkpt lat="45.47355134369089" lon="7.968682862639367"><ele>525.0</ele><time>2026-04-25T15:49:35.693Z</time></trkpt><trkpt lat="45.47339301872735" lon="7.968688660086493"><ele>525.0</ele><time>2026-04-25T15:49:36.693Z</time></trkpt><trkpt lat="45.47323602203859" lon="7.968674112422685"><ele>525.0</ele><time>2026-04-25T15:49:37.692Z</time></trkpt><trkpt lat="45.47309260079279" lon="7.968703109664035"><ele>525.0</ele><time>2026-04-25T15:49:38.692Z</time></trkpt><trkpt lat="45.472968025949605" lon="7.9687315868909945"><ele>525.0</ele><time>2026-04-25T15:49:39.692Z</time></trkpt><trkpt lat="45.47285336188625" lon="7.968799514727687"><ele>519.0</ele><time>2026-04-25T15:49:40.692Z</time></trkpt><trkpt lat="45.47273546162508" lon="7.968901106666413"><ele>513.0</ele><time>2026-04-25T15:49:41.692Z</time></trkpt><trkpt lat="45.472598393761395" lon="7.96901729237017"><ele>507.0</ele><time>2026-04-25T15:49:42.692Z</time></trkpt><trkpt lat="45.472449933737956" lon="7.969126688462385"><ele>505.33333333333337</ele><time>2026-04-25T15:49:43.692Z</time></trkpt><trkpt lat="45.47229515117434" lon="7.969261462504174"><ele>503.6666666666667</ele><time>2026-04-25T15:49:44.692Z</time></trkpt><trkpt lat="45.472141631110105" lon="7.969401224694692"><ele>502.0</ele><time>2026-04-25T15:49:45.692Z</time></trkpt><trkpt lat="45.471987882560185" lon="7.969544588334476"><ele>502.0</ele><time>2026-04-25T15:49:46.692Z</time></trkpt><trkpt lat="45.47184168161435" lon="7.96967325673905"><ele>502.0</ele><time>2026-04-25T15:49:47.692Z</time></trkpt><trkpt lat="45.47170523887757" lon="7.969790400245745"><ele>502.0</ele><time>2026-04-25T15:49:48.692Z</time></trkpt><trkpt lat="45.471586236898354" lon="7.969909579273439"><ele>500.5</ele><time>2026-04-25T15:49:49.692Z</time></trkpt><trkpt lat="45.47146835975335" lon="7.970032163884393"><ele>499.0</ele><time>2026-04-25T15:49:50.692Z</time></trkpt><trkpt lat="45.4713688171025" lon="7.970148180628131"><ele>497.5</ele><time>2026-04-25T15:49:51.692Z</time></trkpt><trkpt lat="45.47129783529063" lon="7.970244757047425"><ele>496.0</ele><time>2026-04-25T15:49:52.692Z</time></trkpt><trkpt lat="45.471242403248674" lon="7.970323950042654"><ele>496.00000000000006</ele><time>2026-04-25T15:49:53.692Z</time></trkpt><trkpt lat="45.47118658186696" lon="7.970387932598588"><ele>496.0</ele><time>2026-04-25T15:49:54.691Z</time></trkpt><trkpt lat="45.471104843543124" lon="7.970385187803324"><ele>496.0</ele><time>2026-04-25T15:49:56.691Z</time></trkpt><trkpt lat="45.47107493779318" lon="7.970258971571573"><ele>496.0</ele><time>2026-04-25T15:49:58.691Z</time></trkpt><trkpt lat="45.47113713595576" lon="7.970190980751227"><ele>496.00000000000006</ele><time>2026-04-25T15:49:59.691Z</time></trkpt><trkpt lat="45.47121116650272" lon="7.970121065758423"><ele>496.0</ele><time>2026-04-25T15:50:00.691Z</time></trkpt><trkpt lat="45.47128808364574" lon="7.970028505881506"><ele>497.5</ele><time>2026-04-25T15:50:01.691Z</time></trkpt><trkpt lat="45.47137842040786" lon="7.96991759330923"><ele>499.0</ele><time>2026-04-25T15:50:02.691Z</time></trkpt><trkpt lat="45.47147157372343" lon="7.9698037233576695"><ele>500.5</ele><time>2026-04-25T15:50:03.691Z</time></trkpt><trkpt lat="45.47156998789832" lon="7.969687030962767"><ele>502.0</ele><time>2026-04-25T15:50:04.691Z</time></trkpt><trkpt lat="45.47167623196387" lon="7.969560707297049"><ele>502.0</ele><time>2026-04-25T15:50:05.691Z</time></trkpt><trkpt lat="45.47178816220157" lon="7.969413337320199"><ele>502.0</ele><time>2026-04-25T15:50:06.691Z</time></trkpt><trkpt lat="45.47188924042319" lon="7.969239933606406"><ele>502.0</ele><time>2026-04-25T15:50:07.691Z</time></trkpt><trkpt lat="45.471967511954205" lon="7.969053660662231"><ele>503.25</ele><time>2026-04-25T15:50:08.691Z</time></trkpt><trkpt lat="45.47203890494097" lon="7.968864213162838"><ele>504.5</ele><time>2026-04-25T15:50:09.691Z</time></trkpt><trkpt lat="45.47210470646676" lon="7.968679178547292"><ele>505.75</ele><time>2026-04-25T15:50:10.69Z</time></trkpt><trkpt lat="45.47216831689976" lon="7.9685068328172335"><ele>507.0</ele><time>2026-04-25T15:50:11.69Z</time></trkpt><trkpt lat="45.47224289059943" lon="7.968356049250204"><ele>502.5</ele><time>2026-04-25T15:50:12.69Z</time></trkpt><trkpt lat="45.4723514586858" lon="7.968231567257296"><ele>498.0</ele><time>2026-04-25T15:50:13.69Z</time></trkpt><trkpt lat="45.472465777602324" lon="7.96810128698846"><ele>493.5</ele><time>2026-04-25T15:50:14.69Z</time></trkpt><trkpt lat="45.47257448338521" lon="7.967993693155291"><ele>489.0</ele><time>2026-04-25T15:50:15.69Z</time></trkpt><trkpt lat="45.47268598491642" lon="7.967928399763533"><ele>489.0</ele><time>2026-04-25T15:50:16.69Z</time></trkpt><trkpt lat="45.4728105343783" lon="7.96788974005981"><ele>489.0</ele><time>2026-04-25T15:50:17.69Z</time></trkpt><trkpt lat="45.472948158571555" lon="7.967844041729158"><ele>489.0</ele><time>2026-04-25T15:50:18.69Z</time></trkpt><trkpt lat="45.47307887437526" lon="7.967777012916996"><ele>489.0</ele><time>2026-04-25T15:50:19.69Z</time></trkpt><trkpt lat="45.4731990799634" lon="7.967711557293111"><ele>492.75</ele><time>2026-04-25T15:50:20.69Z</time></trkpt><trkpt lat="45.473322284555735" lon="7.967655244417874"><ele>496.5</ele><time>2026-04-25T15:50:21.69Z</time></trkpt><trkpt lat="45.47345930630149" lon="7.967627792620756"><ele>500.25</ele><time>2026-04-25T15:50:22.69Z</time></trkpt><trkpt lat="45.47360022837046" lon="7.967643865458632"><ele>504.0</ele><time>2026-04-25T15:50:23.69Z</time></trkpt><trkpt lat="45.47374363749474" lon="7.967679231168148"><ele>505.0</ele><time>2026-04-25T15:50:24.69Z</time></trkpt><trkpt lat="45.473898115121564" lon="7.967607840070025"><ele>506.0</ele><time>2026-04-25T15:50:25.69Z</time></trkpt><trkpt lat="45.47403289495749" lon="7.967531011427118"><ele>507.0</ele><time>2026-04-25T15:50:26.69Z</time></trkpt><trkpt lat="45.47415228796437" lon="7.967456971364909"><ele>508.0</ele><time>2026-04-25T15:50:27.689Z</time></trkpt><trkpt lat="45.474251744907995" lon="7.967393518812913"><ele>503.83333333333337</ele><time>2026-04-25T15:50:28.689Z</time></trkpt><trkpt lat="45.47432779489272" lon="7.967347409012774"><ele>499.6666666666667</ele><time>2026-04-25T15:50:29.689Z</time></trkpt><trkpt lat="45.47439837786099" lon="7.967293867472894"><ele>495.5</ele><time>2026-04-25T15:50:30.689Z</time></trkpt><trkpt lat="45.474437701871985" lon="7.967182329231083"><ele>491.33333333333337</ele><time>2026-04-25T15:50:31.689Z</time></trkpt><trkpt lat="45.47440928179011" lon="7.967076754513799"><ele>487.1666666666667</ele><time>2026-04-25T15:50:32.689Z</time></trkpt><trkpt lat="45.474309887890506" lon="7.96704998981623"><ele>483.0</ele><time>2026-04-25T15:50:33.689Z</time></trkpt><trkpt lat="45.47421653665698" lon="7.967027269551919"><ele>483.0</ele><time>2026-04-25T15:50:34.689Z</time></trkpt><trkpt lat="45.47411205700723" lon="7.967059097412697"><ele>483.0</ele><time>2026-04-25T15:50:35.689Z</time></trkpt><trkpt lat="45.47398866215272" lon="7.967099895633126"><ele>483.0</ele><time>2026-04-25T15:50:36.689Z</time></trkpt><trkpt lat="45.47384633380808" lon="7.967120296009317"><ele>483.0</ele><time>2026-04-25T15:50:37.689Z</time></trkpt><trkpt lat="45.47369884341596" lon="7.9671264843025105"><ele>481.0</ele><time>2026-04-25T15:50:38.689Z</time></trkpt><trkpt lat="45.473543093805844" lon="7.967115510116356"><ele>479.0</ele><time>2026-04-25T15:50:39.689Z</time></trkpt><trkpt lat="45.47338601927713" lon="7.967107235725013"><ele>477.0</ele><time>2026-04-25T15:50:40.689Z</time></trkpt><trkpt lat="45.473232404749105" lon="7.967118599382077"><ele>477.0</ele><time>2026-04-25T15:50:41.689Z</time></trkpt><trkpt lat="45.473068784580256" lon="7.967150268877981"><ele>477.0</ele><time>2026-04-25T15:50:42.689Z</time></trkpt><trkpt lat="45.47290793326289" lon="7.967192288064033"><ele>477.0</ele><time>2026-04-25T15:50:43.689Z</time></trkpt><trkpt lat="45.47275471532958" lon="7.967215534083209"><ele>474.5</ele><time>2026-04-25T15:50:44.688Z</time></trkpt><trkpt lat="45.47261656995801" lon="7.967191528332224"><ele>472.0</ele><time>2026-04-25T15:50:45.688Z</time></trkpt><trkpt lat="45.47249115676573" lon="7.967193069178145"><ele>469.5</ele><time>2026-04-25T15:50:46.688Z</time></trkpt><trkpt lat="45.472369485616625" lon="7.967183037570523"><ele>467.0</ele><time>2026-04-25T15:50:47.688Z</time></trkpt><trkpt lat="45.472250074707965" lon="7.9672158687722625"><ele>467.0</ele><time>2026-04-25T15:50:48.688Z</time></trkpt><trkpt lat="45.47214325194549" lon="7.96728429340512"><ele>467.0</ele><time>2026-04-25T15:50:49.688Z</time></trkpt><trkpt lat="45.47202946020881" lon="7.967368732610679"><ele>467.0</ele><time>2026-04-25T15:50:50.688Z</time></trkpt><trkpt lat="45.471910018737304" lon="7.967470581227646"><ele>467.0</ele><time>2026-04-25T15:50:51.688Z</time></trkpt><trkpt lat="45.471781837532085" lon="7.9676002781938875"><ele>467.3333333333333</ele><time>2026-04-25T15:50:52.688Z</time></trkpt><trkpt lat="45.47164328004871" lon="7.9677528407227936"><ele>467.66666666666663</ele><time>2026-04-25T15:50:53.688Z</time></trkpt><trkpt lat="45.47149389190509" lon="7.967895369116828"><ele>468.0</ele><time>2026-04-25T15:50:54.688Z</time></trkpt><trkpt lat="45.471342932577976" lon="7.968077447865153"><ele>465.33333333333337</ele><time>2026-04-25T15:50:55.688Z</time></trkpt><trkpt lat="45.4711888928237" lon="7.96825201579358"><ele>462.6666666666667</ele><time>2026-04-25T15:50:56.688Z</time></trkpt><trkpt lat="45.47104444196285" lon="7.968413340608929"><ele>460.0</ele><time>2026-04-25T15:50:57.688Z</time></trkpt><trkpt lat="45.47090483540224" lon="7.968564294575904"><ele>460.0</ele><time>2026-04-25T15:50:58.688Z</time></trkpt><trkpt lat="45.470774220663046" lon="7.968713954779675"><ele>460.0</ele><time>2026-04-25T15:50:59.688Z</time></trkpt><trkpt lat="45.47065489320197" lon="7.968863492124052"><ele>460.0</ele><time>2026-04-25T15:51:00.687Z</time></trkpt><trkpt lat="45.47052605910662" lon="7.9689920514903525"><ele>457.5</ele><time>2026-04-25T15:51:01.687Z</time></trkpt><trkpt lat="45.47040383302909" lon="7.969119767997203"><ele>455.0</ele><time>2026-04-25T15:51:02.687Z</time></trkpt><trkpt lat="45.47028760739616" lon="7.969246820818093"><ele>452.5</ele><time>2026-04-25T15:51:03.687Z</time></trkpt><trkpt lat="45.47017644948238" lon="7.96938786985855"><ele>450.0</ele><time>2026-04-25T15:51:04.687Z</time></trkpt><trkpt lat="45.47007331971903" lon="7.969556770713521"><ele>450.0</ele><time>2026-04-25T15:51:05.687Z</time></trkpt><trkpt lat="45.469965489162696" lon="7.969728180880422"><ele>450.0</ele><time>2026-04-25T15:51:06.687Z</time></trkpt><trkpt lat="45.469852116106" lon="7.969908866395376"><ele>450.0</ele><time>2026-04-25T15:51:07.687Z</time></trkpt><trkpt lat="45.46973870361908" lon="7.970079454980789"><ele>445.25</ele><time>2026-04-25T15:51:08.688Z</time></trkpt><trkpt lat="45.46963050091323" lon="7.970242534707916"><ele>440.5</ele><time>2026-04-25T15:51:09.689Z</time></trkpt><trkpt lat="45.46953179465968" lon="7.970393637935397"><ele>435.75</ele><time>2026-04-25T15:51:10.689Z</time></trkpt><trkpt lat="45.46944388760257" lon="7.970545470041206"><ele>431.0</ele><time>2026-04-25T15:51:11.689Z</time></trkpt><trkpt lat="45.469361931240144" lon="7.970692291052565"><ele>431.0</ele><time>2026-04-25T15:51:12.688Z</time></trkpt><trkpt lat="45.469288091650704" lon="7.970822712154788"><ele>431.0</ele><time>2026-04-25T15:51:13.688Z</time></trkpt><trkpt lat="45.46922267686413" lon="7.970934380017217"><ele>431.0</ele><time>2026-04-25T15:51:14.688Z</time></trkpt><trkpt lat="45.46916540459895" lon="7.971030290540674"><ele>431.0</ele><time>2026-04-25T15:51:15.688Z</time></trkpt><trkpt lat="45.46911622534914" lon="7.97109575007278"><ele>431.0</ele><time>2026-04-25T15:51:16.688Z</time></trkpt><trkpt lat="45.46901704716889" lon="7.971095980388289"><ele>431.0</ele><time>2026-04-25T15:51:18.688Z</time></trkpt><trkpt lat="45.46902524461904" lon="7.970972800289625"><ele>431.0</ele><time>2026-04-25T15:51:20.688Z</time></trkpt><trkpt lat="45.46912422803955" lon="7.970821208127403"><ele>431.0</ele><time>2026-04-25T15:51:22.688Z</time></trkpt><trkpt lat="45.46919705270382" lon="7.970705865201793"><ele>431.0</ele><time>2026-04-25T15:51:23.688Z</time></trkpt><trkpt lat="45.469280837448466" lon="7.9705731632503145"><ele>431.0</ele><time>2026-04-25T15:51:24.688Z</time></trkpt><trkpt lat="45.46936968274594" lon="7.9704256364663"><ele>431.0</ele><time>2026-04-25T15:51:25.688Z</time></trkpt><trkpt lat="45.46945274729541" lon="7.9702801331353434"><ele>431.0</ele><time>2026-04-25T15:51:26.687Z</time></trkpt><trkpt lat="45.46953642808726" lon="7.970113992768965"><ele>431.0</ele><time>2026-04-25T15:51:27.687Z</time></trkpt><trkpt lat="45.46961825114654" lon="7.969918341436909"><ele>437.3333333333333</ele><time>2026-04-25T15:51:28.687Z</time></trkpt><trkpt lat="45.46969351954808" lon="7.969703477319833"><ele>443.66666666666663</ele><time>2026-04-25T15:51:29.687Z</time></trkpt><trkpt lat="45.46976237283302" lon="7.969493618762733"><ele>450.0</ele><time>2026-04-25T15:51:30.687Z</time></trkpt><trkpt lat="45.469813757970606" lon="7.969277277791116"><ele>444.66666666666663</ele><time>2026-04-25T15:51:31.687Z</time></trkpt><trkpt lat="45.46989736925499" lon="7.969072693641272"><ele>439.3333333333333</ele><time>2026-04-25T15:51:32.687Z</time></trkpt><trkpt lat="45.46995985662539" lon="7.968848869505655"><ele>434.0</ele><time>2026-04-25T15:51:33.687Z</time></trkpt><trkpt lat="45.47003701028972" lon="7.968633975861668"><ele>434.0</ele><time>2026-04-25T15:51:34.687Z</time></trkpt><trkpt lat="45.47012358666336" lon="7.968449405272747"><ele>434.0</ele><time>2026-04-25T15:51:35.687Z</time></trkpt><trkpt lat="45.47021148936685" lon="7.968282525440088"><ele>434.0</ele><time>2026-04-25T15:51:36.687Z</time></trkpt><trkpt lat="45.47028554500299" lon="7.968099135212116"><ele>427.0</ele><time>2026-04-25T15:51:37.687Z</time></trkpt><trkpt lat="45.470341384287586" lon="7.96789791088463"><ele>420.0</ele><time>2026-04-25T15:51:38.687Z</time></trkpt><trkpt lat="45.470380254796865" lon="7.967681505031101"><ele>413.0</ele><time>2026-04-25T15:51:39.687Z</time></trkpt><trkpt lat="45.47043817180103" lon="7.967467913165757"><ele>419.0</ele><time>2026-04-25T15:51:40.687Z</time></trkpt><trkpt lat="45.47048340859225" lon="7.9672452352000445"><ele>425.0</ele><time>2026-04-25T15:51:41.687Z</time></trkpt><trkpt lat="45.470525792532314" lon="7.967033536128705"><ele>431.0</ele><time>2026-04-25T15:51:42.687Z</time></trkpt><trkpt lat="45.47056498823369" lon="7.966829541874717"><ele>428.5</ele><time>2026-04-25T15:51:43.686Z</time></trkpt><trkpt lat="45.47060341190696" lon="7.966637955345643"><ele>426.0</ele><time>2026-04-25T15:51:44.686Z</time></trkpt><trkpt lat="45.470647380420374" lon="7.966474086484302"><ele>423.5</ele><time>2026-04-25T15:51:45.686Z</time></trkpt><trkpt lat="45.47070883747181" lon="7.966342100773461"><ele>421.0</ele><time>2026-04-25T15:51:46.686Z</time></trkpt><trkpt lat="45.47078299485591" lon="7.966213033745731"><ele>421.0</ele><time>2026-04-25T15:51:47.686Z</time></trkpt><trkpt lat="45.470870821453644" lon="7.9661086475871326"><ele>421.0</ele><time>2026-04-25T15:51:48.686Z</time></trkpt><trkpt lat="45.47097697320316" lon="7.9660302977535915"><ele>421.0</ele><time>2026-04-25T15:51:49.686Z</time></trkpt><trkpt lat="45.47110515859445" lon="7.965941251026903"><ele>421.0</ele><time>2026-04-25T15:51:50.686Z</time></trkpt><trkpt lat="45.47124438983492" lon="7.965844531377547"><ele>418.75</ele><time>2026-04-25T15:51:51.686Z</time></trkpt><trkpt lat="45.47138135880499" lon="7.9657574871550825"><ele>416.5</ele><time>2026-04-25T15:51:52.686Z</time></trkpt><trkpt lat="45.47151620815892" lon="7.965684535543686"><ele>414.25</ele><time>2026-04-25T15:51:53.686Z</time></trkpt><trkpt lat="45.471640051382" lon="7.965623306534351"><ele>412.0</ele><time>2026-04-25T15:51:54.686Z</time></trkpt><trkpt lat="45.471738819356545" lon="7.965561207302159"><ele>412.00000000000006</ele><time>2026-04-25T15:51:55.686Z</time></trkpt><trkpt lat="45.471828256896856" lon="7.965532594605124"><ele>412.0</ele><time>2026-04-25T15:51:56.686Z</time></trkpt><trkpt lat="45.47190940917701" lon="7.965518828178928"><ele>412.0</ele><time>2026-04-25T15:51:57.686Z</time></trkpt><trkpt lat="45.471971051268476" lon="7.965433461649425"><ele>412.0</ele><time>2026-04-25T15:51:58.686Z</time></trkpt><trkpt lat="45.47197304432746" lon="7.965309529536008"><ele>412.00000000000006</ele><time>2026-04-25T15:51:59.686Z</time></trkpt><trkpt lat="45.47189854127055" lon="7.965223283812289"><ele>412.0</ele><time>2026-04-25T15:52:00.685Z</time></trkpt><trkpt lat="45.47181296089576" lon="7.96521882447263"><ele>412.0</ele><time>2026-04-25T15:52:01.685Z</time></trkpt><trkpt lat="45.471736953982976" lon="7.965250750196241"><ele>412.0</ele><time>2026-04-25T15:52:02.685Z</time></trkpt><trkpt lat="45.471652777260225" lon="7.9653046232460225"><ele>412.0</ele><time>2026-04-25T15:52:03.685Z</time></trkpt><trkpt lat="45.471547972143334" lon="7.965360727687239"><ele>412.0</ele><time>2026-04-25T15:52:04.685Z</time></trkpt><trkpt lat="45.471424918731024" lon="7.965425921906972"><ele>412.0</ele><time>2026-04-25T15:52:05.685Z</time></trkpt><trkpt lat="45.471304021911635" lon="7.965489457373256"><ele>407.75</ele><time>2026-04-25T15:52:06.685Z</time></trkpt><trkpt lat="45.47118283163722" lon="7.965547151061864"><ele>403.5</ele><time>2026-04-25T15:52:07.685Z</time></trkpt><trkpt lat="45.4710531029143" lon="7.965610595032036"><ele>399.25</ele><time>2026-04-25T15:52:08.685Z</time></trkpt><trkpt lat="45.47091590943064" lon="7.96567493707317"><ele>395.0</ele><time>2026-04-25T15:52:09.685Z</time></trkpt><trkpt lat="45.47077326031113" lon="7.9657349015559324"><ele>395.0</ele><time>2026-04-25T15:52:10.685Z</time></trkpt><trkpt lat="45.4706311283036" lon="7.965785398030024"><ele>395.0</ele><time>2026-04-25T15:52:11.685Z</time></trkpt><trkpt lat="45.470499968192634" lon="7.965810995133184"><ele>395.0</ele><time>2026-04-25T15:52:12.685Z</time></trkpt><trkpt lat="45.47038043466908" lon="7.965865604089967"><ele>395.0</ele><time>2026-04-25T15:52:13.685Z</time></trkpt><trkpt lat="45.470280215087726" lon="7.965960767958907"><ele>392.75</ele><time>2026-04-25T15:52:14.685Z</time></trkpt><trkpt lat="45.47019282128898" lon="7.966062243372638"><ele>390.5</ele><time>2026-04-25T15:52:15.685Z</time></trkpt><trkpt lat="45.47011577393156" lon="7.966200523833115"><ele>388.25</ele><time>2026-04-25T15:52:16.684Z</time></trkpt><trkpt lat="45.47002760122098" lon="7.9663579481017885"><ele>386.0</ele><time>2026-04-25T15:52:17.684Z</time></trkpt><trkpt lat="45.46993374931458" lon="7.966528885976735"><ele>390.66666666666663</ele><time>2026-04-25T15:52:18.684Z</time></trkpt><trkpt lat="45.46983425334668" lon="7.966710480882011"><ele>395.33333333333337</ele><time>2026-04-25T15:52:19.684Z</time></trkpt><trkpt lat="45.469728774917655" lon="7.9668906888496185"><ele>400.0</ele><time>2026-04-25T15:52:20.684Z</time></trkpt><trkpt lat="45.46962164395875" lon="7.967070674462876"><ele>396.0</ele><time>2026-04-25T15:52:21.684Z</time></trkpt><trkpt lat="45.46951584888908" lon="7.967249076474321"><ele>392.0</ele><time>2026-04-25T15:52:22.684Z</time></trkpt><trkpt lat="45.469415265017794" lon="7.96742762883486"><ele>388.0</ele><time>2026-04-25T15:52:23.684Z</time></trkpt><trkpt lat="45.46931333175617" lon="7.967606744115732"><ele>388.0</ele><time>2026-04-25T15:52:24.684Z</time></trkpt><trkpt lat="45.46920531511764" lon="7.967775536603956"><ele>388.0</ele><time>2026-04-25T15:52:25.684Z</time></trkpt><trkpt lat="45.469098261809116" lon="7.967932241352991"><ele>388.0</ele><time>2026-04-25T15:52:26.684Z</time></trkpt><trkpt lat="45.46899428407307" lon="7.968080321148474"><ele>388.0</ele><time>2026-04-25T15:52:27.684Z</time></trkpt><trkpt lat="45.46888703958544" lon="7.968213071995009"><ele>388.0</ele><time>2026-04-25T15:52:28.684Z</time></trkpt><trkpt lat="45.46876879966679" lon="7.968333646748827"><ele>388.0</ele><time>2026-04-25T15:52:29.684Z</time></trkpt><trkpt lat="45.4686383474525" lon="7.968444918982336"><ele>388.0</ele><time>2026-04-25T15:52:30.684Z</time></trkpt><trkpt lat="45.46850690230253" lon="7.968566342881256"><ele>383.33333333333337</ele><time>2026-04-25T15:52:31.684Z</time></trkpt><trkpt lat="45.46838410963287" lon="7.968705552531623"><ele>378.6666666666667</ele><time>2026-04-25T15:52:32.684Z</time></trkpt><trkpt lat="45.468267171954736" lon="7.968846005259887"><ele>374.0</ele><time>2026-04-25T15:52:33.683Z</time></trkpt><trkpt lat="45.46815751086138" lon="7.968973213081903"><ele>374.0</ele><time>2026-04-25T15:52:34.683Z</time></trkpt><trkpt lat="45.46805483198832" lon="7.969089254822519"><ele>374.0</ele><time>2026-04-25T15:52:35.683Z</time></trkpt><trkpt lat="45.46795365950868" lon="7.969195187245339"><ele>374.0</ele><time>2026-04-25T15:52:36.683Z</time></trkpt><trkpt lat="45.46784810095326" lon="7.969281967133074"><ele>374.0</ele><time>2026-04-25T15:52:37.683Z</time></trkpt><trkpt lat="45.467729591879554" lon="7.9693354583854425"><ele>372.25</ele><time>2026-04-25T15:52:38.683Z</time></trkpt><trkpt lat="45.46759719687401" lon="7.969361547346496"><ele>370.5</ele><time>2026-04-25T15:52:39.683Z</time></trkpt><trkpt lat="45.46746414231957" lon="7.969370652586109"><ele>368.75</ele><time>2026-04-25T15:52:40.683Z</time></trkpt><trkpt lat="45.467344974912336" lon="7.969380518624506"><ele>367.0</ele><time>2026-04-25T15:52:41.683Z</time></trkpt><trkpt lat="45.46723117660742" lon="7.969421661811664"><ele>367.0</ele><time>2026-04-25T15:52:42.683Z</time></trkpt><trkpt lat="45.46712652861074" lon="7.969498419433782"><ele>367.0</ele><time>2026-04-25T15:52:43.683Z</time></trkpt><trkpt lat="45.46701924428944" lon="7.969604765637152"><ele>367.0</ele><time>2026-04-25T15:52:44.683Z</time></trkpt><trkpt lat="45.46690607020954" lon="7.969728037275828"><ele>367.0</ele><time>2026-04-25T15:52:45.683Z</time></trkpt><trkpt lat="45.466800495873606" lon="7.969875941292217"><ele>365.0</ele><time>2026-04-25T15:52:46.683Z</time></trkpt><trkpt lat="45.46670041005248" lon="7.970037726076892"><ele>363.0</ele><time>2026-04-25T15:52:47.683Z</time></trkpt><trkpt lat="45.466609038476975" lon="7.970210256754849"><ele>361.0</ele><time>2026-04-25T15:52:48.683Z</time></trkpt><trkpt lat="45.466522936589676" lon="7.970365732196533"><ele>359.0</ele><time>2026-04-25T15:52:49.683Z</time></trkpt><trkpt lat="45.4664469879255" lon="7.970505279947821"><ele>359.0</ele><time>2026-04-25T15:52:50.682Z</time></trkpt><trkpt lat="45.46636415566355" lon="7.970613797311181"><ele>359.0</ele><time>2026-04-25T15:52:51.682Z</time></trkpt><trkpt lat="45.466308497514405" lon="7.970715317723012"><ele>359.0</ele><time>2026-04-25T15:52:52.682Z</time></trkpt><trkpt lat="45.46625744591176" lon="7.970797953332074"><ele>359.0</ele><time>2026-04-25T15:52:53.682Z</time></trkpt><trkpt lat="45.466164313313634" lon="7.970857625470791"><ele>359.0</ele><time>2026-04-25T15:52:55.682Z</time></trkpt><trkpt lat="45.466094958268705" lon="7.970729294296682"><ele>356.79999999999995</ele><time>2026-04-25T15:52:57.682Z</time></trkpt><trkpt lat="45.466125913686625" lon="7.970640014769212"><ele>354.59999999999997</ele><time>2026-04-25T15:52:58.682Z</time></trkpt><trkpt lat="45.46614211299206" lon="7.970518664647361"><ele>352.4</ele><time>2026-04-25T15:52:59.682Z</time></trkpt><trkpt lat="45.466173248083095" lon="7.970378584704062"><ele>350.2</ele><time>2026-04-25T15:53:00.682Z</time></trkpt><trkpt lat="45.46620339065234" lon="7.970215946160357"><ele>348.0</ele><time>2026-04-25T15:53:01.682Z</time></trkpt><trkpt lat="45.46623751423274" lon="7.97004539910172"><ele>349.75</ele><time>2026-04-25T15:53:02.682Z</time></trkpt><trkpt lat="45.466280317201345" lon="7.969887376527296"><ele>351.5</ele><time>2026-04-25T15:53:03.682Z</time></trkpt><trkpt lat="45.46633516527291" lon="7.96973278002782"><ele>353.25</ele><time>2026-04-25T15:53:04.682Z</time></trkpt><trkpt lat="45.46639297578663" lon="7.969578170701311"><ele>355.0</ele><time>2026-04-25T15:53:05.682Z</time></trkpt><trkpt lat="45.46644217916079" lon="7.96942245639921"><ele>355.0</ele><time>2026-04-25T15:53:06.681Z</time></trkpt><trkpt lat="45.46648449082282" lon="7.969264593515137"><ele>355.0</ele><time>2026-04-25T15:53:07.681Z</time></trkpt><trkpt lat="45.46649841793084" lon="7.969101875408439"><ele>355.0</ele><time>2026-04-25T15:53:08.681Z</time></trkpt><trkpt lat="45.46651220031998" lon="7.96895392872634"><ele>355.0</ele><time>2026-04-25T15:53:09.681Z</time></trkpt><trkpt lat="45.466533109219824" lon="7.968813222515217"><ele>355.0</ele><time>2026-04-25T15:53:10.681Z</time></trkpt><trkpt lat="45.46659792950872" lon="7.968707512014794"><ele>353.0</ele><time>2026-04-25T15:53:11.681Z</time></trkpt><trkpt lat="45.466681495879904" lon="7.968618359944095"><ele>351.0</ele><time>2026-04-25T15:53:12.681Z</time></trkpt><trkpt lat="45.466783545870264" lon="7.968539101245382"><ele>349.0</ele><time>2026-04-25T15:53:13.681Z</time></trkpt><trkpt lat="45.46690101290456" lon="7.968450763492766"><ele>347.0</ele><time>2026-04-25T15:53:14.684Z</time></trkpt><trkpt lat="45.467033828721206" lon="7.968373789838228"><ele>347.0</ele><time>2026-04-25T15:53:15.684Z</time></trkpt><trkpt lat="45.467155090241214" lon="7.968259228179044"><ele>347.0</ele><time>2026-04-25T15:53:16.683Z</time></trkpt><trkpt lat="45.46726097627982" lon="7.968120384001079"><ele>347.0</ele><time>2026-04-25T15:53:17.683Z</time></trkpt><trkpt lat="45.467350729421575" lon="7.967975278296759"><ele>347.0</ele><time>2026-04-25T15:53:18.683Z</time></trkpt><trkpt lat="45.467414842481915" lon="7.9678338663408566"><ele>347.0</ele><time>2026-04-25T15:53:19.683Z</time></trkpt><trkpt lat="45.4674826288739" lon="7.967717617195056"><ele>347.0</ele><time>2026-04-25T15:53:20.682Z</time></trkpt><trkpt lat="45.467542557574426" lon="7.967603417321709"><ele>347.0</ele><time>2026-04-25T15:53:21.683Z</time></trkpt><trkpt lat="45.467548714013525" lon="7.967444053137938"><ele>347.0</ele><time>2026-04-25T15:53:22.683Z</time></trkpt><trkpt lat="45.46752803444565" lon="7.967289749670658"><ele>347.0</ele><time>2026-04-25T15:53:23.682Z</time></trkpt><trkpt lat="45.467512473047314" lon="7.967123966050574"><ele>344.25</ele><time>2026-04-25T15:53:24.683Z</time></trkpt><trkpt lat="45.46752227164576" lon="7.966944270556385"><ele>341.5</ele><time>2026-04-25T15:53:25.683Z</time></trkpt><trkpt lat="45.467548571073806" lon="7.9667464578168286"><ele>338.75</ele><time>2026-04-25T15:53:26.682Z</time></trkpt><trkpt lat="45.46758176960185" lon="7.966542313066175"><ele>336.0</ele><time>2026-04-25T15:53:27.682Z</time></trkpt><trkpt lat="45.46761790752083" lon="7.96633210969543"><ele>334.0</ele><time>2026-04-25T15:53:28.682Z</time></trkpt><trkpt lat="45.467652128247785" lon="7.9661241251834705"><ele>332.0</ele><time>2026-04-25T15:53:29.682Z</time></trkpt><trkpt lat="45.467689116099834" lon="7.965937763307123"><ele>330.0</ele><time>2026-04-25T15:53:30.682Z</time></trkpt><trkpt lat="45.46774703739147" lon="7.9657726392931965"><ele>328.0</ele><time>2026-04-25T15:53:31.682Z</time></trkpt><trkpt lat="45.467831274175865" lon="7.9656271594457575"><ele>328.5</ele><time>2026-04-25T15:53:32.682Z</time></trkpt><trkpt lat="45.46792333367239" lon="7.965474489407828"><ele>329.0</ele><time>2026-04-25T15:53:33.682Z</time></trkpt><trkpt lat="45.467992420717536" lon="7.965276959765818"><ele>329.5</ele><time>2026-04-25T15:53:34.682Z</time></trkpt><trkpt lat="45.468051942324045" lon="7.965082143710419"><ele>330.0</ele><time>2026-04-25T15:53:35.68Z</time></trkpt><trkpt lat="45.46811331440487" lon="7.964898344280787"><ele>330.0</ele><time>2026-04-25T15:53:36.678Z</time></trkpt><trkpt lat="45.46817217964993" lon="7.9647309497464"><ele>330.0</ele><time>2026-04-25T15:53:37.676Z</time></trkpt><trkpt lat="45.46822896615238" lon="7.96458757563117"><ele>330.0</ele><time>2026-04-25T15:53:38.674Z</time></trkpt><trkpt lat="45.468289169541926" lon="7.964471748462339"><ele>330.0</ele><time>2026-04-25T15:53:39.673Z</time></trkpt><trkpt lat="45.46837120484625" lon="7.964393446333148"><ele>330.0</ele><time>2026-04-25T15:53:40.671Z</time></trkpt><trkpt lat="45.468471957536075" lon="7.964346200269301"><ele>330.0</ele><time>2026-04-25T15:53:41.67Z</time></trkpt><trkpt lat="45.468588186929615" lon="7.964303910126214"><ele>330.0</ele><time>2026-04-25T15:53:42.668Z</time></trkpt><trkpt lat="45.46871817596003" lon="7.9642475299990005"><ele>330.0</ele><time>2026-04-25T15:53:43.667Z</time></trkpt><trkpt lat="45.46886441046605" lon="7.9642426193915155"><ele>330.0</ele><time>2026-04-25T15:53:44.666Z</time></trkpt><trkpt lat="45.4690191391205" lon="7.964257407973055"><ele>333.5</ele><time>2026-04-25T15:53:45.664Z</time></trkpt><trkpt lat="45.46916607600149" lon="7.964280174948177"><ele>337.0</ele><time>2026-04-25T15:53:46.663Z</time></trkpt><trkpt lat="45.46929648606871" lon="7.964304512177769"><ele>340.5</ele><time>2026-04-25T15:53:47.662Z</time></trkpt><trkpt lat="45.46942101028948" lon="7.9643113733838575"><ele>344.0</ele><time>2026-04-25T15:53:48.661Z</time></trkpt><trkpt lat="45.469545186307506" lon="7.964286029606952"><ele>346.25</ele><time>2026-04-25T15:53:49.66Z</time></trkpt><trkpt lat="45.46967044296122" lon="7.964224651507844"><ele>348.5</ele><time>2026-04-25T15:53:50.66Z</time></trkpt><trkpt lat="45.46980922614241" lon="7.964153144715066"><ele>350.75</ele><time>2026-04-25T15:53:51.659Z</time></trkpt><trkpt lat="45.469950355058174" lon="7.964059058842405"><ele>353.0</ele><time>2026-04-25T15:53:52.658Z</time></trkpt><trkpt lat="45.470099085240754" lon="7.963958253958616"><ele>349.6666666666667</ele><time>2026-04-25T15:53:53.657Z</time></trkpt><trkpt lat="45.470245351450004" lon="7.963833848661508"><ele>346.3333333333333</ele><time>2026-04-25T15:53:54.657Z</time></trkpt><trkpt lat="45.47039791777943" lon="7.963735505301858"><ele>343.0</ele><time>2026-04-25T15:53:55.656Z</time></trkpt><trkpt lat="45.47053956481846" lon="7.963637724555579"><ele>343.0</ele><time>2026-04-25T15:53:56.655Z</time></trkpt><trkpt lat="45.47067213781161" lon="7.963539935711702"><ele>343.0</ele><time>2026-04-25T15:53:57.655Z</time></trkpt><trkpt lat="45.470793592749565" lon="7.963432517852474"><ele>343.0</ele><time>2026-04-25T15:53:58.654Z</time></trkpt><trkpt lat="45.470908892871144" lon="7.96330644972171"><ele>343.0</ele><time>2026-04-25T15:53:59.654Z</time></trkpt><trkpt lat="45.47102114846953" lon="7.963157940421351"><ele>340.66666666666663</ele><time>2026-04-25T15:54:00.653Z</time></trkpt><trkpt lat="45.47114342260004" lon="7.962998543670011"><ele>338.3333333333333</ele><time>2026-04-25T15:54:01.653Z</time></trkpt><trkpt lat="45.47127161078608" lon="7.96284810366174"><ele>336.0</ele><time>2026-04-25T15:54:02.652Z</time></trkpt><trkpt lat="45.47139378810216" lon="7.96270608205834"><ele>336.0</ele><time>2026-04-25T15:54:03.652Z</time></trkpt><trkpt lat="45.4714992030799" lon="7.962552900331159"><ele>336.0</ele><time>2026-04-25T15:54:04.652Z</time></trkpt><trkpt lat="45.47160949475709" lon="7.962417323655021"><ele>336.0</ele><time>2026-04-25T15:54:05.651Z</time></trkpt><trkpt lat="45.47172575368734" lon="7.962308668821528"><ele>336.0</ele><time>2026-04-25T15:54:06.651Z</time></trkpt><trkpt lat="45.47184438758991" lon="7.962230700869288"><ele>335.5</ele><time>2026-04-25T15:54:07.651Z</time></trkpt><trkpt lat="45.471951155515185" lon="7.962124439872237"><ele>335.0</ele><time>2026-04-25T15:54:08.65Z</time></trkpt><trkpt lat="45.47204544444493" lon="7.961977490989793"><ele>334.5</ele><time>2026-04-25T15:54:09.65Z</time></trkpt><trkpt lat="45.472135456499515" lon="7.961810027751609"><ele>334.0</ele><time>2026-04-25T15:54:10.65Z</time></trkpt><trkpt lat="45.472231310889654" lon="7.961623330005008"><ele>327.3333333333333</ele><time>2026-04-25T15:54:11.649Z</time></trkpt><trkpt lat="45.47233058010413" lon="7.961422671964789"><ele>320.6666666666667</ele><time>2026-04-25T15:54:12.649Z</time></trkpt><trkpt lat="45.47241836726107" lon="7.961224768897747"><ele>314.0</ele><time>2026-04-25T15:54:13.649Z</time></trkpt><trkpt lat="45.472508896250275" lon="7.961048869277969"><ele>307.33333333333337</ele><time>2026-04-25T15:54:14.649Z</time></trkpt><trkpt lat="45.4725613573936" lon="7.960841860656977"><ele>300.6666666666667</ele><time>2026-04-25T15:54:15.648Z</time></trkpt><trkpt lat="45.47257798179912" lon="7.960620822885053"><ele>294.0</ele><time>2026-04-25T15:54:16.648Z</time></trkpt><trkpt lat="45.47257236794137" lon="7.960407315393858"><ele>294.0</ele><time>2026-04-25T15:54:17.648Z</time></trkpt><trkpt lat="45.47255582828318" lon="7.960190256269131"><ele>294.0</ele><time>2026-04-25T15:54:18.648Z</time></trkpt><trkpt lat="45.47249269218659" lon="7.9599814682109375"><ele>294.0</ele><time>2026-04-25T15:54:19.648Z</time></trkpt><trkpt lat="45.47242316167045" lon="7.959791999968265"><ele>293.0</ele><time>2026-04-25T15:54:20.647Z</time></trkpt><trkpt lat="45.47236225986779" lon="7.959621357808085"><ele>292.0</ele><time>2026-04-25T15:54:21.647Z</time></trkpt><trkpt lat="45.472310141171846" lon="7.959467917711297"><ele>291.0</ele><time>2026-04-25T15:54:22.647Z</time></trkpt><trkpt lat="45.472276498980236" lon="7.9593217058585175"><ele>290.0</ele><time>2026-04-25T15:54:23.647Z</time></trkpt><trkpt lat="45.47224825347703" lon="7.959151020130942"><ele>290.0</ele><time>2026-04-25T15:54:24.647Z</time></trkpt><trkpt lat="45.47225971732648" lon="7.958967014032794"><ele>290.0</ele><time>2026-04-25T15:54:25.647Z</time></trkpt><trkpt lat="45.472280599204844" lon="7.958780331974668"><ele>290.0</ele><time>2026-04-25T15:54:26.647Z</time></trkpt><trkpt lat="45.472300918363324" lon="7.958592110792831"><ele>290.0</ele><time>2026-04-25T15:54:27.646Z</time></trkpt><trkpt lat="45.472321212259004" lon="7.958387999919673"><ele>288.6666666666667</ele><time>2026-04-25T15:54:28.646Z</time></trkpt><trkpt lat="45.47226965518645" lon="7.958197221633513"><ele>287.3333333333333</ele><time>2026-04-25T15:54:29.646Z</time></trkpt><trkpt lat="45.47220401277995" lon="7.957993237875161"><ele>286.0</ele><time>2026-04-25T15:54:30.646Z</time></trkpt><trkpt lat="45.47214709144333" lon="7.957768263327274"><ele>282.3333333333333</ele><time>2026-04-25T15:54:31.646Z</time></trkpt><trkpt lat="45.472085697954846" lon="7.957556343942235"><ele>278.6666666666667</ele><time>2026-04-25T15:54:32.646Z</time></trkpt><trkpt lat="45.47202374333005" lon="7.957344378584533"><ele>275.0</ele><time>2026-04-25T15:54:33.646Z</time></trkpt><trkpt lat="45.471982101153806" lon="7.957125899172685"><ele>273.6666666666667</ele><time>2026-04-25T15:54:34.646Z</time></trkpt><trkpt lat="45.47192515212995" lon="7.95691673102983"><ele>272.3333333333333</ele><time>2026-04-25T15:54:35.646Z</time></trkpt><trkpt lat="45.47185360069513" lon="7.9567117205901186"><ele>271.0</ele><time>2026-04-25T15:54:36.645Z</time></trkpt><trkpt lat="45.47179550479563" lon="7.956490777666062"><ele>269.66666666666663</ele><time>2026-04-25T15:54:37.645Z</time></trkpt><trkpt lat="45.47173417742495" lon="7.956271334530428"><ele>268.3333333333333</ele><time>2026-04-25T15:54:38.645Z</time></trkpt><trkpt lat="45.47167933614871" lon="7.956065547446352"><ele>267.0</ele><time>2026-04-25T15:54:39.645Z</time></trkpt><trkpt lat="45.47163719424876" lon="7.955858077910866"><ele>266.75</ele><time>2026-04-25T15:54:40.645Z</time></trkpt><trkpt lat="45.47158746480303" lon="7.955673867006447"><ele>266.5</ele><time>2026-04-25T15:54:41.645Z</time></trkpt><trkpt lat="45.47154568053414" lon="7.955504642024162"><ele>266.25</ele><time>2026-04-25T15:54:42.645Z</time></trkpt><trkpt lat="45.4715123793467" lon="7.95536044032312"><ele>266.0</ele><time>2026-04-25T15:54:43.645Z</time></trkpt><trkpt lat="45.47151064483732" lon="7.955228459958553"><ele>266.0</ele><time>2026-04-25T15:54:44.645Z</time></trkpt><trkpt lat="45.47153429879372" lon="7.955102265631624"><ele>266.0</ele><time>2026-04-25T15:54:45.645Z</time></trkpt><trkpt lat="45.47156437984705" lon="7.954957785601216"><ele>266.0</ele><time>2026-04-25T15:54:46.645Z</time></trkpt><trkpt lat="45.471593990873636" lon="7.954806004051717"><ele>266.0</ele><time>2026-04-25T15:54:47.644Z</time></trkpt><trkpt lat="45.47158995737138" lon="7.954632146633638"><ele>266.0</ele><time>2026-04-25T15:54:48.644Z</time></trkpt><trkpt lat="45.47157924778902" lon="7.954457499445987"><ele>266.0</ele><time>2026-04-25T15:54:49.644Z</time></trkpt><trkpt lat="45.47156685235845" lon="7.9542637867480845"><ele>266.0</ele><time>2026-04-25T15:54:50.644Z</time></trkpt><trkpt lat="45.471552175592876" lon="7.954062998949223"><ele>266.0</ele><time>2026-04-25T15:54:51.644Z</time></trkpt><trkpt lat="45.47152808686573" lon="7.9538637396627125"><ele>266.0</ele><time>2026-04-25T15:54:52.644Z</time></trkpt><trkpt lat="45.471514181334804" lon="7.95366245620092"><ele>265.25</ele><time>2026-04-25T15:54:53.644Z</time></trkpt><trkpt lat="45.471524386080816" lon="7.953465819919403"><ele>264.5</ele><time>2026-04-25T15:54:54.644Z</time></trkpt><trkpt lat="45.471539582344626" lon="7.953260199816287"><ele>263.75</ele><time>2026-04-25T15:54:55.644Z</time></trkpt><trkpt lat="45.47154933077207" lon="7.953045541466588"><ele>263.0</ele><time>2026-04-25T15:54:56.644Z</time></trkpt><trkpt lat="45.471551022441815" lon="7.9528283060864835"><ele>261.5</ele><time>2026-04-25T15:54:57.644Z</time></trkpt><trkpt lat="45.47154622194884" lon="7.952614406599624"><ele>260.0</ele><time>2026-04-25T15:54:58.644Z</time></trkpt><trkpt lat="45.47153685216339" lon="7.952408328805291"><ele>258.5</ele><time>2026-04-25T15:54:59.644Z</time></trkpt><trkpt lat="45.47151574310835" lon="7.952210453075837"><ele>257.0</ele><time>2026-04-25T15:55:00.643Z</time></trkpt><trkpt lat="45.471471937082335" lon="7.9520300243867"><ele>255.5</ele><time>2026-04-25T15:55:01.643Z</time></trkpt><trkpt lat="45.47141800119041" lon="7.951858579588581"><ele>254.0</ele><time>2026-04-25T15:55:02.643Z</time></trkpt><trkpt lat="45.47136425328471" lon="7.951689820895389"><ele>252.5</ele><time>2026-04-25T15:55:03.643Z</time></trkpt><trkpt lat="45.47130725962446" lon="7.951523097964767"><ele>251.0</ele><time>2026-04-25T15:55:04.643Z</time></trkpt><trkpt lat="45.471254236836614" lon="7.951369479725038"><ele>249.20000000000002</ele><time>2026-04-25T15:55:05.643Z</time></trkpt><trkpt lat="45.47119258938568" lon="7.951236520664839"><ele>247.40000000000003</ele><time>2026-04-25T15:55:06.643Z</time></trkpt><trkpt lat="45.47115881373048" lon="7.951092876802828"><ele>245.6</ele><time>2026-04-25T15:55:07.643Z</time></trkpt><trkpt lat="45.471133644697986" lon="7.950947343870754"><ele>243.8</ele><time>2026-04-25T15:55:08.643Z</time></trkpt><trkpt lat="45.4711272885706" lon="7.950789334885438"><ele>242.0</ele><time>2026-04-25T15:55:09.643Z</time></trkpt><trkpt lat="45.4711055820415" lon="7.950633558517051"><ele>242.0</ele><time>2026-04-25T15:55:10.643Z</time></trkpt><trkpt lat="45.47108296404628" lon="7.950473931158853"><ele>242.0</ele><time>2026-04-25T15:55:11.643Z</time></trkpt><trkpt lat="45.471059027660466" lon="7.950313117024509"><ele>242.0</ele><time>2026-04-25T15:55:12.643Z</time></trkpt><trkpt lat="45.47103214219594" lon="7.950147313637862"><ele>242.0</ele><time>2026-04-25T15:55:13.643Z</time></trkpt><trkpt lat="45.470990817025395" lon="7.949981688874818"><ele>242.5</ele><time>2026-04-25T15:55:14.643Z</time></trkpt><trkpt lat="45.470964490691806" lon="7.949806658589535"><ele>243.0</ele><time>2026-04-25T15:55:15.642Z</time></trkpt><trkpt lat="45.47092808401435" lon="7.9496335726078"><ele>243.5</ele><time>2026-04-25T15:55:16.642Z</time></trkpt><trkpt lat="45.47090976349943" lon="7.949451427892627"><ele>244.0</ele><time>2026-04-25T15:55:17.642Z</time></trkpt><trkpt lat="45.47087561886077" lon="7.9492820414092815"><ele>244.0</ele><time>2026-04-25T15:55:18.642Z</time></trkpt><trkpt lat="45.47084185326193" lon="7.949130132360546"><ele>243.99999999999997</ele><time>2026-04-25T15:55:19.642Z</time></trkpt><trkpt lat="45.470808381418976" lon="7.948985724690111"><ele>243.99999999999997</ele><time>2026-04-25T15:55:20.644Z</time></trkpt><trkpt lat="45.470778502176806" lon="7.948860430636794"><ele>244.0</ele><time>2026-04-25T15:55:21.644Z</time></trkpt><trkpt lat="45.47073738137828" lon="7.948757078988672"><ele>244.0</ele><time>2026-04-25T15:55:22.644Z</time></trkpt><trkpt lat="45.47071511865338" lon="7.948660619747017"><ele>244.0</ele><time>2026-04-25T15:55:23.644Z</time></trkpt><trkpt lat="45.47069001925811" lon="7.9485264140741165"><ele>243.99999999999997</ele><time>2026-04-25T15:55:25.644Z</time></trkpt><trkpt lat="45.47066378080035" lon="7.948416072266808"><ele>243.99999999999997</ele><time>2026-04-25T15:55:28.644Z</time></trkpt><trkpt lat="45.47056963887069" lon="7.948598441380059"><ele>244.0</ele><time>2026-04-25T15:55:33.643Z</time></trkpt><trkpt lat="45.47055243047466" lon="7.948693999053484"><ele>244.0</ele><time>2026-04-25T15:55:34.643Z</time></trkpt><trkpt lat="45.47052815155689" lon="7.948810277379377"><ele>243.99999999999997</ele><time>2026-04-25T15:55:35.643Z</time></trkpt><trkpt lat="45.470507782115966" lon="7.948923565226257"><ele>244.0</ele><time>2026-04-25T15:55:36.643Z</time></trkpt><trkpt lat="45.470485912623595" lon="7.9490320513644335"><ele>244.0</ele><time>2026-04-25T15:55:37.643Z</time></trkpt><trkpt lat="45.470464444570105" lon="7.949144494281667"><ele>244.0</ele><time>2026-04-25T15:55:38.643Z</time></trkpt><trkpt lat="45.47044024443038" lon="7.949263910048314"><ele>243.99999999999997</ele><time>2026-04-25T15:55:39.643Z</time></trkpt><trkpt lat="45.47041107071679" lon="7.949390963559322"><ele>244.0</ele><time>2026-04-25T15:55:40.643Z</time></trkpt><trkpt lat="45.470381216465924" lon="7.949519960798326"><ele>243.66666666666666</ele><time>2026-04-25T15:55:41.643Z</time></trkpt><trkpt lat="45.470352509926734" lon="7.949643049928005"><ele>243.33333333333331</ele><time>2026-04-25T15:55:42.642Z</time></trkpt><trkpt lat="45.47032051851435" lon="7.949751583275025"><ele>243.0</ele><time>2026-04-25T15:55:43.642Z</time></trkpt><trkpt lat="45.47029194701961" lon="7.94983759761969"><ele>242.66666666666669</ele><time>2026-04-25T15:55:44.642Z</time></trkpt><trkpt lat="45.470262000144466" lon="7.949922791368393"><ele>242.33333333333334</ele><time>2026-04-25T15:55:46.642Z</time></trkpt><trkpt lat="45.47014669292928" lon="7.949819012109995"><ele>242.0</ele><time>2026-04-25T15:55:50.642Z</time></trkpt><trkpt lat="45.47008795958269" lon="7.9497721739099045"><ele>242.00000000000003</ele><time>2026-04-25T15:55:51.642Z</time></trkpt><trkpt lat="45.4700311093667" lon="7.949695169208177"><ele>242.0</ele><time>2026-04-25T15:55:52.642Z</time></trkpt><trkpt lat="45.469968822583496" lon="7.949617850435184"><ele>242.0</ele><time>2026-04-25T15:55:53.642Z</time></trkpt><trkpt lat="45.469905837199555" lon="7.94955694516825"><ele>242.0</ele><time>2026-04-25T15:55:54.642Z</time></trkpt><trkpt lat="45.46984016132223" lon="7.9495033657288525"><ele>242.00000000000003</ele><time>2026-04-25T15:55:55.642Z</time></trkpt><trkpt lat="45.4697770152651" lon="7.949451207042021"><ele>242.0</ele><time>2026-04-25T15:55:56.642Z</time></trkpt><trkpt lat="45.469719809734954" lon="7.949392900336838"><ele>242.00000000000003</ele><time>2026-04-25T15:55:57.642Z</time></trkpt><trkpt lat="45.469665714184764" lon="7.9493265571451035"><ele>242.0</ele><time>2026-04-25T15:55:58.641Z</time></trkpt><trkpt lat="45.4696127503145" lon="7.949262680814513"><ele>242.0</ele><time>2026-04-25T15:55:59.641Z</time></trkpt><trkpt lat="45.4695521925562" lon="7.949223972085122"><ele>242.0</ele><time>2026-04-25T15:56:00.641Z</time></trkpt><trkpt lat="45.46943655303334" lon="7.949261449474403"><ele>242.00000000000003</ele><time>2026-04-25T15:56:02.641Z</time></trkpt><trkpt lat="45.4693976684587" lon="7.949340498426365"><ele>242.0</ele><time>2026-04-25T15:56:03.641Z</time></trkpt><trkpt lat="45.46939183448136" lon="7.94943936809959"><ele>241.6</ele><time>2026-04-25T15:56:04.641Z</time></trkpt><trkpt lat="45.46940800851442" lon="7.9495478615282344"><ele>241.2</ele><time>2026-04-25T15:56:05.641Z</time></trkpt><trkpt lat="45.469425395423876" lon="7.949679342011495"><ele>240.8</ele><time>2026-04-25T15:56:06.641Z</time></trkpt><trkpt lat="45.4694286630505" lon="7.949827725236646"><ele>240.4</ele><time>2026-04-25T15:56:07.641Z</time></trkpt><trkpt lat="45.46942032146993" lon="7.949996243956322"><ele>240.0</ele><time>2026-04-25T15:56:08.641Z</time></trkpt><trkpt lat="45.46940346191744" lon="7.9501705959215"><ele>240.0</ele><time>2026-04-25T15:56:09.641Z</time></trkpt><trkpt lat="45.469381478505255" lon="7.950341505984179"><ele>240.0</ele><time>2026-04-25T15:56:10.641Z</time></trkpt><trkpt lat="45.469353285911794" lon="7.950504802902851"><ele>240.0</ele><time>2026-04-25T15:56:11.641Z</time></trkpt><trkpt lat="45.46932064820731" lon="7.95066919349143"><ele>240.0</ele><time>2026-04-25T15:56:12.641Z</time></trkpt><trkpt lat="45.46928132463696" lon="7.950836911679917"><ele>240.5</ele><time>2026-04-25T15:56:13.641Z</time></trkpt><trkpt lat="45.469238558783026" lon="7.951002986237508"><ele>241.0</ele><time>2026-04-25T15:56:14.641Z</time></trkpt><trkpt lat="45.46918717823087" lon="7.951171182164136"><ele>241.5</ele><time>2026-04-25T15:56:15.64Z</time></trkpt><trkpt lat="45.4691314225844" lon="7.951340304460672"><ele>242.0</ele><time>2026-04-25T15:56:16.64Z</time></trkpt><trkpt lat="45.46906964192594" lon="7.95151090556092"><ele>242.0</ele><time>2026-04-25T15:56:17.64Z</time></trkpt><trkpt lat="45.469000449659596" lon="7.951679498293554"><ele>242.0</ele><time>2026-04-25T15:56:18.64Z</time></trkpt><trkpt lat="45.468924963418424" lon="7.951840124968815"><ele>242.0</ele><time>2026-04-25T15:56:19.64Z</time></trkpt><trkpt lat="45.46884655177662" lon="7.951994271111804"><ele>242.0</ele><time>2026-04-25T15:56:20.64Z</time></trkpt><trkpt lat="45.46876778912125" lon="7.952152093587284"><ele>241.5</ele><time>2026-04-25T15:56:21.64Z</time></trkpt><trkpt lat="45.46868861816799" lon="7.952308200259843"><ele>241.0</ele><time>2026-04-25T15:56:22.64Z</time></trkpt><trkpt lat="45.46860965910876" lon="7.952467103864736"><ele>240.5</ele><time>2026-04-25T15:56:23.64Z</time></trkpt><trkpt lat="45.46853091331568" lon="7.952628529157387"><ele>240.0</ele><time>2026-04-25T15:56:24.64Z</time></trkpt><trkpt lat="45.4684499095579" lon="7.9527915488235745"><ele>239.75</ele><time>2026-04-25T15:56:25.64Z</time></trkpt><trkpt lat="45.468368536195776" lon="7.952955091330466"><ele>239.5</ele><time>2026-04-25T15:56:26.64Z</time></trkpt><trkpt lat="45.46828742287527" lon="7.9531186169336285"><ele>239.25</ele><time>2026-04-25T15:56:27.64Z</time></trkpt><trkpt lat="45.46820418239642" lon="7.953285106273158"><ele>239.0</ele><time>2026-04-25T15:56:28.64Z</time></trkpt><trkpt lat="45.468120884628455" lon="7.953456434643869"><ele>238.66666666666669</ele><time>2026-04-25T15:56:29.64Z</time></trkpt><trkpt lat="45.46803617638989" lon="7.953627035649826"><ele>238.33333333333331</ele><time>2026-04-25T15:56:30.64Z</time></trkpt><trkpt lat="45.46794664648208" lon="7.953800720679993"><ele>238.0</ele><time>2026-04-25T15:56:31.64Z</time></trkpt><trkpt lat="45.46785805275719" lon="7.953977606139415"><ele>237.66666666666666</ele><time>2026-04-25T15:56:32.639Z</time></trkpt><trkpt lat="45.46776858749714" lon="7.954157471050697"><ele>237.33333333333331</ele><time>2026-04-25T15:56:33.639Z</time></trkpt><trkpt lat="45.467676458414026" lon="7.954342252751923"><ele>237.0</ele><time>2026-04-25T15:56:34.639Z</time></trkpt><trkpt lat="45.46758203669817" lon="7.954528566273031"><ele>236.66666666666669</ele><time>2026-04-25T15:56:35.639Z</time></trkpt><trkpt lat="45.46748790081386" lon="7.954712527784031"><ele>236.33333333333334</ele><time>2026-04-25T15:56:36.639Z</time></trkpt><trkpt lat="45.467394882278846" lon="7.954891779349915"><ele>236.0</ele><time>2026-04-25T15:56:37.639Z</time></trkpt><trkpt lat="45.46730094857253" lon="7.955076408721553"><ele>236.66666666666669</ele><time>2026-04-25T15:56:38.639Z</time></trkpt><trkpt lat="45.467206754327144" lon="7.955269111601977"><ele>237.33333333333331</ele><time>2026-04-25T15:56:39.639Z</time></trkpt><trkpt lat="45.46711009927681" lon="7.955465330073665"><ele>238.0</ele><time>2026-04-25T15:56:40.639Z</time></trkpt><trkpt lat="45.46701096966595" lon="7.955670578846417"><ele>239.0</ele><time>2026-04-25T15:56:41.639Z</time></trkpt><trkpt lat="45.466906961340946" lon="7.955877176783619"><ele>240.0</ele><time>2026-04-25T15:56:42.639Z</time></trkpt><trkpt lat="45.46680043360206" lon="7.956085443228241"><ele>241.0</ele><time>2026-04-25T15:56:43.639Z</time></trkpt><trkpt lat="45.46669437854046" lon="7.956299647304794"><ele>241.0</ele><time>2026-04-25T15:56:44.639Z</time></trkpt><trkpt lat="45.46658686433065" lon="7.956516929877968"><ele>241.0</ele><time>2026-04-25T15:56:45.639Z</time></trkpt><trkpt lat="45.466477719225914" lon="7.95674139472204"><ele>241.0</ele><time>2026-04-25T15:56:46.639Z</time></trkpt><trkpt lat="45.466365564855096" lon="7.956965002210006"><ele>241.0</ele><time>2026-04-25T15:56:47.639Z</time></trkpt><trkpt lat="45.46625319926511" lon="7.957189340393932"><ele>241.0</ele><time>2026-04-25T15:56:48.638Z</time></trkpt><trkpt lat="45.46614492586997" lon="7.957404696440401"><ele>241.0</ele><time>2026-04-25T15:56:49.638Z</time></trkpt><trkpt lat="45.466041844406995" lon="7.957612958854696"><ele>240.66666666666666</ele><time>2026-04-25T15:56:50.638Z</time></trkpt><trkpt lat="45.46593925146775" lon="7.957823128558788"><ele>240.33333333333331</ele><time>2026-04-25T15:56:51.638Z</time></trkpt><trkpt lat="45.46583539857675" lon="7.958035732496881"><ele>240.0</ele><time>2026-04-25T15:56:52.638Z</time></trkpt><trkpt lat="45.46573094806309" lon="7.95824915000226"><ele>239.66666666666669</ele><time>2026-04-25T15:56:53.638Z</time></trkpt><trkpt lat="45.46562200379284" lon="7.958462516789116"><ele>239.33333333333334</ele><time>2026-04-25T15:56:54.638Z</time></trkpt><trkpt lat="45.465512352343836" lon="7.958675485975849"><ele>239.0</ele><time>2026-04-25T15:56:55.638Z</time></trkpt><trkpt lat="45.4654023547333" lon="7.958887597365117"><ele>239.0</ele><time>2026-04-25T15:56:56.638Z</time></trkpt><trkpt lat="45.46529298162858" lon="7.95909989820669"><ele>239.0</ele><time>2026-04-25T15:56:57.638Z</time></trkpt><trkpt lat="45.46518341057001" lon="7.959311397759733"><ele>239.0</ele><time>2026-04-25T15:56:58.638Z</time></trkpt><trkpt lat="45.465076905775646" lon="7.959527560159015"><ele>239.33333333333334</ele><time>2026-04-25T15:56:59.638Z</time></trkpt><trkpt lat="45.464972338571144" lon="7.959745653109794"><ele>239.66666666666669</ele><time>2026-04-25T15:57:00.638Z</time></trkpt><trkpt lat="45.46486830122421" lon="7.959963066995569"><ele>240.0</ele><time>2026-04-25T15:57:01.638Z</time></trkpt><trkpt lat="45.46476095898546" lon="7.960179128834442"><ele>240.0</ele><time>2026-04-25T15:57:02.638Z</time></trkpt><trkpt lat="45.4646532839166" lon="7.960393625477535"><ele>240.0</ele><time>2026-04-25T15:57:03.638Z</time></trkpt><trkpt lat="45.46454728933879" lon="7.960607321301361"><ele>240.0</ele><time>2026-04-25T15:57:04.638Z</time></trkpt><trkpt lat="45.464439719993806" lon="7.960820799855962"><ele>239.0</ele><time>2026-04-25T15:57:05.637Z</time></trkpt><trkpt lat="45.46433267355317" lon="7.961032636650286"><ele>238.0</ele><time>2026-04-25T15:57:06.637Z</time></trkpt><trkpt lat="45.46422567178319" lon="7.961243912842193"><ele>237.0</ele><time>2026-04-25T15:57:07.637Z</time></trkpt><trkpt lat="45.464119657930404" lon="7.961454239596942"><ele>237.0</ele><time>2026-04-25T15:57:08.637Z</time></trkpt><trkpt lat="45.46401380595367" lon="7.961665055798986"><ele>237.0</ele><time>2026-04-25T15:57:09.637Z</time></trkpt><trkpt lat="45.46390657487486" lon="7.96187622393772"><ele>237.0</ele><time>2026-04-25T15:57:10.637Z</time></trkpt><trkpt lat="45.463797667913894" lon="7.962085580739269"><ele>237.0</ele><time>2026-04-25T15:57:11.637Z</time></trkpt><trkpt lat="45.46368986313041" lon="7.96230007153079"><ele>237.0</ele><time>2026-04-25T15:57:12.637Z</time></trkpt><trkpt lat="45.46358362946035" lon="7.962513276180139"><ele>237.0</ele><time>2026-04-25T15:57:13.637Z</time></trkpt><trkpt lat="45.46347668851482" lon="7.9627291686369865"><ele>237.0</ele><time>2026-04-25T15:57:14.637Z</time></trkpt><trkpt lat="45.463369418292686" lon="7.9629454891023626"><ele>237.0</ele><time>2026-04-25T15:57:15.637Z</time></trkpt><trkpt lat="45.46326213326471" lon="7.9631597252237905"><ele>237.0</ele><time>2026-04-25T15:57:16.637Z</time></trkpt><trkpt lat="45.46315527881459" lon="7.963375034275868"><ele>237.0</ele><time>2026-04-25T15:57:17.637Z</time></trkpt><trkpt lat="45.46304975417354" lon="7.963592796370442"><ele>237.0</ele><time>2026-04-25T15:57:18.637Z</time></trkpt><trkpt lat="45.46294304886404" lon="7.963806930242582"><ele>237.0</ele><time>2026-04-25T15:57:19.637Z</time></trkpt><trkpt lat="45.46283532798243" lon="7.9640206017101125"><ele>236.66666666666669</ele><time>2026-04-25T15:57:20.637Z</time></trkpt><trkpt lat="45.46272689511193" lon="7.964233479554171"><ele>236.33333333333334</ele><time>2026-04-25T15:57:21.637Z</time></trkpt><trkpt lat="45.46262140147329" lon="7.96444374591222"><ele>236.0</ele><time>2026-04-25T15:57:22.636Z</time></trkpt><trkpt lat="45.46251622648702" lon="7.964656849142374"><ele>236.0</ele><time>2026-04-25T15:57:23.636Z</time></trkpt><trkpt lat="45.46240850435251" lon="7.964869329954157"><ele>236.0</ele><time>2026-04-25T15:57:24.636Z</time></trkpt><trkpt lat="45.46229916082158" lon="7.96508358791903"><ele>236.0</ele><time>2026-04-25T15:57:25.636Z</time></trkpt><trkpt lat="45.462190794390715" lon="7.965301345632392"><ele>236.0</ele><time>2026-04-25T15:57:26.638Z</time></trkpt><trkpt lat="45.462082450176815" lon="7.96552033253444"><ele>236.0</ele><time>2026-04-25T15:57:27.638Z</time></trkpt><trkpt lat="45.461970037788646" lon="7.965737674610407"><ele>236.0</ele><time>2026-04-25T15:57:28.638Z</time></trkpt><trkpt lat="45.46185785574541" lon="7.965958375792504"><ele>236.0</ele><time>2026-04-25T15:57:29.639Z</time></trkpt><trkpt lat="45.46174516685309" lon="7.966179715969647"><ele>236.0</ele><time>2026-04-25T15:57:30.638Z</time></trkpt><trkpt lat="45.46163237866648" lon="7.9664040308597395"><ele>236.0</ele><time>2026-04-25T15:57:31.638Z</time></trkpt><trkpt lat="45.46152144979345" lon="7.966628676287812"><ele>235.66666666666669</ele><time>2026-04-25T15:57:32.638Z</time></trkpt><trkpt lat="45.46140875617177" lon="7.966854553821568"><ele>235.33333333333331</ele><time>2026-04-25T15:57:33.639Z</time></trkpt><trkpt lat="45.461294403385516" lon="7.967084068648752"><ele>235.0</ele><time>2026-04-25T15:57:34.638Z</time></trkpt><trkpt lat="45.4611816141127" lon="7.967311179371582"><ele>235.66666666666666</ele><time>2026-04-25T15:57:35.637Z</time></trkpt><trkpt lat="45.46106905507235" lon="7.967537597271854"><ele>236.33333333333331</ele><time>2026-04-25T15:57:36.638Z</time></trkpt><trkpt lat="45.460957408598205" lon="7.967767106586078"><ele>237.0</ele><time>2026-04-25T15:57:37.638Z</time></trkpt><trkpt lat="45.46084449712239" lon="7.967994932716306"><ele>237.0</ele><time>2026-04-25T15:57:38.638Z</time></trkpt><trkpt lat="45.460732667493964" lon="7.9682224996551465"><ele>237.0</ele><time>2026-04-25T15:57:39.637Z</time></trkpt><trkpt lat="45.460621454220615" lon="7.968448737040837"><ele>237.0</ele><time>2026-04-25T15:57:40.637Z</time></trkpt><trkpt lat="45.460507620371" lon="7.968676710888944"><ele>236.33333333333331</ele><time>2026-04-25T15:57:41.637Z</time></trkpt><trkpt lat="45.460392748666685" lon="7.968903600853657"><ele>235.66666666666666</ele><time>2026-04-25T15:57:42.637Z</time></trkpt><trkpt lat="45.460276818208186" lon="7.969129812913807"><ele>235.0</ele><time>2026-04-25T15:57:43.637Z</time></trkpt><trkpt lat="45.460162684823125" lon="7.969358768615059"><ele>235.0</ele><time>2026-04-25T15:57:44.637Z</time></trkpt><trkpt lat="45.46004792584076" lon="7.969588372051999"><ele>235.0</ele><time>2026-04-25T15:57:45.637Z</time></trkpt><trkpt lat="45.459933111579566" lon="7.969814300655835"><ele>235.0</ele><time>2026-04-25T15:57:46.637Z</time></trkpt><trkpt lat="45.459820871272264" lon="7.970039021787401"><ele>235.0</ele><time>2026-04-25T15:57:47.637Z</time></trkpt><trkpt lat="45.45970877499535" lon="7.970263525885264"><ele>235.0</ele><time>2026-04-25T15:57:48.637Z</time></trkpt><trkpt lat="45.45959656866773" lon="7.9704889349613826"><ele>235.0</ele><time>2026-04-25T15:57:49.637Z</time></trkpt><trkpt lat="45.459485233243235" lon="7.970713704505905"><ele>235.0</ele><time>2026-04-25T15:57:50.637Z</time></trkpt><trkpt lat="45.45937318355307" lon="7.970940055371082"><ele>235.0</ele><time>2026-04-25T15:57:51.637Z</time></trkpt><trkpt lat="45.45925781443363" lon="7.971166164036783"><ele>235.0</ele><time>2026-04-25T15:57:52.637Z</time></trkpt><trkpt lat="45.4591437391083" lon="7.971396314968826"><ele>235.0</ele><time>2026-04-25T15:57:53.637Z</time></trkpt><trkpt lat="45.45902954960382" lon="7.971622698580841"><ele>235.0</ele><time>2026-04-25T15:57:54.637Z</time></trkpt><trkpt lat="45.45891564020696" lon="7.971851219722864"><ele>235.0</ele><time>2026-04-25T15:57:55.637Z</time></trkpt><trkpt lat="45.45880321758641" lon="7.972079936098938"><ele>235.0</ele><time>2026-04-25T15:57:56.636Z</time></trkpt><trkpt lat="45.45869112668633" lon="7.972305906942874"><ele>235.0</ele><time>2026-04-25T15:57:57.636Z</time></trkpt><trkpt lat="45.45858335116842" lon="7.972524423250329"><ele>235.0</ele><time>2026-04-25T15:57:58.636Z</time></trkpt><trkpt lat="45.458478738969944" lon="7.972734686221738"><ele>234.66666666666666</ele><time>2026-04-25T15:57:59.636Z</time></trkpt><trkpt lat="45.45837602945931" lon="7.972936886313794"><ele>234.33333333333331</ele><time>2026-04-25T15:58:00.636Z</time></trkpt><trkpt lat="45.45827665249269" lon="7.973132542985656"><ele>234.0</ele><time>2026-04-25T15:58:01.636Z</time></trkpt><trkpt lat="45.45818373339824" lon="7.973315927904195"><ele>234.0</ele><time>2026-04-25T15:58:02.636Z</time></trkpt><trkpt lat="45.458098020920374" lon="7.973489738671318"><ele>234.0</ele><time>2026-04-25T15:58:03.636Z</time></trkpt><trkpt lat="45.4580182686575" lon="7.973650514539053"><ele>234.0</ele><time>2026-04-25T15:58:04.636Z</time></trkpt><trkpt lat="45.457944446466186" lon="7.973803664788971"><ele>234.0</ele><time>2026-04-25T15:58:05.636Z</time></trkpt><trkpt lat="45.45787008177751" lon="7.973944378524828"><ele>234.0</ele><time>2026-04-25T15:58:06.636Z</time></trkpt><trkpt lat="45.45779604182392" lon="7.974060767923157"><ele>233.99999999999997</ele><time>2026-04-25T15:58:07.636Z</time></trkpt><trkpt lat="45.45773024808174" lon="7.974154719845011"><ele>233.99999999999997</ele><time>2026-04-25T15:58:08.636Z</time></trkpt><trkpt lat="45.45766607333154" lon="7.974237929494336"><ele>234.0</ele><time>2026-04-25T15:58:09.636Z</time></trkpt><trkpt lat="45.45759402672643" lon="7.974299005667006"><ele>234.0</ele><time>2026-04-25T15:58:10.636Z</time></trkpt><trkpt lat="45.457512535175475" lon="7.974347886307711"><ele>234.0</ele><time>2026-04-25T15:58:11.636Z</time></trkpt><trkpt lat="45.45744150167217" lon="7.974500008858015"><ele>233.99999999999997</ele><time>2026-04-25T15:58:13.635Z</time></trkpt><trkpt lat="45.457425509153346" lon="7.974625488510713"><ele>233.99999999999997</ele><time>2026-04-25T15:58:14.635Z</time></trkpt><trkpt lat="45.457402990059094" lon="7.974769354281804"><ele>234.0</ele><time>2026-04-25T15:58:15.635Z</time></trkpt><trkpt lat="45.45735546967049" lon="7.974917065025645"><ele>234.0</ele><time>2026-04-25T15:58:16.635Z</time></trkpt><trkpt lat="45.45729137342638" lon="7.97506944040299"><ele>234.5</ele><time>2026-04-25T15:58:17.635Z</time></trkpt><trkpt lat="45.45721614624736" lon="7.975228122832729"><ele>235.0</ele><time>2026-04-25T15:58:18.635Z</time></trkpt><trkpt lat="45.457135696083384" lon="7.975399775028884"><ele>235.5</ele><time>2026-04-25T15:58:19.635Z</time></trkpt><trkpt lat="45.45705227455033" lon="7.975577439036749"><ele>236.0</ele><time>2026-04-25T15:58:20.635Z</time></trkpt><trkpt lat="45.45696544196946" lon="7.975757404652283"><ele>236.0</ele><time>2026-04-25T15:58:21.635Z</time></trkpt><trkpt lat="45.45688234753758" lon="7.9759281728010984"><ele>236.0</ele><time>2026-04-25T15:58:22.635Z</time></trkpt><trkpt lat="45.456798576083386" lon="7.976099462672121"><ele>236.0</ele><time>2026-04-25T15:58:23.635Z</time></trkpt><trkpt lat="45.45671113097886" lon="7.976273761084877"><ele>236.0</ele><time>2026-04-25T15:58:24.635Z</time></trkpt><trkpt lat="45.456622013623424" lon="7.976451445637724"><ele>236.0</ele><time>2026-04-25T15:58:25.635Z</time></trkpt><trkpt lat="45.456534095691595" lon="7.9766320703342455"><ele>236.0</ele><time>2026-04-25T15:58:26.635Z</time></trkpt><trkpt lat="45.45644812019559" lon="7.97681628401209"><ele>236.0</ele><time>2026-04-25T15:58:27.635Z</time></trkpt><trkpt lat="45.456360206443684" lon="7.976995773901482"><ele>236.25</ele><time>2026-04-25T15:58:28.635Z</time></trkpt><trkpt lat="45.456274211172605" lon="7.9771701661521695"><ele>236.5</ele><time>2026-04-25T15:58:29.634Z</time></trkpt><trkpt lat="45.45619039348061" lon="7.977337071985713"><ele>236.75</ele><time>2026-04-25T15:58:30.634Z</time></trkpt><trkpt lat="45.45611009091606" lon="7.97749252161294"><ele>237.0</ele><time>2026-04-25T15:58:31.634Z</time></trkpt><trkpt lat="45.45604292013126" lon="7.977632641531928"><ele>237.0</ele><time>2026-04-25T15:58:32.634Z</time></trkpt><trkpt lat="45.45598864729036" lon="7.977750348774778"><ele>237.0</ele><time>2026-04-25T15:58:33.634Z</time></trkpt><trkpt lat="45.45594260718217" lon="7.977840634280973"><ele>237.0</ele><time>2026-04-25T15:58:34.634Z</time></trkpt><trkpt lat="45.45588121234421" lon="7.977961378535694"><ele>237.0</ele><time>2026-04-25T15:58:36.634Z</time></trkpt><trkpt lat="45.4558449187309" lon="7.978036797234598"><ele>237.0</ele><time>2026-04-25T15:58:38.634Z</time></trkpt><trkpt lat="45.45579273797819" lon="7.978147281208365"><ele>237.0</ele><time>2026-04-25T15:58:40.634Z</time></trkpt><trkpt lat="45.45574940556082" lon="7.97821717243875"><ele>237.0</ele><time>2026-04-25T15:58:41.634Z</time></trkpt><trkpt lat="45.4557071818495" lon="7.978308577184476"><ele>237.0</ele><time>2026-04-25T15:58:42.634Z</time></trkpt><trkpt lat="45.45566155971141" lon="7.978409155690428"><ele>237.0</ele><time>2026-04-25T15:58:43.634Z</time></trkpt><trkpt lat="45.45561670796573" lon="7.978506651428887"><ele>237.0</ele><time>2026-04-25T15:58:44.634Z</time></trkpt><trkpt lat="45.45556745277206" lon="7.978602857360962"><ele>237.0</ele><time>2026-04-25T15:58:45.634Z</time></trkpt><trkpt lat="45.45550638067236" lon="7.978727006853906"><ele>237.0</ele><time>2026-04-25T15:58:46.633Z</time></trkpt><trkpt lat="45.455435480987276" lon="7.978863196209454"><ele>237.0</ele><time>2026-04-25T15:58:47.633Z</time></trkpt><trkpt lat="45.455359641651356" lon="7.9790169175157235"><ele>237.0</ele><time>2026-04-25T15:58:48.633Z</time></trkpt><trkpt lat="45.4552792711675" lon="7.9791880668248645"><ele>237.0</ele><time>2026-04-25T15:58:49.633Z</time></trkpt><trkpt lat="45.4551947176697" lon="7.979364375550962"><ele>237.0</ele><time>2026-04-25T15:58:50.633Z</time></trkpt><trkpt lat="45.45508346641401" lon="7.979558036562279"><ele>236.66666666666669</ele><time>2026-04-25T15:58:51.633Z</time></trkpt><trkpt lat="45.454990693886856" lon="7.979808328647605"><ele>236.33333333333334</ele><time>2026-04-25T15:58:52.633Z</time></trkpt><trkpt lat="45.45486266799066" lon="7.9800648887137315"><ele>236.0</ele><time>2026-04-25T15:58:53.633Z</time></trkpt><trkpt lat="45.45472299220186" lon="7.9803354883525905"><ele>235.0</ele><time>2026-04-25T15:58:54.633Z</time></trkpt><trkpt lat="45.45456828477457" lon="7.980643088067032"><ele>234.0</ele><time>2026-04-25T15:58:55.633Z</time></trkpt><trkpt lat="45.454389248603576" lon="7.980955115573401"><ele>234.0</ele><time>2026-04-25T15:58:56.633Z</time></trkpt><trkpt lat="45.45421698365009" lon="7.981302370654624"><ele>234.0</ele><time>2026-04-25T15:58:57.633Z</time></trkpt><trkpt lat="45.4540603156852" lon="7.981639125492433"><ele>234.0</ele><time>2026-04-25T15:58:58.633Z</time></trkpt><trkpt lat="45.45388147162696" lon="7.981954651291558"><ele>234.0</ele><time>2026-04-25T15:58:59.633Z</time></trkpt><trkpt lat="45.45372494137503" lon="7.98226125252034"><ele>234.0</ele><time>2026-04-25T15:59:00.633Z</time></trkpt><trkpt lat="45.45357708306976" lon="7.982564157743369"><ele>234.0</ele><time>2026-04-25T15:59:01.633Z</time></trkpt><trkpt lat="45.45343428792058" lon="7.982852295405679"><ele>234.0</ele><time>2026-04-25T15:59:02.633Z</time></trkpt><trkpt lat="45.453295112563374" lon="7.983128543926114"><ele>234.0</ele><time>2026-04-25T15:59:03.632Z</time></trkpt><trkpt lat="45.45315938941801" lon="7.98339685386235"><ele>234.0</ele><time>2026-04-25T15:59:04.632Z</time></trkpt><trkpt lat="45.453030507374955" lon="7.983660562078358"><ele>234.0</ele><time>2026-04-25T15:59:05.632Z</time></trkpt><trkpt lat="45.45290230974835" lon="7.983917890820396"><ele>234.0</ele><time>2026-04-25T15:59:06.632Z</time></trkpt><trkpt lat="45.452776229088386" lon="7.984168948775763"><ele>234.0</ele><time>2026-04-25T15:59:07.632Z</time></trkpt><trkpt lat="45.4526509565702" lon="7.984419190044842"><ele>234.0</ele><time>2026-04-25T15:59:08.632Z</time></trkpt><trkpt lat="45.45252790762461" lon="7.984664080564457"><ele>234.0</ele><time>2026-04-25T15:59:09.632Z</time></trkpt><trkpt lat="45.45240610496957" lon="7.984907303867428"><ele>234.0</ele><time>2026-04-25T15:59:10.632Z</time></trkpt><trkpt lat="45.45228453754814" lon="7.9851497431909655"><ele>234.0</ele><time>2026-04-25T15:59:11.632Z</time></trkpt><trkpt lat="45.45216326712299" lon="7.9853866900504045"><ele>234.0</ele><time>2026-04-25T15:59:12.632Z</time></trkpt><trkpt lat="45.45204323665302" lon="7.985624526838355"><ele>234.66666666666669</ele><time>2026-04-25T15:59:13.632Z</time></trkpt><trkpt lat="45.45192377836311" lon="7.985860772152947"><ele>235.33333333333334</ele><time>2026-04-25T15:59:14.632Z</time></trkpt><trkpt lat="45.451802211842455" lon="7.9860951259343125"><ele>236.0</ele><time>2026-04-25T15:59:15.632Z</time></trkpt><trkpt lat="45.45167806840646" lon="7.9863318122672355"><ele>236.0</ele><time>2026-04-25T15:59:16.632Z</time></trkpt><trkpt lat="45.45155737829362" lon="7.986570572953088"><ele>236.0</ele><time>2026-04-25T15:59:17.632Z</time></trkpt><trkpt lat="45.45143572505035" lon="7.9868045212874765"><ele>236.0</ele><time>2026-04-25T15:59:18.632Z</time></trkpt><trkpt lat="45.451318351120015" lon="7.987040992530335"><ele>236.0</ele><time>2026-04-25T15:59:19.631Z</time></trkpt><trkpt lat="45.451202870522984" lon="7.987281406446151"><ele>236.0</ele><time>2026-04-25T15:59:20.631Z</time></trkpt><trkpt lat="45.45108444363079" lon="7.987520097627508"><ele>236.0</ele><time>2026-04-25T15:59:21.631Z</time></trkpt><trkpt lat="45.450961184743264" lon="7.987757508044801"><ele>235.66666666666669</ele><time>2026-04-25T15:59:22.631Z</time></trkpt><trkpt lat="45.45083820583983" lon="7.98799852643103"><ele>235.33333333333331</ele><time>2026-04-25T15:59:23.631Z</time></trkpt><trkpt lat="45.45071598428428" lon="7.988244499645366"><ele>235.0</ele><time>2026-04-25T15:59:24.631Z</time></trkpt><trkpt lat="45.450594131128206" lon="7.988489361599057"><ele>235.0</ele><time>2026-04-25T15:59:25.631Z</time></trkpt><trkpt lat="45.45046842724074" lon="7.988734719811523"><ele>235.0</ele><time>2026-04-25T15:59:26.631Z</time></trkpt><trkpt lat="45.45034354294745" lon="7.988981913460297"><ele>235.0</ele><time>2026-04-25T15:59:27.631Z</time></trkpt><trkpt lat="45.45022096892091" lon="7.989230143554288"><ele>234.66666666666666</ele><time>2026-04-25T15:59:28.631Z</time></trkpt><trkpt lat="45.45009629936297" lon="7.989480371401822"><ele>234.33333333333331</ele><time>2026-04-25T15:59:29.631Z</time></trkpt><trkpt lat="45.44996972670661" lon="7.989729731267311"><ele>234.0</ele><time>2026-04-25T15:59:30.631Z</time></trkpt><trkpt lat="45.44984284162204" lon="7.989981428933973"><ele>234.0</ele><time>2026-04-25T15:59:31.631Z</time></trkpt><trkpt lat="45.449716070067296" lon="7.990231899380655"><ele>234.0</ele><time>2026-04-25T15:59:32.632Z</time></trkpt><trkpt lat="45.44959224070481" lon="7.990485254588377"><ele>234.0</ele><time>2026-04-25T15:59:33.632Z</time></trkpt><trkpt lat="45.44947071653695" lon="7.99073925236134"><ele>233.66666666666669</ele><time>2026-04-25T15:59:34.632Z</time></trkpt><trkpt lat="45.44934649033936" lon="7.9909911750929155"><ele>233.33333333333334</ele><time>2026-04-25T15:59:35.632Z</time></trkpt><trkpt lat="45.449220661286176" lon="7.991244417698493"><ele>233.0</ele><time>2026-04-25T15:59:36.633Z</time></trkpt><trkpt lat="45.44909659027687" lon="7.991496937624396"><ele>233.33333333333334</ele><time>2026-04-25T15:59:37.633Z</time></trkpt><trkpt lat="45.44897230392206" lon="7.991749908707956"><ele>233.66666666666669</ele><time>2026-04-25T15:59:38.633Z</time></trkpt><trkpt lat="45.44884916125886" lon="7.992000433593131"><ele>234.0</ele><time>2026-04-25T15:59:39.633Z</time></trkpt><trkpt lat="45.44872527570753" lon="7.992252373992085"><ele>234.0</ele><time>2026-04-25T15:59:40.633Z</time></trkpt><trkpt lat="45.44860080236046" lon="7.99250236330433"><ele>234.0</ele><time>2026-04-25T15:59:41.632Z</time></trkpt><trkpt lat="45.44847846152664" lon="7.99275305751449"><ele>234.0</ele><time>2026-04-25T15:59:42.632Z</time></trkpt><trkpt lat="45.448356047816944" lon="7.993003460235301"><ele>234.0</ele><time>2026-04-25T15:59:43.632Z</time></trkpt><trkpt lat="45.448229062325545" lon="7.993249846747656"><ele>234.0</ele><time>2026-04-25T15:59:44.632Z</time></trkpt><trkpt lat="45.44810207336079" lon="7.993497846373454"><ele>234.0</ele><time>2026-04-25T15:59:45.632Z</time></trkpt><trkpt lat="45.44797814167078" lon="7.993744927155897"><ele>234.0</ele><time>2026-04-25T15:59:46.632Z</time></trkpt><trkpt lat="45.44785433543648" lon="7.993991816689882"><ele>234.0</ele><time>2026-04-25T15:59:47.632Z</time></trkpt><trkpt lat="45.4477302636288" lon="7.994237061551069"><ele>234.0</ele><time>2026-04-25T15:59:48.632Z</time></trkpt><trkpt lat="45.44760719994768" lon="7.994484810893771"><ele>234.0</ele><time>2026-04-25T15:59:49.632Z</time></trkpt><trkpt lat="45.44748197588324" lon="7.994732132171957"><ele>234.0</ele><time>2026-04-25T15:59:50.632Z</time></trkpt><trkpt lat="45.4473560636133" lon="7.9949781335566765"><ele>234.0</ele><time>2026-04-25T15:59:51.632Z</time></trkpt><trkpt lat="45.44723346429862" lon="7.99522367292467"><ele>234.0</ele><time>2026-04-25T15:59:52.632Z</time></trkpt><trkpt lat="45.4471104784132" lon="7.9954703460535175"><ele>234.0</ele><time>2026-04-25T15:59:53.632Z</time></trkpt><trkpt lat="45.44698565974628" lon="7.995716127136405"><ele>234.0</ele><time>2026-04-25T15:59:54.632Z</time></trkpt><trkpt lat="45.44673727171133" lon="7.996202401364064"><ele>234.0</ele><time>2026-04-25T15:59:56.632Z</time></trkpt><trkpt lat="45.446613770790385" lon="7.9964455309224185"><ele>234.0</ele><time>2026-04-25T15:59:57.632Z</time></trkpt><trkpt lat="45.4464910643638" lon="7.996689953003991"><ele>234.0</ele><time>2026-04-25T15:59:58.632Z</time></trkpt><trkpt lat="45.446368870185346" lon="7.996933831768726"><ele>233.66666666666669</ele><time>2026-04-25T15:59:59.631Z</time></trkpt><trkpt lat="45.446245945732606" lon="7.997179314255222"><ele>233.33333333333334</ele><time>2026-04-25T16:00:00.631Z</time></trkpt><trkpt lat="45.44612440106753" lon="7.997424159842405"><ele>233.0</ele><time>2026-04-25T16:00:01.631Z</time></trkpt><trkpt lat="45.446002514806594" lon="7.997669984790845"><ele>233.0</ele><time>2026-04-25T16:00:02.631Z</time></trkpt><trkpt lat="45.44588047535761" lon="7.997914985063238"><ele>233.0</ele><time>2026-04-25T16:00:03.631Z</time></trkpt><trkpt lat="45.44576050098429" lon="7.998161507017291"><ele>233.0</ele><time>2026-04-25T16:00:04.631Z</time></trkpt><trkpt lat="45.44563852901848" lon="7.998407633710772"><ele>232.66666666666669</ele><time>2026-04-25T16:00:05.631Z</time></trkpt><trkpt lat="45.44551686450221" lon="7.998656121637377"><ele>232.33333333333331</ele><time>2026-04-25T16:00:06.631Z</time></trkpt><trkpt lat="45.4453956690401" lon="7.998901471251448"><ele>232.0</ele><time>2026-04-25T16:00:07.631Z</time></trkpt><trkpt lat="45.445271690904654" lon="7.999145017140945"><ele>232.66666666666666</ele><time>2026-04-25T16:00:08.631Z</time></trkpt><trkpt lat="45.445152380325" lon="7.999388909091664"><ele>233.33333333333331</ele><time>2026-04-25T16:00:09.631Z</time></trkpt><trkpt lat="45.44503093561675" lon="7.999627951033384"><ele>234.0</ele><time>2026-04-25T16:00:10.631Z</time></trkpt><trkpt lat="45.44490995842898" lon="7.999865268166332"><ele>234.0</ele><time>2026-04-25T16:00:11.631Z</time></trkpt><trkpt lat="45.44478782491569" lon="8.000101081505543"><ele>234.0</ele><time>2026-04-25T16:00:12.631Z</time></trkpt><trkpt lat="45.44467661118012" lon="8.000322320119908"><ele>234.0</ele><time>2026-04-25T16:00:13.631Z</time></trkpt><trkpt lat="45.44457057147569" lon="8.000536637381133"><ele>234.0</ele><time>2026-04-25T16:00:14.631Z</time></trkpt><trkpt lat="45.44446864324612" lon="8.000737812205436"><ele>234.0</ele><time>2026-04-25T16:00:15.631Z</time></trkpt><trkpt lat="45.44437529478301" lon="8.000924513221264"><ele>234.0</ele><time>2026-04-25T16:00:16.63Z</time></trkpt><trkpt lat="45.444286355112816" lon="8.001099666587375"><ele>234.5</ele><time>2026-04-25T16:00:17.63Z</time></trkpt><trkpt lat="45.44420883208023" lon="8.001262416720122"><ele>235.0</ele><time>2026-04-25T16:00:18.63Z</time></trkpt><trkpt lat="45.44413852819591" lon="8.0014124476377"><ele>235.5</ele><time>2026-04-25T16:00:19.63Z</time></trkpt><trkpt lat="45.44407426046777" lon="8.001542683170895"><ele>236.0</ele><time>2026-04-25T16:00:20.63Z</time></trkpt><trkpt lat="45.44402039346469" lon="8.001652027062052"><ele>236.00000000000003</ele><time>2026-04-25T16:00:21.63Z</time></trkpt><trkpt lat="45.44397548669339" lon="8.001729581053016"><ele>236.0</ele><time>2026-04-25T16:00:22.63Z</time></trkpt><trkpt lat="45.443934524661614" lon="8.001805806203063"><ele>236.0</ele><time>2026-04-25T16:00:24.63Z</time></trkpt><trkpt lat="45.44388310270501" lon="8.00190679559827"><ele>236.0</ele><time>2026-04-25T16:00:31.63Z</time></trkpt><trkpt lat="45.44383674334136" lon="8.001975911030563"><ele>236.00000000000003</ele><time>2026-04-25T16:00:32.629Z</time></trkpt><trkpt lat="45.4437828021792" lon="8.002068530105811"><ele>236.0</ele><time>2026-04-25T16:00:33.629Z</time></trkpt><trkpt lat="45.44372422768256" lon="8.002180586155308"><ele>236.0</ele><time>2026-04-25T16:00:34.629Z</time></trkpt><trkpt lat="45.443665555741674" lon="8.002284216078623"><ele>236.00000000000003</ele><time>2026-04-25T16:00:35.629Z</time></trkpt><trkpt lat="45.44360611995777" lon="8.002399713539493"><ele>236.00000000000003</ele><time>2026-04-25T16:00:36.629Z</time></trkpt><trkpt lat="45.44354157152491" lon="8.002534037137647"><ele>236.0</ele><time>2026-04-25T16:00:37.629Z</time></trkpt><trkpt lat="45.443467143880554" lon="8.002679177277654"><ele>236.0</ele><time>2026-04-25T16:00:38.629Z</time></trkpt><trkpt lat="45.443389674326" lon="8.002835446563976"><ele>236.0</ele><time>2026-04-25T16:00:39.629Z</time></trkpt><trkpt lat="45.443306280917525" lon="8.00300171061247"><ele>236.0</ele><time>2026-04-25T16:00:40.629Z</time></trkpt><trkpt lat="45.44322188511137" lon="8.0031647351339"><ele>236.0</ele><time>2026-04-25T16:00:41.629Z</time></trkpt><trkpt lat="45.443145558809846" lon="8.003317421415815"><ele>236.0</ele><time>2026-04-25T16:00:42.629Z</time></trkpt><trkpt lat="45.44306738411097" lon="8.003465092461806"><ele>236.0</ele><time>2026-04-25T16:00:43.629Z</time></trkpt><trkpt lat="45.442987282315606" lon="8.003629900441236"><ele>236.0</ele><time>2026-04-25T16:00:44.629Z</time></trkpt><trkpt lat="45.44289739313648" lon="8.003803985769558"><ele>236.0</ele><time>2026-04-25T16:00:45.629Z</time></trkpt><trkpt lat="45.442798873626884" lon="8.003990116720695"><ele>236.0</ele><time>2026-04-25T16:00:46.629Z</time></trkpt><trkpt lat="45.44269639754097" lon="8.004187070389893"><ele>236.0</ele><time>2026-04-25T16:00:47.629Z</time></trkpt><trkpt lat="45.44259174081415" lon="8.004387389538214"><ele>236.0</ele><time>2026-04-25T16:00:48.629Z</time></trkpt><trkpt lat="45.44249498056794" lon="8.004583230957426"><ele>236.0</ele><time>2026-04-25T16:00:49.628Z</time></trkpt><trkpt lat="45.4424018013323" lon="8.00478286491937"><ele>236.0</ele><time>2026-04-25T16:00:50.628Z</time></trkpt><trkpt lat="45.44230188738143" lon="8.004987000209073"><ele>236.0</ele><time>2026-04-25T16:00:51.628Z</time></trkpt><trkpt lat="45.44219805899477" lon="8.005197233911828"><ele>236.0</ele><time>2026-04-25T16:00:52.628Z</time></trkpt><trkpt lat="45.44208946060498" lon="8.005413825574642"><ele>236.0</ele><time>2026-04-25T16:00:53.628Z</time></trkpt><trkpt lat="45.44197750789152" lon="8.00563593798447"><ele>236.0</ele><time>2026-04-25T16:00:54.628Z</time></trkpt><trkpt lat="45.44186161760533" lon="8.005862658146523"><ele>236.0</ele><time>2026-04-25T16:00:55.628Z</time></trkpt><trkpt lat="45.441745529162056" lon="8.006097295891362"><ele>236.0</ele><time>2026-04-25T16:00:56.628Z</time></trkpt><trkpt lat="45.44162303537371" lon="8.006335772721107"><ele>236.0</ele><time>2026-04-25T16:00:57.628Z</time></trkpt><trkpt lat="45.44150044805516" lon="8.006575273418244"><ele>236.0</ele><time>2026-04-25T16:00:58.628Z</time></trkpt><trkpt lat="45.44138399516906" lon="8.006802660363352"><ele>236.0</ele><time>2026-04-25T16:00:59.628Z</time></trkpt><trkpt lat="45.44126895240117" lon="8.007029927975358"><ele>236.0</ele><time>2026-04-25T16:01:00.628Z</time></trkpt><trkpt lat="45.441153191707635" lon="8.007257449237438"><ele>235.66666666666669</ele><time>2026-04-25T16:01:01.628Z</time></trkpt><trkpt lat="45.441037319739316" lon="8.007486710267285"><ele>235.33333333333331</ele><time>2026-04-25T16:01:02.628Z</time></trkpt><trkpt lat="45.44091728623108" lon="8.00771834683605"><ele>235.0</ele><time>2026-04-25T16:01:03.628Z</time></trkpt><trkpt lat="45.440798563067624" lon="8.00795312468037"><ele>235.0</ele><time>2026-04-25T16:01:04.628Z</time></trkpt><trkpt lat="45.44068108118518" lon="8.008189750280236"><ele>235.0</ele><time>2026-04-25T16:01:05.628Z</time></trkpt><trkpt lat="45.44056290469301" lon="8.00842492284624"><ele>235.0</ele><time>2026-04-25T16:01:06.627Z</time></trkpt><trkpt lat="45.44044589084901" lon="8.008658247048578"><ele>234.66666666666666</ele><time>2026-04-25T16:01:07.627Z</time></trkpt><trkpt lat="45.44032805073224" lon="8.008890629920488"><ele>234.33333333333331</ele><time>2026-04-25T16:01:08.627Z</time></trkpt><trkpt lat="45.440211012646124" lon="8.009123978952632"><ele>234.0</ele><time>2026-04-25T16:01:09.627Z</time></trkpt><trkpt lat="45.44009350702648" lon="8.009355765710861"><ele>234.66666666666669</ele><time>2026-04-25T16:01:10.627Z</time></trkpt><trkpt lat="45.43997463532686" lon="8.00958866289975"><ele>235.33333333333334</ele><time>2026-04-25T16:01:11.627Z</time></trkpt><trkpt lat="45.43985753228552" lon="8.009817740210819"><ele>236.0</ele><time>2026-04-25T16:01:12.627Z</time></trkpt><trkpt lat="45.43974145336408" lon="8.010050370383551"><ele>235.66666666666669</ele><time>2026-04-25T16:01:13.627Z</time></trkpt><trkpt lat="45.43962411904081" lon="8.010278322714845"><ele>235.33333333333331</ele><time>2026-04-25T16:01:14.627Z</time></trkpt><trkpt lat="45.43950820853459" lon="8.010506423066765"><ele>235.0</ele><time>2026-04-25T16:01:15.627Z</time></trkpt><trkpt lat="45.43939385357435" lon="8.010736846264196"><ele>234.66666666666666</ele><time>2026-04-25T16:01:16.627Z</time></trkpt><trkpt lat="45.439278046760705" lon="8.010961387936357"><ele>234.33333333333331</ele><time>2026-04-25T16:01:17.627Z</time></trkpt><trkpt lat="45.439164847987925" lon="8.011190068839564"><ele>234.0</ele><time>2026-04-25T16:01:18.627Z</time></trkpt><trkpt lat="45.439051684279306" lon="8.011418077194206"><ele>234.0</ele><time>2026-04-25T16:01:19.627Z</time></trkpt><trkpt lat="45.43893941799919" lon="8.01164482412871"><ele>234.0</ele><time>2026-04-25T16:01:20.627Z</time></trkpt><trkpt lat="45.43882744275176" lon="8.011866806522837"><ele>234.0</ele><time>2026-04-25T16:01:21.627Z</time></trkpt><trkpt lat="45.438713983843236" lon="8.012091059353772"><ele>233.66666666666669</ele><time>2026-04-25T16:01:22.626Z</time></trkpt><trkpt lat="45.43860116586202" lon="8.012315966171823"><ele>233.33333333333334</ele><time>2026-04-25T16:01:23.626Z</time></trkpt><trkpt lat="45.438489457649084" lon="8.012540618155398"><ele>233.0</ele><time>2026-04-25T16:01:24.626Z</time></trkpt><trkpt lat="45.43837965911933" lon="8.012763959800829"><ele>233.0</ele><time>2026-04-25T16:01:25.626Z</time></trkpt><trkpt lat="45.43826728217405" lon="8.012986692967509"><ele>233.0</ele><time>2026-04-25T16:01:26.626Z</time></trkpt><trkpt lat="45.438154197331" lon="8.013206493178938"><ele>233.0</ele><time>2026-04-25T16:01:27.626Z</time></trkpt><trkpt lat="45.438040361930824" lon="8.013429683552422"><ele>233.0</ele><time>2026-04-25T16:01:28.626Z</time></trkpt><trkpt lat="45.4379275954693" lon="8.01365414479937"><ele>233.0</ele><time>2026-04-25T16:01:29.626Z</time></trkpt><trkpt lat="45.43781521094971" lon="8.01387718076519"><ele>233.0</ele><time>2026-04-25T16:01:30.626Z</time></trkpt><trkpt lat="45.43770122504087" lon="8.014099827776883"><ele>233.33333333333334</ele><time>2026-04-25T16:01:31.626Z</time></trkpt><trkpt lat="45.43758534394892" lon="8.014327275461127"><ele>233.66666666666669</ele><time>2026-04-25T16:01:32.626Z</time></trkpt><trkpt lat="45.43747005007169" lon="8.014558896536649"><ele>234.0</ele><time>2026-04-25T16:01:33.626Z</time></trkpt><trkpt lat="45.437354946975645" lon="8.01478933384683"><ele>234.0</ele><time>2026-04-25T16:01:34.626Z</time></trkpt><trkpt lat="45.43723937952323" lon="8.015020465205575"><ele>234.0</ele><time>2026-04-25T16:01:35.626Z</time></trkpt><trkpt lat="45.43712425811949" lon="8.015252988732794"><ele>234.0</ele><time>2026-04-25T16:01:36.626Z</time></trkpt><trkpt lat="45.43700656483564" lon="8.015488424883937"><ele>233.66666666666669</ele><time>2026-04-25T16:01:37.626Z</time></trkpt><trkpt lat="45.43688848664941" lon="8.015723142864307"><ele>233.33333333333334</ele><time>2026-04-25T16:01:38.627Z</time></trkpt><trkpt lat="45.436770791107314" lon="8.0159580592955"><ele>233.0</ele><time>2026-04-25T16:01:39.627Z</time></trkpt><trkpt lat="45.436652089849154" lon="8.016193961346264"><ele>233.0</ele><time>2026-04-25T16:01:40.627Z</time></trkpt><trkpt lat="45.436534493950454" lon="8.016433561014264"><ele>233.0</ele><time>2026-04-25T16:01:41.626Z</time></trkpt><trkpt lat="45.436418167264236" lon="8.016673265158433"><ele>233.0</ele><time>2026-04-25T16:01:42.627Z</time></trkpt><trkpt lat="45.43629858783719" lon="8.016913100589003"><ele>233.0</ele><time>2026-04-25T16:01:43.627Z</time></trkpt><trkpt lat="45.43617709052152" lon="8.017149773295783"><ele>233.0</ele><time>2026-04-25T16:01:44.627Z</time></trkpt><trkpt lat="45.436053655925456" lon="8.017385167567136"><ele>233.0</ele><time>2026-04-25T16:01:45.626Z</time></trkpt><trkpt lat="45.43593192530451" lon="8.017622354690786"><ele>232.66666666666669</ele><time>2026-04-25T16:01:46.626Z</time></trkpt><trkpt lat="45.4358105197642" lon="8.017862554068492"><ele>232.33333333333331</ele><time>2026-04-25T16:01:47.626Z</time></trkpt><trkpt lat="45.43568959437988" lon="8.018100864266527"><ele>232.0</ele><time>2026-04-25T16:01:48.626Z</time></trkpt><trkpt lat="45.435569624922884" lon="8.018342543272865"><ele>232.33333333333331</ele><time>2026-04-25T16:01:49.626Z</time></trkpt><trkpt lat="45.43544930219687" lon="8.018584111431945"><ele>232.66666666666669</ele><time>2026-04-25T16:01:50.626Z</time></trkpt><trkpt lat="45.43533021234013" lon="8.01882360036551"><ele>233.0</ele><time>2026-04-25T16:01:51.626Z</time></trkpt><trkpt lat="45.43521241525856" lon="8.019061491725497"><ele>233.66666666666669</ele><time>2026-04-25T16:01:52.626Z</time></trkpt><trkpt lat="45.43509652168249" lon="8.019298165868383"><ele>234.33333333333331</ele><time>2026-04-25T16:01:53.626Z</time></trkpt><trkpt lat="45.43498336561324" lon="8.019533320591668"><ele>235.0</ele><time>2026-04-25T16:01:54.626Z</time></trkpt><trkpt lat="45.434868853016546" lon="8.019767550306781"><ele>234.66666666666666</ele><time>2026-04-25T16:01:55.626Z</time></trkpt><trkpt lat="45.43475166965155" lon="8.020004075578536"><ele>234.33333333333331</ele><time>2026-04-25T16:01:56.625Z</time></trkpt><trkpt lat="45.43463327353062" lon="8.020239995013151"><ele>234.0</ele><time>2026-04-25T16:01:57.625Z</time></trkpt><trkpt lat="45.434516487956536" lon="8.02047034727171"><ele>233.33333333333331</ele><time>2026-04-25T16:01:58.625Z</time></trkpt><trkpt lat="45.434399014000476" lon="8.020701911256335"><ele>232.66666666666666</ele><time>2026-04-25T16:01:59.625Z</time></trkpt><trkpt lat="45.434282018438076" lon="8.020931335379952"><ele>232.0</ele><time>2026-04-25T16:02:00.625Z</time></trkpt><trkpt lat="45.434160813864835" lon="8.021161644414764"><ele>232.0</ele><time>2026-04-25T16:02:01.625Z</time></trkpt><trkpt lat="45.434040354860535" lon="8.021396082333355"><ele>232.0</ele><time>2026-04-25T16:02:02.625Z</time></trkpt><trkpt lat="45.43392502271354" lon="8.021625521312153"><ele>232.0</ele><time>2026-04-25T16:02:03.625Z</time></trkpt><trkpt lat="45.43380796755246" lon="8.021858496383086"><ele>232.0</ele><time>2026-04-25T16:02:04.625Z</time></trkpt><trkpt lat="45.43369048140514" lon="8.022093088002231"><ele>232.0</ele><time>2026-04-25T16:02:05.625Z</time></trkpt><trkpt lat="45.43357021561753" lon="8.022328629169417"><ele>232.0</ele><time>2026-04-25T16:02:06.625Z</time></trkpt><trkpt lat="45.43344908194253" lon="8.022567754352814"><ele>232.66666666666666</ele><time>2026-04-25T16:02:07.625Z</time></trkpt><trkpt lat="45.43332727128097" lon="8.022808480760409"><ele>233.33333333333331</ele><time>2026-04-25T16:02:08.625Z</time></trkpt><trkpt lat="45.433207832348316" lon="8.023053846956824"><ele>234.0</ele><time>2026-04-25T16:02:09.625Z</time></trkpt><trkpt lat="45.433088880057305" lon="8.023297475928647"><ele>233.66666666666669</ele><time>2026-04-25T16:02:10.625Z</time></trkpt><trkpt lat="45.43296775210724" lon="8.02353974786595"><ele>233.33333333333334</ele><time>2026-04-25T16:02:11.625Z</time></trkpt><trkpt lat="45.43285317841123" lon="8.023780103027155"><ele>233.0</ele><time>2026-04-25T16:02:12.625Z</time></trkpt><trkpt lat="45.43274035927246" lon="8.02401183877145"><ele>233.0</ele><time>2026-04-25T16:02:13.624Z</time></trkpt><trkpt lat="45.4326282772465" lon="8.02423687278498"><ele>233.0</ele><time>2026-04-25T16:02:14.624Z</time></trkpt><trkpt lat="45.432518234143316" lon="8.024457800959745"><ele>233.0</ele><time>2026-04-25T16:02:15.624Z</time></trkpt><trkpt lat="45.4324051970646" lon="8.024673907174417"><ele>233.0</ele><time>2026-04-25T16:02:16.624Z</time></trkpt><trkpt lat="45.432285610888144" lon="8.024885265557353"><ele>233.0</ele><time>2026-04-25T16:02:17.624Z</time></trkpt><trkpt lat="45.432161053389265" lon="8.02508643491726"><ele>233.0</ele><time>2026-04-25T16:02:18.624Z</time></trkpt><trkpt lat="45.432029012261026" lon="8.02528243506949"><ele>233.66666666666669</ele><time>2026-04-25T16:02:19.624Z</time></trkpt><trkpt lat="45.43189070370293" lon="8.02546858554523"><ele>234.33333333333331</ele><time>2026-04-25T16:02:20.624Z</time></trkpt><trkpt lat="45.43174866798139" lon="8.025649643281865"><ele>235.0</ele><time>2026-04-25T16:02:21.624Z</time></trkpt><trkpt lat="45.43160578941801" lon="8.025832290963901"><ele>235.66666666666666</ele><time>2026-04-25T16:02:22.624Z</time></trkpt><trkpt lat="45.431465434113086" lon="8.026015976881006"><ele>236.33333333333331</ele><time>2026-04-25T16:02:23.624Z</time></trkpt><trkpt lat="45.43132740465225" lon="8.026196583025072"><ele>237.0</ele><time>2026-04-25T16:02:24.624Z</time></trkpt><trkpt lat="45.431200629004984" lon="8.026386111327996"><ele>236.0</ele><time>2026-04-25T16:02:25.624Z</time></trkpt><trkpt lat="45.43108189711339" lon="8.026581750191777"><ele>235.0</ele><time>2026-04-25T16:02:26.624Z</time></trkpt><trkpt lat="45.43098003305376" lon="8.026796365891203"><ele>234.0</ele><time>2026-04-25T16:02:27.624Z</time></trkpt><trkpt lat="45.430905943844486" lon="8.027028539104466"><ele>234.0</ele><time>2026-04-25T16:02:28.624Z</time></trkpt><trkpt lat="45.43085775002241" lon="8.027260687381881"><ele>234.0</ele><time>2026-04-25T16:02:29.623Z</time></trkpt><trkpt lat="45.430829326137236" lon="8.027484465199754"><ele>234.0</ele><time>2026-04-25T16:02:30.623Z</time></trkpt><trkpt lat="45.430816827357255" lon="8.027695645909255"><ele>234.5</ele><time>2026-04-25T16:02:31.623Z</time></trkpt><trkpt lat="45.43081470812175" lon="8.027903451622247"><ele>235.0</ele><time>2026-04-25T16:02:32.623Z</time></trkpt><trkpt lat="45.43082503553997" lon="8.028098170684013"><ele>235.5</ele><time>2026-04-25T16:02:33.623Z</time></trkpt><trkpt lat="45.43084438997731" lon="8.028274642747894"><ele>236.0</ele><time>2026-04-25T16:02:34.623Z</time></trkpt><trkpt lat="45.430875078660804" lon="8.028430942145846"><ele>236.0</ele><time>2026-04-25T16:02:35.623Z</time></trkpt><trkpt lat="45.4309109105752" lon="8.028579320591597"><ele>236.00000000000003</ele><time>2026-04-25T16:02:36.623Z</time></trkpt><trkpt lat="45.43094984204874" lon="8.028725432280199"><ele>236.00000000000003</ele><time>2026-04-25T16:02:37.623Z</time></trkpt><trkpt lat="45.43099716556703" lon="8.02886878388562"><ele>236.0</ele><time>2026-04-25T16:02:38.623Z</time></trkpt><trkpt lat="45.431047791831425" lon="8.029016944018656"><ele>236.0</ele><time>2026-04-25T16:02:39.623Z</time></trkpt><trkpt lat="45.43109553105317" lon="8.029171306381574"><ele>236.0</ele><time>2026-04-25T16:02:40.623Z</time></trkpt><trkpt lat="45.431135885104986" lon="8.029324808072698"><ele>236.0</ele><time>2026-04-25T16:02:41.623Z</time></trkpt><trkpt lat="45.43118183621105" lon="8.02947641026861"><ele>236.0</ele><time>2026-04-25T16:02:42.623Z</time></trkpt><trkpt lat="45.431232740192975" lon="8.02962441703299"><ele>236.0</ele><time>2026-04-25T16:02:43.623Z</time></trkpt><trkpt lat="45.43127892091044" lon="8.029768705673938"><ele>236.4</ele><time>2026-04-25T16:02:44.623Z</time></trkpt><trkpt lat="45.43132423666167" lon="8.02991502921348"><ele>236.8</ele><time>2026-04-25T16:02:45.623Z</time></trkpt><trkpt lat="45.43136857455857" lon="8.030062106975981"><ele>237.20000000000002</ele><time>2026-04-25T16:02:46.622Z</time></trkpt><trkpt lat="45.43141226640379" lon="8.030206994813815"><ele>237.60000000000002</ele><time>2026-04-25T16:02:47.622Z</time></trkpt><trkpt lat="45.43145502504097" lon="8.03035325677407"><ele>238.0</ele><time>2026-04-25T16:02:48.622Z</time></trkpt><trkpt lat="45.43149876725605" lon="8.03049455752944"><ele>238.0</ele><time>2026-04-25T16:02:49.622Z</time></trkpt><trkpt lat="45.431543320186336" lon="8.030632042206298"><ele>238.0</ele><time>2026-04-25T16:02:50.622Z</time></trkpt><trkpt lat="45.43158366075669" lon="8.03076314930482"><ele>238.0</ele><time>2026-04-25T16:02:51.622Z</time></trkpt><trkpt lat="45.43162180443216" lon="8.030883752725773"><ele>238.0</ele><time>2026-04-25T16:02:52.622Z</time></trkpt><trkpt lat="45.431658365426635" lon="8.030997264613072"><ele>238.0</ele><time>2026-04-25T16:02:53.622Z</time></trkpt><trkpt lat="45.43168731891743" lon="8.031096234532052"><ele>237.66666666666666</ele><time>2026-04-25T16:02:54.622Z</time></trkpt><trkpt lat="45.43171445156329" lon="8.031190470046553"><ele>237.33333333333331</ele><time>2026-04-25T16:02:55.622Z</time></trkpt><trkpt lat="45.43174346239731" lon="8.03127289473712"><ele>237.0</ele><time>2026-04-25T16:02:56.622Z</time></trkpt><trkpt lat="45.43179336580404" lon="8.031431068745302"><ele>236.66666666666669</ele><time>2026-04-25T16:02:58.622Z</time></trkpt><trkpt lat="45.43183167933856" lon="8.031551989502276"><ele>236.33333333333334</ele><time>2026-04-25T16:03:00.622Z</time></trkpt><trkpt lat="45.431856406499904" lon="8.031649682100408"><ele>236.0</ele><time>2026-04-25T16:03:04.621Z</time></trkpt><trkpt lat="45.43186782858891" lon="8.031739675423612"><ele>235.83333333333334</ele><time>2026-04-25T16:03:06.621Z</time></trkpt><trkpt lat="45.43192347409262" lon="8.031893117529481"><ele>235.66666666666669</ele><time>2026-04-25T16:03:08.621Z</time></trkpt><trkpt lat="45.431959082568135" lon="8.031982570186479"><ele>235.5</ele><time>2026-04-25T16:03:09.621Z</time></trkpt><trkpt lat="45.431996913347064" lon="8.032082983965617"><ele>235.33333333333331</ele><time>2026-04-25T16:03:10.621Z</time></trkpt><trkpt lat="45.43203017417558" lon="8.032186903805854"><ele>235.16666666666666</ele><time>2026-04-25T16:03:11.621Z</time></trkpt><trkpt lat="45.432065232242174" lon="8.032313850657442"><ele>235.0</ele><time>2026-04-25T16:03:12.621Z</time></trkpt><trkpt lat="45.43211035488876" lon="8.032456463373757"><ele>236.75</ele><time>2026-04-25T16:03:13.621Z</time></trkpt><trkpt lat="45.43216337909077" lon="8.03261517934231"><ele>238.5</ele><time>2026-04-25T16:03:14.621Z</time></trkpt><trkpt lat="45.432219852849414" lon="8.032785543939552"><ele>240.25</ele><time>2026-04-25T16:03:15.621Z</time></trkpt><trkpt lat="45.4322777982232" lon="8.032967699518153"><ele>242.0</ele><time>2026-04-25T16:03:16.621Z</time></trkpt><trkpt lat="45.432336593641324" lon="8.033148747657787"><ele>241.5</ele><time>2026-04-25T16:03:17.621Z</time></trkpt><trkpt lat="45.432390819128194" lon="8.033320417620278"><ele>241.0</ele><time>2026-04-25T16:03:18.621Z</time></trkpt><trkpt lat="45.43244233037628" lon="8.033495880927887"><ele>240.5</ele><time>2026-04-25T16:03:19.62Z</time></trkpt><trkpt lat="45.432492727346265" lon="8.033677284174109"><ele>240.0</ele><time>2026-04-25T16:03:20.62Z</time></trkpt><trkpt lat="45.432536564628094" lon="8.03386583773105"><ele>240.0</ele><time>2026-04-25T16:03:21.62Z</time></trkpt><trkpt lat="45.43257659754312" lon="8.034067798500471"><ele>240.0</ele><time>2026-04-25T16:03:22.62Z</time></trkpt><trkpt lat="45.43260195906604" lon="8.034286724667762"><ele>240.0</ele><time>2026-04-25T16:03:23.62Z</time></trkpt><trkpt lat="45.4326217960981" lon="8.034514541331735"><ele>240.66666666666669</ele><time>2026-04-25T16:03:24.62Z</time></trkpt><trkpt lat="45.43262847794381" lon="8.034750141338645"><ele>241.33333333333334</ele><time>2026-04-25T16:03:25.62Z</time></trkpt><trkpt lat="45.43261872781838" lon="8.034991610435336"><ele>242.0</ele><time>2026-04-25T16:03:26.62Z</time></trkpt><trkpt lat="45.43260206567497" lon="8.035237873858726"><ele>242.33333333333334</ele><time>2026-04-25T16:03:27.62Z</time></trkpt><trkpt lat="45.43256823629478" lon="8.035468147860218"><ele>242.66666666666669</ele><time>2026-04-25T16:03:28.62Z</time></trkpt><trkpt lat="45.432519106087966" lon="8.035688672373158"><ele>243.0</ele><time>2026-04-25T16:03:29.62Z</time></trkpt><trkpt lat="45.43245961068749" lon="8.035901710301262"><ele>243.33333333333331</ele><time>2026-04-25T16:03:30.62Z</time></trkpt><trkpt lat="45.43238959300837" lon="8.036110294791229"><ele>243.66666666666666</ele><time>2026-04-25T16:03:31.62Z</time></trkpt><trkpt lat="45.432299675728274" lon="8.036310823120216"><ele>244.0</ele><time>2026-04-25T16:03:32.62Z</time></trkpt><trkpt lat="45.432209599364356" lon="8.036515413319762"><ele>243.0</ele><time>2026-04-25T16:03:33.62Z</time></trkpt><trkpt lat="45.43211367217346" lon="8.036715497766714"><ele>242.0</ele><time>2026-04-25T16:03:34.62Z</time></trkpt><trkpt lat="45.432003793610264" lon="8.036916699133762"><ele>241.0</ele><time>2026-04-25T16:03:35.62Z</time></trkpt><trkpt lat="45.43189295310963" lon="8.037119108767165"><ele>241.0</ele><time>2026-04-25T16:03:36.619Z</time></trkpt><trkpt lat="45.431776783173156" lon="8.03731800056519"><ele>241.0</ele><time>2026-04-25T16:03:37.619Z</time></trkpt><trkpt lat="45.43166134969476" lon="8.037514449952068"><ele>241.0</ele><time>2026-04-25T16:03:38.619Z</time></trkpt><trkpt lat="45.4315482432361" lon="8.03771250578713"><ele>240.0</ele><time>2026-04-25T16:03:39.619Z</time></trkpt><trkpt lat="45.431437691869746" lon="8.037908066720888"><ele>239.0</ele><time>2026-04-25T16:03:40.619Z</time></trkpt><trkpt lat="45.431327245230186" lon="8.038099295331934"><ele>238.0</ele><time>2026-04-25T16:03:41.619Z</time></trkpt><trkpt lat="45.43122448035957" lon="8.038296096217382"><ele>239.0</ele><time>2026-04-25T16:03:42.619Z</time></trkpt><trkpt lat="45.431132424952025" lon="8.0385070936267"><ele>240.0</ele><time>2026-04-25T16:03:43.619Z</time></trkpt><trkpt lat="45.43104731243302" lon="8.038734669965066"><ele>241.0</ele><time>2026-04-25T16:03:44.621Z</time></trkpt><trkpt lat="45.430970707999954" lon="8.038976610088403"><ele>241.33333333333331</ele><time>2026-04-25T16:03:45.621Z</time></trkpt><trkpt lat="45.43089737693725" lon="8.039225344229498"><ele>241.66666666666669</ele><time>2026-04-25T16:03:46.62Z</time></trkpt><trkpt lat="45.43083478200936" lon="8.03949084423357"><ele>242.0</ele><time>2026-04-25T16:03:47.62Z</time></trkpt><trkpt lat="45.43077381185801" lon="8.039756769096757"><ele>242.66666666666669</ele><time>2026-04-25T16:03:48.621Z</time></trkpt><trkpt lat="45.430708640754496" lon="8.04002518330772"><ele>243.33333333333331</ele><time>2026-04-25T16:03:49.621Z</time></trkpt><trkpt lat="45.43064391450104" lon="8.040296800341654"><ele>244.0</ele><time>2026-04-25T16:03:50.621Z</time></trkpt><trkpt lat="45.43057705676825" lon="8.040566211490738"><ele>245.33333333333331</ele><time>2026-04-25T16:03:51.62Z</time></trkpt><trkpt lat="45.430500938804684" lon="8.040828987393242"><ele>246.66666666666669</ele><time>2026-04-25T16:03:52.62Z</time></trkpt><trkpt lat="45.430417069239766" lon="8.0410823603251"><ele>248.0</ele><time>2026-04-25T16:03:53.62Z</time></trkpt><trkpt lat="45.43033118083761" lon="8.041328974231673"><ele>247.0</ele><time>2026-04-25T16:03:54.62Z</time></trkpt><trkpt lat="45.43024102294445" lon="8.04156611950167"><ele>246.0</ele><time>2026-04-25T16:03:55.62Z</time></trkpt><trkpt lat="45.43014802475621" lon="8.041801617032036"><ele>245.0</ele><time>2026-04-25T16:03:56.62Z</time></trkpt><trkpt lat="45.43005367531184" lon="8.042028310744472"><ele>245.0</ele><time>2026-04-25T16:03:57.621Z</time></trkpt><trkpt lat="45.42995952956813" lon="8.042241586333958"><ele>245.0</ele><time>2026-04-25T16:03:58.621Z</time></trkpt><trkpt lat="45.42986592396578" lon="8.042452216682094"><ele>245.0</ele><time>2026-04-25T16:03:59.62Z</time></trkpt><trkpt lat="45.429767210771566" lon="8.042663164006758"><ele>246.33333333333334</ele><time>2026-04-25T16:04:00.62Z</time></trkpt><trkpt lat="45.42965790426012" lon="8.042864509097226"><ele>247.66666666666669</ele><time>2026-04-25T16:04:01.62Z</time></trkpt><trkpt lat="45.429541591371006" lon="8.043063793413326"><ele>249.0</ele><time>2026-04-25T16:04:02.62Z</time></trkpt><trkpt lat="45.42941882768912" lon="8.043257853029715"><ele>249.0</ele><time>2026-04-25T16:04:03.62Z</time></trkpt><trkpt lat="45.429290861012454" lon="8.043451919927108"><ele>249.0</ele><time>2026-04-25T16:04:04.62Z</time></trkpt><trkpt lat="45.429154160788784" lon="8.043637079215639"><ele>249.0</ele><time>2026-04-25T16:04:05.62Z</time></trkpt><trkpt lat="45.42901303456731" lon="8.043815178124513"><ele>249.0</ele><time>2026-04-25T16:04:06.62Z</time></trkpt><trkpt lat="45.42887585725415" lon="8.043996370869134"><ele>249.0</ele><time>2026-04-25T16:04:07.62Z</time></trkpt><trkpt lat="45.428742813195946" lon="8.044178234315673"><ele>249.0</ele><time>2026-04-25T16:04:08.62Z</time></trkpt><trkpt lat="45.428612661226964" lon="8.044354485793411"><ele>248.0</ele><time>2026-04-25T16:04:09.62Z</time></trkpt><trkpt lat="45.42848047296484" lon="8.044532113345863"><ele>247.0</ele><time>2026-04-25T16:04:10.62Z</time></trkpt><trkpt lat="45.428346170069084" lon="8.044705481183453"><ele>246.0</ele><time>2026-04-25T16:04:11.62Z</time></trkpt><trkpt lat="45.42821479705832" lon="8.044876501556557"><ele>246.0</ele><time>2026-04-25T16:04:12.62Z</time></trkpt><trkpt lat="45.428089166771805" lon="8.045043537745865"><ele>246.0</ele><time>2026-04-25T16:04:13.62Z</time></trkpt><trkpt lat="45.42796488395333" lon="8.045204022490736"><ele>246.0</ele><time>2026-04-25T16:04:14.62Z</time></trkpt><trkpt lat="45.42784324044932" lon="8.045365316504373"><ele>246.0</ele><time>2026-04-25T16:04:15.62Z</time></trkpt><trkpt lat="45.42772647944542" lon="8.04552282198856"><ele>246.0</ele><time>2026-04-25T16:04:16.619Z</time></trkpt><trkpt lat="45.42761128747003" lon="8.045674562805452"><ele>246.0</ele><time>2026-04-25T16:04:17.619Z</time></trkpt><trkpt lat="45.42749967662132" lon="8.04581655890662"><ele>246.75</ele><time>2026-04-25T16:04:18.619Z</time></trkpt><trkpt lat="45.42739505289582" lon="8.045954551950073"><ele>247.5</ele><time>2026-04-25T16:04:19.619Z</time></trkpt><trkpt lat="45.42729682323744" lon="8.046098442014364"><ele>248.25</ele><time>2026-04-25T16:04:20.619Z</time></trkpt><trkpt lat="45.42719785983084" lon="8.046240310157057"><ele>249.0</ele><time>2026-04-25T16:04:21.619Z</time></trkpt><trkpt lat="45.42710678520196" lon="8.04639747090073"><ele>249.0</ele><time>2026-04-25T16:04:22.619Z</time></trkpt><trkpt lat="45.42701472156415" lon="8.046571299841121"><ele>249.0</ele><time>2026-04-25T16:04:23.619Z</time></trkpt><trkpt lat="45.42692230607481" lon="8.046742456898908"><ele>249.0</ele><time>2026-04-25T16:04:24.619Z</time></trkpt><trkpt lat="45.42683344649387" lon="8.046898733948222"><ele>249.0</ele><time>2026-04-25T16:04:25.619Z</time></trkpt><trkpt lat="45.426745627919885" lon="8.047043047946174"><ele>250.75</ele><time>2026-04-25T16:04:26.619Z</time></trkpt><trkpt lat="45.42666699535632" lon="8.047191425190812"><ele>252.5</ele><time>2026-04-25T16:04:27.619Z</time></trkpt><trkpt lat="45.4265784207056" lon="8.04736374470136"><ele>254.25</ele><time>2026-04-25T16:04:28.619Z</time></trkpt><trkpt lat="45.42647887701345" lon="8.04755489891114"><ele>256.0</ele><time>2026-04-25T16:04:29.619Z</time></trkpt><trkpt lat="45.42636546683784" lon="8.0477596572018"><ele>255.33333333333331</ele><time>2026-04-25T16:04:30.619Z</time></trkpt><trkpt lat="45.42625221106227" lon="8.047963594953437"><ele>254.66666666666669</ele><time>2026-04-25T16:04:31.619Z</time></trkpt><trkpt lat="45.42614515927116" lon="8.048155183226658"><ele>254.0</ele><time>2026-04-25T16:04:32.618Z</time></trkpt><trkpt lat="45.42604489285762" lon="8.048335845802178"><ele>256.25</ele><time>2026-04-25T16:04:33.618Z</time></trkpt><trkpt lat="45.42594656706906" lon="8.04850450408074"><ele>258.5</ele><time>2026-04-25T16:04:34.618Z</time></trkpt><trkpt lat="45.425846921838975" lon="8.048659033775454"><ele>260.75</ele><time>2026-04-25T16:04:35.618Z</time></trkpt><trkpt lat="45.42574696419142" lon="8.048810683199486"><ele>263.0</ele><time>2026-04-25T16:04:36.618Z</time></trkpt><trkpt lat="45.4256461449376" lon="8.048950929768823"><ele>263.0</ele><time>2026-04-25T16:04:37.618Z</time></trkpt><trkpt lat="45.425539992595525" lon="8.04908152306818"><ele>263.0</ele><time>2026-04-25T16:04:38.618Z</time></trkpt><trkpt lat="45.42542785451931" lon="8.049207015360636"><ele>263.0</ele><time>2026-04-25T16:04:39.618Z</time></trkpt><trkpt lat="45.42532675925184" lon="8.049336262620788"><ele>263.0</ele><time>2026-04-25T16:04:40.618Z</time></trkpt><trkpt lat="45.42523301438497" lon="8.049472784861871"><ele>262.5</ele><time>2026-04-25T16:04:41.618Z</time></trkpt><trkpt lat="45.42513073365711" lon="8.04960800171768"><ele>262.0</ele><time>2026-04-25T16:04:42.618Z</time></trkpt><trkpt lat="45.42502471926141" lon="8.049737656175171"><ele>261.5</ele><time>2026-04-25T16:04:43.618Z</time></trkpt><trkpt lat="45.42491217839413" lon="8.049866204286438"><ele>261.0</ele><time>2026-04-25T16:04:44.618Z</time></trkpt><trkpt lat="45.424799795897634" lon="8.049997407690586"><ele>262.0</ele><time>2026-04-25T16:04:45.618Z</time></trkpt><trkpt lat="45.42468061107194" lon="8.050125857072858"><ele>263.0</ele><time>2026-04-25T16:04:46.618Z</time></trkpt><trkpt lat="45.42455864680659" lon="8.050251534211824"><ele>264.0</ele><time>2026-04-25T16:04:47.618Z</time></trkpt><trkpt lat="45.42443182111437" lon="8.050368326360607"><ele>264.0</ele><time>2026-04-25T16:04:48.618Z</time></trkpt><trkpt lat="45.42429901338056" lon="8.050477493323688"><ele>264.0</ele><time>2026-04-25T16:04:49.617Z</time></trkpt><trkpt lat="45.42416205339759" lon="8.050573417725161"><ele>264.0</ele><time>2026-04-25T16:04:50.617Z</time></trkpt><trkpt lat="45.424022896684136" lon="8.050671984803438"><ele>264.0</ele><time>2026-04-25T16:04:51.617Z</time></trkpt><trkpt lat="45.42388490823997" lon="8.050773462017304"><ele>264.0</ele><time>2026-04-25T16:04:52.617Z</time></trkpt><trkpt lat="45.42375422143855" lon="8.05086759183798"><ele>264.0</ele><time>2026-04-25T16:04:53.617Z</time></trkpt><trkpt lat="45.42362887003649" lon="8.050959061586882"><ele>264.0</ele><time>2026-04-25T16:04:54.617Z</time></trkpt><trkpt lat="45.42351005333479" lon="8.051047530191946"><ele>264.59999999999997</ele><time>2026-04-25T16:04:55.617Z</time></trkpt><trkpt lat="45.423402000746286" lon="8.05111653320534"><ele>265.2</ele><time>2026-04-25T16:04:56.617Z</time></trkpt><trkpt lat="45.42330466770098" lon="8.051180067291071"><ele>265.79999999999995</ele><time>2026-04-25T16:04:57.617Z</time></trkpt><trkpt lat="45.42321234121832" lon="8.051233810228787"><ele>266.4</ele><time>2026-04-25T16:04:58.617Z</time></trkpt><trkpt lat="45.42312956128249" lon="8.051284138175548"><ele>267.0</ele><time>2026-04-25T16:04:59.617Z</time></trkpt><trkpt lat="45.423052666539014" lon="8.051339477431895"><ele>267.0</ele><time>2026-04-25T16:05:00.617Z</time></trkpt><trkpt lat="45.422982008896035" lon="8.051392023230699"><ele>267.0</ele><time>2026-04-25T16:05:01.617Z</time></trkpt><trkpt lat="45.42290964918024" lon="8.051447411980458"><ele>267.0</ele><time>2026-04-25T16:05:02.617Z</time></trkpt><trkpt lat="45.42283520062645" lon="8.051505361180462"><ele>267.0</ele><time>2026-04-25T16:05:03.617Z</time></trkpt><trkpt lat="45.422770550451304" lon="8.051553991020269"><ele>267.0</ele><time>2026-04-25T16:05:04.617Z</time></trkpt><trkpt lat="45.422682319000714" lon="8.05156263870536"><ele>267.0</ele><time>2026-04-25T16:05:06.616Z</time></trkpt><trkpt lat="45.42261435268555" lon="8.051484785631596"><ele>267.0</ele><time>2026-04-25T16:05:08.616Z</time></trkpt><trkpt lat="45.42256432670158" lon="8.051382623906884"><ele>267.0</ele><time>2026-04-25T16:05:10.616Z</time></trkpt><trkpt lat="45.42252191079139" lon="8.051248735133377"><ele>267.0</ele><time>2026-04-25T16:05:12.616Z</time></trkpt><trkpt lat="45.42246462898913" lon="8.051117420372941"><ele>267.0</ele><time>2026-04-25T16:05:14.616Z</time></trkpt><trkpt lat="45.42241065014912" lon="8.050993677387213"><ele>267.0</ele><time>2026-04-25T16:05:16.616Z</time></trkpt><trkpt lat="45.42236285971658" lon="8.050884120959656"><ele>265.6666666666667</ele><time>2026-04-25T16:05:18.616Z</time></trkpt><trkpt lat="45.422317610323056" lon="8.050780389703897"><ele>264.3333333333333</ele><time>2026-04-25T16:05:20.616Z</time></trkpt><trkpt lat="45.422278209125" lon="8.050690064800541"><ele>263.0</ele><time>2026-04-25T16:05:22.615Z</time></trkpt><trkpt lat="45.42222664871924" lon="8.050571864634634"><ele>261.66666666666663</ele><time>2026-04-25T16:05:25.615Z</time></trkpt><trkpt lat="45.42217462244755" lon="8.050490565806692"><ele>260.3333333333333</ele><time>2026-04-25T16:05:27.615Z</time></trkpt><trkpt lat="45.422131962856" lon="8.050358190288625"><ele>259.0</ele><time>2026-04-25T16:05:29.615Z</time></trkpt><trkpt lat="45.422086348587925" lon="8.05025462678674"><ele>258.0</ele><time>2026-04-25T16:05:31.615Z</time></trkpt><trkpt lat="45.42204458244489" lon="8.050159800141984"><ele>257.0</ele><time>2026-04-25T16:05:33.615Z</time></trkpt><trkpt lat="45.422008164358665" lon="8.050077115820562"><ele>256.0</ele><time>2026-04-25T16:05:35.615Z</time></trkpt><trkpt lat="45.42196715255963" lon="8.049984001849285"><ele>255.0</ele><time>2026-04-25T16:05:38.615Z</time></trkpt><trkpt lat="45.421923912868365" lon="8.049885829617178"><ele>253.99999999999997</ele><time>2026-04-25T16:05:43.614Z</time></trkpt><trkpt lat="45.421885247095105" lon="8.049798042121028"><ele>253.0</ele><time>2026-04-25T16:05:46.614Z</time></trkpt><trkpt lat="45.42184440678291" lon="8.049705317484742"><ele>251.83333333333331</ele><time>2026-04-25T16:05:49.615Z</time></trkpt><trkpt lat="45.421809179367976" lon="8.049625337070355"><ele>250.66666666666666</ele><time>2026-04-25T16:05:53.615Z</time></trkpt><trkpt lat="45.4217656493468" lon="8.049526512140059"><ele>249.5</ele><time>2026-04-25T16:05:59.614Z</time></trkpt><trkpt lat="45.42172991677125" lon="8.049445389533254"><ele>248.33333333333331</ele><time>2026-04-25T16:06:01.614Z</time></trkpt><trkpt lat="45.42168704110204" lon="8.049348050161859"><ele>247.16666666666666</ele><time>2026-04-25T16:06:03.615Z</time></trkpt><trkpt lat="45.42164184055635" lon="8.049245432718656"><ele>246.0</ele><time>2026-04-25T16:06:05.614Z</time></trkpt><trkpt lat="45.42159838399157" lon="8.04914673567242"><ele>245.42857142857144</ele><time>2026-04-25T16:06:07.614Z</time></trkpt><trkpt lat="45.42155795992548" lon="8.0490545525732"><ele>244.85714285714286</ele><time>2026-04-25T16:06:09.614Z</time></trkpt><trkpt lat="45.42152118759736" lon="8.048970696905608"><ele>244.28571428571428</ele><time>2026-04-25T16:06:13.614Z</time></trkpt><trkpt lat="45.42148750732187" lon="8.048893892350208"><ele>243.71428571428572</ele><time>2026-04-25T16:06:17.614Z</time></trkpt><trkpt lat="45.421435178211205" lon="8.04881769766002"><ele>243.1428571428571</ele><time>2026-04-25T16:06:22.613Z</time></trkpt><trkpt lat="45.421400986552946" lon="8.048724367473485"><ele>242.57142857142856</ele><time>2026-04-25T16:06:25.613Z</time></trkpt><trkpt lat="45.421370923351574" lon="8.048638920181011"><ele>242.0</ele><time>2026-04-25T16:06:27.613Z</time></trkpt><trkpt lat="45.42132504269544" lon="8.048557602300043"><ele>242.00000000000003</ele><time>2026-04-25T16:06:29.613Z</time></trkpt><trkpt lat="45.42127783002108" lon="8.048452429610547"><ele>242.0</ele><time>2026-04-25T16:06:31.613Z</time></trkpt><trkpt lat="45.42124194686504" lon="8.048332061744086"><ele>242.0</ele><time>2026-04-25T16:06:33.613Z</time></trkpt><trkpt lat="45.42119190559081" lon="8.048216965673573"><ele>242.0</ele><time>2026-04-25T16:06:35.613Z</time></trkpt><trkpt lat="45.42113803342876" lon="8.048093058021982"><ele>242.00000000000003</ele><time>2026-04-25T16:06:37.613Z</time></trkpt><trkpt lat="45.421100473046856" lon="8.048006668096823"><ele>242.0</ele><time>2026-04-25T16:06:39.612Z</time></trkpt><trkpt lat="45.42105462405836" lon="8.047901214028373"><ele>241.50000000000003</ele><time>2026-04-25T16:06:42.612Z</time></trkpt><trkpt lat="45.421011178810986" lon="8.047801290831753"><ele>241.0</ele><time>2026-04-25T16:06:45.612Z</time></trkpt><trkpt lat="45.42096958663211" lon="8.047706270557049"><ele>240.5</ele><time>2026-04-25T16:06:47.612Z</time></trkpt><trkpt lat="45.42091814606228" lon="8.047589095890986"><ele>240.0</ele><time>2026-04-25T16:06:49.612Z</time></trkpt><trkpt lat="45.42086575582649" lon="8.047470357478826"><ele>239.50000000000003</ele><time>2026-04-25T16:06:51.612Z</time></trkpt><trkpt lat="45.42082504835943" lon="8.04737809704329"><ele>239.0</ele><time>2026-04-25T16:06:53.612Z</time></trkpt><trkpt lat="45.420787999190054" lon="8.04729412786682"><ele>238.33333333333334</ele><time>2026-04-25T16:06:56.611Z</time></trkpt><trkpt lat="45.42074871314523" lon="8.047205089089653"><ele>237.66666666666669</ele><time>2026-04-25T16:07:00.611Z</time></trkpt><trkpt lat="45.42069476960318" lon="8.047121285363312"><ele>237.0</ele><time>2026-04-25T16:07:03.611Z</time></trkpt><trkpt lat="45.42069006479643" lon="8.04702764957553"><ele>236.33333333333331</ele><time>2026-04-25T16:07:05.611Z</time></trkpt><trkpt lat="45.42073534316316" lon="8.046950733922897"><ele>235.66666666666666</ele><time>2026-04-25T16:07:06.611Z</time></trkpt><trkpt lat="45.42080559399589" lon="8.046843656339728"><ele>235.0</ele><time>2026-04-25T16:07:08.611Z</time></trkpt><trkpt lat="45.42087839310413" lon="8.046784309006597"><ele>234.99999999999997</ele><time>2026-04-25T16:07:10.611Z</time></trkpt><trkpt lat="45.42094806396392" lon="8.046731589950973"><ele>235.0</ele><time>2026-04-25T16:07:12.61Z</time></trkpt><trkpt lat="45.421023377199646" lon="8.046675121493895"><ele>235.0</ele><time>2026-04-25T16:07:14.61Z</time></trkpt><trkpt lat="45.42109652651545" lon="8.046618521740134"><ele>235.0</ele><time>2026-04-25T16:07:17.61Z</time></trkpt><trkpt lat="45.42116857782763" lon="8.046560468401998"><ele>234.99999999999997</ele><time>2026-04-25T16:07:21.61Z</time></trkpt><trkpt lat="45.42123065632338" lon="8.046510272440907"><ele>235.0</ele><time>2026-04-25T16:07:23.61Z</time></trkpt><trkpt lat="45.42130853600094" lon="8.04646629999826"><ele>234.33333333333331</ele><time>2026-04-25T16:07:25.61Z</time></trkpt><trkpt lat="45.42137639896648" lon="8.04640737335629"><ele>233.66666666666666</ele><time>2026-04-25T16:07:27.61Z</time></trkpt><trkpt lat="45.421456300209165" lon="8.046347171277041"><ele>233.0</ele><time>2026-04-25T16:07:29.609Z</time></trkpt><trkpt lat="45.42148576225893" lon="8.046253626160334"><ele>232.33333333333331</ele><time>2026-04-25T16:07:32.609Z</time></trkpt><trkpt lat="45.421422131819845" lon="8.046257555185884"><ele>231.66666666666666</ele><time>2026-04-25T16:07:35.609Z</time></trkpt><trkpt lat="45.42136275758994" lon="8.04634445941053"><ele>231.0</ele><time>2026-04-25T16:07:37.609Z</time></trkpt><trkpt lat="45.42130715580294" lon="8.046390425166644"><ele>230.83333333333334</ele><time>2026-04-25T16:07:39.609Z</time></trkpt><trkpt lat="45.42124904241644" lon="8.046451539782407"><ele>230.66666666666669</ele><time>2026-04-25T16:07:42.609Z</time></trkpt><trkpt lat="45.42117023803178" lon="8.046487644250018"><ele>230.5</ele><time>2026-04-25T16:07:45.608Z</time></trkpt><trkpt lat="45.421093336142086" lon="8.046531774340867"><ele>230.33333333333334</ele><time>2026-04-25T16:07:48.608Z</time></trkpt><trkpt lat="45.421032966637256" lon="8.04660478170899"><ele>230.16666666666669</ele><time>2026-04-25T16:07:50.608Z</time></trkpt><trkpt lat="45.42097950726607" lon="8.046663497346595"><ele>230.0</ele><time>2026-04-25T16:07:52.608Z</time></trkpt><trkpt lat="45.420910788965614" lon="8.046718442295834"><ele>230.83333333333334</ele><time>2026-04-25T16:07:54.608Z</time></trkpt><trkpt lat="45.42083424244854" lon="8.046793196318156"><ele>231.66666666666669</ele><time>2026-04-25T16:07:56.609Z</time></trkpt><trkpt lat="45.42078436556788" lon="8.046872857595597"><ele>232.5</ele><time>2026-04-25T16:07:58.609Z</time></trkpt><trkpt lat="45.42071075178533" lon="8.046978688954308"><ele>233.33333333333331</ele><time>2026-04-25T16:08:00.608Z</time></trkpt><trkpt lat="45.420651099321084" lon="8.047051033954947"><ele>234.16666666666666</ele><time>2026-04-25T16:08:02.608Z</time></trkpt><trkpt lat="45.420580320418665" lon="8.047127260809408"><ele>235.0</ele><time>2026-04-25T16:08:05.609Z</time></trkpt><trkpt lat="45.420516386595565" lon="8.047197441842885"><ele>234.66666666666666</ele><time>2026-04-25T16:08:08.608Z</time></trkpt><trkpt lat="45.42045480191076" lon="8.047263968669517"><ele>234.33333333333331</ele><time>2026-04-25T16:08:11.608Z</time></trkpt><trkpt lat="45.420388868226745" lon="8.047323712922356"><ele>234.0</ele><time>2026-04-25T16:08:14.608Z</time></trkpt><trkpt lat="45.420324341426124" lon="8.047409101868512"><ele>233.66666666666669</ele><time>2026-04-25T16:08:19.607Z</time></trkpt><trkpt lat="45.42025845233195" lon="8.047469608117467"><ele>233.33333333333334</ele><time>2026-04-25T16:08:22.607Z</time></trkpt><trkpt lat="45.42019428881329" lon="8.047516562726367"><ele>233.0</ele><time>2026-04-25T16:08:24.607Z</time></trkpt><trkpt lat="45.42012101635607" lon="8.047573491385098"><ele>233.0</ele><time>2026-04-25T16:08:27.607Z</time></trkpt><trkpt lat="45.420069123603795" lon="8.047628551515729"><ele>233.0</ele><time>2026-04-25T16:08:29.607Z</time></trkpt><trkpt lat="45.42001270590591" lon="8.04766900565105"><ele>233.0</ele><time>2026-04-25T16:08:31.607Z</time></trkpt><trkpt lat="45.419928421981375" lon="8.047723989993337"><ele>233.0</ele><time>2026-04-25T16:08:34.606Z</time></trkpt><trkpt lat="45.4198535158244" lon="8.04777114185815"><ele>233.0</ele><time>2026-04-25T16:08:37.606Z</time></trkpt><trkpt lat="45.419797339148055" lon="8.047826575673588"><ele>233.0</ele><time>2026-04-25T16:08:40.606Z</time></trkpt><trkpt lat="45.41973788131065" lon="8.047880936835858"><ele>233.0</ele><time>2026-04-25T16:08:43.606Z</time></trkpt><trkpt lat="45.41968720517301" lon="8.047934297244264"><ele>232.85714285714286</ele><time>2026-04-25T16:08:47.606Z</time></trkpt><trkpt lat="45.41962612850615" lon="8.047982435622442"><ele>232.71428571428572</ele><time>2026-04-25T16:08:51.605Z</time></trkpt><trkpt lat="45.419563331353544" lon="8.048025046836031"><ele>232.57142857142858</ele><time>2026-04-25T16:08:53.605Z</time></trkpt><trkpt lat="45.419490733027416" lon="8.048072587553474"><ele>232.42857142857144</ele><time>2026-04-25T16:08:55.605Z</time></trkpt><trkpt lat="45.419429348544355" lon="8.048129983655523"><ele>232.28571428571428</ele><time>2026-04-25T16:08:57.605Z</time></trkpt><trkpt lat="45.41935457015615" lon="8.048193930219728"><ele>232.14285714285717</ele><time>2026-04-25T16:09:00.605Z</time></trkpt><trkpt lat="45.4192963795308" lon="8.04823510913298"><ele>232.00000000000003</ele><time>2026-04-25T16:09:02.605Z</time></trkpt><trkpt lat="45.419225059319714" lon="8.048287632781019"><ele>232.16666666666666</ele><time>2026-04-25T16:09:04.605Z</time></trkpt><trkpt lat="45.419157360565" lon="8.04832841167043"><ele>232.33333333333331</ele><time>2026-04-25T16:09:06.855Z</time></trkpt><trkpt lat="45.41909206301489" lon="8.048391055085558"><ele>232.5</ele><time>2026-04-25T16:09:09.855Z</time></trkpt><trkpt lat="45.41901550819585" lon="8.04843914221314"><ele>232.66666666666669</ele><time>2026-04-25T16:09:12.855Z</time></trkpt><trkpt lat="45.418931635709214" lon="8.048494899309915"><ele>232.83333333333334</ele><time>2026-04-25T16:09:14.855Z</time></trkpt><trkpt lat="45.41883331471297" lon="8.048574736027028"><ele>233.0</ele><time>2026-04-25T16:09:16.855Z</time></trkpt><trkpt lat="45.41878247067858" lon="8.048642293743614"><ele>233.0</ele><time>2026-04-25T16:09:17.855Z</time></trkpt><trkpt lat="45.41872680542371" lon="8.048687223598858"><ele>233.0</ele><time>2026-04-25T16:09:18.855Z</time></trkpt><trkpt lat="45.41866967164964" lon="8.048732524337579"><ele>233.0</ele><time>2026-04-25T16:09:19.855Z</time></trkpt><trkpt lat="45.41860380301717" lon="8.048784750895411"><ele>233.0</ele><time>2026-04-25T16:09:20.855Z</time></trkpt><trkpt lat="45.41852890893754" lon="8.048818528313436"><ele>233.0</ele><time>2026-04-25T16:09:21.855Z</time></trkpt><trkpt lat="45.418469152546315" lon="8.048891514701447"><ele>233.0</ele><time>2026-04-25T16:09:22.855Z</time></trkpt><trkpt lat="45.4184035942179" lon="8.048949382627816"><ele>233.0</ele><time>2026-04-25T16:09:23.855Z</time></trkpt><trkpt lat="45.418325474703295" lon="8.048986808172442"><ele>233.00000000000003</ele><time>2026-04-25T16:09:24.855Z</time></trkpt><trkpt lat="45.418253862037794" lon="8.049013985171566"><ele>233.0</ele><time>2026-04-25T16:09:25.855Z</time></trkpt><trkpt lat="45.418160278055524" lon="8.049044959339142"><ele>233.0</ele><time>2026-04-25T16:09:27.856Z</time></trkpt><trkpt lat="45.41808610775442" lon="8.049022428036269"><ele>233.0</ele><time>2026-04-25T16:09:31.856Z</time></trkpt><trkpt lat="45.41801323317072" lon="8.04903372821227"><ele>233.00000000000003</ele><time>2026-04-25T16:09:34.856Z</time></trkpt><trkpt lat="45.41794750684683" lon="8.049023712489884"><ele>233.0</ele><time>2026-04-25T16:09:39.856Z</time></trkpt><trkpt lat="45.41788058591889" lon="8.04899656309332"><ele>232.33333333333334</ele><time>2026-04-25T16:09:43.856Z</time></trkpt><trkpt lat="45.41781070773832" lon="8.048983629293808"><ele>231.66666666666669</ele><time>2026-04-25T16:09:46.856Z</time></trkpt><trkpt lat="45.417743213752445" lon="8.048984981751866"><ele>231.0</ele><time>2026-04-25T16:09:51.856Z</time></trkpt><trkpt lat="45.417658617728684" lon="8.048964321695419"><ele>230.33333333333331</ele><time>2026-04-25T16:10:01.857Z</time></trkpt><trkpt lat="45.41759612445995" lon="8.048976659398045"><ele>229.66666666666666</ele><time>2026-04-25T16:10:03.858Z</time></trkpt><trkpt lat="45.41748062587874" lon="8.048946992434702"><ele>229.0</ele><time>2026-04-25T16:10:05.858Z</time></trkpt><trkpt lat="45.41740963246147" lon="8.048934225686509"><ele>228.99999999999997</ele><time>2026-04-25T16:10:06.858Z</time></trkpt><trkpt lat="45.41733763397041" lon="8.048915573396659"><ele>229.0</ele><time>2026-04-25T16:10:07.858Z</time></trkpt><trkpt lat="45.4172679898386" lon="8.048898961551727"><ele>229.0</ele><time>2026-04-25T16:10:08.858Z</time></trkpt><trkpt lat="45.417201533837385" lon="8.04888947823725"><ele>229.0</ele><time>2026-04-25T16:10:09.858Z</time></trkpt><trkpt lat="45.41712813596677" lon="8.048870825937852"><ele>228.99999999999997</ele><time>2026-04-25T16:10:10.858Z</time></trkpt><trkpt lat="45.41706237964349" lon="8.048855642555008"><ele>229.0</ele><time>2026-04-25T16:10:11.858Z</time></trkpt><trkpt lat="45.41695271377194" lon="8.048834140973867"><ele>229.2</ele><time>2026-04-25T16:10:13.859Z</time></trkpt><trkpt lat="45.4168599829718" lon="8.048817161328513"><ele>229.39999999999998</ele><time>2026-04-25T16:10:15.859Z</time></trkpt><trkpt lat="45.416764965008284" lon="8.048794539505215"><ele>229.6</ele><time>2026-04-25T16:10:17.859Z</time></trkpt><trkpt lat="45.41667352620376" lon="8.048775136872655"><ele>229.8</ele><time>2026-04-25T16:10:19.859Z</time></trkpt><trkpt lat="45.41658692953453" lon="8.048767232704103"><ele>230.0</ele><time>2026-04-25T16:10:21.859Z</time></trkpt><trkpt lat="45.416499219506775" lon="8.048755528051306"><ele>230.0</ele><time>2026-04-25T16:10:23.859Z</time></trkpt><trkpt lat="45.4164081102747" lon="8.04874358661804"><ele>230.0</ele><time>2026-04-25T16:10:25.859Z</time></trkpt><trkpt lat="45.41632553384243" lon="8.048730465461933"><ele>230.0</ele><time>2026-04-25T16:10:27.859Z</time></trkpt><trkpt lat="45.41623413622868" lon="8.048732715337428"><ele>230.0</ele><time>2026-04-25T16:10:29.859Z</time></trkpt><trkpt lat="45.416120753964194" lon="8.048719818236693"><ele>230.0</ele><time>2026-04-25T16:10:31.859Z</time></trkpt><trkpt lat="45.41602269224795" lon="8.048714773488847"><ele>231.0</ele><time>2026-04-25T16:10:33.859Z</time></trkpt><trkpt lat="45.41595709048632" lon="8.048720614039224"><ele>231.0</ele><time>2026-04-25T16:10:35.859Z</time></trkpt></trkseg><trkseg><trkpt lat="45.415809956722505" lon="8.048759839923658"><ele>231.0</ele><time>2026-04-25T18:01:32.999Z</time></trkpt><trkpt lat="45.41574363506512" lon="8.048817991332399"><ele>231.0</ele><time>2026-04-25T18:01:40.999Z</time></trkpt><trkpt lat="45.415633435826294" lon="8.04889258344272"><ele>231.0</ele><time>2026-04-25T18:01:42.999Z</time></trkpt><trkpt lat="45.415563740165545" lon="8.048936628811216"><ele>231.0</ele><time>2026-04-25T18:01:43.999Z</time></trkpt><trkpt lat="45.415490882106745" lon="8.048983572458358"><ele>231.0</ele><time>2026-04-25T18:01:44.999Z</time></trkpt><trkpt lat="45.4154223565807" lon="8.049017789417876"><ele>231.0</ele><time>2026-04-25T18:01:45.999Z</time></trkpt><trkpt lat="45.41533799603073" lon="8.049038434214285"><ele>230.83333333333334</ele><time>2026-04-25T18:01:46.999Z</time></trkpt><trkpt lat="45.415259456492365" lon="8.049044921046297"><ele>230.66666666666669</ele><time>2026-04-25T18:01:47.999Z</time></trkpt><trkpt lat="45.41518054103208" lon="8.049035817810122"><ele>230.5</ele><time>2026-04-25T18:01:48.999Z</time></trkpt><trkpt lat="45.415110725244396" lon="8.049019651379325"><ele>230.33333333333334</ele><time>2026-04-25T18:01:49.999Z</time></trkpt><trkpt lat="45.41499412576775" lon="8.048993026791143"><ele>230.16666666666669</ele><time>2026-04-25T18:01:51.999Z</time></trkpt><trkpt lat="45.414897828795056" lon="8.048975694778846"><ele>230.0</ele><time>2026-04-25T18:01:53.999Z</time></trkpt><trkpt lat="45.41477776727283" lon="8.048961360766416"><ele>229.99999999999997</ele><time>2026-04-25T18:01:55.999Z</time></trkpt><trkpt lat="45.41470997684117" lon="8.048950161428783"><ele>230.0</ele><time>2026-04-25T18:01:56.999Z</time></trkpt><trkpt lat="45.414638027450735" lon="8.048939299598393"><ele>229.99999999999997</ele><time>2026-04-25T18:01:57.999Z</time></trkpt><trkpt lat="45.41456241775357" lon="8.048929970242009"><ele>229.99999999999997</ele><time>2026-04-25T18:01:58.999Z</time></trkpt><trkpt lat="45.41448732764795" lon="8.04891954110877"><ele>230.0</ele><time>2026-04-25T18:01:59.999Z</time></trkpt><trkpt lat="45.41442052609854" lon="8.04891096376596"><ele>229.99999999999997</ele><time>2026-04-25T18:02:00.999Z</time></trkpt><trkpt lat="45.41435297050907" lon="8.048903365120989"><ele>229.99999999999997</ele><time>2026-04-25T18:02:01.999Z</time></trkpt><trkpt lat="45.414286105082134" lon="8.048894733831556"><ele>230.16666666666669</ele><time>2026-04-25T18:02:02.999Z</time></trkpt><trkpt lat="45.41421532672569" lon="8.048886079166232"><ele>230.33333333333334</ele><time>2026-04-25T18:02:03.999Z</time></trkpt><trkpt lat="45.41414821319523" lon="8.048878433828175"><ele>230.5</ele><time>2026-04-25T18:02:04.999Z</time></trkpt><trkpt lat="45.41408184677699" lon="8.048871617379701"><ele>230.66666666666669</ele><time>2026-04-25T18:02:05.999Z</time></trkpt><trkpt lat="45.41401487170127" lon="8.048864813369933"><ele>230.83333333333334</ele><time>2026-04-25T18:02:06.999Z</time></trkpt><trkpt lat="45.413948525029674" lon="8.048855078454862"><ele>231.0</ele><time>2026-04-25T18:02:07.999Z</time></trkpt><trkpt lat="45.41383782178492" lon="8.048839233204632"><ele>231.16666666666666</ele><time>2026-04-25T18:02:09.999Z</time></trkpt><trkpt lat="45.4137541206524" lon="8.048832542215177"><ele>231.33333333333331</ele><time>2026-04-25T18:02:11.999Z</time></trkpt><trkpt lat="45.413645354052214" lon="8.04881068008264"><ele>231.5</ele><time>2026-04-25T18:02:13.999Z</time></trkpt><trkpt lat="45.41357510994723" lon="8.048810951020275"><ele>231.66666666666666</ele><time>2026-04-25T18:02:14.999Z</time></trkpt><trkpt lat="45.41350525219146" lon="8.048777107242012"><ele>231.83333333333331</ele><time>2026-04-25T18:02:15.999Z</time></trkpt><trkpt lat="45.41344352102105" lon="8.048728901999604"><ele>232.0</ele><time>2026-04-25T18:02:16.999Z</time></trkpt><trkpt lat="45.41337693259854" lon="8.048661965002433"><ele>231.99999999999997</ele><time>2026-04-25T18:02:17.999Z</time></trkpt><trkpt lat="45.413307537924084" lon="8.048587985669048"><ele>232.0</ele><time>2026-04-25T18:02:18.999Z</time></trkpt><trkpt lat="45.413240263125786" lon="8.048516779181078"><ele>232.0</ele><time>2026-04-25T18:02:19.999Z</time></trkpt><trkpt lat="45.413174538010345" lon="8.048445293123384"><ele>232.0</ele><time>2026-04-25T18:02:20.999Z</time></trkpt><trkpt lat="45.41311254302223" lon="8.048386662643193"><ele>231.99999999999997</ele><time>2026-04-25T18:02:21.998Z</time></trkpt><trkpt lat="45.41304075491587" lon="8.048354401458067"><ele>232.0</ele><time>2026-04-25T18:02:22.998Z</time></trkpt><trkpt lat="45.41294868411067" lon="8.048363350880168"><ele>232.49999999999997</ele><time>2026-04-25T18:02:23.998Z</time></trkpt><trkpt lat="45.412860970117485" lon="8.048393370322561"><ele>233.0</ele><time>2026-04-25T18:02:24.998Z</time></trkpt><trkpt lat="45.41278134119086" lon="8.048442502793316"><ele>233.5</ele><time>2026-04-25T18:02:25.998Z</time></trkpt><trkpt lat="45.4126990890809" lon="8.04848162119658"><ele>234.0</ele><time>2026-04-25T18:02:26.998Z</time></trkpt><trkpt lat="45.41262363918266" lon="8.048520333837917"><ele>234.49999999999997</ele><time>2026-04-25T18:02:27.998Z</time></trkpt><trkpt lat="45.41255486345318" lon="8.048547986561962"><ele>235.0</ele><time>2026-04-25T18:02:28.998Z</time></trkpt><trkpt lat="45.41249784719853" lon="8.048593533876238"><ele>235.0</ele><time>2026-04-25T18:02:29.998Z</time></trkpt><trkpt lat="45.412444000976606" lon="8.048649452204923"><ele>234.99999999999997</ele><time>2026-04-25T18:02:30.998Z</time></trkpt><trkpt lat="45.41238231614578" lon="8.04870094527152"><ele>235.0</ele><time>2026-04-25T18:02:31.998Z</time></trkpt><trkpt lat="45.41232910506906" lon="8.048766925841742"><ele>235.0</ele><time>2026-04-25T18:02:32.998Z</time></trkpt><trkpt lat="45.41227903995142" lon="8.048847026942704"><ele>234.99999999999997</ele><time>2026-04-25T18:02:33.998Z</time></trkpt><trkpt lat="45.41223398695274" lon="8.048930756115109"><ele>235.0</ele><time>2026-04-25T18:02:34.998Z</time></trkpt><trkpt lat="45.412194961602815" lon="8.049022713752732"><ele>235.0</ele><time>2026-04-25T18:02:35.998Z</time></trkpt><trkpt lat="45.41217286526096" lon="8.049137882089033"><ele>235.2</ele><time>2026-04-25T18:02:36.998Z</time></trkpt><trkpt lat="45.412140648136884" lon="8.049248476778002"><ele>235.4</ele><time>2026-04-25T18:02:37.998Z</time></trkpt><trkpt lat="45.41209274334823" lon="8.049359716010287"><ele>235.60000000000002</ele><time>2026-04-25T18:02:38.998Z</time></trkpt><trkpt lat="45.41207258074912" lon="8.049488042301958"><ele>235.8</ele><time>2026-04-25T18:02:39.998Z</time></trkpt><trkpt lat="45.412039301025594" lon="8.049612229790798"><ele>236.0</ele><time>2026-04-25T18:02:40.998Z</time></trkpt><trkpt lat="45.41201296641508" lon="8.049741016138784"><ele>236.00000000000003</ele><time>2026-04-25T18:02:41.998Z</time></trkpt><trkpt lat="45.41198908752897" lon="8.04987264756262"><ele>236.0</ele><time>2026-04-25T18:02:42.998Z</time></trkpt><trkpt lat="45.411980924951706" lon="8.049992576436795"><ele>236.0</ele><time>2026-04-25T18:02:43.998Z</time></trkpt><trkpt lat="45.411981461786795" lon="8.050107699882059"><ele>236.0</ele><time>2026-04-25T18:02:44.998Z</time></trkpt><trkpt lat="45.411978900327476" lon="8.050213319074473"><ele>236.00000000000003</ele><time>2026-04-25T18:02:45.998Z</time></trkpt><trkpt lat="45.4119799608335" lon="8.050319135242548"><ele>236.0</ele><time>2026-04-25T18:02:46.998Z</time></trkpt><trkpt lat="45.41198367635323" lon="8.050426777289118"><ele>235.83333333333334</ele><time>2026-04-25T18:02:47.998Z</time></trkpt><trkpt lat="45.41198877419458" lon="8.05054356037618"><ele>235.66666666666669</ele><time>2026-04-25T18:02:48.998Z</time></trkpt><trkpt lat="45.41199269777495" lon="8.050663883532023"><ele>235.5</ele><time>2026-04-25T18:02:49.998Z</time></trkpt><trkpt lat="45.412002478012305" lon="8.050781484465835"><ele>235.33333333333331</ele><time>2026-04-25T18:02:50.998Z</time></trkpt><trkpt lat="45.411991736661456" lon="8.050902334954237"><ele>235.16666666666666</ele><time>2026-04-25T18:02:51.998Z</time></trkpt><trkpt lat="45.41199503709014" lon="8.0510069292458"><ele>235.0</ele><time>2026-04-25T18:02:52.998Z</time></trkpt><trkpt lat="45.4119945282658" lon="8.051108313356096"><ele>234.99999999999997</ele><time>2026-04-25T18:02:53.998Z</time></trkpt><trkpt lat="45.41198653308528" lon="8.051212872688211"><ele>235.0</ele><time>2026-04-25T18:02:54.998Z</time></trkpt><trkpt lat="45.41197869644891" lon="8.051307605751637"><ele>235.0</ele><time>2026-04-25T18:02:55.998Z</time></trkpt><trkpt lat="45.411972399003005" lon="8.051411921839245"><ele>235.0</ele><time>2026-04-25T18:02:56.998Z</time></trkpt><trkpt lat="45.41197531710658" lon="8.051525668270047"><ele>234.99999999999997</ele><time>2026-04-25T18:02:57.998Z</time></trkpt><trkpt lat="45.41197661864479" lon="8.05165605545663"><ele>235.0</ele><time>2026-04-25T18:02:58.998Z</time></trkpt><trkpt lat="45.41198078304878" lon="8.051780447740498"><ele>235.0</ele><time>2026-04-25T18:02:59.998Z</time></trkpt><trkpt lat="45.411979349163424" lon="8.051905303924473"><ele>235.0</ele><time>2026-04-25T18:03:00.998Z</time></trkpt><trkpt lat="45.41198187839203" lon="8.052040208840978"><ele>235.0</ele><time>2026-04-25T18:03:01.998Z</time></trkpt><trkpt lat="45.41198558601728" lon="8.052180742811903"><ele>235.0</ele><time>2026-04-25T18:03:02.998Z</time></trkpt><trkpt lat="45.41199122664216" lon="8.05232360261983"><ele>235.0</ele><time>2026-04-25T18:03:03.998Z</time></trkpt><trkpt lat="45.41198202573526" lon="8.05248962299429"><ele>235.0</ele><time>2026-04-25T18:03:04.998Z</time></trkpt><trkpt lat="45.41196461698884" lon="8.05264542445168"><ele>235.0</ele><time>2026-04-25T18:03:05.998Z</time></trkpt><trkpt lat="45.411940883682064" lon="8.052793228062626"><ele>235.0</ele><time>2026-04-25T18:03:06.998Z</time></trkpt><trkpt lat="45.411910675168826" lon="8.052943563364659"><ele>235.0</ele><time>2026-04-25T18:03:07.998Z</time></trkpt><trkpt lat="45.41187899488561" lon="8.053093309959245"><ele>235.0</ele><time>2026-04-25T18:03:08.998Z</time></trkpt><trkpt lat="45.41184602982647" lon="8.053249793611956"><ele>234.4</ele><time>2026-04-25T18:03:09.998Z</time></trkpt><trkpt lat="45.411812480546715" lon="8.053406871967097"><ele>233.8</ele><time>2026-04-25T18:03:10.998Z</time></trkpt><trkpt lat="45.41178387745428" lon="8.053564165118225"><ele>233.2</ele><time>2026-04-25T18:03:11.997Z</time></trkpt><trkpt lat="45.41176117424788" lon="8.053712397438336"><ele>232.6</ele><time>2026-04-25T18:03:12.997Z</time></trkpt><trkpt lat="45.41174032241614" lon="8.053852525508557"><ele>232.0</ele><time>2026-04-25T18:03:13.997Z</time></trkpt><trkpt lat="45.41171424432105" lon="8.053978910485196"><ele>231.99999999999997</ele><time>2026-04-25T18:03:14.997Z</time></trkpt><trkpt lat="45.411696296651805" lon="8.054088625949392"><ele>232.0</ele><time>2026-04-25T18:03:15.997Z</time></trkpt><trkpt lat="45.411690806061664" lon="8.054189929497463"><ele>232.0</ele><time>2026-04-25T18:03:16.997Z</time></trkpt><trkpt lat="45.41167163071167" lon="8.054280066696553"><ele>232.0</ele><time>2026-04-25T18:03:17.997Z</time></trkpt><trkpt lat="45.4117633917405" lon="8.054336885550212"><ele>231.99999999999997</ele><time>2026-04-25T18:03:18.997Z</time></trkpt><trkpt lat="45.41184753267176" lon="8.054404362964188"><ele>232.0</ele><time>2026-04-25T18:03:20.997Z</time></trkpt><trkpt lat="45.41193952835001" lon="8.054447683084836"><ele>232.0</ele><time>2026-04-25T18:03:22.997Z</time></trkpt><trkpt lat="45.41207562516149" lon="8.054402634427689"><ele>232.0</ele><time>2026-04-25T18:03:24.997Z</time></trkpt><trkpt lat="45.41217106975551" lon="8.054355173810801"><ele>232.0</ele><time>2026-04-25T18:03:25.997Z</time></trkpt><trkpt lat="45.41227863490146" lon="8.05429909364246"><ele>232.0</ele><time>2026-04-25T18:03:26.997Z</time></trkpt><trkpt lat="45.41238898126692" lon="8.054243654482427"><ele>232.0</ele><time>2026-04-25T18:03:27.997Z</time></trkpt><trkpt lat="45.4124936785706" lon="8.054198556686465"><ele>232.0</ele><time>2026-04-25T18:03:28.997Z</time></trkpt><trkpt lat="45.41260457266509" lon="8.054151425145974"><ele>232.0</ele><time>2026-04-25T18:03:29.997Z</time></trkpt><trkpt lat="45.4127220243928" lon="8.05410239349121"><ele>232.0</ele><time>2026-04-25T18:03:30.997Z</time></trkpt><trkpt lat="45.412848198688664" lon="8.054045596961448"><ele>232.0</ele><time>2026-04-25T18:03:31.997Z</time></trkpt><trkpt lat="45.412977760181874" lon="8.05399119202804"><ele>232.0</ele><time>2026-04-25T18:03:32.997Z</time></trkpt><trkpt lat="45.41311212301803" lon="8.053937628441936"><ele>232.0</ele><time>2026-04-25T18:03:33.997Z</time></trkpt><trkpt lat="45.413244484257234" lon="8.053879539275155"><ele>232.0</ele><time>2026-04-25T18:03:34.997Z</time></trkpt><trkpt lat="45.413369144778166" lon="8.053826418126413"><ele>232.75</ele><time>2026-04-25T18:03:35.997Z</time></trkpt><trkpt lat="45.4134937956265" lon="8.053772645789321"><ele>233.5</ele><time>2026-04-25T18:03:36.997Z</time></trkpt><trkpt lat="45.41362412404371" lon="8.053717207504452"><ele>234.25</ele><time>2026-04-25T18:03:37.997Z</time></trkpt><trkpt lat="45.41375719848056" lon="8.053662003899062"><ele>235.0</ele><time>2026-04-25T18:03:38.997Z</time></trkpt><trkpt lat="45.41389243761179" lon="8.053606713518006"><ele>237.5</ele><time>2026-04-25T18:03:39.997Z</time></trkpt><trkpt lat="45.414029992729475" lon="8.053556320309156"><ele>240.0</ele><time>2026-04-25T18:03:40.997Z</time></trkpt><trkpt lat="45.414169146448" lon="8.053521327444363"><ele>242.5</ele><time>2026-04-25T18:03:41.997Z</time></trkpt><trkpt lat="45.41431070264344" lon="8.053505457677247"><ele>245.0</ele><time>2026-04-25T18:03:42.997Z</time></trkpt><trkpt lat="45.41444935389579" lon="8.053521708608724"><ele>245.0</ele><time>2026-04-25T18:03:43.997Z</time></trkpt><trkpt lat="45.414584430764364" lon="8.0535559476587"><ele>245.0</ele><time>2026-04-25T18:03:44.997Z</time></trkpt><trkpt lat="45.41471279067761" lon="8.053605651650386"><ele>245.0</ele><time>2026-04-25T18:03:45.997Z</time></trkpt><trkpt lat="45.414844263918916" lon="8.05367329703289"><ele>245.0</ele><time>2026-04-25T18:03:46.997Z</time></trkpt><trkpt lat="45.41496327484957" lon="8.053769281096818"><ele>246.5</ele><time>2026-04-25T18:03:47.997Z</time></trkpt><trkpt lat="45.415070443876736" lon="8.053887931612268"><ele>248.0</ele><time>2026-04-25T18:03:48.997Z</time></trkpt><trkpt lat="45.415179617065185" lon="8.054012443991946"><ele>249.5</ele><time>2026-04-25T18:03:49.997Z</time></trkpt><trkpt lat="45.41528602825095" lon="8.05413891359952"><ele>251.0</ele><time>2026-04-25T18:03:50.997Z</time></trkpt><trkpt lat="45.41539168866076" lon="8.054268012847643"><ele>255.25</ele><time>2026-04-25T18:03:51.997Z</time></trkpt><trkpt lat="45.41549436642108" lon="8.054393037719514"><ele>259.5</ele><time>2026-04-25T18:03:52.997Z</time></trkpt><trkpt lat="45.41560296155582" lon="8.054519289477588"><ele>263.75</ele><time>2026-04-25T18:03:53.997Z</time></trkpt><trkpt lat="45.415711773017996" lon="8.054648070109605"><ele>268.0</ele><time>2026-04-25T18:03:54.997Z</time></trkpt><trkpt lat="45.41580934861325" lon="8.054786489009155"><ele>268.0</ele><time>2026-04-25T18:03:55.997Z</time></trkpt><trkpt lat="45.41592140166607" lon="8.054896550526415"><ele>268.0</ele><time>2026-04-25T18:03:56.997Z</time></trkpt><trkpt lat="45.41602556266561" lon="8.055019060957703"><ele>268.0</ele><time>2026-04-25T18:03:57.997Z</time></trkpt><trkpt lat="45.416120896629884" lon="8.055135429572617"><ele>268.0</ele><time>2026-04-25T18:03:58.997Z</time></trkpt><trkpt lat="45.41622507641462" lon="8.055234377295639"><ele>269.0</ele><time>2026-04-25T18:03:59.997Z</time></trkpt><trkpt lat="45.41633162018438" lon="8.055320719426643"><ele>270.0</ele><time>2026-04-25T18:04:00.997Z</time></trkpt><trkpt lat="45.4164455158115" lon="8.055394234575848"><ele>271.0</ele><time>2026-04-25T18:04:01.997Z</time></trkpt><trkpt lat="45.416576126824175" lon="8.055440606090169"><ele>272.0</ele><time>2026-04-25T18:04:02.996Z</time></trkpt><trkpt lat="45.41671990785705" lon="8.055482824857366"><ele>272.0</ele><time>2026-04-25T18:04:03.996Z</time></trkpt><trkpt lat="45.41687138555186" lon="8.055503009541905"><ele>272.0</ele><time>2026-04-25T18:04:04.996Z</time></trkpt><trkpt lat="45.4170293128954" lon="8.055514537332602"><ele>272.0</ele><time>2026-04-25T18:04:05.996Z</time></trkpt><trkpt lat="45.41718682927764" lon="8.05552472011077"><ele>271.5</ele><time>2026-04-25T18:04:06.996Z</time></trkpt><trkpt lat="45.41733488437995" lon="8.055520034967094"><ele>271.0</ele><time>2026-04-25T18:04:07.996Z</time></trkpt><trkpt lat="45.41747804779361" lon="8.055512316111898"><ele>270.5</ele><time>2026-04-25T18:04:08.996Z</time></trkpt><trkpt lat="45.41762374531471" lon="8.05549698675902"><ele>270.0</ele><time>2026-04-25T18:04:09.996Z</time></trkpt><trkpt lat="45.4177619560706" lon="8.055476493034593"><ele>270.0</ele><time>2026-04-25T18:04:10.996Z</time></trkpt><trkpt lat="45.417903064275976" lon="8.055453603423278"><ele>270.0</ele><time>2026-04-25T18:04:11.996Z</time></trkpt><trkpt lat="45.41804585280018" lon="8.055423017981951"><ele>270.0</ele><time>2026-04-25T18:04:12.996Z</time></trkpt><trkpt lat="45.41819445225225" lon="8.055435919205571"><ele>270.0</ele><time>2026-04-25T18:04:13.996Z</time></trkpt><trkpt lat="45.418346268734496" lon="8.055448455914274"><ele>268.3333333333333</ele><time>2026-04-25T18:04:14.996Z</time></trkpt><trkpt lat="45.418496331968434" lon="8.055493159755471"><ele>266.66666666666663</ele><time>2026-04-25T18:04:15.996Z</time></trkpt><trkpt lat="45.418651099810724" lon="8.055562381921291"><ele>265.0</ele><time>2026-04-25T18:04:16.996Z</time></trkpt><trkpt lat="45.41880853610727" lon="8.055629163538644"><ele>264.3333333333333</ele><time>2026-04-25T18:04:17.996Z</time></trkpt><trkpt lat="45.418947180495515" lon="8.055754718028105"><ele>263.6666666666667</ele><time>2026-04-25T18:04:18.996Z</time></trkpt><trkpt lat="45.41908267527565" lon="8.055880335143767"><ele>263.0</ele><time>2026-04-25T18:04:19.996Z</time></trkpt><trkpt lat="45.41918516599912" lon="8.056033448704655"><ele>265.6666666666667</ele><time>2026-04-25T18:04:20.996Z</time></trkpt><trkpt lat="45.419272060748376" lon="8.056204726331012"><ele>268.3333333333333</ele><time>2026-04-25T18:04:21.996Z</time></trkpt><trkpt lat="45.41937549336152" lon="8.056367213913658"><ele>271.0</ele><time>2026-04-25T18:04:22.996Z</time></trkpt><trkpt lat="45.41946347128016" lon="8.056543693522434"><ele>271.66666666666663</ele><time>2026-04-25T18:04:23.996Z</time></trkpt><trkpt lat="45.41955938083696" lon="8.05670551352016"><ele>272.3333333333333</ele><time>2026-04-25T18:04:24.996Z</time></trkpt><trkpt lat="45.419667861027435" lon="8.056856452073689"><ele>273.0</ele><time>2026-04-25T18:04:25.996Z</time></trkpt><trkpt lat="45.419787938742836" lon="8.056993479658475"><ele>273.0</ele><time>2026-04-25T18:04:26.996Z</time></trkpt><trkpt lat="45.41992502944526" lon="8.057114484153423"><ele>273.0</ele><time>2026-04-25T18:04:27.996Z</time></trkpt><trkpt lat="45.42006772440606" lon="8.057219868023932"><ele>273.0</ele><time>2026-04-25T18:04:28.996Z</time></trkpt><trkpt lat="45.42021402498119" lon="8.057302119860015"><ele>273.0</ele><time>2026-04-25T18:04:29.996Z</time></trkpt><trkpt lat="45.4203584825774" lon="8.057360832448445"><ele>273.0</ele><time>2026-04-25T18:04:30.996Z</time></trkpt><trkpt lat="45.42049634770032" lon="8.057405023594491"><ele>273.0</ele><time>2026-04-25T18:04:31.996Z</time></trkpt><trkpt lat="45.42062385572642" lon="8.05743146368802"><ele>273.0</ele><time>2026-04-25T18:04:32.996Z</time></trkpt><trkpt lat="45.42073823396259" lon="8.057444580695016"><ele>273.3333333333333</ele><time>2026-04-25T18:04:33.996Z</time></trkpt><trkpt lat="45.42083787165782" lon="8.057454892572235"><ele>273.6666666666667</ele><time>2026-04-25T18:04:34.996Z</time></trkpt><trkpt lat="45.420912909969886" lon="8.05746836518267"><ele>274.0</ele><time>2026-04-25T18:04:35.996Z</time></trkpt><trkpt lat="45.42100021453971" lon="8.0575597982675"><ele>274.33333333333337</ele><time>2026-04-25T18:04:37.996Z</time></trkpt><trkpt lat="45.421036178368375" lon="8.057646637209524"><ele>274.6666666666667</ele><time>2026-04-25T18:04:38.996Z</time></trkpt><trkpt lat="45.4210572095822" lon="8.057762481034603"><ele>275.0</ele><time>2026-04-25T18:04:39.996Z</time></trkpt><trkpt lat="45.42105669920229" lon="8.057892567852702"><ele>275.0</ele><time>2026-04-25T18:04:40.996Z</time></trkpt><trkpt lat="45.42103401957809" lon="8.058037203581822"><ele>275.0</ele><time>2026-04-25T18:04:41.996Z</time></trkpt><trkpt lat="45.420991036262656" lon="8.05819258875307"><ele>275.0</ele><time>2026-04-25T18:04:42.996Z</time></trkpt><trkpt lat="45.42093993630559" lon="8.058356150225169"><ele>275.0</ele><time>2026-04-25T18:04:43.996Z</time></trkpt><trkpt lat="45.42088146024862" lon="8.058516981314762"><ele>275.75</ele><time>2026-04-25T18:04:44.996Z</time></trkpt><trkpt lat="45.420822650353564" lon="8.05866338891618"><ele>276.5</ele><time>2026-04-25T18:04:45.996Z</time></trkpt><trkpt lat="45.42076405783343" lon="8.058803624892892"><ele>277.25</ele><time>2026-04-25T18:04:46.996Z</time></trkpt><trkpt lat="45.42069665092916" lon="8.058950706817118"><ele>278.0</ele><time>2026-04-25T18:04:47.996Z</time></trkpt><trkpt lat="45.42061694514787" lon="8.059106374834908"><ele>278.75</ele><time>2026-04-25T18:04:48.996Z</time></trkpt><trkpt lat="45.420535692424245" lon="8.059275631157277"><ele>279.5</ele><time>2026-04-25T18:04:49.996Z</time></trkpt><trkpt lat="45.42045423516914" lon="8.059452225695255"><ele>280.25</ele><time>2026-04-25T18:04:50.996Z</time></trkpt><trkpt lat="45.42036886866967" lon="8.059635567700019"><ele>281.0</ele><time>2026-04-25T18:04:51.996Z</time></trkpt><trkpt lat="45.42027576950992" lon="8.059829126801187"><ele>281.0</ele><time>2026-04-25T18:04:52.995Z</time></trkpt><trkpt lat="45.42017986723354" lon="8.060031058602041"><ele>281.0</ele><time>2026-04-25T18:04:53.995Z</time></trkpt><trkpt lat="45.420089384574645" lon="8.060224874920836"><ele>281.0</ele><time>2026-04-25T18:04:54.995Z</time></trkpt><trkpt lat="45.41999929537491" lon="8.060409933210954"><ele>281.0</ele><time>2026-04-25T18:04:55.995Z</time></trkpt><trkpt lat="45.419910489131496" lon="8.060595021341403"><ele>281.0</ele><time>2026-04-25T18:04:56.995Z</time></trkpt><trkpt lat="45.41982368182411" lon="8.060782198449234"><ele>281.0</ele><time>2026-04-25T18:04:57.995Z</time></trkpt><trkpt lat="45.41974407529674" lon="8.060969611428012"><ele>280.0</ele><time>2026-04-25T18:04:58.995Z</time></trkpt><trkpt lat="45.419645044308155" lon="8.061162510828678"><ele>279.0</ele><time>2026-04-25T18:04:59.995Z</time></trkpt><trkpt lat="45.41954449181294" lon="8.061362180994"><ele>278.0</ele><time>2026-04-25T18:05:00.995Z</time></trkpt><trkpt lat="45.41944539172996" lon="8.0615659042069"><ele>278.33333333333337</ele><time>2026-04-25T18:05:01.995Z</time></trkpt><trkpt lat="45.41934410847566" lon="8.061774822687571"><ele>278.6666666666667</ele><time>2026-04-25T18:05:02.995Z</time></trkpt><trkpt lat="45.41923905700555" lon="8.061987121189107"><ele>279.0</ele><time>2026-04-25T18:05:03.995Z</time></trkpt><trkpt lat="45.41913132370368" lon="8.062204809706039"><ele>279.0</ele><time>2026-04-25T18:05:04.995Z</time></trkpt><trkpt lat="45.41902692066344" lon="8.06242238301897"><ele>279.0</ele><time>2026-04-25T18:05:05.995Z</time></trkpt><trkpt lat="45.41892069393659" lon="8.062631083431766"><ele>279.0</ele><time>2026-04-25T18:05:06.995Z</time></trkpt><trkpt lat="45.41881222835519" lon="8.062834386138475"><ele>279.6666666666667</ele><time>2026-04-25T18:05:07.995Z</time></trkpt><trkpt lat="45.41871013212716" lon="8.063044607273305"><ele>280.33333333333337</ele><time>2026-04-25T18:05:08.995Z</time></trkpt><trkpt lat="45.41860649491147" lon="8.063258437815971"><ele>281.0</ele><time>2026-04-25T18:05:09.995Z</time></trkpt><trkpt lat="45.41850302200589" lon="8.063477435910803"><ele>282.0</ele><time>2026-04-25T18:05:10.995Z</time></trkpt><trkpt lat="45.41840304851309" lon="8.063699353624644"><ele>283.0</ele><time>2026-04-25T18:05:11.995Z</time></trkpt><trkpt lat="45.41829992731252" lon="8.063917550906414"><ele>284.0</ele><time>2026-04-25T18:05:12.995Z</time></trkpt><trkpt lat="45.41819436515536" lon="8.064137046774857"><ele>284.33333333333337</ele><time>2026-04-25T18:05:13.995Z</time></trkpt><trkpt lat="45.41807963697502" lon="8.064353992773448"><ele>284.6666666666667</ele><time>2026-04-25T18:05:14.995Z</time></trkpt><trkpt lat="45.41795858087128" lon="8.064570283507454"><ele>285.0</ele><time>2026-04-25T18:05:15.995Z</time></trkpt><trkpt lat="45.417825399802844" lon="8.06477243794029"><ele>286.0</ele><time>2026-04-25T18:05:16.995Z</time></trkpt><trkpt lat="45.41768284255594" lon="8.064956060551893"><ele>287.0</ele><time>2026-04-25T18:05:17.995Z</time></trkpt><trkpt lat="45.41753472403179" lon="8.065125710367884"><ele>288.0</ele><time>2026-04-25T18:05:18.995Z</time></trkpt><trkpt lat="45.417389848840706" lon="8.065275878639461"><ele>288.0</ele><time>2026-04-25T18:05:19.995Z</time></trkpt><trkpt lat="45.417246881420326" lon="8.065420455879728"><ele>288.0</ele><time>2026-04-25T18:05:20.995Z</time></trkpt><trkpt lat="45.41710531694785" lon="8.065560707811276"><ele>288.0</ele><time>2026-04-25T18:05:21.995Z</time></trkpt><trkpt lat="45.41696869287371" lon="8.065693371103212"><ele>287.3333333333333</ele><time>2026-04-25T18:05:22.995Z</time></trkpt><trkpt lat="45.41683347095708" lon="8.065821824002503"><ele>286.66666666666663</ele><time>2026-04-25T18:05:23.995Z</time></trkpt><trkpt lat="45.416705362346626" lon="8.065948783326528"><ele>286.0</ele><time>2026-04-25T18:05:24.995Z</time></trkpt><trkpt lat="45.41656683570286" lon="8.066056494869834"><ele>286.0</ele><time>2026-04-25T18:05:25.995Z</time></trkpt><trkpt lat="45.41643678644296" lon="8.066182206593902"><ele>286.0</ele><time>2026-04-25T18:05:26.995Z</time></trkpt><trkpt lat="45.41630464086876" lon="8.06631054951852"><ele>286.0</ele><time>2026-04-25T18:05:27.995Z</time></trkpt><trkpt lat="45.41616688854416" lon="8.066449863711904"><ele>285.66666666666663</ele><time>2026-04-25T18:05:28.995Z</time></trkpt><trkpt lat="45.41603463373718" lon="8.066604040942781"><ele>285.3333333333333</ele><time>2026-04-25T18:05:29.995Z</time></trkpt><trkpt lat="45.415904764380365" lon="8.066775467288338"><ele>285.0</ele><time>2026-04-25T18:05:30.995Z</time></trkpt><trkpt lat="45.41576742481554" lon="8.066958724556512"><ele>285.0</ele><time>2026-04-25T18:05:31.995Z</time></trkpt><trkpt lat="45.415632887513205" lon="8.067141360895574"><ele>285.0</ele><time>2026-04-25T18:05:32.995Z</time></trkpt><trkpt lat="45.4154983542071" lon="8.06733170278925"><ele>285.0</ele><time>2026-04-25T18:05:33.995Z</time></trkpt><trkpt lat="45.41536827683804" lon="8.067524301631773"><ele>283.6666666666667</ele><time>2026-04-25T18:05:34.995Z</time></trkpt><trkpt lat="45.4152357008405" lon="8.067713345445517"><ele>282.33333333333337</ele><time>2026-04-25T18:05:35.995Z</time></trkpt><trkpt lat="45.41510110927695" lon="8.067906026171638"><ele>281.0</ele><time>2026-04-25T18:05:36.995Z</time></trkpt><trkpt lat="45.41496855655748" lon="8.0680946583405"><ele>280.0</ele><time>2026-04-25T18:05:37.995Z</time></trkpt><trkpt lat="45.41483699362793" lon="8.068279473496373"><ele>279.0</ele><time>2026-04-25T18:05:38.995Z</time></trkpt><trkpt lat="45.41470621470233" lon="8.068463944602458"><ele>278.0</ele><time>2026-04-25T18:05:39.995Z</time></trkpt><trkpt lat="45.41457441004777" lon="8.06865241919497"><ele>278.0</ele><time>2026-04-25T18:05:40.995Z</time></trkpt><trkpt lat="45.41444163242527" lon="8.068839172480766"><ele>278.0</ele><time>2026-04-25T18:05:41.995Z</time></trkpt><trkpt lat="45.414311216137136" lon="8.069025779490309"><ele>278.0</ele><time>2026-04-25T18:05:42.994Z</time></trkpt><trkpt lat="45.41418791767231" lon="8.069206346735827"><ele>281.33333333333337</ele><time>2026-04-25T18:05:43.994Z</time></trkpt><trkpt lat="45.414069046653154" lon="8.0693955090547"><ele>284.6666666666667</ele><time>2026-04-25T18:05:44.994Z</time></trkpt><trkpt lat="45.413953925147844" lon="8.069591017485383"><ele>288.0</ele><time>2026-04-25T18:05:45.994Z</time></trkpt><trkpt lat="45.41384447985782" lon="8.069786003676466"><ele>286.0</ele><time>2026-04-25T18:05:46.994Z</time></trkpt><trkpt lat="45.413741084265716" lon="8.069983148897554"><ele>284.0</ele><time>2026-04-25T18:05:47.994Z</time></trkpt><trkpt lat="45.41361244227915" lon="8.070168995845536"><ele>282.0</ele><time>2026-04-25T18:05:48.994Z</time></trkpt><trkpt lat="45.41350130589926" lon="8.070365279770396"><ele>282.0</ele><time>2026-04-25T18:05:49.994Z</time></trkpt><trkpt lat="45.41339648763588" lon="8.070557035980682"><ele>282.0</ele><time>2026-04-25T18:05:50.994Z</time></trkpt><trkpt lat="45.41329251486773" lon="8.070743462302044"><ele>282.0</ele><time>2026-04-25T18:05:51.994Z</time></trkpt><trkpt lat="45.41318546009036" lon="8.07093142328238"><ele>280.0</ele><time>2026-04-25T18:05:52.994Z</time></trkpt><trkpt lat="45.4130800455649" lon="8.071118920441418"><ele>278.0</ele><time>2026-04-25T18:05:53.994Z</time></trkpt><trkpt lat="45.41297498957965" lon="8.071305590576127"><ele>276.0</ele><time>2026-04-25T18:05:54.994Z</time></trkpt><trkpt lat="45.41287332092169" lon="8.071496564742748"><ele>279.0</ele><time>2026-04-25T18:05:55.994Z</time></trkpt><trkpt lat="45.41277204727623" lon="8.07168908939823"><ele>282.0</ele><time>2026-04-25T18:05:56.994Z</time></trkpt><trkpt lat="45.41267599005719" lon="8.071891429716475"><ele>285.0</ele><time>2026-04-25T18:05:57.994Z</time></trkpt><trkpt lat="45.41258786328315" lon="8.07209583427117"><ele>285.0</ele><time>2026-04-25T18:05:58.994Z</time></trkpt><trkpt lat="45.41250489061206" lon="8.072310541360437"><ele>285.0</ele><time>2026-04-25T18:05:59.994Z</time></trkpt><trkpt lat="45.412433645147" lon="8.072526959766313"><ele>285.0</ele><time>2026-04-25T18:06:00.994Z</time></trkpt><trkpt lat="45.412371432257586" lon="8.072744602267196"><ele>287.0</ele><time>2026-04-25T18:06:01.994Z</time></trkpt><trkpt lat="45.412321799764285" lon="8.072958856346345"><ele>289.0</ele><time>2026-04-25T18:06:02.994Z</time></trkpt><trkpt lat="45.41227169204598" lon="8.073174928028767"><ele>291.0</ele><time>2026-04-25T18:06:03.994Z</time></trkpt><trkpt lat="45.412224011013215" lon="8.073382055150256"><ele>291.25</ele><time>2026-04-25T18:06:04.994Z</time></trkpt><trkpt lat="45.41218757280675" lon="8.073570473370571"><ele>291.5</ele><time>2026-04-25T18:06:05.994Z</time></trkpt><trkpt lat="45.41215737305645" lon="8.07373986276716"><ele>291.75</ele><time>2026-04-25T18:06:06.994Z</time></trkpt><trkpt lat="45.41213140796778" lon="8.073892330435653"><ele>292.0</ele><time>2026-04-25T18:06:07.994Z</time></trkpt><trkpt lat="45.41210152805502" lon="8.074034437094951"><ele>292.25</ele><time>2026-04-25T18:06:08.994Z</time></trkpt><trkpt lat="45.41206694727046" lon="8.074173918203677"><ele>292.5</ele><time>2026-04-25T18:06:09.994Z</time></trkpt><trkpt lat="45.41201770931408" lon="8.074318710808331"><ele>292.75</ele><time>2026-04-25T18:06:10.994Z</time></trkpt><trkpt lat="45.411970623020835" lon="8.074475933101064"><ele>293.0</ele><time>2026-04-25T18:06:11.994Z</time></trkpt><trkpt lat="45.411906312794734" lon="8.074631378241863"><ele>293.0</ele><time>2026-04-25T18:06:12.994Z</time></trkpt><trkpt lat="45.41182970841209" lon="8.074790340846166"><ele>293.0</ele><time>2026-04-25T18:06:13.994Z</time></trkpt><trkpt lat="45.411741498159664" lon="8.074950953870921"><ele>293.0</ele><time>2026-04-25T18:06:14.994Z</time></trkpt><trkpt lat="45.411644208142995" lon="8.075112355357193"><ele>293.0</ele><time>2026-04-25T18:06:15.994Z</time></trkpt><trkpt lat="45.41153714035071" lon="8.075278739282131"><ele>292.33333333333337</ele><time>2026-04-25T18:06:16.994Z</time></trkpt><trkpt lat="45.4114207659563" lon="8.075448333812028"><ele>291.6666666666667</ele><time>2026-04-25T18:06:17.994Z</time></trkpt><trkpt lat="45.41130080083327" lon="8.075605903723709"><ele>291.0</ele><time>2026-04-25T18:06:18.994Z</time></trkpt><trkpt lat="45.411181214403065" lon="8.075747328894147"><ele>291.6666666666667</ele><time>2026-04-25T18:06:19.994Z</time></trkpt><trkpt lat="45.41106265920849" lon="8.075889900674854"><ele>292.33333333333337</ele><time>2026-04-25T18:06:20.994Z</time></trkpt><trkpt lat="45.41093920662677" lon="8.076036924470326"><ele>293.0</ele><time>2026-04-25T18:06:21.994Z</time></trkpt><trkpt lat="45.41081409964739" lon="8.07618741224223"><ele>293.0</ele><time>2026-04-25T18:06:22.994Z</time></trkpt><trkpt lat="45.41068619475223" lon="8.076344163040295"><ele>293.0</ele><time>2026-04-25T18:06:23.994Z</time></trkpt><trkpt lat="45.410553615243884" lon="8.076501607290098"><ele>293.0</ele><time>2026-04-25T18:06:24.994Z</time></trkpt><trkpt lat="45.41041906021202" lon="8.076659948335523"><ele>293.6666666666667</ele><time>2026-04-25T18:06:25.994Z</time></trkpt><trkpt lat="45.41028282943926" lon="8.076813207693617"><ele>294.3333333333333</ele><time>2026-04-25T18:06:26.994Z</time></trkpt><trkpt lat="45.41014913779796" lon="8.076963046504794"><ele>295.0</ele><time>2026-04-25T18:06:27.994Z</time></trkpt><trkpt lat="45.41002195962627" lon="8.07711154486722"><ele>295.0</ele><time>2026-04-25T18:06:28.994Z</time></trkpt><trkpt lat="45.40989670480436" lon="8.077264053441043"><ele>295.0</ele><time>2026-04-25T18:06:29.994Z</time></trkpt><trkpt lat="45.40976941031771" lon="8.077427701026036"><ele>295.0</ele><time>2026-04-25T18:06:30.994Z</time></trkpt><trkpt lat="45.409644514276046" lon="8.077596930235538"><ele>298.3333333333333</ele><time>2026-04-25T18:06:31.994Z</time></trkpt><trkpt lat="45.409522402741274" lon="8.077771325958054"><ele>301.6666666666667</ele><time>2026-04-25T18:06:32.993Z</time></trkpt><trkpt lat="45.409402260242445" lon="8.077951026320068"><ele>305.0</ele><time>2026-04-25T18:06:33.993Z</time></trkpt><trkpt lat="45.40928436288618" lon="8.078135786095247"><ele>306.6666666666667</ele><time>2026-04-25T18:06:34.993Z</time></trkpt><trkpt lat="45.40915223589787" lon="8.078306405582335"><ele>308.3333333333333</ele><time>2026-04-25T18:06:35.993Z</time></trkpt><trkpt lat="45.40904017634317" lon="8.078498591158798"><ele>310.0</ele><time>2026-04-25T18:06:36.993Z</time></trkpt><trkpt lat="45.40892832867544" lon="8.078691909265725"><ele>309.0</ele><time>2026-04-25T18:06:37.993Z</time></trkpt><trkpt lat="45.408819223451104" lon="8.07888778052982"><ele>308.0</ele><time>2026-04-25T18:06:38.993Z</time></trkpt><trkpt lat="45.40871528388667" lon="8.079084340880458"><ele>307.0</ele><time>2026-04-25T18:06:39.993Z</time></trkpt><trkpt lat="45.40861285773151" lon="8.079280339419904"><ele>307.0</ele><time>2026-04-25T18:06:40.993Z</time></trkpt><trkpt lat="45.40851161396395" lon="8.079473673466088"><ele>307.0</ele><time>2026-04-25T18:06:41.993Z</time></trkpt><trkpt lat="45.408412600553554" lon="8.079666485649252"><ele>307.0</ele><time>2026-04-25T18:06:42.993Z</time></trkpt><trkpt lat="45.4083112195443" lon="8.079857478095281"><ele>305.0</ele><time>2026-04-25T18:06:43.993Z</time></trkpt><trkpt lat="45.40820899496744" lon="8.08004785125437"><ele>303.0</ele><time>2026-04-25T18:06:44.993Z</time></trkpt><trkpt lat="45.40810591528898" lon="8.080235245941749"><ele>301.0</ele><time>2026-04-25T18:06:45.993Z</time></trkpt><trkpt lat="45.40800678936202" lon="8.080421829830987"><ele>299.0</ele><time>2026-04-25T18:06:46.993Z</time></trkpt><trkpt lat="45.40790853167271" lon="8.080607344731174"><ele>297.0</ele><time>2026-04-25T18:06:47.993Z</time></trkpt><trkpt lat="45.40781007749685" lon="8.08079635831135"><ele>295.0</ele><time>2026-04-25T18:06:48.993Z</time></trkpt><trkpt lat="45.40770989100717" lon="8.08098533434565"><ele>293.66666666666663</ele><time>2026-04-25T18:06:49.993Z</time></trkpt><trkpt lat="45.407610081199195" lon="8.08117724861205"><ele>292.3333333333333</ele><time>2026-04-25T18:06:50.993Z</time></trkpt><trkpt lat="45.40751264354598" lon="8.081363576131057"><ele>291.0</ele><time>2026-04-25T18:06:51.993Z</time></trkpt><trkpt lat="45.407415278917206" lon="8.081549854248799"><ele>290.6666666666667</ele><time>2026-04-25T18:06:52.993Z</time></trkpt><trkpt lat="45.407316674721436" lon="8.081736850208328"><ele>290.33333333333337</ele><time>2026-04-25T18:06:53.993Z</time></trkpt><trkpt lat="45.407222335750625" lon="8.081919665952958"><ele>290.0</ele><time>2026-04-25T18:06:54.993Z</time></trkpt><trkpt lat="45.4071313928974" lon="8.082104380895403"><ele>290.0</ele><time>2026-04-25T18:06:55.993Z</time></trkpt><trkpt lat="45.40704783729449" lon="8.082294208610884"><ele>290.0</ele><time>2026-04-25T18:06:56.993Z</time></trkpt><trkpt lat="45.406970789305966" lon="8.082490473038945"><ele>290.0</ele><time>2026-04-25T18:06:57.993Z</time></trkpt><trkpt lat="45.40689321601328" lon="8.082688312328715"><ele>289.33333333333337</ele><time>2026-04-25T18:06:58.993Z</time></trkpt><trkpt lat="45.40684616089681" lon="8.082916609941282"><ele>288.6666666666667</ele><time>2026-04-25T18:06:59.993Z</time></trkpt><trkpt lat="45.40678973335278" lon="8.083142092044852"><ele>288.0</ele><time>2026-04-25T18:07:00.993Z</time></trkpt><trkpt lat="45.40674556809585" lon="8.083372194108097"><ele>287.6666666666667</ele><time>2026-04-25T18:07:01.993Z</time></trkpt><trkpt lat="45.40670790662747" lon="8.083597688255518"><ele>287.33333333333337</ele><time>2026-04-25T18:07:02.993Z</time></trkpt><trkpt lat="45.406670070309666" lon="8.083824928495359"><ele>287.0</ele><time>2026-04-25T18:07:03.993Z</time></trkpt><trkpt lat="45.40662004689915" lon="8.084050252852185"><ele>286.6666666666667</ele><time>2026-04-25T18:07:04.993Z</time></trkpt><trkpt lat="45.406591336236275" lon="8.084276807469912"><ele>286.3333333333333</ele><time>2026-04-25T18:07:05.993Z</time></trkpt><trkpt lat="45.40656187870989" lon="8.08450108988921"><ele>286.0</ele><time>2026-04-25T18:07:06.993Z</time></trkpt><trkpt lat="45.406534576674574" lon="8.084719777303349"><ele>286.0</ele><time>2026-04-25T18:07:07.993Z</time></trkpt><trkpt lat="45.406508852850195" lon="8.084928240868004"><ele>286.0</ele><time>2026-04-25T18:07:08.993Z</time></trkpt><trkpt lat="45.4064839325362" lon="8.085124658418735"><ele>286.0</ele><time>2026-04-25T18:07:09.993Z</time></trkpt><trkpt lat="45.406461385203194" lon="8.085317929095384"><ele>286.0</ele><time>2026-04-25T18:07:10.993Z</time></trkpt><trkpt lat="45.40643698908458" lon="8.085505226111003"><ele>285.75</ele><time>2026-04-25T18:07:11.993Z</time></trkpt><trkpt lat="45.406414871382886" lon="8.085688989967657"><ele>285.5</ele><time>2026-04-25T18:07:12.993Z</time></trkpt><trkpt lat="45.406396288960515" lon="8.085869541244872"><ele>285.25</ele><time>2026-04-25T18:07:13.993Z</time></trkpt><trkpt lat="45.406379023506666" lon="8.086052814195623"><ele>285.0</ele><time>2026-04-25T18:07:14.993Z</time></trkpt><trkpt lat="45.40636508806301" lon="8.08623500871169"><ele>284.75</ele><time>2026-04-25T18:07:15.993Z</time></trkpt><trkpt lat="45.40634572701394" lon="8.086414740982798"><ele>284.5</ele><time>2026-04-25T18:07:16.993Z</time></trkpt><trkpt lat="45.40631989293731" lon="8.086577267512377"><ele>284.25</ele><time>2026-04-25T18:07:17.993Z</time></trkpt><trkpt lat="45.40630040555585" lon="8.086744235303012"><ele>284.0</ele><time>2026-04-25T18:07:18.993Z</time></trkpt><trkpt lat="45.406281150585755" lon="8.086909736859399"><ele>283.0</ele><time>2026-04-25T18:07:19.993Z</time></trkpt><trkpt lat="45.4062612355962" lon="8.08708089984044"><ele>282.0</ele><time>2026-04-25T18:07:20.993Z</time></trkpt><trkpt lat="45.406240538099205" lon="8.087258786332274"><ele>281.0</ele><time>2026-04-25T18:07:21.993Z</time></trkpt><trkpt lat="45.40622080858071" lon="8.087430807542274"><ele>280.0</ele><time>2026-04-25T18:07:22.992Z</time></trkpt><trkpt lat="45.40621757335445" lon="8.087598850953919"><ele>280.0</ele><time>2026-04-25T18:07:23.992Z</time></trkpt><trkpt lat="45.40619640730568" lon="8.08775257490383"><ele>280.0</ele><time>2026-04-25T18:07:24.992Z</time></trkpt><trkpt lat="45.406153691646644" lon="8.087891867771617"><ele>280.0</ele><time>2026-04-25T18:07:25.992Z</time></trkpt><trkpt lat="45.406137059641814" lon="8.088022664276112"><ele>280.0</ele><time>2026-04-25T18:07:26.992Z</time></trkpt><trkpt lat="45.40612388340805" lon="8.088145110808044"><ele>280.0</ele><time>2026-04-25T18:07:27.992Z</time></trkpt><trkpt lat="45.406115288713885" lon="8.08824587773713"><ele>280.0</ele><time>2026-04-25T18:07:28.992Z</time></trkpt><trkpt lat="45.40610886397692" lon="8.088363654370115"><ele>280.0</ele><time>2026-04-25T18:07:30.992Z</time></trkpt><trkpt lat="45.40625667245655" lon="8.088367110066919"><ele>280.0</ele><time>2026-04-25T18:07:34.992Z</time></trkpt><trkpt lat="45.40636520111064" lon="8.088314938309106"><ele>280.0</ele><time>2026-04-25T18:07:36.992Z</time></trkpt><trkpt lat="45.406432811049335" lon="8.088284456352001"><ele>280.0</ele><time>2026-04-25T18:07:37.992Z</time></trkpt><trkpt lat="45.4065133452822" lon="8.088262651605408"><ele>279.8333333333333</ele><time>2026-04-25T18:07:38.992Z</time></trkpt><trkpt lat="45.406606002675765" lon="8.088238284209293"><ele>279.66666666666663</ele><time>2026-04-25T18:07:39.992Z</time></trkpt><trkpt lat="45.406683132946505" lon="8.088223148427677"><ele>279.5</ele><time>2026-04-25T18:07:40.992Z</time></trkpt><trkpt lat="45.40675955942347" lon="8.088209804387997"><ele>279.3333333333333</ele><time>2026-04-25T18:07:41.992Z</time></trkpt><trkpt lat="45.40684086935274" lon="8.088200953354113"><ele>279.1666666666667</ele><time>2026-04-25T18:07:42.992Z</time></trkpt><trkpt lat="45.40693873861057" lon="8.088197102044875"><ele>279.0</ele><time>2026-04-25T18:07:43.992Z</time></trkpt><trkpt lat="45.40704410928061" lon="8.088196992846125"><ele>279.0</ele><time>2026-04-25T18:07:44.992Z</time></trkpt><trkpt lat="45.40715376967151" lon="8.088195659824972"><ele>279.0</ele><time>2026-04-25T18:07:45.992Z</time></trkpt><trkpt lat="45.40725683668872" lon="8.088192339044603"><ele>279.0</ele><time>2026-04-25T18:07:46.992Z</time></trkpt><trkpt lat="45.4073404700079" lon="8.08819141493324"><ele>279.0</ele><time>2026-04-25T18:07:47.992Z</time></trkpt><trkpt lat="45.407405032464446" lon="8.08818922485003"><ele>279.0</ele><time>2026-04-25T18:07:48.992Z</time></trkpt><trkpt lat="45.40750545616351" lon="8.08818615184055"><ele>279.2</ele><time>2026-04-25T18:07:50.992Z</time></trkpt><trkpt lat="45.40762050240638" lon="8.088175540025087"><ele>279.4</ele><time>2026-04-25T18:07:52.992Z</time></trkpt><trkpt lat="45.40775033980457" lon="8.088179324221162"><ele>279.6</ele><time>2026-04-25T18:07:54.992Z</time></trkpt><trkpt lat="45.40783477348946" lon="8.088176198287258"><ele>279.8</ele><time>2026-04-25T18:07:55.992Z</time></trkpt><trkpt lat="45.40792852281341" lon="8.088178013333204"><ele>280.0</ele><time>2026-04-25T18:07:56.992Z</time></trkpt><trkpt lat="45.40802439987112" lon="8.088176232012673"><ele>280.5</ele><time>2026-04-25T18:07:57.992Z</time></trkpt><trkpt lat="45.408114592796814" lon="8.088176326822179"><ele>281.0</ele><time>2026-04-25T18:07:58.992Z</time></trkpt><trkpt lat="45.408196580277114" lon="8.08817596527968"><ele>281.5</ele><time>2026-04-25T18:07:59.992Z</time></trkpt><trkpt lat="45.40827233617281" lon="8.088172849762849"><ele>282.0</ele><time>2026-04-25T18:08:00.992Z</time></trkpt><trkpt lat="45.40833928918498" lon="8.088174621308468"><ele>282.5</ele><time>2026-04-25T18:08:01.992Z</time></trkpt><trkpt lat="45.40840743940684" lon="8.088174580087326"><ele>283.0</ele><time>2026-04-25T18:08:02.992Z</time></trkpt><trkpt lat="45.40848104078024" lon="8.08817466897491"><ele>283.0</ele><time>2026-04-25T18:08:03.992Z</time></trkpt><trkpt lat="45.40855303817023" lon="8.088175764544657"><ele>283.0</ele><time>2026-04-25T18:08:04.992Z</time></trkpt><trkpt lat="45.40862164258323" lon="8.088185758570399"><ele>283.0</ele><time>2026-04-25T18:08:05.992Z</time></trkpt><trkpt lat="45.408691711283446" lon="8.088190937875943"><ele>283.0</ele><time>2026-04-25T18:08:06.992Z</time></trkpt><trkpt lat="45.40875975647823" lon="8.0881821874842"><ele>283.0</ele><time>2026-04-25T18:08:07.992Z</time></trkpt><trkpt lat="45.408821974260654" lon="8.08816791353742"><ele>283.0</ele><time>2026-04-25T18:08:08.992Z</time></trkpt><trkpt lat="45.40891971860203" lon="8.088153992017403"><ele>283.0</ele><time>2026-04-25T18:08:10.992Z</time></trkpt><trkpt lat="45.40898805950592" lon="8.08815387789069"><ele>283.2</ele><time>2026-04-25T18:08:12.992Z</time></trkpt><trkpt lat="45.40900050165957" lon="8.088320857832791"><ele>283.4</ele><time>2026-04-25T18:08:16.991Z</time></trkpt><trkpt lat="45.40892882983079" lon="8.088408725860184"><ele>283.59999999999997</ele><time>2026-04-25T18:08:18.991Z</time></trkpt><trkpt lat="45.40885277604236" lon="8.088560028621405"><ele>283.8</ele><time>2026-04-25T18:08:20.991Z</time></trkpt><trkpt lat="45.40880885555957" lon="8.088631698409968"><ele>284.0</ele><time>2026-04-25T18:08:21.991Z</time></trkpt><trkpt lat="45.40872294408537" lon="8.088771890008614"><ele>284.0</ele><time>2026-04-25T18:08:23.991Z</time></trkpt><trkpt lat="45.408672311785594" lon="8.088854512470725"><ele>284.0</ele><time>2026-04-25T18:08:24.991Z</time></trkpt><trkpt lat="45.408610419812945" lon="8.08895550839503"><ele>284.0</ele><time>2026-04-25T18:08:25.991Z</time></trkpt><trkpt lat="45.408554795747605" lon="8.0890468178252"><ele>284.0</ele><time>2026-04-25T18:08:26.991Z</time></trkpt><trkpt lat="45.40851002974505" lon="8.089120370995786"><ele>284.0</ele><time>2026-04-25T18:08:27.991Z</time></trkpt><trkpt lat="45.40842583553813" lon="8.089226275644931"><ele>284.0</ele><time>2026-04-25T18:08:29.991Z</time></trkpt><trkpt lat="45.40837443903731" lon="8.089342237883136"><ele>284.8</ele><time>2026-04-25T18:08:31.991Z</time></trkpt><trkpt lat="45.408304017328895" lon="8.089456428262654"><ele>285.59999999999997</ele><time>2026-04-25T18:08:33.991Z</time></trkpt><trkpt lat="45.408221182857034" lon="8.089572990242607"><ele>286.4</ele><time>2026-04-25T18:08:35.991Z</time></trkpt><trkpt lat="45.408152439965505" lon="8.089655505098072"><ele>287.2</ele><time>2026-04-25T18:08:37.991Z</time></trkpt><trkpt lat="45.40807702330399" lon="8.089745338085118"><ele>288.0</ele><time>2026-04-25T18:08:39.991Z</time></trkpt><trkpt lat="45.40798859825377" lon="8.089881750433229"><ele>287.3333333333333</ele><time>2026-04-25T18:08:41.991Z</time></trkpt><trkpt lat="45.407935950927126" lon="8.089952878862098"><ele>286.6666666666667</ele><time>2026-04-25T18:08:42.991Z</time></trkpt><trkpt lat="45.40789067414539" lon="8.090024796567054"><ele>286.0</ele><time>2026-04-25T18:08:43.991Z</time></trkpt><trkpt lat="45.40784650076069" lon="8.090093411597566"><ele>285.33333333333337</ele><time>2026-04-25T18:08:44.991Z</time></trkpt><trkpt lat="45.40775923404269" lon="8.090207015841967"><ele>284.6666666666667</ele><time>2026-04-25T18:08:46.991Z</time></trkpt><trkpt lat="45.407693665118934" lon="8.09030295253395"><ele>284.0</ele><time>2026-04-25T18:08:48.991Z</time></trkpt><trkpt lat="45.40762396179661" lon="8.090398554179641"><ele>284.0</ele><time>2026-04-25T18:08:50.991Z</time></trkpt><trkpt lat="45.40753053419687" lon="8.090515877402469"><ele>284.0</ele><time>2026-04-25T18:08:52.991Z</time></trkpt><trkpt lat="45.407476659994245" lon="8.09059419322477"><ele>284.0</ele><time>2026-04-25T18:08:53.991Z</time></trkpt><trkpt lat="45.407424356672486" lon="8.090682044699085"><ele>284.0</ele><time>2026-04-25T18:08:54.991Z</time></trkpt><trkpt lat="45.40737307270155" lon="8.09075600051083"><ele>284.0</ele><time>2026-04-25T18:08:55.991Z</time></trkpt><trkpt lat="45.40733179759252" lon="8.09082587089079"><ele>284.0</ele><time>2026-04-25T18:08:56.991Z</time></trkpt><trkpt lat="45.40725704245981" lon="8.090949186264108"><ele>282.4</ele><time>2026-04-25T18:08:58.991Z</time></trkpt><trkpt lat="45.40720587803445" lon="8.091004567008984"><ele>280.79999999999995</ele><time>2026-04-25T18:09:00.991Z</time></trkpt><trkpt lat="45.40715505821096" lon="8.09108380272948"><ele>279.20000000000005</ele><time>2026-04-25T18:09:04.99Z</time></trkpt><trkpt lat="45.40711204792686" lon="8.091180576128327"><ele>277.6</ele><time>2026-04-25T18:09:11.99Z</time></trkpt><trkpt lat="45.40724915096241" lon="8.09126341886574"><ele>276.0</ele><time>2026-04-25T18:09:13.99Z</time></trkpt><trkpt lat="45.407340977277606" lon="8.091294850195935"><ele>276.0</ele><time>2026-04-25T18:09:14.99Z</time></trkpt><trkpt lat="45.407411352478235" lon="8.091322797085976"><ele>276.0</ele><time>2026-04-25T18:09:15.99Z</time></trkpt><trkpt lat="45.40747899573673" lon="8.09134512527093"><ele>276.0</ele><time>2026-04-25T18:09:16.99Z</time></trkpt><trkpt lat="45.40753592600324" lon="8.091389000265861"><ele>276.0</ele><time>2026-04-25T18:09:17.99Z</time></trkpt><trkpt lat="45.40760877357039" lon="8.09141346274208"><ele>276.0</ele><time>2026-04-25T18:09:18.99Z</time></trkpt><trkpt lat="45.407694353965006" lon="8.091452174966717"><ele>276.0</ele><time>2026-04-25T18:09:19.99Z</time></trkpt><trkpt lat="45.40779516841609" lon="8.091500416905197"><ele>276.0</ele><time>2026-04-25T18:09:20.99Z</time></trkpt><trkpt lat="45.40790182851758" lon="8.091555641321143"><ele>276.0</ele><time>2026-04-25T18:09:21.99Z</time></trkpt><trkpt lat="45.4080020442027" lon="8.0916140637852"><ele>276.0</ele><time>2026-04-25T18:09:22.99Z</time></trkpt><trkpt lat="45.408103815061615" lon="8.091676479010852"><ele>276.0</ele><time>2026-04-25T18:09:23.99Z</time></trkpt><trkpt lat="45.40819803822278" lon="8.091738196317046"><ele>276.0</ele><time>2026-04-25T18:09:24.99Z</time></trkpt><trkpt lat="45.40828989912738" lon="8.091793439950404"><ele>275.8333333333333</ele><time>2026-04-25T18:09:25.99Z</time></trkpt><trkpt lat="45.40837658112206" lon="8.091841154862816"><ele>275.6666666666667</ele><time>2026-04-25T18:09:26.99Z</time></trkpt><trkpt lat="45.40844949180529" lon="8.091893640767918"><ele>275.5</ele><time>2026-04-25T18:09:27.99Z</time></trkpt><trkpt lat="45.40850673589365" lon="8.091961980767366"><ele>275.33333333333337</ele><time>2026-04-25T18:09:28.99Z</time></trkpt><trkpt lat="45.408540848709734" lon="8.092050377443748"><ele>275.1666666666667</ele><time>2026-04-25T18:09:29.99Z</time></trkpt><trkpt lat="45.40855173300892" lon="8.092159113272224"><ele>275.0</ele><time>2026-04-25T18:09:30.99Z</time></trkpt><trkpt lat="45.408534817365556" lon="8.092282420898547"><ele>275.0</ele><time>2026-04-25T18:09:31.99Z</time></trkpt><trkpt lat="45.40851057526416" lon="8.092413728615957"><ele>275.0</ele><time>2026-04-25T18:09:32.99Z</time></trkpt><trkpt lat="45.408486439993396" lon="8.092554779509497"><ele>275.0</ele><time>2026-04-25T18:09:33.99Z</time></trkpt><trkpt lat="45.408468171544804" lon="8.092705231897426"><ele>275.0</ele><time>2026-04-25T18:09:34.99Z</time></trkpt><trkpt lat="45.40846985825398" lon="8.09287066662738"><ele>275.0</ele><time>2026-04-25T18:09:35.99Z</time></trkpt><trkpt lat="45.40847713537194" lon="8.093033760947115"><ele>275.0</ele><time>2026-04-25T18:09:36.99Z</time></trkpt><trkpt lat="45.408489709465876" lon="8.093189495971048"><ele>275.0</ele><time>2026-04-25T18:09:37.99Z</time></trkpt><trkpt lat="45.40849842157385" lon="8.093341317240231"><ele>275.0</ele><time>2026-04-25T18:09:38.99Z</time></trkpt><trkpt lat="45.40850225078921" lon="8.093489720684378"><ele>275.0</ele><time>2026-04-25T18:09:39.99Z</time></trkpt><trkpt lat="45.40850446815702" lon="8.093632773095367"><ele>275.0</ele><time>2026-04-25T18:09:40.99Z</time></trkpt><trkpt lat="45.408507842590375" lon="8.093771313751786"><ele>275.0</ele><time>2026-04-25T18:09:41.99Z</time></trkpt><trkpt lat="45.40850938971627" lon="8.093900309499311"><ele>275.0</ele><time>2026-04-25T18:09:42.99Z</time></trkpt><trkpt lat="45.40851727610402" lon="8.094027811295335"><ele>275.0</ele><time>2026-04-25T18:09:43.99Z</time></trkpt><trkpt lat="45.40853138366568" lon="8.094155880633794"><ele>275.0</ele><time>2026-04-25T18:09:44.99Z</time></trkpt><trkpt lat="45.40856174133557" lon="8.094292865846763"><ele>275.0</ele><time>2026-04-25T18:09:45.99Z</time></trkpt><trkpt lat="45.408602949960624" lon="8.094433066650739"><ele>274.6666666666667</ele><time>2026-04-25T18:09:46.99Z</time></trkpt><trkpt lat="45.408639824666885" lon="8.094568118101432"><ele>274.33333333333337</ele><time>2026-04-25T18:09:47.99Z</time></trkpt><trkpt lat="45.408671962535415" lon="8.094692072658303"><ele>274.0</ele><time>2026-04-25T18:09:48.99Z</time></trkpt><trkpt lat="45.40870341969633" lon="8.094805890366068"><ele>273.6666666666667</ele><time>2026-04-25T18:09:49.99Z</time></trkpt><trkpt lat="45.40873649560434" lon="8.094907511129156"><ele>273.3333333333333</ele><time>2026-04-25T18:09:50.99Z</time></trkpt><trkpt lat="45.40876296616928" lon="8.095001181758871"><ele>273.0</ele><time>2026-04-25T18:09:51.99Z</time></trkpt><trkpt lat="45.40879567195941" lon="8.095143222574782"><ele>273.0</ele><time>2026-04-25T18:09:53.989Z</time></trkpt><trkpt lat="45.40881036066868" lon="8.095265963559632"><ele>273.0</ele><time>2026-04-25T18:09:55.989Z</time></trkpt><trkpt lat="45.408832764795456" lon="8.095409144603739"><ele>273.0</ele><time>2026-04-25T18:09:57.989Z</time></trkpt><trkpt lat="45.408832534214376" lon="8.09550139957569"><ele>273.0</ele><time>2026-04-25T18:09:58.989Z</time></trkpt><trkpt lat="45.40883027097127" lon="8.095593544675397"><ele>273.0</ele><time>2026-04-25T18:09:59.989Z</time></trkpt><trkpt lat="45.408765733573496" lon="8.09568338731192"><ele>273.0</ele><time>2026-04-25T18:10:00.989Z</time></trkpt><trkpt lat="45.40880560301962" lon="8.09582676672858"><ele>273.1666666666667</ele><time>2026-04-25T18:10:02.989Z</time></trkpt><trkpt lat="45.4089116783568" lon="8.0958932587913"><ele>273.3333333333333</ele><time>2026-04-25T18:10:04.989Z</time></trkpt><trkpt lat="45.408978449661575" lon="8.095896011557684"><ele>273.5</ele><time>2026-04-25T18:10:05.989Z</time></trkpt><trkpt lat="45.40906169927184" lon="8.095903759810504"><ele>273.66666666666663</ele><time>2026-04-25T18:10:06.989Z</time></trkpt><trkpt lat="45.40915226213933" lon="8.09592067839178"><ele>273.8333333333333</ele><time>2026-04-25T18:10:07.989Z</time></trkpt><trkpt lat="45.40924108304948" lon="8.095902662803239"><ele>274.0</ele><time>2026-04-25T18:10:08.989Z</time></trkpt><trkpt lat="45.409341222802965" lon="8.095968761973216"><ele>274.0</ele><time>2026-04-25T18:10:09.989Z</time></trkpt><trkpt lat="45.4094360374918" lon="8.095995908148705"><ele>274.0</ele><time>2026-04-25T18:10:10.989Z</time></trkpt><trkpt lat="45.40954138039902" lon="8.096024146261168"><ele>274.0</ele><time>2026-04-25T18:10:11.989Z</time></trkpt><trkpt lat="45.409657069850724" lon="8.096056587454985"><ele>274.0</ele><time>2026-04-25T18:10:12.989Z</time></trkpt><trkpt lat="45.40977950978194" lon="8.096097224696722"><ele>274.0</ele><time>2026-04-25T18:10:13.989Z</time></trkpt><trkpt lat="45.40990395716197" lon="8.0961343126893"><ele>274.0</ele><time>2026-04-25T18:10:14.989Z</time></trkpt><trkpt lat="45.41003788140533" lon="8.096176350000398"><ele>274.0</ele><time>2026-04-25T18:10:15.989Z</time></trkpt><trkpt lat="45.410178406334346" lon="8.096217296934276"><ele>274.0</ele><time>2026-04-25T18:10:16.989Z</time></trkpt><trkpt lat="45.410312575565136" lon="8.096258700520409"><ele>274.0</ele><time>2026-04-25T18:10:17.989Z</time></trkpt><trkpt lat="45.4104414730257" lon="8.096301168542578"><ele>274.0</ele><time>2026-04-25T18:10:18.989Z</time></trkpt><trkpt lat="45.41057472292723" lon="8.09634354739764"><ele>274.0</ele><time>2026-04-25T18:10:19.989Z</time></trkpt><trkpt lat="45.41071414479986" lon="8.096382701290334"><ele>274.0</ele><time>2026-04-25T18:10:20.989Z</time></trkpt><trkpt lat="45.41085729444395" lon="8.096424517914693"><ele>274.0</ele><time>2026-04-25T18:10:21.989Z</time></trkpt><trkpt lat="45.41100018801727" lon="8.096467487266565"><ele>274.0</ele><time>2026-04-25T18:10:22.989Z</time></trkpt><trkpt lat="45.411148617471376" lon="8.09651066484042"><ele>274.0</ele><time>2026-04-25T18:10:23.989Z</time></trkpt><trkpt lat="45.41129919853561" lon="8.096556601558785"><ele>274.0</ele><time>2026-04-25T18:10:24.989Z</time></trkpt><trkpt lat="45.41145631322793" lon="8.096603891717049"><ele>274.3333333333333</ele><time>2026-04-25T18:10:25.989Z</time></trkpt><trkpt lat="45.41161628656338" lon="8.096650349220246"><ele>274.6666666666667</ele><time>2026-04-25T18:10:26.989Z</time></trkpt><trkpt lat="45.41177777427316" lon="8.09670079357716"><ele>275.0</ele><time>2026-04-25T18:10:27.989Z</time></trkpt><trkpt lat="45.41193478129982" lon="8.096750684935289"><ele>275.0</ele><time>2026-04-25T18:10:28.989Z</time></trkpt><trkpt lat="45.41208176801777" lon="8.096800810950354"><ele>275.0</ele><time>2026-04-25T18:10:29.989Z</time></trkpt><trkpt lat="45.41223104049094" lon="8.096849032434477"><ele>275.0</ele><time>2026-04-25T18:10:30.989Z</time></trkpt><trkpt lat="45.41238099928571" lon="8.096898974022356"><ele>275.6666666666667</ele><time>2026-04-25T18:10:31.989Z</time></trkpt><trkpt lat="45.41253297501391" lon="8.096948051624437"><ele>276.3333333333333</ele><time>2026-04-25T18:10:32.989Z</time></trkpt><trkpt lat="45.412688679193955" lon="8.0969976322907"><ele>277.0</ele><time>2026-04-25T18:10:33.989Z</time></trkpt><trkpt lat="45.412846471880734" lon="8.097049760707417"><ele>277.3333333333333</ele><time>2026-04-25T18:10:34.989Z</time></trkpt><trkpt lat="45.41300867740636" lon="8.097099906902987"><ele>277.6666666666667</ele><time>2026-04-25T18:10:35.989Z</time></trkpt><trkpt lat="45.413172704786824" lon="8.097151098716687"><ele>278.0</ele><time>2026-04-25T18:10:36.989Z</time></trkpt><trkpt lat="45.413336373157925" lon="8.09719926076819"><ele>278.0</ele><time>2026-04-25T18:10:37.989Z</time></trkpt><trkpt lat="45.41350057953925" lon="8.097248249267565"><ele>278.0</ele><time>2026-04-25T18:10:38.989Z</time></trkpt><trkpt lat="45.413660162429466" lon="8.097297551951476"><ele>278.0</ele><time>2026-04-25T18:10:39.989Z</time></trkpt><trkpt lat="45.41381889229777" lon="8.097345919390802"><ele>277.6666666666667</ele><time>2026-04-25T18:10:40.989Z</time></trkpt><trkpt lat="45.41397799092011" lon="8.097392825687308"><ele>277.3333333333333</ele><time>2026-04-25T18:10:41.989Z</time></trkpt><trkpt lat="45.414135902355405" lon="8.09744257109835"><ele>277.0</ele><time>2026-04-25T18:10:42.989Z</time></trkpt><trkpt lat="45.41429582014577" lon="8.097493425841545"><ele>276.3333333333333</ele><time>2026-04-25T18:10:43.988Z</time></trkpt><trkpt lat="45.4144569690403" lon="8.097541683728789"><ele>275.6666666666667</ele><time>2026-04-25T18:10:44.988Z</time></trkpt><trkpt lat="45.41461881118858" lon="8.097591335494815"><ele>275.0</ele><time>2026-04-25T18:10:45.988Z</time></trkpt><trkpt lat="45.41478339433358" lon="8.09764091049072"><ele>276.33333333333337</ele><time>2026-04-25T18:10:46.988Z</time></trkpt><trkpt lat="45.41494868304092" lon="8.097691385836818"><ele>277.6666666666667</ele><time>2026-04-25T18:10:47.988Z</time></trkpt><trkpt lat="45.415113790529986" lon="8.09774282847861"><ele>279.0</ele><time>2026-04-25T18:10:48.988Z</time></trkpt><trkpt lat="45.415281272132944" lon="8.097796753168986"><ele>279.0</ele><time>2026-04-25T18:10:49.988Z</time></trkpt><trkpt lat="45.415447853354394" lon="8.097848849906848"><ele>279.0</ele><time>2026-04-25T18:10:50.988Z</time></trkpt><trkpt lat="45.41561799428749" lon="8.097898037799872"><ele>279.0</ele><time>2026-04-25T18:10:51.988Z</time></trkpt><trkpt lat="45.41578817712445" lon="8.09795373672339"><ele>279.3333333333333</ele><time>2026-04-25T18:10:52.988Z</time></trkpt><trkpt lat="45.41595952502603" lon="8.098006842738583"><ele>279.66666666666663</ele><time>2026-04-25T18:10:53.988Z</time></trkpt><trkpt lat="45.416130017250865" lon="8.098060656616315"><ele>280.0</ele><time>2026-04-25T18:10:54.988Z</time></trkpt><trkpt lat="45.416301903466135" lon="8.098116381639803"><ele>280.0</ele><time>2026-04-25T18:10:55.988Z</time></trkpt><trkpt lat="45.41647306963111" lon="8.09817156991982"><ele>280.0</ele><time>2026-04-25T18:10:56.988Z</time></trkpt><trkpt lat="45.416645830784844" lon="8.098226075504083"><ele>280.0</ele><time>2026-04-25T18:10:57.988Z</time></trkpt><trkpt lat="45.41681827993364" lon="8.098278645122708"><ele>280.0</ele><time>2026-04-25T18:10:58.988Z</time></trkpt><trkpt lat="45.416991513724085" lon="8.098330824642355"><ele>280.0</ele><time>2026-04-25T18:10:59.988Z</time></trkpt><trkpt lat="45.417166987249445" lon="8.098384646264178"><ele>280.0</ele><time>2026-04-25T18:11:00.988Z</time></trkpt><trkpt lat="45.417343154107634" lon="8.098438245159189"><ele>281.3333333333333</ele><time>2026-04-25T18:11:01.988Z</time></trkpt><trkpt lat="45.4175206701237" lon="8.098493568778823"><ele>282.6666666666667</ele><time>2026-04-25T18:11:02.988Z</time></trkpt><trkpt lat="45.41769025232106" lon="8.098546398142759"><ele>284.0</ele><time>2026-04-25T18:11:03.988Z</time></trkpt><trkpt lat="45.41785927829454" lon="8.098593602567252"><ele>284.0</ele><time>2026-04-25T18:11:04.988Z</time></trkpt><trkpt lat="45.41803047624231" lon="8.09864573066825"><ele>284.0</ele><time>2026-04-25T18:11:05.988Z</time></trkpt><trkpt lat="45.418203389105265" lon="8.098698582056219"><ele>284.0</ele><time>2026-04-25T18:11:06.988Z</time></trkpt><trkpt lat="45.41837980614319" lon="8.098753946427326"><ele>284.0</ele><time>2026-04-25T18:11:07.988Z</time></trkpt><trkpt lat="45.41855505341514" lon="8.09880835498512"><ele>284.0</ele><time>2026-04-25T18:11:08.988Z</time></trkpt><trkpt lat="45.41873034061532" lon="8.098863393637062"><ele>284.0</ele><time>2026-04-25T18:11:09.988Z</time></trkpt><trkpt lat="45.41890487270338" lon="8.098925483568634"><ele>284.0</ele><time>2026-04-25T18:11:10.988Z</time></trkpt><trkpt lat="45.41908006447553" lon="8.098979643652672"><ele>284.0</ele><time>2026-04-25T18:11:11.988Z</time></trkpt><trkpt lat="45.419252932406934" lon="8.09903254710135"><ele>284.0</ele><time>2026-04-25T18:11:12.988Z</time></trkpt><trkpt lat="45.41942236287777" lon="8.099083555156726"><ele>283.6666666666667</ele><time>2026-04-25T18:11:13.988Z</time></trkpt><trkpt lat="45.419585642739946" lon="8.09913396677445"><ele>283.3333333333333</ele><time>2026-04-25T18:11:14.988Z</time></trkpt><trkpt lat="45.4197419786545" lon="8.099185331870032"><ele>283.0</ele><time>2026-04-25T18:11:15.988Z</time></trkpt><trkpt lat="45.419893614884636" lon="8.09923616038933"><ele>282.75</ele><time>2026-04-25T18:11:16.988Z</time></trkpt><trkpt lat="45.420039931966514" lon="8.099280071697764"><ele>282.5</ele><time>2026-04-25T18:11:17.988Z</time></trkpt><trkpt lat="45.42018186506425" lon="8.099323832517651"><ele>282.25</ele><time>2026-04-25T18:11:18.988Z</time></trkpt><trkpt lat="45.42031721522117" lon="8.099366101488675"><ele>282.0</ele><time>2026-04-25T18:11:19.988Z</time></trkpt><trkpt lat="45.42044819747318" lon="8.099406578537309"><ele>282.25</ele><time>2026-04-25T18:11:20.988Z</time></trkpt><trkpt lat="45.42057081949304" lon="8.099447369532923"><ele>282.5</ele><time>2026-04-25T18:11:21.988Z</time></trkpt><trkpt lat="45.42069319131492" lon="8.099483752050492"><ele>282.75</ele><time>2026-04-25T18:11:22.988Z</time></trkpt><trkpt lat="45.42081939592248" lon="8.099520528143612"><ele>283.0</ele><time>2026-04-25T18:11:23.988Z</time></trkpt><trkpt lat="45.420949211787004" lon="8.099562734189561"><ele>283.0</ele><time>2026-04-25T18:11:24.988Z</time></trkpt><trkpt lat="45.42108540203046" lon="8.099607574260911"><ele>283.0</ele><time>2026-04-25T18:11:25.988Z</time></trkpt><trkpt lat="45.42123202016772" lon="8.099645228980288"><ele>283.0</ele><time>2026-04-25T18:11:26.988Z</time></trkpt><trkpt lat="45.42138573306474" lon="8.099687587300815"><ele>283.0</ele><time>2026-04-25T18:11:27.988Z</time></trkpt><trkpt lat="45.421546204598165" lon="8.09973566159616"><ele>283.3333333333333</ele><time>2026-04-25T18:11:28.988Z</time></trkpt><trkpt lat="45.42171305187668" lon="8.099785651840822"><ele>283.6666666666667</ele><time>2026-04-25T18:11:29.988Z</time></trkpt><trkpt lat="45.42188503341245" lon="8.099838859672985"><ele>284.0</ele><time>2026-04-25T18:11:30.988Z</time></trkpt><trkpt lat="45.422060310821244" lon="8.09990068416767"><ele>283.6666666666667</ele><time>2026-04-25T18:11:31.988Z</time></trkpt><trkpt lat="45.42223508688459" lon="8.099977152101111"><ele>283.3333333333333</ele><time>2026-04-25T18:11:32.988Z</time></trkpt><trkpt lat="45.42240912666774" lon="8.10007063894516"><ele>283.0</ele><time>2026-04-25T18:11:33.987Z</time></trkpt><trkpt lat="45.422573932488724" lon="8.100179881635643"><ele>283.0</ele><time>2026-04-25T18:11:34.987Z</time></trkpt><trkpt lat="45.42272617526132" lon="8.100304086773468"><ele>283.0</ele><time>2026-04-25T18:11:35.987Z</time></trkpt><trkpt lat="45.4228799066085" lon="8.10044964217289"><ele>283.0</ele><time>2026-04-25T18:11:36.987Z</time></trkpt><trkpt lat="45.423030326712514" lon="8.100610998808019"><ele>282.3333333333333</ele><time>2026-04-25T18:11:37.987Z</time></trkpt><trkpt lat="45.42316189093885" lon="8.100812559178127"><ele>281.6666666666667</ele><time>2026-04-25T18:11:38.987Z</time></trkpt><trkpt lat="45.423297575188116" lon="8.101021455649837"><ele>281.0</ele><time>2026-04-25T18:11:39.987Z</time></trkpt><trkpt lat="45.42344005261689" lon="8.101233028997365"><ele>281.0</ele><time>2026-04-25T18:11:40.987Z</time></trkpt><trkpt lat="45.42356110845645" lon="8.101471052269961"><ele>281.0</ele><time>2026-04-25T18:11:41.987Z</time></trkpt><trkpt lat="45.423675660941626" lon="8.101711977731142"><ele>281.0</ele><time>2026-04-25T18:11:42.987Z</time></trkpt><trkpt lat="45.423786849466424" lon="8.10195133943829"><ele>280.33333333333337</ele><time>2026-04-25T18:11:43.987Z</time></trkpt><trkpt lat="45.423896529179" lon="8.102188893039768"><ele>279.6666666666667</ele><time>2026-04-25T18:11:44.987Z</time></trkpt><trkpt lat="45.4240051981037" lon="8.102422957149182"><ele>279.0</ele><time>2026-04-25T18:11:45.987Z</time></trkpt><trkpt lat="45.424113422828405" lon="8.102655474650836"><ele>279.0</ele><time>2026-04-25T18:11:46.987Z</time></trkpt><trkpt lat="45.42421717703282" lon="8.102890114282093"><ele>279.0</ele><time>2026-04-25T18:11:47.987Z</time></trkpt><trkpt lat="45.424326956862046" lon="8.103117349831885"><ele>279.0</ele><time>2026-04-25T18:11:48.987Z</time></trkpt><trkpt lat="45.42443862855571" lon="8.103350559109561"><ele>279.6666666666667</ele><time>2026-04-25T18:11:49.987Z</time></trkpt><trkpt lat="45.42454049135244" lon="8.103576326628781"><ele>280.33333333333337</ele><time>2026-04-25T18:11:50.987Z</time></trkpt><trkpt lat="45.42464800654306" lon="8.103808878403783"><ele>281.0</ele><time>2026-04-25T18:11:51.987Z</time></trkpt><trkpt lat="45.42476114613032" lon="8.104044498527877"><ele>284.33333333333337</ele><time>2026-04-25T18:11:52.987Z</time></trkpt><trkpt lat="45.42487847622802" lon="8.104282672956996"><ele>287.6666666666667</ele><time>2026-04-25T18:11:53.987Z</time></trkpt><trkpt lat="45.42499808728423" lon="8.104525676231308"><ele>291.0</ele><time>2026-04-25T18:11:54.987Z</time></trkpt><trkpt lat="45.425114673533585" lon="8.104771485329874"><ele>288.6666666666667</ele><time>2026-04-25T18:11:55.987Z</time></trkpt><trkpt lat="45.425233344638315" lon="8.105020447946968"><ele>286.33333333333337</ele><time>2026-04-25T18:11:56.987Z</time></trkpt><trkpt lat="45.42534714439369" lon="8.105274100041298"><ele>284.0</ele><time>2026-04-25T18:11:57.987Z</time></trkpt><trkpt lat="45.42546103693591" lon="8.105531725413622"><ele>284.6666666666667</ele><time>2026-04-25T18:11:58.987Z</time></trkpt><trkpt lat="45.425569099500734" lon="8.105794291633076"><ele>285.3333333333333</ele><time>2026-04-25T18:11:59.987Z</time></trkpt><trkpt lat="45.42566677507179" lon="8.106064188140481"><ele>286.0</ele><time>2026-04-25T18:12:00.987Z</time></trkpt><trkpt lat="45.425758336878324" lon="8.106341507502833"><ele>287.3333333333333</ele><time>2026-04-25T18:12:01.987Z</time></trkpt><trkpt lat="45.425846252034866" lon="8.10662176061175"><ele>288.6666666666667</ele><time>2026-04-25T18:12:02.987Z</time></trkpt><trkpt lat="45.42593446783433" lon="8.106904840504777"><ele>290.0</ele><time>2026-04-25T18:12:03.987Z</time></trkpt><trkpt lat="45.42601601602187" lon="8.107192244362755"><ele>289.6666666666667</ele><time>2026-04-25T18:12:04.987Z</time></trkpt><trkpt lat="45.42609930748574" lon="8.107476290494244"><ele>289.3333333333333</ele><time>2026-04-25T18:12:05.987Z</time></trkpt><trkpt lat="45.42618927857667" lon="8.107756973606799"><ele>289.0</ele><time>2026-04-25T18:12:06.987Z</time></trkpt><trkpt lat="45.426289454998816" lon="8.108032394842807"><ele>288.0</ele><time>2026-04-25T18:12:07.987Z</time></trkpt><trkpt lat="45.426399830383076" lon="8.108302129869692"><ele>287.0</ele><time>2026-04-25T18:12:08.987Z</time></trkpt><trkpt lat="45.42652356791824" lon="8.108561406482718"><ele>286.0</ele><time>2026-04-25T18:12:09.987Z</time></trkpt><trkpt lat="45.42666085720713" lon="8.10880533573292"><ele>286.0</ele><time>2026-04-25T18:12:10.987Z</time></trkpt><trkpt lat="45.42681323884872" lon="8.109034940441749"><ele>286.0</ele><time>2026-04-25T18:12:11.987Z</time></trkpt><trkpt lat="45.426974062132246" lon="8.109260207028713"><ele>286.0</ele><time>2026-04-25T18:12:12.987Z</time></trkpt><trkpt lat="45.42713411592206" lon="8.109479773769623"><ele>287.0</ele><time>2026-04-25T18:12:13.987Z</time></trkpt><trkpt lat="45.42729280706728" lon="8.10968957251557"><ele>288.0</ele><time>2026-04-25T18:12:14.987Z</time></trkpt><trkpt lat="45.42744859307152" lon="8.10989586945595"><ele>289.0</ele><time>2026-04-25T18:12:15.987Z</time></trkpt><trkpt lat="45.42760302818207" lon="8.110098355221922"><ele>289.0</ele><time>2026-04-25T18:12:16.987Z</time></trkpt><trkpt lat="45.427754201882266" lon="8.110299029496705"><ele>289.0</ele><time>2026-04-25T18:12:17.987Z</time></trkpt><trkpt lat="45.427905280574585" lon="8.11050017771458"><ele>289.0</ele><time>2026-04-25T18:12:18.987Z</time></trkpt><trkpt lat="45.428055196758564" lon="8.11070603123265"><ele>287.66666666666663</ele><time>2026-04-25T18:12:19.987Z</time></trkpt><trkpt lat="45.42820310566416" lon="8.110906630473188"><ele>286.3333333333333</ele><time>2026-04-25T18:12:20.987Z</time></trkpt><trkpt lat="45.428353539572136" lon="8.111101305873035"><ele>285.0</ele><time>2026-04-25T18:12:21.987Z</time></trkpt><trkpt lat="45.42852363593234" lon="8.111274824074462"><ele>285.0</ele><time>2026-04-25T18:12:22.987Z</time></trkpt><trkpt lat="45.428698986079496" lon="8.111441518553"><ele>285.0</ele><time>2026-04-25T18:12:23.987Z</time></trkpt><trkpt lat="45.42886636010547" lon="8.111595706973858"><ele>285.0</ele><time>2026-04-25T18:12:24.986Z</time></trkpt><trkpt lat="45.42905900831935" lon="8.111720102796374"><ele>281.6666666666667</ele><time>2026-04-25T18:12:25.986Z</time></trkpt><trkpt lat="45.4292690479482" lon="8.111815396964737"><ele>278.33333333333337</ele><time>2026-04-25T18:12:26.986Z</time></trkpt><trkpt lat="45.42948536789529" lon="8.11188604500889"><ele>275.0</ele><time>2026-04-25T18:12:27.986Z</time></trkpt><trkpt lat="45.42970348241295" lon="8.111930957258819"><ele>273.5</ele><time>2026-04-25T18:12:28.986Z</time></trkpt><trkpt lat="45.42992898922765" lon="8.111960376533213"><ele>272.0</ele><time>2026-04-25T18:12:29.986Z</time></trkpt><trkpt lat="45.43015810941021" lon="8.111979785636409"><ele>272.0</ele><time>2026-04-25T18:12:30.986Z</time></trkpt><trkpt lat="45.430384963561195" lon="8.111995446323554"><ele>272.0</ele><time>2026-04-25T18:12:31.986Z</time></trkpt><trkpt lat="45.43060718024137" lon="8.112008487489444"><ele>269.0</ele><time>2026-04-25T18:12:32.986Z</time></trkpt><trkpt lat="45.43081845631575" lon="8.112015350774707"><ele>266.0</ele><time>2026-04-25T18:12:33.986Z</time></trkpt><trkpt lat="45.43102094026742" lon="8.11201845117829"><ele>263.0</ele><time>2026-04-25T18:12:34.986Z</time></trkpt><trkpt lat="45.43121601776995" lon="8.112020044034173"><ele>262.33333333333337</ele><time>2026-04-25T18:12:35.986Z</time></trkpt><trkpt lat="45.43140310255925" lon="8.112019142544082"><ele>261.6666666666667</ele><time>2026-04-25T18:12:36.986Z</time></trkpt><trkpt lat="45.431588562772774" lon="8.112020597276162"><ele>261.0</ele><time>2026-04-25T18:12:37.986Z</time></trkpt><trkpt lat="45.43177874998475" lon="8.11201829353908"><ele>261.0</ele><time>2026-04-25T18:12:38.986Z</time></trkpt><trkpt lat="45.43197535064906" lon="8.112019269910395"><ele>261.0</ele><time>2026-04-25T18:12:39.986Z</time></trkpt><trkpt lat="45.4321758439295" lon="8.112024156656599"><ele>261.0</ele><time>2026-04-25T18:12:40.986Z</time></trkpt><trkpt lat="45.43238328666803" lon="8.112032361080256"><ele>260.3333333333333</ele><time>2026-04-25T18:12:41.986Z</time></trkpt><trkpt lat="45.43259373855971" lon="8.112031394689891"><ele>259.66666666666663</ele><time>2026-04-25T18:12:42.986Z</time></trkpt><trkpt lat="45.43280153545631" lon="8.112037095040536"><ele>259.0</ele><time>2026-04-25T18:12:43.986Z</time></trkpt><trkpt lat="45.43302283659639" lon="8.112044333847427"><ele>258.3333333333333</ele><time>2026-04-25T18:12:44.986Z</time></trkpt><trkpt lat="45.43324739124937" lon="8.112053128257918"><ele>257.6666666666667</ele><time>2026-04-25T18:12:45.986Z</time></trkpt><trkpt lat="45.43346974300696" lon="8.11206330477905"><ele>257.0</ele><time>2026-04-25T18:12:46.986Z</time></trkpt><trkpt lat="45.43369237028117" lon="8.112068921899764"><ele>257.0</ele><time>2026-04-25T18:12:47.986Z</time></trkpt><trkpt lat="45.43391622401554" lon="8.112079914669492"><ele>257.0</ele><time>2026-04-25T18:12:48.986Z</time></trkpt><trkpt lat="45.434140067323725" lon="8.112088031125777"><ele>257.0</ele><time>2026-04-25T18:12:49.986Z</time></trkpt><trkpt lat="45.4343626928488" lon="8.112096080334734"><ele>257.0</ele><time>2026-04-25T18:12:50.986Z</time></trkpt><trkpt lat="45.43458628753917" lon="8.11210333813588"><ele>257.0</ele><time>2026-04-25T18:12:51.986Z</time></trkpt><trkpt lat="45.43480980246647" lon="8.112114230676639"><ele>257.0</ele><time>2026-04-25T18:12:52.986Z</time></trkpt><trkpt lat="45.4350336262704" lon="8.112123290419255"><ele>256.0</ele><time>2026-04-25T18:12:53.986Z</time></trkpt><trkpt lat="45.435255559735694" lon="8.112129240320876"><ele>255.0</ele><time>2026-04-25T18:12:54.986Z</time></trkpt><trkpt lat="45.43548189988355" lon="8.112138163012288"><ele>254.0</ele><time>2026-04-25T18:12:55.986Z</time></trkpt><trkpt lat="45.43571226768179" lon="8.112143379302461"><ele>254.0</ele><time>2026-04-25T18:12:56.986Z</time></trkpt><trkpt lat="45.43594813803606" lon="8.112146027608741"><ele>254.0</ele><time>2026-04-25T18:12:57.986Z</time></trkpt><trkpt lat="45.436184867459986" lon="8.112146507947747"><ele>255.0</ele><time>2026-04-25T18:12:58.986Z</time></trkpt><trkpt lat="45.43642014601669" lon="8.11214892697403"><ele>256.0</ele><time>2026-04-25T18:12:59.986Z</time></trkpt><trkpt lat="45.43665759071238" lon="8.112150576925806"><ele>256.0</ele><time>2026-04-25T18:13:00.986Z</time></trkpt><trkpt lat="45.436898393080355" lon="8.11215126229314"><ele>256.0</ele><time>2026-04-25T18:13:01.986Z</time></trkpt><trkpt lat="45.43714376383698" lon="8.112162498795724"><ele>258.0</ele><time>2026-04-25T18:13:02.986Z</time></trkpt><trkpt lat="45.437391834898406" lon="8.112179159236625"><ele>260.0</ele><time>2026-04-25T18:13:03.986Z</time></trkpt><trkpt lat="45.437642719047865" lon="8.112192841804346"><ele>260.0</ele><time>2026-04-25T18:13:04.986Z</time></trkpt><trkpt lat="45.43789396150948" lon="8.112202342338305"><ele>260.0</ele><time>2026-04-25T18:13:05.986Z</time></trkpt><trkpt lat="45.43814519736753" lon="8.112209417193004"><ele>261.0</ele><time>2026-04-25T18:13:06.986Z</time></trkpt><trkpt lat="45.438395203639864" lon="8.112214931434414"><ele>262.0</ele><time>2026-04-25T18:13:07.986Z</time></trkpt><trkpt lat="45.43864621715223" lon="8.112222527729598"><ele>262.0</ele><time>2026-04-25T18:13:08.986Z</time></trkpt><trkpt lat="45.438897542475274" lon="8.112233342438989"><ele>262.0</ele><time>2026-04-25T18:13:09.986Z</time></trkpt><trkpt lat="45.43914767021616" lon="8.112242528559253"><ele>262.0</ele><time>2026-04-25T18:13:10.986Z</time></trkpt><trkpt lat="45.439397525703214" lon="8.112250604398946"><ele>262.0</ele><time>2026-04-25T18:13:11.986Z</time></trkpt><trkpt lat="45.439644972988845" lon="8.112254301568582"><ele>261.0</ele><time>2026-04-25T18:13:12.986Z</time></trkpt><trkpt lat="45.43989183387282" lon="8.11225803928289"><ele>260.0</ele><time>2026-04-25T18:13:13.986Z</time></trkpt><trkpt lat="45.440133851520294" lon="8.112265129050309"><ele>260.0</ele><time>2026-04-25T18:13:14.985Z</time></trkpt><trkpt lat="45.440372094912654" lon="8.112272329359783"><ele>260.0</ele><time>2026-04-25T18:13:15.985Z</time></trkpt><trkpt lat="45.440598607401334" lon="8.112277732597214"><ele>260.33333333333337</ele><time>2026-04-25T18:13:16.985Z</time></trkpt><trkpt lat="45.440813729324155" lon="8.112282273819659"><ele>260.6666666666667</ele><time>2026-04-25T18:13:17.985Z</time></trkpt><trkpt lat="45.44101640899028" lon="8.112286320463355"><ele>261.0</ele><time>2026-04-25T18:13:18.985Z</time></trkpt><trkpt lat="45.44120883101228" lon="8.112296405453096"><ele>260.0</ele><time>2026-04-25T18:13:19.985Z</time></trkpt><trkpt lat="45.44139338545663" lon="8.112304949759915"><ele>259.0</ele><time>2026-04-25T18:13:20.985Z</time></trkpt><trkpt lat="45.44157186554534" lon="8.112311849472341"><ele>258.0</ele><time>2026-04-25T18:13:21.985Z</time></trkpt><trkpt lat="45.44174598353809" lon="8.112318886975517"><ele>258.0</ele><time>2026-04-25T18:13:22.985Z</time></trkpt><trkpt lat="45.44192336237181" lon="8.112333019373361"><ele>258.0</ele><time>2026-04-25T18:13:23.985Z</time></trkpt><trkpt lat="45.44210035227588" lon="8.112350355873746"><ele>258.0</ele><time>2026-04-25T18:13:24.985Z</time></trkpt><trkpt lat="45.44227522673907" lon="8.112364546570099"><ele>257.3333333333333</ele><time>2026-04-25T18:13:25.985Z</time></trkpt><trkpt lat="45.44244579073053" lon="8.11238029885472"><ele>256.66666666666663</ele><time>2026-04-25T18:13:26.985Z</time></trkpt><trkpt lat="45.44261902748642" lon="8.112392898182357"><ele>256.0</ele><time>2026-04-25T18:13:27.985Z</time></trkpt><trkpt lat="45.442795659399486" lon="8.112399646099384"><ele>254.0</ele><time>2026-04-25T18:13:28.985Z</time></trkpt><trkpt lat="45.442967392825615" lon="8.112398433532604"><ele>252.0</ele><time>2026-04-25T18:13:29.985Z</time></trkpt><trkpt lat="45.44313232172147" lon="8.112401465033978"><ele>250.0</ele><time>2026-04-25T18:13:30.985Z</time></trkpt><trkpt lat="45.44329456378125" lon="8.112405766333401"><ele>250.0</ele><time>2026-04-25T18:13:31.985Z</time></trkpt><trkpt lat="45.443448950770694" lon="8.112407210374421"><ele>250.0</ele><time>2026-04-25T18:13:32.985Z</time></trkpt><trkpt lat="45.443602586646016" lon="8.112405294112708"><ele>250.0</ele><time>2026-04-25T18:13:33.985Z</time></trkpt><trkpt lat="45.44375433491107" lon="8.112405329706164"><ele>249.75</ele><time>2026-04-25T18:13:34.985Z</time></trkpt><trkpt lat="45.44390827638304" lon="8.112406806871068"><ele>249.5</ele><time>2026-04-25T18:13:35.985Z</time></trkpt><trkpt lat="45.444058748598145" lon="8.112409148272189"><ele>249.25</ele><time>2026-04-25T18:13:36.985Z</time></trkpt><trkpt lat="45.44419872712443" lon="8.112412027509698"><ele>249.0</ele><time>2026-04-25T18:13:37.985Z</time></trkpt><trkpt lat="45.444337498626325" lon="8.11241514918067"><ele>249.0</ele><time>2026-04-25T18:13:38.985Z</time></trkpt><trkpt lat="45.44448057609046" lon="8.112413830442557"><ele>249.0</ele><time>2026-04-25T18:13:39.985Z</time></trkpt><trkpt lat="45.44463723292835" lon="8.11241697058957"><ele>249.0</ele><time>2026-04-25T18:13:40.985Z</time></trkpt><trkpt lat="45.444804616421905" lon="8.112417169095188"><ele>247.33333333333331</ele><time>2026-04-25T18:13:41.985Z</time></trkpt><trkpt lat="45.44497844940964" lon="8.112414302139916"><ele>245.66666666666666</ele><time>2026-04-25T18:13:42.985Z</time></trkpt><trkpt lat="45.44516018699738" lon="8.112411747870421"><ele>244.0</ele><time>2026-04-25T18:13:43.985Z</time></trkpt><trkpt lat="45.44534665364513" lon="8.112410789127766"><ele>241.66666666666666</ele><time>2026-04-25T18:13:44.985Z</time></trkpt><trkpt lat="45.445531282822515" lon="8.1124142397989"><ele>239.33333333333331</ele><time>2026-04-25T18:13:45.985Z</time></trkpt><trkpt lat="45.44570984144013" lon="8.112413619329693"><ele>237.0</ele><time>2026-04-25T18:13:46.985Z</time></trkpt><trkpt lat="45.44588607846583" lon="8.11241841023524"><ele>237.0</ele><time>2026-04-25T18:13:47.985Z</time></trkpt><trkpt lat="45.44606185144258" lon="8.112426853594734"><ele>237.0</ele><time>2026-04-25T18:13:48.985Z</time></trkpt><trkpt lat="45.446237886388516" lon="8.112435815581694"><ele>237.0</ele><time>2026-04-25T18:13:49.985Z</time></trkpt><trkpt lat="45.44641500912277" lon="8.112441443487945"><ele>237.33333333333331</ele><time>2026-04-25T18:13:50.985Z</time></trkpt><trkpt lat="45.44659078156901" lon="8.112448811099208"><ele>237.66666666666666</ele><time>2026-04-25T18:13:51.985Z</time></trkpt><trkpt lat="45.44676474903494" lon="8.11246806713631"><ele>238.0</ele><time>2026-04-25T18:13:52.985Z</time></trkpt><trkpt lat="45.44693515973291" lon="8.112511303795833"><ele>238.0</ele><time>2026-04-25T18:13:53.985Z</time></trkpt><trkpt lat="45.447101420976125" lon="8.112576704198139"><ele>238.0</ele><time>2026-04-25T18:13:54.985Z</time></trkpt><trkpt lat="45.44725432805045" lon="8.112651902070846"><ele>238.0</ele><time>2026-04-25T18:13:55.985Z</time></trkpt><trkpt lat="45.44739142378176" lon="8.112721919039993"><ele>240.75</ele><time>2026-04-25T18:13:56.985Z</time></trkpt><trkpt lat="45.447518991915665" lon="8.112788155752172"><ele>243.5</ele><time>2026-04-25T18:13:57.985Z</time></trkpt><trkpt lat="45.44763510223901" lon="8.112840937074488"><ele>246.25</ele><time>2026-04-25T18:13:58.985Z</time></trkpt><trkpt lat="45.447747279791216" lon="8.112875970087176"><ele>249.0</ele><time>2026-04-25T18:13:59.985Z</time></trkpt><trkpt lat="45.447867830824826" lon="8.112906685785756"><ele>250.5</ele><time>2026-04-25T18:14:00.985Z</time></trkpt><trkpt lat="45.44798460191318" lon="8.1129559571534"><ele>252.0</ele><time>2026-04-25T18:14:01.985Z</time></trkpt><trkpt lat="45.44810412947022" lon="8.112949670514512"><ele>253.5</ele><time>2026-04-25T18:14:02.985Z</time></trkpt><trkpt lat="45.44821596748551" lon="8.112984474797626"><ele>255.0</ele><time>2026-04-25T18:14:03.985Z</time></trkpt><trkpt lat="45.44833313250698" lon="8.112987746891081"><ele>255.0</ele><time>2026-04-25T18:14:04.984Z</time></trkpt><trkpt lat="45.4484608953292" lon="8.112982056307654"><ele>255.0</ele><time>2026-04-25T18:14:05.984Z</time></trkpt><trkpt lat="45.448589211030985" lon="8.112949394605357"><ele>255.0</ele><time>2026-04-25T18:14:06.984Z</time></trkpt><trkpt lat="45.44871483435844" lon="8.1129425697257"><ele>255.0</ele><time>2026-04-25T18:14:07.984Z</time></trkpt><trkpt lat="45.448845088602006" lon="8.112922437896085"><ele>250.25</ele><time>2026-04-25T18:14:08.984Z</time></trkpt><trkpt lat="45.44897854575324" lon="8.112902025698736"><ele>245.5</ele><time>2026-04-25T18:14:09.984Z</time></trkpt><trkpt lat="45.449114643464114" lon="8.112881416017135"><ele>240.75</ele><time>2026-04-25T18:14:10.984Z</time></trkpt><trkpt lat="45.449250662241056" lon="8.112855645301508"><ele>236.0</ele><time>2026-04-25T18:14:11.984Z</time></trkpt><trkpt lat="45.449380546078864" lon="8.112830838785701"><ele>236.0</ele><time>2026-04-25T18:14:12.984Z</time></trkpt><trkpt lat="45.44950834979708" lon="8.112805058595507"><ele>236.0</ele><time>2026-04-25T18:14:13.984Z</time></trkpt><trkpt lat="45.449635090184074" lon="8.112779493138685"><ele>236.0</ele><time>2026-04-25T18:14:14.984Z</time></trkpt><trkpt lat="45.44977080551068" lon="8.112754708829524"><ele>236.0</ele><time>2026-04-25T18:14:15.984Z</time></trkpt><trkpt lat="45.449913742221206" lon="8.112727963374047"><ele>233.25</ele><time>2026-04-25T18:14:16.984Z</time></trkpt><trkpt lat="45.45005898835684" lon="8.112703349748525"><ele>230.5</ele><time>2026-04-25T18:14:17.984Z</time></trkpt><trkpt lat="45.45019863519814" lon="8.112680725528294"><ele>227.75</ele><time>2026-04-25T18:14:18.984Z</time></trkpt><trkpt lat="45.450325872869165" lon="8.112657089551773"><ele>225.0</ele><time>2026-04-25T18:14:19.984Z</time></trkpt><trkpt lat="45.450447296981835" lon="8.112631700813354"><ele>225.0</ele><time>2026-04-25T18:14:20.984Z</time></trkpt><trkpt lat="45.45055773011347" lon="8.112604650820115"><ele>225.0</ele><time>2026-04-25T18:14:21.984Z</time></trkpt><trkpt lat="45.45065412093043" lon="8.112575314409803"><ele>225.0</ele><time>2026-04-25T18:14:22.984Z</time></trkpt><trkpt lat="45.45073897378726" lon="8.112546361254449"><ele>225.0</ele><time>2026-04-25T18:14:23.984Z</time></trkpt><trkpt lat="45.45080897107892" lon="8.11252897764334"><ele>225.0</ele><time>2026-04-25T18:14:24.984Z</time></trkpt><trkpt lat="45.45092389232641" lon="8.112551836905597"><ele>225.0</ele><time>2026-04-25T18:14:26.984Z</time></trkpt><trkpt lat="45.450993205839445" lon="8.112669333245966"><ele>225.0</ele><time>2026-04-25T18:14:28.984Z</time></trkpt><trkpt lat="45.45100350060043" lon="8.112770533792824"><ele>225.0</ele><time>2026-04-25T18:14:29.984Z</time></trkpt><trkpt lat="45.450989773089475" lon="8.112899926043754"><ele>225.0</ele><time>2026-04-25T18:14:30.984Z</time></trkpt><trkpt lat="45.45096377235076" lon="8.113045161518789"><ele>225.0</ele><time>2026-04-25T18:14:31.984Z</time></trkpt><trkpt lat="45.450938178536944" lon="8.113187378329014"><ele>225.0</ele><time>2026-04-25T18:14:32.984Z</time></trkpt><trkpt lat="45.45090066398981" lon="8.11332830524356"><ele>225.0</ele><time>2026-04-25T18:14:33.984Z</time></trkpt><trkpt lat="45.45088001134448" lon="8.113487138423231"><ele>225.0</ele><time>2026-04-25T18:14:34.984Z</time></trkpt><trkpt lat="45.45086462642187" lon="8.113662065330367"><ele>225.0</ele><time>2026-04-25T18:14:35.984Z</time></trkpt><trkpt lat="45.4508582128098" lon="8.113847407040593"><ele>225.0</ele><time>2026-04-25T18:14:36.984Z</time></trkpt><trkpt lat="45.45085891113678" lon="8.114040944393505"><ele>225.0</ele><time>2026-04-25T18:14:37.984Z</time></trkpt><trkpt lat="45.45086241857493" lon="8.11423109233912"><ele>225.0</ele><time>2026-04-25T18:14:38.984Z</time></trkpt><trkpt lat="45.45086690610867" lon="8.114411790174742"><ele>225.0</ele><time>2026-04-25T18:14:39.984Z</time></trkpt><trkpt lat="45.450871102178986" lon="8.114577382977878"><ele>224.8</ele><time>2026-04-25T18:14:40.984Z</time></trkpt><trkpt lat="45.45087515532315" lon="8.11473733526267"><ele>224.6</ele><time>2026-04-25T18:14:41.984Z</time></trkpt><trkpt lat="45.45087894803497" lon="8.114887009969241"><ele>224.39999999999998</ele><time>2026-04-25T18:14:42.984Z</time></trkpt><trkpt lat="45.45088250487449" lon="8.115027376404916"><ele>224.2</ele><time>2026-04-25T18:14:43.984Z</time></trkpt><trkpt lat="45.450886339924246" lon="8.11516792463096"><ele>224.0</ele><time>2026-04-25T18:14:44.984Z</time></trkpt><trkpt lat="45.45088983168178" lon="8.11529304158603"><ele>224.16666666666669</ele><time>2026-04-25T18:14:45.984Z</time></trkpt><trkpt lat="45.4508931081164" lon="8.115410443034326"><ele>224.33333333333334</ele><time>2026-04-25T18:14:46.984Z</time></trkpt><trkpt lat="45.45089623199173" lon="8.11552237793643"><ele>224.5</ele><time>2026-04-25T18:14:47.984Z</time></trkpt><trkpt lat="45.45089645499468" lon="8.115622408872374"><ele>224.66666666666669</ele><time>2026-04-25T18:14:48.984Z</time></trkpt><trkpt lat="45.45089382720515" lon="8.11571294390779"><ele>224.83333333333334</ele><time>2026-04-25T18:14:49.984Z</time></trkpt><trkpt lat="45.45087276950213" lon="8.11586087028433"><ele>225.0</ele><time>2026-04-25T18:14:51.984Z</time></trkpt><trkpt lat="45.450809832433265" lon="8.115965913552998"><ele>225.0</ele><time>2026-04-25T18:14:53.984Z</time></trkpt><trkpt lat="45.450738172352146" lon="8.115981716406894"><ele>225.0</ele><time>2026-04-25T18:14:54.983Z</time></trkpt><trkpt lat="45.45064953440873" lon="8.115989830766393"><ele>225.0</ele><time>2026-04-25T18:14:55.983Z</time></trkpt><trkpt lat="45.450548900068426" lon="8.116003189504761"><ele>225.0</ele><time>2026-04-25T18:14:56.983Z</time></trkpt><trkpt lat="45.4504452065369" lon="8.116042892499868"><ele>225.0</ele><time>2026-04-25T18:14:57.983Z</time></trkpt><trkpt lat="45.4503348908492" lon="8.116106747774193"><ele>224.5</ele><time>2026-04-25T18:14:58.983Z</time></trkpt><trkpt lat="45.450249003202956" lon="8.116204502726662"><ele>224.0</ele><time>2026-04-25T18:14:59.983Z</time></trkpt><trkpt lat="45.45017290916322" lon="8.116345365097002"><ele>223.5</ele><time>2026-04-25T18:15:00.983Z</time></trkpt><trkpt lat="45.450113000807384" lon="8.116516239557843"><ele>223.0</ele><time>2026-04-25T18:15:01.983Z</time></trkpt><trkpt lat="45.45006016997376" lon="8.116709088025623"><ele>222.66666666666666</ele><time>2026-04-25T18:15:02.983Z</time></trkpt><trkpt lat="45.450006010893325" lon="8.11691875609377"><ele>222.33333333333331</ele><time>2026-04-25T18:15:03.983Z</time></trkpt><trkpt lat="45.44994905240347" lon="8.117139261623127"><ele>222.0</ele><time>2026-04-25T18:15:04.983Z</time></trkpt><trkpt lat="45.44991061434161" lon="8.11735449793359"><ele>221.66666666666669</ele><time>2026-04-25T18:15:05.983Z</time></trkpt><trkpt lat="45.449842882823084" lon="8.117550279916411"><ele>221.33333333333334</ele><time>2026-04-25T18:15:06.983Z</time></trkpt><trkpt lat="45.449802050130344" lon="8.117766943437662"><ele>221.0</ele><time>2026-04-25T18:15:07.983Z</time></trkpt><trkpt lat="45.44974440211141" lon="8.117977405304751"><ele>221.0</ele><time>2026-04-25T18:15:08.983Z</time></trkpt><trkpt lat="45.44968904406902" lon="8.118196614212568"><ele>221.0</ele><time>2026-04-25T18:15:09.983Z</time></trkpt><trkpt lat="45.44962884020442" lon="8.11842125749999"><ele>221.0</ele><time>2026-04-25T18:15:10.983Z</time></trkpt><trkpt lat="45.44956669972403" lon="8.118654472489046"><ele>220.66666666666669</ele><time>2026-04-25T18:15:11.983Z</time></trkpt><trkpt lat="45.449506829273815" lon="8.118894482259462"><ele>220.33333333333331</ele><time>2026-04-25T18:15:12.983Z</time></trkpt><trkpt lat="45.44943994463178" lon="8.119140107396106"><ele>220.0</ele><time>2026-04-25T18:15:13.983Z</time></trkpt><trkpt lat="45.449372782593976" lon="8.119391904147864"><ele>220.0</ele><time>2026-04-25T18:15:14.983Z</time></trkpt><trkpt lat="45.449320436902106" lon="8.119635377389635"><ele>220.0</ele><time>2026-04-25T18:15:15.983Z</time></trkpt><trkpt lat="45.449279254081816" lon="8.119871368913204"><ele>220.0</ele><time>2026-04-25T18:15:16.983Z</time></trkpt><trkpt lat="45.44924349135407" lon="8.12010911513224"><ele>220.0</ele><time>2026-04-25T18:15:17.983Z</time></trkpt><trkpt lat="45.44920738779676" lon="8.120349940984328"><ele>220.0</ele><time>2026-04-25T18:15:18.983Z</time></trkpt><trkpt lat="45.449170376625624" lon="8.12059478119052"><ele>220.0</ele><time>2026-04-25T18:15:19.983Z</time></trkpt><trkpt lat="45.449134425390405" lon="8.120841719065059"><ele>219.66666666666666</ele><time>2026-04-25T18:15:20.983Z</time></trkpt><trkpt lat="45.449098732998586" lon="8.121095619392944"><ele>219.33333333333331</ele><time>2026-04-25T18:15:21.983Z</time></trkpt><trkpt lat="45.44906305847211" lon="8.121354657641065"><ele>219.0</ele><time>2026-04-25T18:15:22.983Z</time></trkpt><trkpt lat="45.44902369895745" lon="8.121616487072156"><ele>219.0</ele><time>2026-04-25T18:15:23.983Z</time></trkpt><trkpt lat="45.44898185746668" lon="8.121876857100624"><ele>219.0</ele><time>2026-04-25T18:15:24.983Z</time></trkpt><trkpt lat="45.44894452776027" lon="8.122139076331536"><ele>219.0</ele><time>2026-04-25T18:15:25.983Z</time></trkpt><trkpt lat="45.448906298047916" lon="8.122406644671106"><ele>219.66666666666669</ele><time>2026-04-25T18:15:26.983Z</time></trkpt><trkpt lat="45.44887000075105" lon="8.1226746934624"><ele>220.33333333333334</ele><time>2026-04-25T18:15:27.983Z</time></trkpt><trkpt lat="45.44883217301924" lon="8.12294847241636"><ele>221.0</ele><time>2026-04-25T18:15:28.983Z</time></trkpt><trkpt lat="45.4487946280594" lon="8.123213831433638"><ele>220.33333333333334</ele><time>2026-04-25T18:15:29.983Z</time></trkpt><trkpt lat="45.44875648144125" lon="8.12347248478117"><ele>219.66666666666669</ele><time>2026-04-25T18:15:30.983Z</time></trkpt><trkpt lat="45.44872775226333" lon="8.123729301297868"><ele>219.0</ele><time>2026-04-25T18:15:31.983Z</time></trkpt><trkpt lat="45.44869160894235" lon="8.123997397298755"><ele>219.33333333333331</ele><time>2026-04-25T18:15:32.983Z</time></trkpt><trkpt lat="45.44865362808491" lon="8.124267290293586"><ele>219.66666666666666</ele><time>2026-04-25T18:15:33.983Z</time></trkpt><trkpt lat="45.44861496905752" lon="8.124540228225275"><ele>220.0</ele><time>2026-04-25T18:15:34.983Z</time></trkpt><trkpt lat="45.448573583976845" lon="8.124822615917502"><ele>220.0</ele><time>2026-04-25T18:15:35.983Z</time></trkpt><trkpt lat="45.44853752306457" lon="8.12510955390435"><ele>220.0</ele><time>2026-04-25T18:15:36.983Z</time></trkpt><trkpt lat="45.44851020657514" lon="8.125392987530992"><ele>220.0</ele><time>2026-04-25T18:15:37.983Z</time></trkpt><trkpt lat="45.448481416752934" lon="8.125681674851013"><ele>219.66666666666666</ele><time>2026-04-25T18:15:38.983Z</time></trkpt><trkpt lat="45.44844988989545" lon="8.125972847543697"><ele>219.33333333333331</ele><time>2026-04-25T18:15:39.983Z</time></trkpt><trkpt lat="45.44841589948477" lon="8.126262345996155"><ele>219.0</ele><time>2026-04-25T18:15:40.983Z</time></trkpt><trkpt lat="45.4483780417014" lon="8.126556984268749"><ele>219.0</ele><time>2026-04-25T18:15:41.983Z</time></trkpt><trkpt lat="45.44833931239989" lon="8.126851935693578"><ele>219.0</ele><time>2026-04-25T18:15:42.983Z</time></trkpt><trkpt lat="45.448301176609895" lon="8.127149231722496"><ele>219.0</ele><time>2026-04-25T18:15:43.983Z</time></trkpt><trkpt lat="45.44826188886818" lon="8.12744291399794"><ele>219.0</ele><time>2026-04-25T18:15:44.982Z</time></trkpt><trkpt lat="45.44822203482377" lon="8.127737200014327"><ele>219.0</ele><time>2026-04-25T18:15:45.982Z</time></trkpt><trkpt lat="45.44818905681877" lon="8.128029867094337"><ele>219.0</ele><time>2026-04-25T18:15:46.982Z</time></trkpt><trkpt lat="45.448132826922574" lon="8.128317506159423"><ele>218.0</ele><time>2026-04-25T18:15:47.982Z</time></trkpt><trkpt lat="45.448092890747695" lon="8.12860867837787"><ele>217.0</ele><time>2026-04-25T18:15:48.982Z</time></trkpt><trkpt lat="45.44805386684102" lon="8.128900768972454"><ele>216.0</ele><time>2026-04-25T18:15:49.982Z</time></trkpt><trkpt lat="45.448014794749874" lon="8.129193427122676"><ele>216.0</ele><time>2026-04-25T18:15:50.982Z</time></trkpt><trkpt lat="45.44797549056333" lon="8.129487823603382"><ele>216.0</ele><time>2026-04-25T18:15:51.982Z</time></trkpt><trkpt lat="45.44793633895185" lon="8.129781077357938"><ele>216.0</ele><time>2026-04-25T18:15:52.982Z</time></trkpt><trkpt lat="45.4478968823235" lon="8.130077012319115"><ele>216.33333333333331</ele><time>2026-04-25T18:15:53.982Z</time></trkpt><trkpt lat="45.4478580946508" lon="8.13036812137406"><ele>216.66666666666666</ele><time>2026-04-25T18:15:54.982Z</time></trkpt><trkpt lat="45.44781933231739" lon="8.130659040355395"><ele>217.0</ele><time>2026-04-25T18:15:55.982Z</time></trkpt><trkpt lat="45.44778033016957" lon="8.130949532183045"><ele>217.0</ele><time>2026-04-25T18:15:56.982Z</time></trkpt><trkpt lat="45.44774083283867" lon="8.131241059249426"><ele>217.0</ele><time>2026-04-25T18:15:57.982Z</time></trkpt><trkpt lat="45.447701491966974" lon="8.13153143138038"><ele>217.0</ele><time>2026-04-25T18:15:58.982Z</time></trkpt><trkpt lat="45.44766235557056" lon="8.131820294338834"><ele>216.66666666666666</ele><time>2026-04-25T18:15:59.982Z</time></trkpt><trkpt lat="45.44762319250155" lon="8.132109354315247"><ele>216.33333333333331</ele><time>2026-04-25T18:16:00.982Z</time></trkpt><trkpt lat="45.44758407025861" lon="8.132398099254605"><ele>216.0</ele><time>2026-04-25T18:16:01.982Z</time></trkpt><trkpt lat="45.447544769981924" lon="8.132688015693892"><ele>215.66666666666669</ele><time>2026-04-25T18:16:02.982Z</time></trkpt><trkpt lat="45.44750534488003" lon="8.132978852800942"><ele>215.33333333333334</ele><time>2026-04-25T18:16:03.982Z</time></trkpt><trkpt lat="45.4474660698183" lon="8.133268583093509"><ele>215.0</ele><time>2026-04-25T18:16:04.982Z</time></trkpt><trkpt lat="45.447426821808996" lon="8.133558113788142"><ele>215.0</ele><time>2026-04-25T18:16:05.982Z</time></trkpt><trkpt lat="45.44738799834542" lon="8.133844512664375"><ele>215.0</ele><time>2026-04-25T18:16:06.982Z</time></trkpt><trkpt lat="45.4473640211521" lon="8.134131833122824"><ele>215.0</ele><time>2026-04-25T18:16:07.982Z</time></trkpt><trkpt lat="45.44732321203206" lon="8.134408092801163"><ele>215.0</ele><time>2026-04-25T18:16:08.982Z</time></trkpt><trkpt lat="45.44728061876259" lon="8.134682819035666"><ele>215.0</ele><time>2026-04-25T18:16:09.982Z</time></trkpt><trkpt lat="45.44724232409147" lon="8.13496223350361"><ele>215.0</ele><time>2026-04-25T18:16:10.982Z</time></trkpt><trkpt lat="45.44720633800556" lon="8.135241335677755"><ele>215.0</ele><time>2026-04-25T18:16:11.982Z</time></trkpt><trkpt lat="45.447171094145894" lon="8.135521215014691"><ele>215.0</ele><time>2026-04-25T18:16:12.982Z</time></trkpt><trkpt lat="45.44713773379743" lon="8.13580179935554"><ele>215.0</ele><time>2026-04-25T18:16:13.982Z</time></trkpt><trkpt lat="45.44708422728067" lon="8.136078573768344"><ele>214.66666666666669</ele><time>2026-04-25T18:16:14.982Z</time></trkpt><trkpt lat="45.44704627946941" lon="8.136361796280168"><ele>214.33333333333331</ele><time>2026-04-25T18:16:15.982Z</time></trkpt><trkpt lat="45.4470202352811" lon="8.136650338094917"><ele>214.0</ele><time>2026-04-25T18:16:16.982Z</time></trkpt><trkpt lat="45.44697712245816" lon="8.136936849701"><ele>214.0</ele><time>2026-04-25T18:16:17.982Z</time></trkpt><trkpt lat="45.446937979143236" lon="8.137229620173285"><ele>214.0</ele><time>2026-04-25T18:16:18.982Z</time></trkpt><trkpt lat="45.446897993206456" lon="8.137526933748429"><ele>214.0</ele><time>2026-04-25T18:16:19.982Z</time></trkpt><trkpt lat="45.44685524213077" lon="8.137828395593388"><ele>214.0</ele><time>2026-04-25T18:16:20.982Z</time></trkpt><trkpt lat="45.44681491430996" lon="8.13813264629356"><ele>214.0</ele><time>2026-04-25T18:16:21.982Z</time></trkpt><trkpt lat="45.44677483334664" lon="8.138440944342367"><ele>214.0</ele><time>2026-04-25T18:16:22.982Z</time></trkpt><trkpt lat="45.44673579979811" lon="8.138752167335518"><ele>213.5</ele><time>2026-04-25T18:16:23.982Z</time></trkpt><trkpt lat="45.44669448530174" lon="8.139065554326192"><ele>213.0</ele><time>2026-04-25T18:16:24.982Z</time></trkpt><trkpt lat="45.44663742264454" lon="8.13937738659912"><ele>213.0</ele><time>2026-04-25T18:16:25.982Z</time></trkpt><trkpt lat="45.44659422083147" lon="8.139699416041745"><ele>213.0</ele><time>2026-04-25T18:16:26.982Z</time></trkpt><trkpt lat="45.44656728524745" lon="8.140025913469913"><ele>212.5</ele><time>2026-04-25T18:16:27.982Z</time></trkpt><trkpt lat="45.44652348378865" lon="8.140347688705411"><ele>212.0</ele><time>2026-04-25T18:16:28.982Z</time></trkpt><trkpt lat="45.44647918673134" lon="8.140668567278803"><ele>212.5</ele><time>2026-04-25T18:16:29.982Z</time></trkpt><trkpt lat="45.44641936006133" lon="8.140987203349843"><ele>213.0</ele><time>2026-04-25T18:16:30.982Z</time></trkpt><trkpt lat="45.446378960967834" lon="8.141301337410813"><ele>213.0</ele><time>2026-04-25T18:16:31.982Z</time></trkpt><trkpt lat="45.4463395867219" lon="8.141613355685838"><ele>213.0</ele><time>2026-04-25T18:16:32.982Z</time></trkpt><trkpt lat="45.44629922720997" lon="8.141923373786241"><ele>213.0</ele><time>2026-04-25T18:16:33.982Z</time></trkpt><trkpt lat="45.44625649574667" lon="8.14223071130131"><ele>212.33333333333331</ele><time>2026-04-25T18:16:34.982Z</time></trkpt><trkpt lat="45.44621382972622" lon="8.142538859088669"><ele>211.66666666666666</ele><time>2026-04-25T18:16:35.981Z</time></trkpt><trkpt lat="45.446172498097184" lon="8.142843647526918"><ele>211.0</ele><time>2026-04-25T18:16:36.981Z</time></trkpt><trkpt lat="45.44613145518557" lon="8.143148195338895"><ele>210.66666666666666</ele><time>2026-04-25T18:16:37.981Z</time></trkpt><trkpt lat="45.44609182971035" lon="8.14345175989859"><ele>210.33333333333331</ele><time>2026-04-25T18:16:38.981Z</time></trkpt><trkpt lat="45.44605164684406" lon="8.143754397044832"><ele>210.0</ele><time>2026-04-25T18:16:39.981Z</time></trkpt><trkpt lat="45.44601238830493" lon="8.144057395646012"><ele>210.0</ele><time>2026-04-25T18:16:40.981Z</time></trkpt><trkpt lat="45.44597416414417" lon="8.144360946205591"><ele>210.0</ele><time>2026-04-25T18:16:41.981Z</time></trkpt><trkpt lat="45.44593462677617" lon="8.144660518569461"><ele>210.0</ele><time>2026-04-25T18:16:42.981Z</time></trkpt><trkpt lat="45.44589379676432" lon="8.14495441584373"><ele>210.0</ele><time>2026-04-25T18:16:43.981Z</time></trkpt><trkpt lat="45.445855009504996" lon="8.145242788527817"><ele>210.0</ele><time>2026-04-25T18:16:44.981Z</time></trkpt><trkpt lat="45.44581218273126" lon="8.145521563820108"><ele>210.0</ele><time>2026-04-25T18:16:45.981Z</time></trkpt><trkpt lat="45.445770598501035" lon="8.145792423644211"><ele>210.33333333333331</ele><time>2026-04-25T18:16:46.981Z</time></trkpt><trkpt lat="45.44573146821786" lon="8.14605566996607"><ele>210.66666666666666</ele><time>2026-04-25T18:16:47.981Z</time></trkpt><trkpt lat="45.44569968769336" lon="8.146307233611646"><ele>211.0</ele><time>2026-04-25T18:16:48.981Z</time></trkpt><trkpt lat="45.44567569070441" lon="8.14655454487826"><ele>211.33333333333331</ele><time>2026-04-25T18:16:49.981Z</time></trkpt><trkpt lat="45.445662671674185" lon="8.146795894260453"><ele>211.66666666666669</ele><time>2026-04-25T18:16:50.981Z</time></trkpt><trkpt lat="45.44564983928403" lon="8.147035557526502"><ele>212.0</ele><time>2026-04-25T18:16:51.981Z</time></trkpt><trkpt lat="45.44562843267223" lon="8.147267078448683"><ele>212.66666666666669</ele><time>2026-04-25T18:16:52.981Z</time></trkpt><trkpt lat="45.44560860714383" lon="8.147495566350988"><ele>213.33333333333331</ele><time>2026-04-25T18:16:53.981Z</time></trkpt><trkpt lat="45.44558762355847" lon="8.147714110152185"><ele>214.0</ele><time>2026-04-25T18:16:54.981Z</time></trkpt><trkpt lat="45.445570217151406" lon="8.147932280993498"><ele>214.0</ele><time>2026-04-25T18:16:55.981Z</time></trkpt><trkpt lat="45.44555472451059" lon="8.148139755945968"><ele>214.0</ele><time>2026-04-25T18:16:56.981Z</time></trkpt><trkpt lat="45.44553795632702" lon="8.148331362782121"><ele>214.0</ele><time>2026-04-25T18:16:57.981Z</time></trkpt><trkpt lat="45.44552365869271" lon="8.148517588757992"><ele>214.0</ele><time>2026-04-25T18:16:58.981Z</time></trkpt><trkpt lat="45.44551329710641" lon="8.14869763296093"><ele>214.25</ele><time>2026-04-25T18:16:59.981Z</time></trkpt><trkpt lat="45.44550609300123" lon="8.14886837235805"><ele>214.5</ele><time>2026-04-25T18:17:00.981Z</time></trkpt><trkpt lat="45.445502084260134" lon="8.149030033462878"><ele>214.75</ele><time>2026-04-25T18:17:01.981Z</time></trkpt><trkpt lat="45.44549593400452" lon="8.149188676259683"><ele>215.0</ele><time>2026-04-25T18:17:02.981Z</time></trkpt><trkpt lat="45.44550955912446" lon="8.149352917750715"><ele>215.0</ele><time>2026-04-25T18:17:03.981Z</time></trkpt><trkpt lat="45.445544774033095" lon="8.149525593334282"><ele>215.0</ele><time>2026-04-25T18:17:04.981Z</time></trkpt><trkpt lat="45.44559807820051" lon="8.149702316682825"><ele>215.0</ele><time>2026-04-25T18:17:05.981Z</time></trkpt><trkpt lat="45.44565402000619" lon="8.149886258797805"><ele>215.0</ele><time>2026-04-25T18:17:06.981Z</time></trkpt><trkpt lat="45.4457058352112" lon="8.150060691778815"><ele>215.25</ele><time>2026-04-25T18:17:07.981Z</time></trkpt><trkpt lat="45.44575508049946" lon="8.15023645184151"><ele>215.5</ele><time>2026-04-25T18:17:08.981Z</time></trkpt><trkpt lat="45.44580037717447" lon="8.15040646438135"><ele>215.75</ele><time>2026-04-25T18:17:09.981Z</time></trkpt><trkpt lat="45.445844160730815" lon="8.150570070837654"><ele>216.0</ele><time>2026-04-25T18:17:10.981Z</time></trkpt><trkpt lat="45.44588058181128" lon="8.150724016687839"><ele>216.0</ele><time>2026-04-25T18:17:11.981Z</time></trkpt><trkpt lat="45.44591325285792" lon="8.150862814154086"><ele>216.0</ele><time>2026-04-25T18:17:12.981Z</time></trkpt><trkpt lat="45.445939526702674" lon="8.150980961574206"><ele>216.0</ele><time>2026-04-25T18:17:13.981Z</time></trkpt><trkpt lat="45.44596216618036" lon="8.15107169650509"><ele>216.0</ele><time>2026-04-25T18:17:14.981Z</time></trkpt><trkpt lat="45.445998412636676" lon="8.151203299275888"><ele>216.0</ele><time>2026-04-25T18:17:16.981Z</time></trkpt><trkpt lat="45.44605953382818" lon="8.151298021087241"><ele>216.0</ele><time>2026-04-25T18:17:18.981Z</time></trkpt><trkpt lat="45.44615277265648" lon="8.151393990519475"><ele>216.0</ele><time>2026-04-25T18:17:20.981Z</time></trkpt><trkpt lat="45.44621254638847" lon="8.151467226355546"><ele>216.0</ele><time>2026-04-25T18:17:21.981Z</time></trkpt><trkpt lat="45.446279999807004" lon="8.151544902776868"><ele>216.0</ele><time>2026-04-25T18:17:22.981Z</time></trkpt><trkpt lat="45.446351154495055" lon="8.151622312215052"><ele>216.0</ele><time>2026-04-25T18:17:23.981Z</time></trkpt><trkpt lat="45.4464258771016" lon="8.151696821651555"><ele>216.0</ele><time>2026-04-25T18:17:24.981Z</time></trkpt><trkpt lat="45.446503640839126" lon="8.151771979518132"><ele>216.0</ele><time>2026-04-25T18:17:25.98Z</time></trkpt><trkpt lat="45.4465797213009" lon="8.151862521900895"><ele>215.75</ele><time>2026-04-25T18:17:26.98Z</time></trkpt><trkpt lat="45.44666394148754" lon="8.15196574589591"><ele>215.5</ele><time>2026-04-25T18:17:27.98Z</time></trkpt><trkpt lat="45.446758572380695" lon="8.152070588656912"><ele>215.25</ele><time>2026-04-25T18:17:28.98Z</time></trkpt><trkpt lat="45.44685711971446" lon="8.152177747256143"><ele>215.0</ele><time>2026-04-25T18:17:29.98Z</time></trkpt><trkpt lat="45.44695605935053" lon="8.15227935341869"><ele>214.75</ele><time>2026-04-25T18:17:30.98Z</time></trkpt><trkpt lat="45.44706101511662" lon="8.152388308355885"><ele>214.5</ele><time>2026-04-25T18:17:31.98Z</time></trkpt><trkpt lat="45.44717442301732" lon="8.152506888985672"><ele>214.25</ele><time>2026-04-25T18:17:32.98Z</time></trkpt><trkpt lat="45.447294502320645" lon="8.152637978359683"><ele>214.0</ele><time>2026-04-25T18:17:33.98Z</time></trkpt><trkpt lat="45.44742124293707" lon="8.152775545443253"><ele>214.0</ele><time>2026-04-25T18:17:34.98Z</time></trkpt><trkpt lat="45.44755420082977" lon="8.152916838695749"><ele>214.0</ele><time>2026-04-25T18:17:35.98Z</time></trkpt><trkpt lat="45.447683495024854" lon="8.153052114581378"><ele>214.0</ele><time>2026-04-25T18:17:36.98Z</time></trkpt><trkpt lat="45.44780722220859" lon="8.153179631480446"><ele>213.33333333333331</ele><time>2026-04-25T18:17:37.98Z</time></trkpt><trkpt lat="45.44792661894999" lon="8.153306164490548"><ele>212.66666666666669</ele><time>2026-04-25T18:17:38.98Z</time></trkpt><trkpt lat="45.4480482093274" lon="8.153435868401296"><ele>212.0</ele><time>2026-04-25T18:17:39.98Z</time></trkpt><trkpt lat="45.44817136092239" lon="8.153569352144958"><ele>212.0</ele><time>2026-04-25T18:17:40.98Z</time></trkpt><trkpt lat="45.448298432720286" lon="8.153705596829683"><ele>212.0</ele><time>2026-04-25T18:17:41.98Z</time></trkpt><trkpt lat="45.4484292924956" lon="8.153844899581156"><ele>212.0</ele><time>2026-04-25T18:17:42.98Z</time></trkpt><trkpt lat="45.44856222666317" lon="8.153985736068648"><ele>212.33333333333334</ele><time>2026-04-25T18:17:43.98Z</time></trkpt><trkpt lat="45.44869604911597" lon="8.154129784895598"><ele>212.66666666666669</ele><time>2026-04-25T18:17:44.98Z</time></trkpt><trkpt lat="45.448830469675045" lon="8.154282419559989"><ele>213.0</ele><time>2026-04-25T18:17:45.98Z</time></trkpt><trkpt lat="45.4489633154195" lon="8.154439773354152"><ele>213.0</ele><time>2026-04-25T18:17:46.98Z</time></trkpt><trkpt lat="45.4490921171136" lon="8.15459677174267"><ele>213.0</ele><time>2026-04-25T18:17:47.98Z</time></trkpt><trkpt lat="45.44921997300341" lon="8.15475498437958"><ele>213.0</ele><time>2026-04-25T18:17:48.98Z</time></trkpt><trkpt lat="45.449346910449016" lon="8.154916009695205"><ele>213.0</ele><time>2026-04-25T18:17:49.98Z</time></trkpt><trkpt lat="45.449474270851574" lon="8.155080377369993"><ele>213.0</ele><time>2026-04-25T18:17:50.98Z</time></trkpt><trkpt lat="45.44960334254549" lon="8.155247610758337"><ele>213.0</ele><time>2026-04-25T18:17:51.98Z</time></trkpt><trkpt lat="45.44973447711178" lon="8.155417241344178"><ele>213.0</ele><time>2026-04-25T18:17:52.98Z</time></trkpt><trkpt lat="45.44986421065637" lon="8.155588666560227"><ele>213.0</ele><time>2026-04-25T18:17:53.98Z</time></trkpt><trkpt lat="45.449993737152454" lon="8.155758174806762"><ele>213.0</ele><time>2026-04-25T18:17:54.98Z</time></trkpt><trkpt lat="45.45012249404582" lon="8.15592825737432"><ele>213.0</ele><time>2026-04-25T18:17:55.98Z</time></trkpt><trkpt lat="45.45025075859871" lon="8.156100056212065"><ele>213.0</ele><time>2026-04-25T18:17:56.98Z</time></trkpt><trkpt lat="45.450378973062996" lon="8.156271194610884"><ele>213.0</ele><time>2026-04-25T18:17:57.98Z</time></trkpt><trkpt lat="45.450509183065385" lon="8.156440200328614"><ele>213.66666666666669</ele><time>2026-04-25T18:17:58.98Z</time></trkpt><trkpt lat="45.45064386682284" lon="8.156602247478464"><ele>214.33333333333334</ele><time>2026-04-25T18:17:59.98Z</time></trkpt><trkpt lat="45.45077832515237" lon="8.156752749280695"><ele>215.0</ele><time>2026-04-25T18:18:00.98Z</time></trkpt><trkpt lat="45.4509058365573" lon="8.15689430389128"><ele>215.0</ele><time>2026-04-25T18:18:01.98Z</time></trkpt><trkpt lat="45.4510315503118" lon="8.157029989605114"><ele>215.0</ele><time>2026-04-25T18:18:02.98Z</time></trkpt><trkpt lat="45.45113984029459" lon="8.157181806527827"><ele>215.0</ele><time>2026-04-25T18:18:03.98Z</time></trkpt><trkpt lat="45.45126257131811" lon="8.157320137798099"><ele>215.33333333333334</ele><time>2026-04-25T18:18:04.98Z</time></trkpt><trkpt lat="45.45138267291801" lon="8.157457913278714"><ele>215.66666666666669</ele><time>2026-04-25T18:18:05.98Z</time></trkpt><trkpt lat="45.45150176234248" lon="8.157605266584703"><ele>216.0</ele><time>2026-04-25T18:18:06.98Z</time></trkpt><trkpt lat="45.451619563813786" lon="8.15776255440751"><ele>216.0</ele><time>2026-04-25T18:18:07.98Z</time></trkpt><trkpt lat="45.45173612701338" lon="8.157930676909208"><ele>216.0</ele><time>2026-04-25T18:18:08.98Z</time></trkpt><trkpt lat="45.45184765018929" lon="8.158112413391885"><ele>216.0</ele><time>2026-04-25T18:18:09.98Z</time></trkpt><trkpt lat="45.451954706835515" lon="8.15830524260839"><ele>215.66666666666669</ele><time>2026-04-25T18:18:10.98Z</time></trkpt><trkpt lat="45.452069560324084" lon="8.158503085334933"><ele>215.33333333333334</ele><time>2026-04-25T18:18:11.98Z</time></trkpt><trkpt lat="45.45218272822118" lon="8.15871012127176"><ele>215.0</ele><time>2026-04-25T18:18:12.98Z</time></trkpt><trkpt lat="45.45230169283108" lon="8.158918643278454"><ele>215.33333333333334</ele><time>2026-04-25T18:18:13.98Z</time></trkpt><trkpt lat="45.45242348692984" lon="8.159126320908472"><ele>215.66666666666669</ele><time>2026-04-25T18:18:14.98Z</time></trkpt><trkpt lat="45.45254440348747" lon="8.159331369752604"><ele>216.0</ele><time>2026-04-25T18:18:15.979Z</time></trkpt><trkpt lat="45.452665744637784" lon="8.159536918475425"><ele>216.0</ele><time>2026-04-25T18:18:16.979Z</time></trkpt><trkpt lat="45.45278447250048" lon="8.159740966649178"><ele>216.0</ele><time>2026-04-25T18:18:17.979Z</time></trkpt><trkpt lat="45.452903879721426" lon="8.159934391562029"><ele>216.0</ele><time>2026-04-25T18:18:18.979Z</time></trkpt><trkpt lat="45.45302261217195" lon="8.160125805558597"><ele>216.0</ele><time>2026-04-25T18:18:19.979Z</time></trkpt><trkpt lat="45.45312722633427" lon="8.160332291351382"><ele>216.0</ele><time>2026-04-25T18:18:20.979Z</time></trkpt><trkpt lat="45.45323927872593" lon="8.160524040057691"><ele>216.0</ele><time>2026-04-25T18:18:21.979Z</time></trkpt><trkpt lat="45.45334475523355" lon="8.160704535767689"><ele>215.66666666666669</ele><time>2026-04-25T18:18:22.979Z</time></trkpt><trkpt lat="45.45344610384021" lon="8.16087820109025"><ele>215.33333333333334</ele><time>2026-04-25T18:18:23.979Z</time></trkpt><trkpt lat="45.453555096592694" lon="8.161033078275542"><ele>215.0</ele><time>2026-04-25T18:18:24.979Z</time></trkpt><trkpt lat="45.453648128095395" lon="8.16119546030525"><ele>215.0</ele><time>2026-04-25T18:18:25.979Z</time></trkpt><trkpt lat="45.453733008759855" lon="8.161343979471672"><ele>215.0</ele><time>2026-04-25T18:18:26.979Z</time></trkpt><trkpt lat="45.453809483165905" lon="8.161477877528066"><ele>215.0</ele><time>2026-04-25T18:18:27.979Z</time></trkpt><trkpt lat="45.45385262962801" lon="8.161594419055596"><ele>215.0</ele><time>2026-04-25T18:18:28.979Z</time></trkpt><trkpt lat="45.45390158366946" lon="8.161678866496734"><ele>215.0</ele><time>2026-04-25T18:18:29.979Z</time></trkpt><trkpt lat="45.45393352548045" lon="8.161762833188105"><ele>214.8</ele><time>2026-04-25T18:18:30.979Z</time></trkpt><trkpt lat="45.45394007170625" lon="8.161954115190024"><ele>214.6</ele><time>2026-04-25T18:18:32.979Z</time></trkpt><trkpt lat="45.45390634396345" lon="8.162063754785278"><ele>214.39999999999998</ele><time>2026-04-25T18:18:33.979Z</time></trkpt><trkpt lat="45.45386033911975" lon="8.162188111404824"><ele>214.2</ele><time>2026-04-25T18:18:34.979Z</time></trkpt><trkpt lat="45.45380755317635" lon="8.162325643267582"><ele>214.0</ele><time>2026-04-25T18:18:35.979Z</time></trkpt><trkpt lat="45.453743338236244" lon="8.16248069574"><ele>213.75</ele><time>2026-04-25T18:18:36.979Z</time></trkpt><trkpt lat="45.45367630698346" lon="8.162647176939412"><ele>213.5</ele><time>2026-04-25T18:18:37.979Z</time></trkpt><trkpt lat="45.45360062179125" lon="8.162827599232056"><ele>213.25</ele><time>2026-04-25T18:18:38.979Z</time></trkpt><trkpt lat="45.45352719153279" lon="8.163001116668902"><ele>213.0</ele><time>2026-04-25T18:18:39.979Z</time></trkpt><trkpt lat="45.45345273155914" lon="8.163180278897446"><ele>213.0</ele><time>2026-04-25T18:18:40.979Z</time></trkpt><trkpt lat="45.45337329273469" lon="8.163371218397685"><ele>213.0</ele><time>2026-04-25T18:18:41.979Z</time></trkpt><trkpt lat="45.45328956407155" lon="8.16357222665253"><ele>213.0</ele><time>2026-04-25T18:18:42.979Z</time></trkpt><trkpt lat="45.45320144616126" lon="8.16378512224422"><ele>213.0</ele><time>2026-04-25T18:18:43.979Z</time></trkpt><trkpt lat="45.453108363895495" lon="8.164009405147135"><ele>213.0</ele><time>2026-04-25T18:18:44.979Z</time></trkpt><trkpt lat="45.45301260410922" lon="8.164236146422388"><ele>213.0</ele><time>2026-04-25T18:18:45.979Z</time></trkpt><trkpt lat="45.45292445198974" lon="8.1644537788878"><ele>213.0</ele><time>2026-04-25T18:18:46.979Z</time></trkpt><trkpt lat="45.45283692365225" lon="8.164670235493556"><ele>213.0</ele><time>2026-04-25T18:18:47.979Z</time></trkpt><trkpt lat="45.452747333606695" lon="8.164893961721674"><ele>213.0</ele><time>2026-04-25T18:18:48.979Z</time></trkpt><trkpt lat="45.4526551806262" lon="8.165122404901085"><ele>212.66666666666669</ele><time>2026-04-25T18:18:49.979Z</time></trkpt><trkpt lat="45.45255779804784" lon="8.165356128908725"><ele>212.33333333333334</ele><time>2026-04-25T18:18:50.979Z</time></trkpt><trkpt lat="45.45246230828593" lon="8.165584101107527"><ele>212.0</ele><time>2026-04-25T18:18:51.979Z</time></trkpt><trkpt lat="45.45237135315145" lon="8.165803856773842"><ele>212.0</ele><time>2026-04-25T18:18:52.979Z</time></trkpt><trkpt lat="45.45228042367695" lon="8.166028086954807"><ele>212.0</ele><time>2026-04-25T18:18:53.979Z</time></trkpt><trkpt lat="45.45218730872919" lon="8.16625840646797"><ele>212.0</ele><time>2026-04-25T18:18:54.979Z</time></trkpt><trkpt lat="45.45208962396772" lon="8.166492171182448"><ele>211.66666666666669</ele><time>2026-04-25T18:18:55.979Z</time></trkpt><trkpt lat="45.45199208997627" lon="8.166729172722935"><ele>211.33333333333331</ele><time>2026-04-25T18:18:56.979Z</time></trkpt><trkpt lat="45.45189545395543" lon="8.166967084704305"><ele>211.0</ele><time>2026-04-25T18:18:57.979Z</time></trkpt><trkpt lat="45.45180175088618" lon="8.167197288220262"><ele>211.0</ele><time>2026-04-25T18:18:58.979Z</time></trkpt><trkpt lat="45.45170966284522" lon="8.167418477222093"><ele>211.0</ele><time>2026-04-25T18:18:59.979Z</time></trkpt><trkpt lat="45.45161938975944" lon="8.167638357718333"><ele>211.0</ele><time>2026-04-25T18:19:00.979Z</time></trkpt><trkpt lat="45.45152753632396" lon="8.16785887766695"><ele>211.0</ele><time>2026-04-25T18:19:01.979Z</time></trkpt><trkpt lat="45.451436973535266" lon="8.168083340978459"><ele>211.0</ele><time>2026-04-25T18:19:02.979Z</time></trkpt><trkpt lat="45.451343623592635" lon="8.16830907486879"><ele>211.0</ele><time>2026-04-25T18:19:03.979Z</time></trkpt><trkpt lat="45.45124836104201" lon="8.16853759648368"><ele>210.66666666666666</ele><time>2026-04-25T18:19:04.979Z</time></trkpt><trkpt lat="45.45115305910151" lon="8.16876808847182"><ele>210.33333333333331</ele><time>2026-04-25T18:19:05.978Z</time></trkpt><trkpt lat="45.451058093881905" lon="8.168999121256649"><ele>210.0</ele><time>2026-04-25T18:19:06.978Z</time></trkpt><trkpt lat="45.450966020364454" lon="8.169226773691802"><ele>209.66666666666669</ele><time>2026-04-25T18:19:07.978Z</time></trkpt><trkpt lat="45.450875242166305" lon="8.169447799548587"><ele>209.33333333333334</ele><time>2026-04-25T18:19:08.978Z</time></trkpt><trkpt lat="45.45078703582519" lon="8.169660882683443"><ele>209.0</ele><time>2026-04-25T18:19:09.978Z</time></trkpt><trkpt lat="45.450701593519476" lon="8.169864068800635"><ele>208.75</ele><time>2026-04-25T18:19:10.978Z</time></trkpt><trkpt lat="45.45062015809272" lon="8.17005411600048"><ele>208.5</ele><time>2026-04-25T18:19:11.978Z</time></trkpt><trkpt lat="45.4505438375429" lon="8.17023049984671"><ele>208.25</ele><time>2026-04-25T18:19:12.978Z</time></trkpt><trkpt lat="45.45047798981552" lon="8.170394838241528"><ele>208.0</ele><time>2026-04-25T18:19:13.978Z</time></trkpt><trkpt lat="45.45044372672901" lon="8.170567712141786"><ele>208.0</ele><time>2026-04-25T18:19:14.978Z</time></trkpt><trkpt lat="45.450429790880186" lon="8.170750042888482"><ele>208.0</ele><time>2026-04-25T18:19:15.978Z</time></trkpt><trkpt lat="45.450442400128495" lon="8.170961502660056"><ele>208.0</ele><time>2026-04-25T18:19:16.978Z</time></trkpt><trkpt lat="45.450466597049356" lon="8.17118324265642"><ele>208.0</ele><time>2026-04-25T18:19:17.978Z</time></trkpt><trkpt lat="45.45049612515684" lon="8.171427219198431"><ele>208.33333333333331</ele><time>2026-04-25T18:19:18.978Z</time></trkpt><trkpt lat="45.45052544417652" lon="8.171685890814388"><ele>208.66666666666669</ele><time>2026-04-25T18:19:19.978Z</time></trkpt><trkpt lat="45.450553907526945" lon="8.171944084195706"><ele>209.0</ele><time>2026-04-25T18:19:20.978Z</time></trkpt><trkpt lat="45.45057802794162" lon="8.172186544830302"><ele>208.66666666666669</ele><time>2026-04-25T18:19:21.978Z</time></trkpt><trkpt lat="45.45060215940165" lon="8.172426104270894"><ele>208.33333333333331</ele><time>2026-04-25T18:19:22.978Z</time></trkpt><trkpt lat="45.45062904713251" lon="8.172670259549939"><ele>208.0</ele><time>2026-04-25T18:19:23.978Z</time></trkpt><trkpt lat="45.450660251264125" lon="8.172918565514186"><ele>208.0</ele><time>2026-04-25T18:19:24.978Z</time></trkpt><trkpt lat="45.45070771039454" lon="8.173164008743859"><ele>208.0</ele><time>2026-04-25T18:19:25.978Z</time></trkpt><trkpt lat="45.450771314669225" lon="8.173407661520118"><ele>208.0</ele><time>2026-04-25T18:19:26.978Z</time></trkpt><trkpt lat="45.45084286180417" lon="8.173651789662658"><ele>207.66666666666666</ele><time>2026-04-25T18:19:27.978Z</time></trkpt><trkpt lat="45.450913410452394" lon="8.173896537335924"><ele>207.33333333333331</ele><time>2026-04-25T18:19:28.978Z</time></trkpt><trkpt lat="45.45097437070148" lon="8.174149600259359"><ele>207.0</ele><time>2026-04-25T18:19:29.978Z</time></trkpt><trkpt lat="45.45103594785578" lon="8.174404393146112"><ele>206.33333333333331</ele><time>2026-04-25T18:19:30.978Z</time></trkpt><trkpt lat="45.45107629386741" lon="8.17467079091178"><ele>205.66666666666666</ele><time>2026-04-25T18:19:31.978Z</time></trkpt><trkpt lat="45.45112983224038" lon="8.174932441451274"><ele>205.0</ele><time>2026-04-25T18:19:32.978Z</time></trkpt><trkpt lat="45.4511826714897" lon="8.175190472554522"><ele>205.0</ele><time>2026-04-25T18:19:33.978Z</time></trkpt><trkpt lat="45.45123591556823" lon="8.175444694070888"><ele>205.0</ele><time>2026-04-25T18:19:34.978Z</time></trkpt><trkpt lat="45.45128849510333" lon="8.175695742994392"><ele>205.0</ele><time>2026-04-25T18:19:35.978Z</time></trkpt><trkpt lat="45.4513564193295" lon="8.1759394118419"><ele>205.33333333333331</ele><time>2026-04-25T18:19:36.978Z</time></trkpt><trkpt lat="45.45140204497448" lon="8.176196840238626"><ele>205.66666666666669</ele><time>2026-04-25T18:19:37.978Z</time></trkpt><trkpt lat="45.451441594866566" lon="8.17646380259073"><ele>206.0</ele><time>2026-04-25T18:19:38.978Z</time></trkpt><trkpt lat="45.4514775173839" lon="8.176738430116796"><ele>206.0</ele><time>2026-04-25T18:19:39.978Z</time></trkpt><trkpt lat="45.45150905148778" lon="8.177020540631398"><ele>206.0</ele><time>2026-04-25T18:19:40.978Z</time></trkpt><trkpt lat="45.451519399196734" lon="8.177308557965501"><ele>206.0</ele><time>2026-04-25T18:19:41.978Z</time></trkpt><trkpt lat="45.451539804576555" lon="8.17759638019256"><ele>205.66666666666669</ele><time>2026-04-25T18:19:42.978Z</time></trkpt><trkpt lat="45.45155682833406" lon="8.177887794126846"><ele>205.33333333333331</ele><time>2026-04-25T18:19:43.978Z</time></trkpt><trkpt lat="45.45157042658256" lon="8.17817825070476"><ele>205.0</ele><time>2026-04-25T18:19:44.978Z</time></trkpt><trkpt lat="45.45158376326923" lon="8.178467052939281"><ele>204.66666666666666</ele><time>2026-04-25T18:19:45.978Z</time></trkpt><trkpt lat="45.451612185801075" lon="8.1787528061773"><ele>204.33333333333331</ele><time>2026-04-25T18:19:46.978Z</time></trkpt><trkpt lat="45.451621068545904" lon="8.179035233433192"><ele>204.0</ele><time>2026-04-25T18:19:47.978Z</time></trkpt><trkpt lat="45.451633309516545" lon="8.179315277239631"><ele>204.0</ele><time>2026-04-25T18:19:48.978Z</time></trkpt><trkpt lat="45.45164615974938" lon="8.179585416045075"><ele>204.0</ele><time>2026-04-25T18:19:49.978Z</time></trkpt><trkpt lat="45.45165848362669" lon="8.179845918886457"><ele>204.0</ele><time>2026-04-25T18:19:50.978Z</time></trkpt><trkpt lat="45.45166913134791" lon="8.180099288042605"><ele>204.0</ele><time>2026-04-25T18:19:51.978Z</time></trkpt><trkpt lat="45.451682825161676" lon="8.180339958829721"><ele>204.0</ele><time>2026-04-25T18:19:52.978Z</time></trkpt><trkpt lat="45.451692929543064" lon="8.180576475964823"><ele>204.0</ele><time>2026-04-25T18:19:53.978Z</time></trkpt><trkpt lat="45.45169198399632" lon="8.180806912487235"><ele>203.66666666666669</ele><time>2026-04-25T18:19:54.978Z</time></trkpt><trkpt lat="45.45168310116338" lon="8.181041252695083"><ele>203.33333333333334</ele><time>2026-04-25T18:19:55.978Z</time></trkpt><trkpt lat="45.45166452414078" lon="8.181274980905968"><ele>203.0</ele><time>2026-04-25T18:19:56.977Z</time></trkpt><trkpt lat="45.451642073706616" lon="8.181492726073005"><ele>203.25</ele><time>2026-04-25T18:19:57.977Z</time></trkpt><trkpt lat="45.451620522687406" lon="8.181696648182099"><ele>203.5</ele><time>2026-04-25T18:19:58.977Z</time></trkpt><trkpt lat="45.45161693757404" lon="8.181899416061027"><ele>203.75</ele><time>2026-04-25T18:19:59.977Z</time></trkpt><trkpt lat="45.45161407299699" lon="8.182115299168673"><ele>204.0</ele><time>2026-04-25T18:20:00.977Z</time></trkpt><trkpt lat="45.45164889879859" lon="8.182332387776846"><ele>204.33333333333331</ele><time>2026-04-25T18:20:01.977Z</time></trkpt><trkpt lat="45.45166892560668" lon="8.182565179327112"><ele>204.66666666666666</ele><time>2026-04-25T18:20:02.977Z</time></trkpt><trkpt lat="45.45169461324961" lon="8.18280478281452"><ele>205.0</ele><time>2026-04-25T18:20:03.977Z</time></trkpt><trkpt lat="45.451718593049" lon="8.183042672150282"><ele>205.0</ele><time>2026-04-25T18:20:04.977Z</time></trkpt><trkpt lat="45.45174389497455" lon="8.183286511526315"><ele>205.0</ele><time>2026-04-25T18:20:05.977Z</time></trkpt><trkpt lat="45.45176981749242" lon="8.183531263066415"><ele>205.0</ele><time>2026-04-25T18:20:06.977Z</time></trkpt><trkpt lat="45.45179703859572" lon="8.183776605886129"><ele>204.33333333333331</ele><time>2026-04-25T18:20:07.977Z</time></trkpt><trkpt lat="45.45182094478874" lon="8.184018084409843"><ele>203.66666666666669</ele><time>2026-04-25T18:20:08.977Z</time></trkpt><trkpt lat="45.45184579844319" lon="8.184244615978299"><ele>203.0</ele><time>2026-04-25T18:20:09.977Z</time></trkpt><trkpt lat="45.45187578320904" lon="8.184447942223784"><ele>203.0</ele><time>2026-04-25T18:20:10.977Z</time></trkpt><trkpt lat="45.45191481205127" lon="8.184633548800349"><ele>203.0</ele><time>2026-04-25T18:20:11.977Z</time></trkpt><trkpt lat="45.45196280272197" lon="8.184807296025301"><ele>203.0</ele><time>2026-04-25T18:20:12.977Z</time></trkpt><trkpt lat="45.45202338631957" lon="8.18496770576153"><ele>203.0</ele><time>2026-04-25T18:20:13.977Z</time></trkpt><trkpt lat="45.45210055137049" lon="8.18511597575886"><ele>203.0</ele><time>2026-04-25T18:20:14.977Z</time></trkpt><trkpt lat="45.45219969576477" lon="8.185240441185957"><ele>203.0</ele><time>2026-04-25T18:20:15.977Z</time></trkpt><trkpt lat="45.452314129795084" lon="8.18535281292876"><ele>203.0</ele><time>2026-04-25T18:20:16.977Z</time></trkpt><trkpt lat="45.45244035241255" lon="8.185458649653498"><ele>203.0</ele><time>2026-04-25T18:20:17.977Z</time></trkpt><trkpt lat="45.452574427787034" lon="8.185560465871838"><ele>203.0</ele><time>2026-04-25T18:20:18.977Z</time></trkpt><trkpt lat="45.45271180556581" lon="8.185660985210264"><ele>203.0</ele><time>2026-04-25T18:20:19.977Z</time></trkpt><trkpt lat="45.452834659912" lon="8.185776238518043"><ele>203.0</ele><time>2026-04-25T18:20:20.977Z</time></trkpt><trkpt lat="45.45295638024033" lon="8.185865292419518"><ele>203.0</ele><time>2026-04-25T18:20:21.977Z</time></trkpt><trkpt lat="45.45307172821749" lon="8.185954301860379"><ele>202.5</ele><time>2026-04-25T18:20:22.977Z</time></trkpt><trkpt lat="45.453189164443636" lon="8.186034181216195"><ele>202.0</ele><time>2026-04-25T18:20:23.977Z</time></trkpt><trkpt lat="45.45328249253108" lon="8.18615783254511"><ele>201.5</ele><time>2026-04-25T18:20:24.977Z</time></trkpt><trkpt lat="45.45336031933316" lon="8.18630601945199"><ele>201.0</ele><time>2026-04-25T18:20:25.977Z</time></trkpt><trkpt lat="45.453399307868324" lon="8.186478423919475"><ele>201.25</ele><time>2026-04-25T18:20:26.977Z</time></trkpt><trkpt lat="45.453425132957335" lon="8.186653067894861"><ele>201.5</ele><time>2026-04-25T18:20:27.977Z</time></trkpt><trkpt lat="45.45343031978051" lon="8.186837153536018"><ele>201.75</ele><time>2026-04-25T18:20:28.977Z</time></trkpt><trkpt lat="45.45343823976662" lon="8.187030761646335"><ele>202.0</ele><time>2026-04-25T18:20:29.977Z</time></trkpt><trkpt lat="45.45344654321556" lon="8.187233060922765"><ele>202.0</ele><time>2026-04-25T18:20:30.977Z</time></trkpt><trkpt lat="45.45347182440918" lon="8.187443797226054"><ele>202.0</ele><time>2026-04-25T18:20:31.977Z</time></trkpt><trkpt lat="45.45346466895628" lon="8.18766711167256"><ele>202.0</ele><time>2026-04-25T18:20:32.977Z</time></trkpt><trkpt lat="45.453474375620665" lon="8.187892856857488"><ele>202.0</ele><time>2026-04-25T18:20:33.977Z</time></trkpt><trkpt lat="45.45348443483152" lon="8.188122401778674"><ele>202.0</ele><time>2026-04-25T18:20:34.977Z</time></trkpt><trkpt lat="45.45349478126163" lon="8.188358500633274"><ele>202.0</ele><time>2026-04-25T18:20:35.977Z</time></trkpt><trkpt lat="45.45350546253042" lon="8.18860224031442"><ele>201.66666666666666</ele><time>2026-04-25T18:20:36.977Z</time></trkpt><trkpt lat="45.453516479995486" lon="8.188853651831026"><ele>201.33333333333331</ele><time>2026-04-25T18:20:37.977Z</time></trkpt><trkpt lat="45.453543803270286" lon="8.189111034391386"><ele>201.0</ele><time>2026-04-25T18:20:38.977Z</time></trkpt><trkpt lat="45.45355378927168" lon="8.189374890938394"><ele>200.66666666666669</ele><time>2026-04-25T18:20:39.977Z</time></trkpt><trkpt lat="45.453564071386" lon="8.18964383569422"><ele>200.33333333333334</ele><time>2026-04-25T18:20:40.977Z</time></trkpt><trkpt lat="45.45357369138793" lon="8.189906075277525"><ele>200.0</ele><time>2026-04-25T18:20:41.977Z</time></trkpt><trkpt lat="45.45358423534643" lon="8.190160297241011"><ele>200.0</ele><time>2026-04-25T18:20:42.977Z</time></trkpt><trkpt lat="45.45359332931884" lon="8.190410641014156"><ele>200.0</ele><time>2026-04-25T18:20:43.977Z</time></trkpt><trkpt lat="45.453605402325046" lon="8.190665888641501"><ele>200.0</ele><time>2026-04-25T18:20:44.977Z</time></trkpt><trkpt lat="45.453619035516475" lon="8.190924724787973"><ele>200.0</ele><time>2026-04-25T18:20:45.977Z</time></trkpt><trkpt lat="45.453631556422955" lon="8.191187656617627"><ele>200.0</ele><time>2026-04-25T18:20:46.976Z</time></trkpt><trkpt lat="45.45362637203091" lon="8.191454772682489"><ele>200.0</ele><time>2026-04-25T18:20:47.976Z</time></trkpt><trkpt lat="45.45363814734429" lon="8.191722303741217"><ele>199.66666666666669</ele><time>2026-04-25T18:20:48.976Z</time></trkpt><trkpt lat="45.45366570458106" lon="8.191993221518844"><ele>199.33333333333331</ele><time>2026-04-25T18:20:49.976Z</time></trkpt><trkpt lat="45.45367484336237" lon="8.192268138721639"><ele>199.0</ele><time>2026-04-25T18:20:50.976Z</time></trkpt><trkpt lat="45.4536856943164" lon="8.192546807029984"><ele>199.0</ele><time>2026-04-25T18:20:51.976Z</time></trkpt><trkpt lat="45.4537003893788" lon="8.192828178829048"><ele>199.0</ele><time>2026-04-25T18:20:52.976Z</time></trkpt><trkpt lat="45.4537142211093" lon="8.193111389104104"><ele>199.0</ele><time>2026-04-25T18:20:53.976Z</time></trkpt><trkpt lat="45.453711931113915" lon="8.19339864576997"><ele>199.0</ele><time>2026-04-25T18:20:54.976Z</time></trkpt><trkpt lat="45.453724345373395" lon="8.193687505994015"><ele>199.0</ele><time>2026-04-25T18:20:55.976Z</time></trkpt><trkpt lat="45.453752620749505" lon="8.193978038083143"><ele>199.0</ele><time>2026-04-25T18:20:56.976Z</time></trkpt><trkpt lat="45.45376350744924" lon="8.194273834702818"><ele>199.0</ele><time>2026-04-25T18:20:57.976Z</time></trkpt><trkpt lat="45.45377353927713" lon="8.194567055634234"><ele>199.0</ele><time>2026-04-25T18:20:58.976Z</time></trkpt><trkpt lat="45.45377587615745" lon="8.194860612561106"><ele>199.0</ele><time>2026-04-25T18:20:59.976Z</time></trkpt><trkpt lat="45.453783859512356" lon="8.195158379084157"><ele>198.33333333333331</ele><time>2026-04-25T18:21:00.976Z</time></trkpt><trkpt lat="45.45379199133321" lon="8.195456036117474"><ele>197.66666666666669</ele><time>2026-04-25T18:21:01.976Z</time></trkpt><trkpt lat="45.45378498719878" lon="8.19576185696487"><ele>197.0</ele><time>2026-04-25T18:21:02.976Z</time></trkpt><trkpt lat="45.4538013845445" lon="8.196045880666366"><ele>197.0</ele><time>2026-04-25T18:21:03.976Z</time></trkpt><trkpt lat="45.45382598855028" lon="8.196356827815224"><ele>197.0</ele><time>2026-04-25T18:21:04.976Z</time></trkpt><trkpt lat="45.45383986251189" lon="8.19666094053684"><ele>197.0</ele><time>2026-04-25T18:21:05.976Z</time></trkpt><trkpt lat="45.45385359337885" lon="8.196964094474788"><ele>197.0</ele><time>2026-04-25T18:21:06.976Z</time></trkpt><trkpt lat="45.45386706608951" lon="8.19726154939478"><ele>197.0</ele><time>2026-04-25T18:21:07.976Z</time></trkpt><trkpt lat="45.453878770790524" lon="8.197519969551674"><ele>197.0</ele><time>2026-04-25T18:21:08.976Z</time></trkpt><trkpt lat="45.45389040643556" lon="8.197776865030253"><ele>197.0</ele><time>2026-04-25T18:21:09.976Z</time></trkpt><trkpt lat="45.45390302283183" lon="8.198055487055752"><ele>197.0</ele><time>2026-04-25T18:21:10.976Z</time></trkpt><trkpt lat="45.45390742218009" lon="8.1983404242458"><ele>197.0</ele><time>2026-04-25T18:21:11.976Z</time></trkpt><trkpt lat="45.45392850402842" lon="8.198629434125257"><ele>196.66666666666669</ele><time>2026-04-25T18:21:12.976Z</time></trkpt><trkpt lat="45.45394498777384" lon="8.198926820922464"><ele>196.33333333333331</ele><time>2026-04-25T18:21:13.976Z</time></trkpt><trkpt lat="45.45396670486502" lon="8.1992216844355"><ele>196.0</ele><time>2026-04-25T18:21:14.976Z</time></trkpt><trkpt lat="45.453989168976065" lon="8.19951911285289"><ele>196.0</ele><time>2026-04-25T18:21:15.976Z</time></trkpt><trkpt lat="45.454011460227555" lon="8.199813843703497"><ele>196.0</ele><time>2026-04-25T18:21:16.976Z</time></trkpt><trkpt lat="45.45403556774318" lon="8.200104863799064"><ele>196.0</ele><time>2026-04-25T18:21:17.976Z</time></trkpt><trkpt lat="45.45405233357415" lon="8.200390584935553"><ele>196.33333333333331</ele><time>2026-04-25T18:21:18.976Z</time></trkpt><trkpt lat="45.45406922161514" lon="8.200675980488867"><ele>196.66666666666669</ele><time>2026-04-25T18:21:19.976Z</time></trkpt><trkpt lat="45.4540872825138" lon="8.200966244089662"><ele>197.0</ele><time>2026-04-25T18:21:20.999Z</time></trkpt><trkpt lat="45.45410360065448" lon="8.201247800961308"><ele>196.66666666666669</ele><time>2026-04-25T18:21:21.999Z</time></trkpt><trkpt lat="45.45410397476842" lon="8.201531692053248"><ele>196.33333333333331</ele><time>2026-04-25T18:21:22.999Z</time></trkpt><trkpt lat="45.454115853325305" lon="8.201813902479035"><ele>196.0</ele><time>2026-04-25T18:21:23.999Z</time></trkpt><trkpt lat="45.45412540647401" lon="8.202099484956406"><ele>195.66666666666666</ele><time>2026-04-25T18:21:24.999Z</time></trkpt><trkpt lat="45.45414938933174" lon="8.20238880103249"><ele>195.33333333333331</ele><time>2026-04-25T18:21:25.999Z</time></trkpt><trkpt lat="45.454156014167964" lon="8.202680663582884"><ele>195.0</ele><time>2026-04-25T18:21:26.999Z</time></trkpt><trkpt lat="45.45415014015801" lon="8.202972396799813"><ele>194.66666666666669</ele><time>2026-04-25T18:21:27.999Z</time></trkpt><trkpt lat="45.454160047052476" lon="8.203265722576367"><ele>194.33333333333334</ele><time>2026-04-25T18:21:28.999Z</time></trkpt><trkpt lat="45.45416966979667" lon="8.203557211745263"><ele>194.0</ele><time>2026-04-25T18:21:29.999Z</time></trkpt><trkpt lat="45.45417882686477" lon="8.203845556319832"><ele>193.66666666666669</ele><time>2026-04-25T18:21:30.999Z</time></trkpt><trkpt lat="45.45420351357975" lon="8.20413119353666"><ele>193.33333333333331</ele><time>2026-04-25T18:21:31.999Z</time></trkpt><trkpt lat="45.45421103777035" lon="8.204418772071822"><ele>193.0</ele><time>2026-04-25T18:21:32.999Z</time></trkpt><trkpt lat="45.45421647531722" lon="8.20470269207551"><ele>193.0</ele><time>2026-04-25T18:21:33.999Z</time></trkpt><trkpt lat="45.45422486069985" lon="8.204982603354528"><ele>193.0</ele><time>2026-04-25T18:21:34.999Z</time></trkpt><trkpt lat="45.454232956286674" lon="8.205259792648462"><ele>193.0</ele><time>2026-04-25T18:21:35.999Z</time></trkpt><trkpt lat="45.45424143273794" lon="8.205535484198856"><ele>193.0</ele><time>2026-04-25T18:21:36.998Z</time></trkpt><trkpt lat="45.45425169014676" lon="8.205810142542894"><ele>193.0</ele><time>2026-04-25T18:21:37.998Z</time></trkpt><trkpt lat="45.45426216745825" lon="8.20608421668137"><ele>193.0</ele><time>2026-04-25T18:21:38.998Z</time></trkpt><trkpt lat="45.45427130008551" lon="8.206357536328078"><ele>192.66666666666666</ele><time>2026-04-25T18:21:39.998Z</time></trkpt><trkpt lat="45.45428180925335" lon="8.206627175407903"><ele>192.33333333333331</ele><time>2026-04-25T18:21:40.998Z</time></trkpt><trkpt lat="45.45429611519089" lon="8.206891356014257"><ele>192.0</ele><time>2026-04-25T18:21:41.998Z</time></trkpt><trkpt lat="45.45431882587403" lon="8.207148786247604"><ele>191.66666666666666</ele><time>2026-04-25T18:21:42.998Z</time></trkpt><trkpt lat="45.45431856803927" lon="8.207405729398896"><ele>191.33333333333331</ele><time>2026-04-25T18:21:43.998Z</time></trkpt><trkpt lat="45.45437647228059" lon="8.207655088435846"><ele>191.0</ele><time>2026-04-25T18:21:44.998Z</time></trkpt><trkpt lat="45.454407385239094" lon="8.207909644902589"><ele>191.0</ele><time>2026-04-25T18:21:45.998Z</time></trkpt><trkpt lat="45.454421628639516" lon="8.208166972511476"><ele>191.0</ele><time>2026-04-25T18:21:46.998Z</time></trkpt><trkpt lat="45.45446574295131" lon="8.208427030740035"><ele>191.0</ele><time>2026-04-25T18:21:47.998Z</time></trkpt><trkpt lat="45.4545077359838" lon="8.208694238745514"><ele>191.0</ele><time>2026-04-25T18:21:48.998Z</time></trkpt><trkpt lat="45.45455182557116" lon="8.208965900572059"><ele>191.0</ele><time>2026-04-25T18:21:49.998Z</time></trkpt><trkpt lat="45.45459744938153" lon="8.209241313252175"><ele>191.0</ele><time>2026-04-25T18:21:50.998Z</time></trkpt><trkpt lat="45.45464557885166" lon="8.20951997143991"><ele>191.0</ele><time>2026-04-25T18:21:51.998Z</time></trkpt><trkpt lat="45.45469552886042" lon="8.209804224684223"><ele>191.0</ele><time>2026-04-25T18:21:52.998Z</time></trkpt><trkpt lat="45.45474399241205" lon="8.210094460134796"><ele>191.0</ele><time>2026-04-25T18:21:53.998Z</time></trkpt><trkpt lat="45.45478987410753" lon="8.210390188743558"><ele>191.0</ele><time>2026-04-25T18:21:54.998Z</time></trkpt><trkpt lat="45.45483740125601" lon="8.210686996116163"><ele>191.0</ele><time>2026-04-25T18:21:55.998Z</time></trkpt><trkpt lat="45.45488831991839" lon="8.21098431019171"><ele>191.0</ele><time>2026-04-25T18:21:56.998Z</time></trkpt><trkpt lat="45.45494087658377" lon="8.211283946739375"><ele>190.33333333333331</ele><time>2026-04-25T18:21:57.998Z</time></trkpt><trkpt lat="45.45499278897419" lon="8.211582166267982"><ele>189.66666666666666</ele><time>2026-04-25T18:21:58.998Z</time></trkpt><trkpt lat="45.455041562353514" lon="8.21187938467654"><ele>189.0</ele><time>2026-04-25T18:21:59.998Z</time></trkpt><trkpt lat="45.45508653519735" lon="8.2121743652982"><ele>189.0</ele><time>2026-04-25T18:22:00.998Z</time></trkpt><trkpt lat="45.45513308663456" lon="8.212464230246281"><ele>189.0</ele><time>2026-04-25T18:22:01.998Z</time></trkpt><trkpt lat="45.455181855724334" lon="8.212755211337727"><ele>189.0</ele><time>2026-04-25T18:22:02.998Z</time></trkpt><trkpt lat="45.455232596267976" lon="8.213047200260114"><ele>189.0</ele><time>2026-04-25T18:22:03.998Z</time></trkpt><trkpt lat="45.45528294732763" lon="8.21333834774305"><ele>189.0</ele><time>2026-04-25T18:22:04.998Z</time></trkpt><trkpt lat="45.45533094435487" lon="8.213629634668816"><ele>189.0</ele><time>2026-04-25T18:22:05.998Z</time></trkpt><trkpt lat="45.455380392318105" lon="8.21391993160024"><ele>189.0</ele><time>2026-04-25T18:22:07Z</time></trkpt><trkpt lat="45.45543094265086" lon="8.21421136453341"><ele>189.0</ele><time>2026-04-25T18:22:08Z</time></trkpt><trkpt lat="45.45547773660298" lon="8.214503883745913"><ele>189.0</ele><time>2026-04-25T18:22:09Z</time></trkpt><trkpt lat="45.455526774134164" lon="8.214796112558226"><ele>189.0</ele><time>2026-04-25T18:22:10.001Z</time></trkpt><trkpt lat="45.45557346620049" lon="8.215086301902058"><ele>189.0</ele><time>2026-04-25T18:22:11Z</time></trkpt><trkpt lat="45.45562055482191" lon="8.215371768696517"><ele>189.0</ele><time>2026-04-25T18:22:12Z</time></trkpt><trkpt lat="45.45567013754738" lon="8.215656642642642"><ele>189.0</ele><time>2026-04-25T18:22:13.001Z</time></trkpt><trkpt lat="45.45571555057016" lon="8.215940168518351"><ele>189.0</ele><time>2026-04-25T18:22:14Z</time></trkpt><trkpt lat="45.45576038694104" lon="8.216221370069146"><ele>189.0</ele><time>2026-04-25T18:22:15Z</time></trkpt><trkpt lat="45.45580224380703" lon="8.216496125674185"><ele>188.66666666666666</ele><time>2026-04-25T18:22:16.001Z</time></trkpt><trkpt lat="45.45584589045582" lon="8.21676341750275"><ele>188.33333333333331</ele><time>2026-04-25T18:22:17Z</time></trkpt><trkpt lat="45.45589205266125" lon="8.217030139467964"><ele>188.0</ele><time>2026-04-25T18:22:18Z</time></trkpt><trkpt lat="45.455936796076564" lon="8.217294755901863"><ele>187.66666666666666</ele><time>2026-04-25T18:22:19.001Z</time></trkpt><trkpt lat="45.45597812300444" lon="8.21755577778739"><ele>187.33333333333334</ele><time>2026-04-25T18:22:20.001Z</time></trkpt><trkpt lat="45.45601504120492" lon="8.217814831784947"><ele>187.0</ele><time>2026-04-25T18:22:21Z</time></trkpt><trkpt lat="45.45605791963864" lon="8.21807329317247"><ele>187.0</ele><time>2026-04-25T18:22:22Z</time></trkpt><trkpt lat="45.45610207123116" lon="8.218334945874366"><ele>187.0</ele><time>2026-04-25T18:22:23Z</time></trkpt><trkpt lat="45.45614510905698" lon="8.218598965511777"><ele>187.0</ele><time>2026-04-25T18:22:24Z</time></trkpt><trkpt lat="45.45618622860694" lon="8.218856615258174"><ele>187.33333333333334</ele><time>2026-04-25T18:22:25Z</time></trkpt><trkpt lat="45.45622682631855" lon="8.219107568267535"><ele>187.66666666666666</ele><time>2026-04-25T18:22:26Z</time></trkpt><trkpt lat="45.45626693774979" lon="8.219344986792978"><ele>188.0</ele><time>2026-04-25T18:22:27Z</time></trkpt><trkpt lat="45.45630644161837" lon="8.219571306497185"><ele>188.0</ele><time>2026-04-25T18:22:28Z</time></trkpt><trkpt lat="45.45634394784294" lon="8.2197863640212"><ele>188.0</ele><time>2026-04-25T18:22:29Z</time></trkpt><trkpt lat="45.456380818827796" lon="8.21998424975697"><ele>188.0</ele><time>2026-04-25T18:22:30Z</time></trkpt><trkpt lat="45.45641229757485" lon="8.220168727713851"><ele>188.0</ele><time>2026-04-25T18:22:31Z</time></trkpt><trkpt lat="45.456439608468244" lon="8.220343522008227"><ele>187.75</ele><time>2026-04-25T18:22:32Z</time></trkpt><trkpt lat="45.456456895894455" lon="8.220512348998902"><ele>187.5</ele><time>2026-04-25T18:22:33Z</time></trkpt><trkpt lat="45.456464763167126" lon="8.220672865287415"><ele>187.25</ele><time>2026-04-25T18:22:34Z</time></trkpt><trkpt lat="45.45646410248854" lon="8.220828302282529"><ele>187.0</ele><time>2026-04-25T18:22:35Z</time></trkpt><trkpt lat="45.45646290694336" lon="8.220989338397034"><ele>187.0</ele><time>2026-04-25T18:22:36Z</time></trkpt><trkpt lat="45.45646312156101" lon="8.221161799694938"><ele>187.0</ele><time>2026-04-25T18:22:37Z</time></trkpt><trkpt lat="45.456464842744" lon="8.221352855818386"><ele>187.0</ele><time>2026-04-25T18:22:38Z</time></trkpt><trkpt lat="45.45646460448396" lon="8.22155716302328"><ele>187.0</ele><time>2026-04-25T18:22:39Z</time></trkpt><trkpt lat="45.456461501934484" lon="8.221770591761237"><ele>187.0</ele><time>2026-04-25T18:22:40Z</time></trkpt><trkpt lat="45.45645860984309" lon="8.221987195433123"><ele>187.0</ele><time>2026-04-25T18:22:41Z</time></trkpt><trkpt lat="45.45645594498322" lon="8.22220464696278"><ele>187.0</ele><time>2026-04-25T18:22:42Z</time></trkpt><trkpt lat="45.45645252212903" lon="8.222422074447483"><ele>187.0</ele><time>2026-04-25T18:22:43Z</time></trkpt><trkpt lat="45.45645160907047" lon="8.222636625014188"><ele>187.0</ele><time>2026-04-25T18:22:44Z</time></trkpt><trkpt lat="45.456448701095574" lon="8.22284081880945"><ele>187.0</ele><time>2026-04-25T18:22:45Z</time></trkpt><trkpt lat="45.45644613857212" lon="8.223030869323772"><ele>187.0</ele><time>2026-04-25T18:22:46Z</time></trkpt><trkpt lat="45.45644399345006" lon="8.22320338512568"><ele>186.83333333333334</ele><time>2026-04-25T18:22:47Z</time></trkpt><trkpt lat="45.45644465228168" lon="8.223362152924212"><ele>186.66666666666669</ele><time>2026-04-25T18:22:48Z</time></trkpt><trkpt lat="45.45644406368162" lon="8.223498070307134"><ele>186.5</ele><time>2026-04-25T18:22:49Z</time></trkpt><trkpt lat="45.45644466376711" lon="8.223615079321931"><ele>186.33333333333334</ele><time>2026-04-25T18:22:50Z</time></trkpt><trkpt lat="45.456448593866156" lon="8.22370950957355"><ele>186.16666666666666</ele><time>2026-04-25T18:22:51Z</time></trkpt><trkpt lat="45.45646410311944" lon="8.223838519931386"><ele>186.0</ele><time>2026-04-25T18:22:53Z</time></trkpt><trkpt lat="45.456475697134096" lon="8.22392808644541"><ele>186.0</ele><time>2026-04-25T18:22:59Z</time></trkpt><trkpt lat="45.45661125305264" lon="8.223916834666209"><ele>186.0</ele><time>2026-04-25T18:23:01Z</time></trkpt><trkpt lat="45.45670217148796" lon="8.223849290889019"><ele>186.0</ele><time>2026-04-25T18:23:02Z</time></trkpt><trkpt lat="45.456816777453405" lon="8.22375760982554"><ele>186.0</ele><time>2026-04-25T18:23:03Z</time></trkpt><trkpt lat="45.45693613387097" lon="8.223659882976493"><ele>186.0</ele><time>2026-04-25T18:23:04Z</time></trkpt><trkpt lat="45.45704342191782" lon="8.223567535625136"><ele>186.0</ele><time>2026-04-25T18:23:05Z</time></trkpt><trkpt lat="45.45716675881135" lon="8.22346480037018"><ele>186.0</ele><time>2026-04-25T18:23:06Z</time></trkpt><trkpt lat="45.45730785583715" lon="8.223352078662803"><ele>186.0</ele><time>2026-04-25T18:23:07Z</time></trkpt><trkpt lat="45.45746042966756" lon="8.223228808487503"><ele>186.0</ele><time>2026-04-25T18:23:08Z</time></trkpt><trkpt lat="45.45761576772144" lon="8.223102003271341"><ele>186.0</ele><time>2026-04-25T18:23:09Z</time></trkpt><trkpt lat="45.457777728883606" lon="8.22296817932544"><ele>186.0</ele><time>2026-04-25T18:23:10Z</time></trkpt><trkpt lat="45.45795751882147" lon="8.222821034702772"><ele>186.0</ele><time>2026-04-25T18:23:10.999Z</time></trkpt><trkpt lat="45.45815034387631" lon="8.222665504142746"><ele>186.0</ele><time>2026-04-25T18:23:11.999Z</time></trkpt><trkpt lat="45.45834863410808" lon="8.222505294560568"><ele>186.0</ele><time>2026-04-25T18:23:12.999Z</time></trkpt><trkpt lat="45.458539224076276" lon="8.222349120328083"><ele>185.66666666666666</ele><time>2026-04-25T18:23:13.999Z</time></trkpt><trkpt lat="45.45873238184047" lon="8.222193049390608"><ele>185.33333333333331</ele><time>2026-04-25T18:23:14.999Z</time></trkpt><trkpt lat="45.45891813056492" lon="8.222040373433538"><ele>185.0</ele><time>2026-04-25T18:23:15.999Z</time></trkpt><trkpt lat="45.459102418074856" lon="8.221887992861648"><ele>185.0</ele><time>2026-04-25T18:23:16.999Z</time></trkpt><trkpt lat="45.45929083138458" lon="8.221733153533542"><ele>185.0</ele><time>2026-04-25T18:23:17.999Z</time></trkpt><trkpt lat="45.45948149702795" lon="8.221578656263777"><ele>185.0</ele><time>2026-04-25T18:23:18.999Z</time></trkpt><trkpt lat="45.45966360783908" lon="8.221431110057052"><ele>185.66666666666666</ele><time>2026-04-25T18:23:19.999Z</time></trkpt><trkpt lat="45.45984453754825" lon="8.221283554621118"><ele>186.33333333333334</ele><time>2026-04-25T18:23:20.999Z</time></trkpt><trkpt lat="45.460024363236975" lon="8.221135538632723"><ele>187.0</ele><time>2026-04-25T18:23:21.999Z</time></trkpt><trkpt lat="45.460203010350554" lon="8.220988430304203"><ele>187.0</ele><time>2026-04-25T18:23:22.999Z</time></trkpt><trkpt lat="45.46038363661814" lon="8.220841623381144"><ele>187.0</ele><time>2026-04-25T18:23:23.999Z</time></trkpt><trkpt lat="45.46056539255466" lon="8.220699916090252"><ele>187.0</ele><time>2026-04-25T18:23:24.999Z</time></trkpt><trkpt lat="45.460747947133" lon="8.220557587554303"><ele>187.66666666666669</ele><time>2026-04-25T18:23:25.999Z</time></trkpt><trkpt lat="45.460932043204174" lon="8.220415171047225"><ele>188.33333333333334</ele><time>2026-04-25T18:23:26.999Z</time></trkpt><trkpt lat="45.461115357408794" lon="8.220269244542036"><ele>189.0</ele><time>2026-04-25T18:23:27.999Z</time></trkpt><trkpt lat="45.461302700274544" lon="8.220121151826769"><ele>189.0</ele><time>2026-04-25T18:23:28.999Z</time></trkpt><trkpt lat="45.461484292132816" lon="8.21996853590414"><ele>189.0</ele><time>2026-04-25T18:23:29.999Z</time></trkpt><trkpt lat="45.46167554121647" lon="8.219821723691949"><ele>189.0</ele><time>2026-04-25T18:23:30.999Z</time></trkpt><trkpt lat="45.46186328452326" lon="8.219677777879586"><ele>189.0</ele><time>2026-04-25T18:23:31.999Z</time></trkpt><trkpt lat="45.46204230531534" lon="8.219533964383404"><ele>189.0</ele><time>2026-04-25T18:23:32.999Z</time></trkpt><trkpt lat="45.4622135734985" lon="8.219391159611481"><ele>189.0</ele><time>2026-04-25T18:23:33.999Z</time></trkpt><trkpt lat="45.462381124797766" lon="8.219245124376405"><ele>189.0</ele><time>2026-04-25T18:23:34.999Z</time></trkpt><trkpt lat="45.46254002954462" lon="8.21910312705366"><ele>189.0</ele><time>2026-04-25T18:23:35.999Z</time></trkpt><trkpt lat="45.46270715995412" lon="8.218962484228998"><ele>189.0</ele><time>2026-04-25T18:23:36.999Z</time></trkpt><trkpt lat="45.4628756182188" lon="8.218820404620642"><ele>189.0</ele><time>2026-04-25T18:23:37.999Z</time></trkpt><trkpt lat="45.4630443549839" lon="8.218678009201295"><ele>189.0</ele><time>2026-04-25T18:23:38.999Z</time></trkpt><trkpt lat="45.4632116221933" lon="8.21853979147567"><ele>189.0</ele><time>2026-04-25T18:23:39.999Z</time></trkpt><trkpt lat="45.46337872530861" lon="8.218403147945695"><ele>189.0</ele><time>2026-04-25T18:23:40.999Z</time></trkpt><trkpt lat="45.46354583569858" lon="8.21827009171095"><ele>189.0</ele><time>2026-04-25T18:23:41.999Z</time></trkpt><trkpt lat="45.46371288465971" lon="8.21813721458567"><ele>189.0</ele><time>2026-04-25T18:23:42.999Z</time></trkpt><trkpt lat="45.46388077523678" lon="8.21800334898991"><ele>189.0</ele><time>2026-04-25T18:23:43.999Z</time></trkpt><trkpt lat="45.464051172819026" lon="8.217864308970018"><ele>189.0</ele><time>2026-04-25T18:23:44.999Z</time></trkpt><trkpt lat="45.46422146323592" lon="8.217726066970584"><ele>189.0</ele><time>2026-04-25T18:23:45.999Z</time></trkpt><trkpt lat="45.46439218275705" lon="8.217585802759155"><ele>189.0</ele><time>2026-04-25T18:23:46.999Z</time></trkpt><trkpt lat="45.46457108642493" lon="8.217464194860721"><ele>189.0</ele><time>2026-04-25T18:23:47.999Z</time></trkpt><trkpt lat="45.464745488181144" lon="8.217323020002677"><ele>189.0</ele><time>2026-04-25T18:23:48.999Z</time></trkpt><trkpt lat="45.46492415584007" lon="8.217178724179991"><ele>189.0</ele><time>2026-04-25T18:23:49.999Z</time></trkpt><trkpt lat="45.46510591463352" lon="8.217032129991168"><ele>189.0</ele><time>2026-04-25T18:23:50.999Z</time></trkpt><trkpt lat="45.46527749063511" lon="8.216866407866053"><ele>189.0</ele><time>2026-04-25T18:23:51.999Z</time></trkpt><trkpt lat="45.46545567728244" lon="8.216724609999918"><ele>189.0</ele><time>2026-04-25T18:23:52.999Z</time></trkpt><trkpt lat="45.465631656882096" lon="8.216583568717182"><ele>189.0</ele><time>2026-04-25T18:23:53.999Z</time></trkpt><trkpt lat="45.46581014480036" lon="8.21644404465484"><ele>189.0</ele><time>2026-04-25T18:23:54.999Z</time></trkpt><trkpt lat="45.465985525629115" lon="8.216305953514336"><ele>189.33333333333334</ele><time>2026-04-25T18:23:55.999Z</time></trkpt><trkpt lat="45.466154208195064" lon="8.216172289265232"><ele>189.66666666666669</ele><time>2026-04-25T18:23:56.999Z</time></trkpt><trkpt lat="45.46632001174262" lon="8.216037288936397"><ele>190.0</ele><time>2026-04-25T18:23:57.999Z</time></trkpt><trkpt lat="45.466477099780526" lon="8.215907441065628"><ele>190.0</ele><time>2026-04-25T18:23:58.999Z</time></trkpt><trkpt lat="45.466624861397854" lon="8.215784991972104"><ele>190.0</ele><time>2026-04-25T18:23:59.999Z</time></trkpt><trkpt lat="45.46676294909029" lon="8.21567352410197"><ele>190.0</ele><time>2026-04-25T18:24:00.998Z</time></trkpt><trkpt lat="45.466896201383676" lon="8.21556706495077"><ele>190.25</ele><time>2026-04-25T18:24:01.998Z</time></trkpt><trkpt lat="45.46702460233155" lon="8.215464247408457"><ele>190.5</ele><time>2026-04-25T18:24:02.998Z</time></trkpt><trkpt lat="45.467151156361766" lon="8.215363259098465"><ele>190.75</ele><time>2026-04-25T18:24:03.998Z</time></trkpt><trkpt lat="45.467276581928544" lon="8.21526448783657"><ele>191.0</ele><time>2026-04-25T18:24:04.998Z</time></trkpt><trkpt lat="45.46740053146369" lon="8.21517148710757"><ele>191.0</ele><time>2026-04-25T18:24:05.998Z</time></trkpt><trkpt lat="45.46752125300256" lon="8.215089148725461"><ele>191.0</ele><time>2026-04-25T18:24:06.998Z</time></trkpt><trkpt lat="45.46763778830126" lon="8.215019852470775"><ele>191.0</ele><time>2026-04-25T18:24:07.998Z</time></trkpt><trkpt lat="45.46775118085019" lon="8.214966786246892"><ele>191.0</ele><time>2026-04-25T18:24:08.998Z</time></trkpt><trkpt lat="45.46786644261312" lon="8.214936011993233"><ele>190.8</ele><time>2026-04-25T18:24:09.998Z</time></trkpt><trkpt lat="45.46797847354752" lon="8.214936748362305"><ele>190.60000000000002</ele><time>2026-04-25T18:24:10.998Z</time></trkpt><trkpt lat="45.46808462549821" lon="8.214954236379546"><ele>190.4</ele><time>2026-04-25T18:24:11.998Z</time></trkpt><trkpt lat="45.46818019601686" lon="8.214961629352429"><ele>190.2</ele><time>2026-04-25T18:24:13Z</time></trkpt><trkpt lat="45.46827595661973" lon="8.214932015298519"><ele>190.0</ele><time>2026-04-25T18:24:14Z</time></trkpt><trkpt lat="45.46839460562628" lon="8.214917814540662"><ele>190.0</ele><time>2026-04-25T18:24:15Z</time></trkpt><trkpt lat="45.46851981204269" lon="8.214954302789582"><ele>190.0</ele><time>2026-04-25T18:24:16.001Z</time></trkpt><trkpt lat="45.46864905298616" lon="8.215027480137879"><ele>190.0</ele><time>2026-04-25T18:24:17.001Z</time></trkpt><trkpt lat="45.46878052158664" lon="8.215123154637817"><ele>190.0</ele><time>2026-04-25T18:24:18.001Z</time></trkpt><trkpt lat="45.468922174500555" lon="8.215226830641095"><ele>190.66666666666669</ele><time>2026-04-25T18:24:19.001Z</time></trkpt><trkpt lat="45.46907266322572" lon="8.215337868748094"><ele>191.33333333333334</ele><time>2026-04-25T18:24:20.001Z</time></trkpt><trkpt lat="45.469232185017326" lon="8.215453137903122"><ele>192.0</ele><time>2026-04-25T18:24:21.001Z</time></trkpt><trkpt lat="45.469399844456106" lon="8.215574929190689"><ele>192.0</ele><time>2026-04-25T18:24:22.001Z</time></trkpt><trkpt lat="45.4695621185277" lon="8.215694665977225"><ele>192.0</ele><time>2026-04-25T18:24:23.001Z</time></trkpt><trkpt lat="45.46972107969836" lon="8.21580975703508"><ele>192.0</ele><time>2026-04-25T18:24:24.001Z</time></trkpt><trkpt lat="45.469886739735564" lon="8.215929232959525"><ele>192.0</ele><time>2026-04-25T18:24:25.001Z</time></trkpt><trkpt lat="45.47005875219504" lon="8.216056589635159"><ele>192.0</ele><time>2026-04-25T18:24:26.001Z</time></trkpt><trkpt lat="45.470237722621924" lon="8.216191481778568"><ele>192.0</ele><time>2026-04-25T18:24:27.001Z</time></trkpt><trkpt lat="45.4704222693203" lon="8.21633035833016"><ele>192.33333333333331</ele><time>2026-04-25T18:24:28.001Z</time></trkpt><trkpt lat="45.47059674885992" lon="8.216464528395585"><ele>192.66666666666666</ele><time>2026-04-25T18:24:29.001Z</time></trkpt><trkpt lat="45.47076530726564" lon="8.216594696738142"><ele>193.0</ele><time>2026-04-25T18:24:30.001Z</time></trkpt><trkpt lat="45.47093654997684" lon="8.216726243512472"><ele>192.33333333333331</ele><time>2026-04-25T18:24:31.001Z</time></trkpt><trkpt lat="45.471112518108534" lon="8.21686026347735"><ele>191.66666666666666</ele><time>2026-04-25T18:24:32.001Z</time></trkpt><trkpt lat="45.47129176787336" lon="8.216995628086096"><ele>191.0</ele><time>2026-04-25T18:24:33.001Z</time></trkpt><trkpt lat="45.47147437732426" lon="8.217134810958896"><ele>191.0</ele><time>2026-04-25T18:24:34.001Z</time></trkpt><trkpt lat="45.47166043842489" lon="8.21727338252694"><ele>191.0</ele><time>2026-04-25T18:24:35.001Z</time></trkpt><trkpt lat="45.471847038196124" lon="8.217416207674571"><ele>191.0</ele><time>2026-04-25T18:24:36.001Z</time></trkpt><trkpt lat="45.472037733032785" lon="8.217556413676705"><ele>190.66666666666666</ele><time>2026-04-25T18:24:37.001Z</time></trkpt><trkpt lat="45.472231713046455" lon="8.217694689849248"><ele>190.33333333333334</ele><time>2026-04-25T18:24:38.001Z</time></trkpt><trkpt lat="45.47243083578873" lon="8.217827634320358"><ele>190.0</ele><time>2026-04-25T18:24:39.001Z</time></trkpt><trkpt lat="45.472638265083845" lon="8.217951553761468"><ele>190.0</ele><time>2026-04-25T18:24:40.001Z</time></trkpt><trkpt lat="45.47285223873792" lon="8.218054601965376"><ele>190.0</ele><time>2026-04-25T18:24:41.001Z</time></trkpt><trkpt lat="45.473057835537674" lon="8.218141282400481"><ele>190.0</ele><time>2026-04-25T18:24:42.001Z</time></trkpt><trkpt lat="45.47326520331982" lon="8.218221235565085"><ele>190.0</ele><time>2026-04-25T18:24:43.001Z</time></trkpt><trkpt lat="45.473472681844854" lon="8.218294880441556"><ele>190.0</ele><time>2026-04-25T18:24:44.001Z</time></trkpt><trkpt lat="45.47368161630819" lon="8.218362099664358"><ele>190.0</ele><time>2026-04-25T18:24:45Z</time></trkpt><trkpt lat="45.473888098794475" lon="8.218434420947041"><ele>190.0</ele><time>2026-04-25T18:24:46Z</time></trkpt><trkpt lat="45.4740926411531" lon="8.21851640575453"><ele>190.0</ele><time>2026-04-25T18:24:47Z</time></trkpt><trkpt lat="45.474305593974705" lon="8.2186012126172"><ele>190.0</ele><time>2026-04-25T18:24:48Z</time></trkpt><trkpt lat="45.47451654156059" lon="8.218685950031038"><ele>189.66666666666669</ele><time>2026-04-25T18:24:49Z</time></trkpt><trkpt lat="45.474729687672905" lon="8.218763200646874"><ele>189.33333333333334</ele><time>2026-04-25T18:24:50Z</time></trkpt><trkpt lat="45.47494151119993" lon="8.2188295828625"><ele>189.0</ele><time>2026-04-25T18:24:51Z</time></trkpt><trkpt lat="45.4751550462636" lon="8.218883328539901"><ele>189.0</ele><time>2026-04-25T18:24:52Z</time></trkpt><trkpt lat="45.475370114944745" lon="8.218918603872474"><ele>189.0</ele><time>2026-04-25T18:24:53Z</time></trkpt><trkpt lat="45.47558601510862" lon="8.218935858182046"><ele>189.0</ele><time>2026-04-25T18:24:54Z</time></trkpt><trkpt lat="45.47580577603715" lon="8.21893197737504"><ele>189.0</ele><time>2026-04-25T18:24:55Z</time></trkpt><trkpt lat="45.476031106280026" lon="8.218909169669864"><ele>189.0</ele><time>2026-04-25T18:24:56Z</time></trkpt><trkpt lat="45.47625952267721" lon="8.218871126014697"><ele>190.5</ele><time>2026-04-25T18:24:57Z</time></trkpt><trkpt lat="45.47649027460391" lon="8.218826603599494"><ele>192.0</ele><time>2026-04-25T18:24:58Z</time></trkpt><trkpt lat="45.4767220711162" lon="8.2187781153153"><ele>192.0</ele><time>2026-04-25T18:24:59Z</time></trkpt><trkpt lat="45.47695565435154" lon="8.218727541310821"><ele>192.0</ele><time>2026-04-25T18:25:00Z</time></trkpt><trkpt lat="45.47719136760736" lon="8.218681052502694"><ele>193.5</ele><time>2026-04-25T18:25:01Z</time></trkpt><trkpt lat="45.477431138069086" lon="8.218633366463079"><ele>195.0</ele><time>2026-04-25T18:25:02Z</time></trkpt><trkpt lat="45.477670771511725" lon="8.218583194121843"><ele>195.0</ele><time>2026-04-25T18:25:03Z</time></trkpt><trkpt lat="45.47791203451391" lon="8.218532794996454"><ele>195.0</ele><time>2026-04-25T18:25:04Z</time></trkpt><trkpt lat="45.47815487394934" lon="8.21848442979428"><ele>196.5</ele><time>2026-04-25T18:25:05Z</time></trkpt><trkpt lat="45.47839999480488" lon="8.218433341778175"><ele>198.0</ele><time>2026-04-25T18:25:06Z</time></trkpt><trkpt lat="45.47864568535664" lon="8.218384622982919"><ele>199.0</ele><time>2026-04-25T18:25:07Z</time></trkpt><trkpt lat="45.47889017328084" lon="8.218338199532614"><ele>200.0</ele><time>2026-04-25T18:25:08Z</time></trkpt><trkpt lat="45.479135600423966" lon="8.218292298883942"><ele>200.0</ele><time>2026-04-25T18:25:09Z</time></trkpt><trkpt lat="45.47938047349651" lon="8.218246641386083"><ele>200.0</ele><time>2026-04-25T18:25:10Z</time></trkpt><trkpt lat="45.47962222023597" lon="8.218200157570006"><ele>200.0</ele><time>2026-04-25T18:25:11Z</time></trkpt><trkpt lat="45.479861973012454" lon="8.218151827517241"><ele>200.0</ele><time>2026-04-25T18:25:12Z</time></trkpt><trkpt lat="45.480096242981716" lon="8.218102859332816"><ele>200.0</ele><time>2026-04-25T18:25:13Z</time></trkpt><trkpt lat="45.48032927006445" lon="8.218054431825223"><ele>200.0</ele><time>2026-04-25T18:25:14Z</time></trkpt><trkpt lat="45.48056030250443" lon="8.218010299700543"><ele>200.0</ele><time>2026-04-25T18:25:15Z</time></trkpt><trkpt lat="45.480791311929444" lon="8.21796553227566"><ele>200.0</ele><time>2026-04-25T18:25:16Z</time></trkpt><trkpt lat="45.481020443202425" lon="8.21791905934554"><ele>200.0</ele><time>2026-04-25T18:25:17Z</time></trkpt><trkpt lat="45.481250662462216" lon="8.217873674715323"><ele>200.0</ele><time>2026-04-25T18:25:18Z</time></trkpt><trkpt lat="45.4814805657207" lon="8.217827196519153"><ele>199.5</ele><time>2026-04-25T18:25:19Z</time></trkpt><trkpt lat="45.481710515038166" lon="8.21778134083005"><ele>199.0</ele><time>2026-04-25T18:25:20Z</time></trkpt><trkpt lat="45.481938638086405" lon="8.217732482128673"><ele>199.5</ele><time>2026-04-25T18:25:21Z</time></trkpt><trkpt lat="45.48216497087584" lon="8.217685660361916"><ele>200.0</ele><time>2026-04-25T18:25:22Z</time></trkpt><trkpt lat="45.482392274062036" lon="8.2176400055705"><ele>200.0</ele><time>2026-04-25T18:25:23Z</time></trkpt><trkpt lat="45.48262135187816" lon="8.217592100926119"><ele>200.0</ele><time>2026-04-25T18:25:24Z</time></trkpt><trkpt lat="45.482851941474145" lon="8.21754350777008"><ele>199.5</ele><time>2026-04-25T18:25:25Z</time></trkpt><trkpt lat="45.483085304000596" lon="8.217519060741314"><ele>199.0</ele><time>2026-04-25T18:25:26Z</time></trkpt><trkpt lat="45.48331777558486" lon="8.217471412803881"><ele>199.0</ele><time>2026-04-25T18:25:27Z</time></trkpt><trkpt lat="45.483552906045084" lon="8.217424626640083"><ele>199.0</ele><time>2026-04-25T18:25:28Z</time></trkpt><trkpt lat="45.48379029794367" lon="8.217377390487519"><ele>199.0</ele><time>2026-04-25T18:25:29Z</time></trkpt><trkpt lat="45.48403107824014" lon="8.217329395573826"><ele>199.0</ele><time>2026-04-25T18:25:30Z</time></trkpt><trkpt lat="45.48427381571052" lon="8.217280965898336"><ele>199.0</ele><time>2026-04-25T18:25:31Z</time></trkpt><trkpt lat="45.48451753792559" lon="8.217232339782505"><ele>199.0</ele><time>2026-04-25T18:25:32Z</time></trkpt><trkpt lat="45.48476374948769" lon="8.217183216994524"><ele>199.0</ele><time>2026-04-25T18:25:33Z</time></trkpt><trkpt lat="45.48500875754521" lon="8.217111059565438"><ele>199.0</ele><time>2026-04-25T18:25:34Z</time></trkpt><trkpt lat="45.48526076719328" lon="8.217070182518496"><ele>198.5</ele><time>2026-04-25T18:25:34.999Z</time></trkpt><trkpt lat="45.48551133728263" lon="8.217015534991331"><ele>198.0</ele><time>2026-04-25T18:25:35.999Z</time></trkpt><trkpt lat="45.485761232267215" lon="8.216966005723005"><ele>198.0</ele><time>2026-04-25T18:25:36.999Z</time></trkpt><trkpt lat="45.48600790062049" lon="8.216914123569325"><ele>198.0</ele><time>2026-04-25T18:25:37.999Z</time></trkpt><trkpt lat="45.48625457149481" lon="8.21686347660999"><ele>197.5</ele><time>2026-04-25T18:25:38.999Z</time></trkpt><trkpt lat="45.486502952710666" lon="8.216814354552788"><ele>197.0</ele><time>2026-04-25T18:25:39.999Z</time></trkpt><trkpt lat="45.48675039743709" lon="8.216765830835962"><ele>197.0</ele><time>2026-04-25T18:25:40.999Z</time></trkpt><trkpt lat="45.486997342982995" lon="8.216715786742661"><ele>197.0</ele><time>2026-04-25T18:25:41.999Z</time></trkpt><trkpt lat="45.48724559765051" lon="8.216664936578983"><ele>196.5</ele><time>2026-04-25T18:25:42.999Z</time></trkpt><trkpt lat="45.48749172904442" lon="8.21661549067502"><ele>196.0</ele><time>2026-04-25T18:25:43.999Z</time></trkpt><trkpt lat="45.48773686338835" lon="8.216564888654078"><ele>195.0</ele><time>2026-04-25T18:25:44.999Z</time></trkpt><trkpt lat="45.48798084588892" lon="8.216516121943474"><ele>194.0</ele><time>2026-04-25T18:25:45.999Z</time></trkpt><trkpt lat="45.48822218975914" lon="8.21646572333269"><ele>194.0</ele><time>2026-04-25T18:25:46.999Z</time></trkpt><trkpt lat="45.48846605570693" lon="8.216418963931195"><ele>194.0</ele><time>2026-04-25T18:25:47.999Z</time></trkpt><trkpt lat="45.488706405719405" lon="8.21636870446973"><ele>195.5</ele><time>2026-04-25T18:25:48.999Z</time></trkpt><trkpt lat="45.48894991399429" lon="8.216315702163499"><ele>197.0</ele><time>2026-04-25T18:25:49.999Z</time></trkpt><trkpt lat="45.48919377093307" lon="8.216287917656807"><ele>197.0</ele><time>2026-04-25T18:25:50.999Z</time></trkpt><trkpt lat="45.489432581612036" lon="8.216238303943994"><ele>197.0</ele><time>2026-04-25T18:25:51.999Z</time></trkpt><trkpt lat="45.48967038816979" lon="8.21618889879905"><ele>196.5</ele><time>2026-04-25T18:25:52.999Z</time></trkpt><trkpt lat="45.48990617295539" lon="8.216139913745373"><ele>196.0</ele><time>2026-04-25T18:25:53.999Z</time></trkpt><trkpt lat="45.4901297468059" lon="8.216074590139222"><ele>196.0</ele><time>2026-04-25T18:25:54.999Z</time></trkpt><trkpt lat="45.49035337255714" lon="8.21602964369515"><ele>196.0</ele><time>2026-04-25T18:25:55.999Z</time></trkpt><trkpt lat="45.490571658492236" lon="8.215982112428415"><ele>196.0</ele><time>2026-04-25T18:25:56.999Z</time></trkpt><trkpt lat="45.490782241906366" lon="8.215963144203592"><ele>196.66666666666666</ele><time>2026-04-25T18:25:57.999Z</time></trkpt><trkpt lat="45.49098299953469" lon="8.215922804038224"><ele>197.33333333333331</ele><time>2026-04-25T18:25:58.999Z</time></trkpt><trkpt lat="45.491169997952355" lon="8.215885230380943"><ele>198.0</ele><time>2026-04-25T18:25:59.999Z</time></trkpt><trkpt lat="45.49134433236631" lon="8.215850196233374"><ele>198.5</ele><time>2026-04-25T18:26:00.999Z</time></trkpt><trkpt lat="45.491498514509196" lon="8.21579136542926"><ele>199.0</ele><time>2026-04-25T18:26:01.999Z</time></trkpt><trkpt lat="45.49163103524886" lon="8.215766067524674"><ele>199.5</ele><time>2026-04-25T18:26:02.999Z</time></trkpt><trkpt lat="45.49174511491758" lon="8.21574271356887"><ele>200.0</ele><time>2026-04-25T18:26:03.999Z</time></trkpt><trkpt lat="45.49184374996577" lon="8.215722395119307"><ele>200.00000000000003</ele><time>2026-04-25T18:26:04.999Z</time></trkpt><trkpt lat="45.49192458029107" lon="8.215705593617248"><ele>200.0</ele><time>2026-04-25T18:26:05.999Z</time></trkpt><trkpt lat="45.49199809835972" lon="8.215691148790272"><ele>200.0</ele><time>2026-04-25T18:26:06.999Z</time></trkpt><trkpt lat="45.49206274990832" lon="8.215659736486407"><ele>200.0</ele><time>2026-04-25T18:26:07.999Z</time></trkpt><trkpt lat="45.49211239063117" lon="8.215596913363369"><ele>200.0</ele><time>2026-04-25T18:26:08.999Z</time></trkpt><trkpt lat="45.4921497161964" lon="8.215509975957149"><ele>200.00000000000003</ele><time>2026-04-25T18:26:09.999Z</time></trkpt><trkpt lat="45.49217998356192" lon="8.215405775215393"><ele>200.0</ele><time>2026-04-25T18:26:10.999Z</time></trkpt><trkpt lat="45.49222079712561" lon="8.215290592767687"><ele>200.8</ele><time>2026-04-25T18:26:11.999Z</time></trkpt><trkpt lat="45.492273448878585" lon="8.215171395431351"><ele>201.6</ele><time>2026-04-25T18:26:12.999Z</time></trkpt><trkpt lat="45.49233865224873" lon="8.215049213736563"><ele>202.39999999999998</ele><time>2026-04-25T18:26:13.999Z</time></trkpt><trkpt lat="45.49241357126446" lon="8.214921873334392"><ele>203.2</ele><time>2026-04-25T18:26:14.999Z</time></trkpt><trkpt lat="45.49249898037919" lon="8.214801470105858"><ele>204.0</ele><time>2026-04-25T18:26:15.999Z</time></trkpt><trkpt lat="45.492600186628565" lon="8.21469681861244"><ele>204.0</ele><time>2026-04-25T18:26:16.999Z</time></trkpt><trkpt lat="45.49271580189595" lon="8.214609833782118"><ele>204.0</ele><time>2026-04-25T18:26:17.999Z</time></trkpt><trkpt lat="45.49284405236448" lon="8.2145252757302"><ele>204.0</ele><time>2026-04-25T18:26:19.001Z</time></trkpt><trkpt lat="45.49298273307196" lon="8.214442630698706"><ele>204.0</ele><time>2026-04-25T18:26:20.001Z</time></trkpt><trkpt lat="45.49312877568793" lon="8.214357751929168"><ele>204.33333333333331</ele><time>2026-04-25T18:26:21.001Z</time></trkpt><trkpt lat="45.493275402970305" lon="8.21428005762853"><ele>204.66666666666666</ele><time>2026-04-25T18:26:22.001Z</time></trkpt><trkpt lat="45.49341422586867" lon="8.214210326125995"><ele>205.0</ele><time>2026-04-25T18:26:23.001Z</time></trkpt><trkpt lat="45.49355745008872" lon="8.21414044790844"><ele>205.0</ele><time>2026-04-25T18:26:24.001Z</time></trkpt><trkpt lat="45.49370689271397" lon="8.214067402344286"><ele>205.0</ele><time>2026-04-25T18:26:25.001Z</time></trkpt><trkpt lat="45.49386435016964" lon="8.21398964945156"><ele>205.0</ele><time>2026-04-25T18:26:26.001Z</time></trkpt><trkpt lat="45.494025225688745" lon="8.213908475975543"><ele>205.0</ele><time>2026-04-25T18:26:27.001Z</time></trkpt><trkpt lat="45.494193654370676" lon="8.213821936161724"><ele>205.0</ele><time>2026-04-25T18:26:28.001Z</time></trkpt><trkpt lat="45.49436622065142" lon="8.213733874609586"><ele>205.0</ele><time>2026-04-25T18:26:29.001Z</time></trkpt><trkpt lat="45.49454243428828" lon="8.213647303644441"><ele>204.66666666666666</ele><time>2026-04-25T18:26:30.001Z</time></trkpt><trkpt lat="45.49472341644776" lon="8.213559474777533"><ele>204.33333333333331</ele><time>2026-04-25T18:26:31.001Z</time></trkpt><trkpt lat="45.494905070852724" lon="8.213465305017406"><ele>204.0</ele><time>2026-04-25T18:26:32.001Z</time></trkpt><trkpt lat="45.49509068000097" lon="8.213372833951054"><ele>204.0</ele><time>2026-04-25T18:26:33.001Z</time></trkpt><trkpt lat="45.495278636001686" lon="8.213279804231119"><ele>204.0</ele><time>2026-04-25T18:26:34.001Z</time></trkpt><trkpt lat="45.4954720735999" lon="8.213185415399204"><ele>204.0</ele><time>2026-04-25T18:26:35.001Z</time></trkpt><trkpt lat="45.495666941751146" lon="8.213088405900187"><ele>205.33333333333331</ele><time>2026-04-25T18:26:36.001Z</time></trkpt><trkpt lat="45.49586447728934" lon="8.21298685186496"><ele>206.66666666666666</ele><time>2026-04-25T18:26:37.001Z</time></trkpt><trkpt lat="45.496065488420975" lon="8.21288467274507"><ele>208.0</ele><time>2026-04-25T18:26:38.001Z</time></trkpt><trkpt lat="45.49626655617112" lon="8.212782924058061"><ele>208.33333333333331</ele><time>2026-04-25T18:26:39.001Z</time></trkpt><trkpt lat="45.49646731118786" lon="8.21268295081775"><ele>208.66666666666669</ele><time>2026-04-25T18:26:40.001Z</time></trkpt><trkpt lat="45.49666650684352" lon="8.212585610282474"><ele>209.0</ele><time>2026-04-25T18:26:41.001Z</time></trkpt><trkpt lat="45.49686358918759" lon="8.212484905195616"><ele>209.0</ele><time>2026-04-25T18:26:42.001Z</time></trkpt><trkpt lat="45.497061994028535" lon="8.21238332249252"><ele>209.0</ele><time>2026-04-25T18:26:43.001Z</time></trkpt><trkpt lat="45.49726043293916" lon="8.212284491231536"><ele>209.0</ele><time>2026-04-25T18:26:44.001Z</time></trkpt><trkpt lat="45.49745538354325" lon="8.212184709719724"><ele>209.33333333333334</ele><time>2026-04-25T18:26:45.001Z</time></trkpt><trkpt lat="45.49764678578206" lon="8.212086506559125"><ele>209.66666666666669</ele><time>2026-04-25T18:26:46.001Z</time></trkpt><trkpt lat="45.49783813885026" lon="8.211991328255637"><ele>210.0</ele><time>2026-04-25T18:26:47.001Z</time></trkpt><trkpt lat="45.498032716357535" lon="8.211898908136883"><ele>209.33333333333331</ele><time>2026-04-25T18:26:48.001Z</time></trkpt><trkpt lat="45.49822620857698" lon="8.211806822903913"><ele>208.66666666666666</ele><time>2026-04-25T18:26:49.001Z</time></trkpt><trkpt lat="45.498416230552436" lon="8.211712856856266"><ele>208.0</ele><time>2026-04-25T18:26:50.001Z</time></trkpt><trkpt lat="45.49860603354527" lon="8.211615234704247"><ele>208.0</ele><time>2026-04-25T18:26:51.001Z</time></trkpt><trkpt lat="45.498793596811645" lon="8.211518318571503"><ele>208.0</ele><time>2026-04-25T18:26:52.001Z</time></trkpt><trkpt lat="45.49897823253677" lon="8.211420280982166"><ele>208.0</ele><time>2026-04-25T18:26:53.001Z</time></trkpt><trkpt lat="45.49916055792262" lon="8.211323105515707"><ele>208.0</ele><time>2026-04-25T18:26:54.001Z</time></trkpt><trkpt lat="45.49934173675552" lon="8.211230794674085"><ele>208.0</ele><time>2026-04-25T18:26:55.001Z</time></trkpt><trkpt lat="45.49952056487648" lon="8.211142855299242"><ele>208.0</ele><time>2026-04-25T18:26:56.001Z</time></trkpt><trkpt lat="45.49969736389669" lon="8.21105455879324"><ele>208.33333333333331</ele><time>2026-04-25T18:26:57.001Z</time></trkpt><trkpt lat="45.499871137840145" lon="8.210967524989599"><ele>208.66666666666669</ele><time>2026-04-25T18:26:58.001Z</time></trkpt><trkpt lat="45.50004105391075" lon="8.210879890437294"><ele>209.0</ele><time>2026-04-25T18:26:59.001Z</time></trkpt><trkpt lat="45.50020974936206" lon="8.210794298978579"><ele>209.0</ele><time>2026-04-25T18:27:00.001Z</time></trkpt><trkpt lat="45.500377926417556" lon="8.210706653597548"><ele>209.0</ele><time>2026-04-25T18:27:01.001Z</time></trkpt><trkpt lat="45.50054454428459" lon="8.21061607519361"><ele>209.0</ele><time>2026-04-25T18:27:02.001Z</time></trkpt><trkpt lat="45.500711536284456" lon="8.210529855910945"><ele>209.66666666666669</ele><time>2026-04-25T18:27:03.001Z</time></trkpt><trkpt lat="45.500879372601645" lon="8.210444970380205"><ele>210.33333333333331</ele><time>2026-04-25T18:27:04.001Z</time></trkpt><trkpt lat="45.50104198991425" lon="8.210363236706256"><ele>211.0</ele><time>2026-04-25T18:27:05.001Z</time></trkpt><trkpt lat="45.50120211231635" lon="8.210312709456192"><ele>210.75</ele><time>2026-04-25T18:27:06.001Z</time></trkpt><trkpt lat="45.50134881377051" lon="8.21023792413963"><ele>210.5</ele><time>2026-04-25T18:27:07.001Z</time></trkpt><trkpt lat="45.50148702340803" lon="8.210167467774328"><ele>210.25</ele><time>2026-04-25T18:27:08.001Z</time></trkpt><trkpt lat="45.50161719264858" lon="8.210101110235021"><ele>210.0</ele><time>2026-04-25T18:27:09.001Z</time></trkpt><trkpt lat="45.5017394945139" lon="8.210038941427026"><ele>210.0</ele><time>2026-04-25T18:27:10.001Z</time></trkpt><trkpt lat="45.501852291689445" lon="8.209981691912045"><ele>210.0</ele><time>2026-04-25T18:27:11.001Z</time></trkpt><trkpt lat="45.50195708478141" lon="8.209928504815066"><ele>210.0</ele><time>2026-04-25T18:27:12.001Z</time></trkpt><trkpt lat="45.50204894530203" lon="8.209858846440317"><ele>210.0</ele><time>2026-04-25T18:27:13.001Z</time></trkpt><trkpt lat="45.5021371045527" lon="8.209838815508421"><ele>210.0</ele><time>2026-04-25T18:27:14.001Z</time></trkpt><trkpt lat="45.502222386547544" lon="8.209800439098789"><ele>210.0</ele><time>2026-04-25T18:27:15.001Z</time></trkpt><trkpt lat="45.50231366432545" lon="8.209754153307795"><ele>210.0</ele><time>2026-04-25T18:27:16.001Z</time></trkpt><trkpt lat="45.50241774924275" lon="8.209701038286086"><ele>210.0</ele><time>2026-04-25T18:27:17.001Z</time></trkpt><trkpt lat="45.50253350832046" lon="8.209638022533461"><ele>210.0</ele><time>2026-04-25T18:27:18Z</time></trkpt><trkpt lat="45.502660526605645" lon="8.209567675382537"><ele>210.0</ele><time>2026-04-25T18:27:19Z</time></trkpt><trkpt lat="45.50279879470649" lon="8.209494466914908"><ele>210.0</ele><time>2026-04-25T18:27:20Z</time></trkpt><trkpt lat="45.502947304636024" lon="8.209417319206002"><ele>210.0</ele><time>2026-04-25T18:27:21Z</time></trkpt><trkpt lat="45.50310270451668" lon="8.209338903451041"><ele>210.66666666666669</ele><time>2026-04-25T18:27:22Z</time></trkpt><trkpt lat="45.5032676019605" lon="8.209256214487196"><ele>211.33333333333334</ele><time>2026-04-25T18:27:23Z</time></trkpt><trkpt lat="45.50343652535941" lon="8.209168129343066"><ele>212.0</ele><time>2026-04-25T18:27:24Z</time></trkpt><trkpt lat="45.50360932342296" lon="8.20908051654725"><ele>211.66666666666669</ele><time>2026-04-25T18:27:25Z</time></trkpt><trkpt lat="45.50377924457746" lon="8.208994395624618"><ele>211.33333333333331</ele><time>2026-04-25T18:27:26Z</time></trkpt><trkpt lat="45.50394235985458" lon="8.208914736445449"><ele>211.0</ele><time>2026-04-25T18:27:27Z</time></trkpt><trkpt lat="45.50410234624823" lon="8.208842478018227"><ele>211.0</ele><time>2026-04-25T18:27:28Z</time></trkpt><trkpt lat="45.504252936365596" lon="8.208770003978515"><ele>211.0</ele><time>2026-04-25T18:27:29Z</time></trkpt><trkpt lat="45.50439638307827" lon="8.208704207648731"><ele>211.0</ele><time>2026-04-25T18:27:30Z</time></trkpt><trkpt lat="45.504533790156785" lon="8.208637253590826"><ele>210.5</ele><time>2026-04-25T18:27:31Z</time></trkpt><trkpt lat="45.504664361157275" lon="8.20857831650977"><ele>210.0</ele><time>2026-04-25T18:27:32Z</time></trkpt><trkpt lat="45.50478722721194" lon="8.20851881150128"><ele>209.5</ele><time>2026-04-25T18:27:33Z</time></trkpt><trkpt lat="45.50490401161564" lon="8.208457520242197"><ele>209.0</ele><time>2026-04-25T18:27:34Z</time></trkpt><trkpt lat="45.505010517662605" lon="8.20839782226741"><ele>209.0</ele><time>2026-04-25T18:27:35Z</time></trkpt><trkpt lat="45.50511190952466" lon="8.208340980162935"><ele>209.0</ele><time>2026-04-25T18:27:36Z</time></trkpt><trkpt lat="45.505211470856736" lon="8.208288158447493"><ele>209.0</ele><time>2026-04-25T18:27:37Z</time></trkpt><trkpt lat="45.50531372922773" lon="8.20823689187383"><ele>209.0</ele><time>2026-04-25T18:27:38Z</time></trkpt><trkpt lat="45.50542096781275" lon="8.20818477683193"><ele>209.0</ele><time>2026-04-25T18:27:39Z</time></trkpt><trkpt lat="45.50553057189794" lon="8.208127558934478"><ele>209.25</ele><time>2026-04-25T18:27:40Z</time></trkpt><trkpt lat="45.505644345395076" lon="8.208068002395578"><ele>209.5</ele><time>2026-04-25T18:27:41Z</time></trkpt><trkpt lat="45.50575954015025" lon="8.208008227149936"><ele>209.75</ele><time>2026-04-25T18:27:42Z</time></trkpt><trkpt lat="45.505879080337735" lon="8.20797112050328"><ele>210.0</ele><time>2026-04-25T18:27:43Z</time></trkpt><trkpt lat="45.5059813466765" lon="8.20793220578677"><ele>210.0</ele><time>2026-04-25T18:27:44Z</time></trkpt><trkpt lat="45.50607481467213" lon="8.207897756999056"><ele>210.0</ele><time>2026-04-25T18:27:45Z</time></trkpt><trkpt lat="45.50615944715542" lon="8.207860656847767"><ele>210.0</ele><time>2026-04-25T18:27:46Z</time></trkpt><trkpt lat="45.50623724907604" lon="8.20782581312576"><ele>210.0</ele><time>2026-04-25T18:27:47Z</time></trkpt><trkpt lat="45.506303374403466" lon="8.207799257459925"><ele>210.0</ele><time>2026-04-25T18:27:48Z</time></trkpt><trkpt lat="45.50636630719138" lon="8.207776235526158"><ele>210.0</ele><time>2026-04-25T18:27:49Z</time></trkpt><trkpt lat="45.506427334653274" lon="8.207750647552528"><ele>209.85714285714286</ele><time>2026-04-25T18:27:50Z</time></trkpt><trkpt lat="45.506491047356974" lon="8.207723073055579"><ele>209.71428571428572</ele><time>2026-04-25T18:27:51Z</time></trkpt><trkpt lat="45.506568688554765" lon="8.207706601544718"><ele>209.57142857142856</ele><time>2026-04-25T18:27:52Z</time></trkpt><trkpt lat="45.506649181280636" lon="8.207705905690991"><ele>209.42857142857144</ele><time>2026-04-25T18:27:53Z</time></trkpt><trkpt lat="45.5067228087009" lon="8.207687983974328"><ele>209.28571428571428</ele><time>2026-04-25T18:27:54Z</time></trkpt><trkpt lat="45.50678677696568" lon="8.207699867138299"><ele>209.14285714285714</ele><time>2026-04-25T18:27:55Z</time></trkpt><trkpt lat="45.50686233598265" lon="8.207691411227616"><ele>209.0</ele><time>2026-04-25T18:27:57Z</time></trkpt><trkpt lat="45.506872576048664" lon="8.20749517075694"><ele>209.0</ele><time>2026-04-25T18:28:00Z</time></trkpt><trkpt lat="45.506861333490235" lon="8.207379658198947"><ele>209.0</ele><time>2026-04-25T18:28:02Z</time></trkpt><trkpt lat="45.506859289629276" lon="8.207272237730358"><ele>217.0</ele><time>2026-04-25T18:28:04Z</time></trkpt><trkpt lat="45.50692174681407" lon="8.207243233522826"><ele>217.0</ele><time>2026-04-25T18:28:07Z</time></trkpt></trkseg></trk></gpx>